<?xml version="1.0" encoding="UTF-8" standalone="no" ?>
<gpx xmlns="http://www.topografix.com/GPX/1/1" xmlns:xsi="http://www.w3.org/2001/XMLSchema-instance" xsi:schemaLocation="http://www.topografix.com/GPX/1/1 http://www.topografix.com/GPX/1/1/gpx.xsd" version="1.1" creator="VisuGPX - https://www.visugpx.com">
  <metadata>
    <name>VTT Grabels 30/05/2013</name>
    <desc><![CDATA[Grabels vtt 30/05/2013]]></desc>
  </metadata>
  <trk>
    <name><![CDATA[VTT Grabels 30/05/2013_1]]></name>
    <trkseg>
      <trkpt lat="43.63752" lon="3.82855">
        <ele>138.5</ele>
        <time>2013-05-30T12:16:49.26</time>
      </trkpt>
      <trkpt lat="43.63752" lon="3.82855">
        <ele>138.5</ele>
        <time>2013-05-30T12:16:49.98</time>
      </trkpt>
      <trkpt lat="43.63755" lon="3.82855">
        <ele>134.5</ele>
        <time>2013-05-30T12:16:50.98</time>
      </trkpt>
      <trkpt lat="43.63757" lon="3.82856">
        <ele>134.5</ele>
        <time>2013-05-30T12:16:51.98</time>
      </trkpt>
      <trkpt lat="43.63757" lon="3.82857">
        <ele>134</ele>
        <time>2013-05-30T12:16:52.98</time>
      </trkpt>
      <trkpt lat="43.63758" lon="3.82857">
        <ele>134.5</ele>
        <time>2013-05-30T12:16:53.98</time>
      </trkpt>
      <trkpt lat="43.63759" lon="3.82857">
        <ele>134.5</ele>
        <time>2013-05-30T12:16:54.98</time>
      </trkpt>
      <trkpt lat="43.63761" lon="3.82857">
        <ele>134.5</ele>
        <time>2013-05-30T12:16:55.98</time>
      </trkpt>
      <trkpt lat="43.63763" lon="3.82857">
        <ele>134.5</ele>
        <time>2013-05-30T12:16:56.98</time>
      </trkpt>
      <trkpt lat="43.63764" lon="3.82858">
        <ele>134</ele>
        <time>2013-05-30T12:16:57.98</time>
      </trkpt>
      <trkpt lat="43.63766" lon="3.82858">
        <ele>134</ele>
        <time>2013-05-30T12:16:58.98</time>
      </trkpt>
      <trkpt lat="43.63768" lon="3.82857">
        <ele>134</ele>
        <time>2013-05-30T12:16:59.98</time>
      </trkpt>
      <trkpt lat="43.63769" lon="3.82856">
        <ele>134</ele>
        <time>2013-05-30T12:17:00.98</time>
      </trkpt>
      <trkpt lat="43.63766" lon="3.82854">
        <ele>133.5</ele>
        <time>2013-05-30T12:17:01.98</time>
      </trkpt>
      <trkpt lat="43.63758" lon="3.8285">
        <ele>133.5</ele>
        <time>2013-05-30T12:17:04.5</time>
      </trkpt>
      <trkpt lat="43.63755" lon="3.82846">
        <ele>133</ele>
        <time>2013-05-30T12:17:04.98</time>
      </trkpt>
      <trkpt lat="43.63752" lon="3.82843">
        <ele>133</ele>
        <time>2013-05-30T12:17:05.98</time>
      </trkpt>
      <trkpt lat="43.63752" lon="3.82837">
        <ele>133</ele>
        <time>2013-05-30T12:17:06.99</time>
      </trkpt>
      <trkpt lat="43.63744" lon="3.82832">
        <ele>132.5</ele>
        <time>2013-05-30T12:17:09.25</time>
      </trkpt>
      <trkpt lat="43.63745" lon="3.82826">
        <ele>132.5</ele>
        <time>2013-05-30T12:17:10.98</time>
      </trkpt>
      <trkpt lat="43.63754" lon="3.82825">
        <ele>132.5</ele>
        <time>2013-05-30T12:17:12.98</time>
      </trkpt>
      <trkpt lat="43.63758" lon="3.82824">
        <ele>132.5</ele>
        <time>2013-05-30T12:17:13.98</time>
      </trkpt>
      <trkpt lat="43.63762" lon="3.82824">
        <ele>132.5</ele>
        <time>2013-05-30T12:17:14.99</time>
      </trkpt>
      <trkpt lat="43.63767" lon="3.82822">
        <ele>133</ele>
        <time>2013-05-30T12:17:15.98</time>
      </trkpt>
      <trkpt lat="43.63772" lon="3.82821">
        <ele>133</ele>
        <time>2013-05-30T12:17:16.99</time>
      </trkpt>
      <trkpt lat="43.63775" lon="3.82819">
        <ele>133</ele>
        <time>2013-05-30T12:17:17.98</time>
      </trkpt>
      <trkpt lat="43.63779" lon="3.82817">
        <ele>133</ele>
        <time>2013-05-30T12:17:18.98</time>
      </trkpt>
      <trkpt lat="43.63783" lon="3.82816">
        <ele>133</ele>
        <time>2013-05-30T12:17:19.98</time>
      </trkpt>
      <trkpt lat="43.63785" lon="3.82817">
        <ele>133</ele>
        <time>2013-05-30T12:17:20.98</time>
      </trkpt>
      <trkpt lat="43.6381" lon="3.82793">
        <ele>133.5</ele>
        <time>2013-05-30T12:17:24.98</time>
      </trkpt>
      <trkpt lat="43.63823" lon="3.82788">
        <ele>133.5</ele>
        <time>2013-05-30T12:17:26.99</time>
      </trkpt>
      <trkpt lat="43.63834" lon="3.82785">
        <ele>133.5</ele>
        <time>2013-05-30T12:17:28.98</time>
      </trkpt>
      <trkpt lat="43.63838" lon="3.82785">
        <ele>133.5</ele>
        <time>2013-05-30T12:17:29.98</time>
      </trkpt>
      <trkpt lat="43.63852" lon="3.82778">
        <ele>133.5</ele>
        <time>2013-05-30T12:17:31.98</time>
      </trkpt>
      <trkpt lat="43.63857" lon="3.82774">
        <ele>133.5</ele>
        <time>2013-05-30T12:17:32.97</time>
      </trkpt>
      <trkpt lat="43.63862" lon="3.82771">
        <ele>133.5</ele>
        <time>2013-05-30T12:17:33.98</time>
      </trkpt>
      <trkpt lat="43.63867" lon="3.82768">
        <ele>133.5</ele>
        <time>2013-05-30T12:17:34.98</time>
      </trkpt>
      <trkpt lat="43.63871" lon="3.82765">
        <ele>133.5</ele>
        <time>2013-05-30T12:17:35.99</time>
      </trkpt>
      <trkpt lat="43.63875" lon="3.82762">
        <ele>133.5</ele>
        <time>2013-05-30T12:17:36.98</time>
      </trkpt>
      <trkpt lat="43.6388" lon="3.82758">
        <ele>133.5</ele>
        <time>2013-05-30T12:17:37.98</time>
      </trkpt>
      <trkpt lat="43.63883" lon="3.82755">
        <ele>133.5</ele>
        <time>2013-05-30T12:17:38.97</time>
      </trkpt>
      <trkpt lat="43.63887" lon="3.82753">
        <ele>133.5</ele>
        <time>2013-05-30T12:17:39.98</time>
      </trkpt>
      <trkpt lat="43.63892" lon="3.82753">
        <ele>133.5</ele>
        <time>2013-05-30T12:17:40.99</time>
      </trkpt>
      <trkpt lat="43.63897" lon="3.82756">
        <ele>133.5</ele>
        <time>2013-05-30T12:17:41.98</time>
      </trkpt>
      <trkpt lat="43.63896" lon="3.82769">
        <ele>133.5</ele>
        <time>2013-05-30T12:17:43.98</time>
      </trkpt>
      <trkpt lat="43.63897" lon="3.82776">
        <ele>133.5</ele>
        <time>2013-05-30T12:17:44.98</time>
      </trkpt>
      <trkpt lat="43.63898" lon="3.82781">
        <ele>133.5</ele>
        <time>2013-05-30T12:17:45.98</time>
      </trkpt>
      <trkpt lat="43.63899" lon="3.82785">
        <ele>133.5</ele>
        <time>2013-05-30T12:17:46.98</time>
      </trkpt>
      <trkpt lat="43.63902" lon="3.82788">
        <ele>133.5</ele>
        <time>2013-05-30T12:17:47.98</time>
      </trkpt>
      <trkpt lat="43.63904" lon="3.82791">
        <ele>133.5</ele>
        <time>2013-05-30T12:17:48.98</time>
      </trkpt>
      <trkpt lat="43.63905" lon="3.82793">
        <ele>133.5</ele>
        <time>2013-05-30T12:17:50.5</time>
      </trkpt>
      <trkpt lat="43.63907" lon="3.82795">
        <ele>133.5</ele>
        <time>2013-05-30T12:17:50.97</time>
      </trkpt>
      <trkpt lat="43.6391" lon="3.82796">
        <ele>133.5</ele>
        <time>2013-05-30T12:17:52.57</time>
      </trkpt>
      <trkpt lat="43.63912" lon="3.82796">
        <ele>133.5</ele>
        <time>2013-05-30T12:17:53.70</time>
      </trkpt>
      <trkpt lat="43.63921" lon="3.82794">
        <ele>133.5</ele>
        <time>2013-05-30T12:17:55.65</time>
      </trkpt>
      <trkpt lat="43.63924" lon="3.82795">
        <ele>133.5</ele>
        <time>2013-05-30T12:17:56.56</time>
      </trkpt>
      <trkpt lat="43.63927" lon="3.82799">
        <ele>133.5</ele>
        <time>2013-05-30T12:17:57.55</time>
      </trkpt>
      <trkpt lat="43.63929" lon="3.82804">
        <ele>133.5</ele>
        <time>2013-05-30T12:17:58.56</time>
      </trkpt>
      <trkpt lat="43.6393" lon="3.82809">
        <ele>133.5</ele>
        <time>2013-05-30T12:17:59.56</time>
      </trkpt>
      <trkpt lat="43.63929" lon="3.82814">
        <ele>133.5</ele>
        <time>2013-05-30T12:18:00.56</time>
      </trkpt>
      <trkpt lat="43.63929" lon="3.82817">
        <ele>133.5</ele>
        <time>2013-05-30T12:18:01.55</time>
      </trkpt>
      <trkpt lat="43.63927" lon="3.82818">
        <ele>133</ele>
        <time>2013-05-30T12:18:02.55</time>
      </trkpt>
      <trkpt lat="43.63935" lon="3.82813">
        <ele>133</ele>
        <time>2013-05-30T12:18:04.56</time>
      </trkpt>
      <trkpt lat="43.63937" lon="3.82811">
        <ele>133</ele>
        <time>2013-05-30T12:18:05.56</time>
      </trkpt>
      <trkpt lat="43.6394" lon="3.82809">
        <ele>133</ele>
        <time>2013-05-30T12:18:06.55</time>
      </trkpt>
      <trkpt lat="43.63945" lon="3.82807">
        <ele>133</ele>
        <time>2013-05-30T12:18:07.56</time>
      </trkpt>
      <trkpt lat="43.63948" lon="3.82804">
        <ele>133</ele>
        <time>2013-05-30T12:18:08.56</time>
      </trkpt>
      <trkpt lat="43.63952" lon="3.82801">
        <ele>133</ele>
        <time>2013-05-30T12:18:09.56</time>
      </trkpt>
      <trkpt lat="43.63955" lon="3.82799">
        <ele>133</ele>
        <time>2013-05-30T12:18:10.55</time>
      </trkpt>
      <trkpt lat="43.63952" lon="3.82799">
        <ele>133</ele>
        <time>2013-05-30T12:18:11.58</time>
      </trkpt>
      <trkpt lat="43.63958" lon="3.82794">
        <ele>133</ele>
        <time>2013-05-30T12:18:13.55</time>
      </trkpt>
      <trkpt lat="43.63962" lon="3.82791">
        <ele>133</ele>
        <time>2013-05-30T12:18:15.56</time>
      </trkpt>
      <trkpt lat="43.63967" lon="3.82786">
        <ele>133</ele>
        <time>2013-05-30T12:18:17.56</time>
      </trkpt>
      <trkpt lat="43.63971" lon="3.82784">
        <ele>133</ele>
        <time>2013-05-30T12:18:18.56</time>
      </trkpt>
      <trkpt lat="43.63974" lon="3.82781">
        <ele>133</ele>
        <time>2013-05-30T12:18:19.56</time>
      </trkpt>
      <trkpt lat="43.63978" lon="3.82777">
        <ele>133</ele>
        <time>2013-05-30T12:18:21.56</time>
      </trkpt>
      <trkpt lat="43.6398" lon="3.82776">
        <ele>133</ele>
        <time>2013-05-30T12:18:22.55</time>
      </trkpt>
      <trkpt lat="43.63982" lon="3.82774">
        <ele>133</ele>
        <time>2013-05-30T12:18:23.56</time>
      </trkpt>
      <trkpt lat="43.63983" lon="3.82773">
        <ele>133</ele>
        <time>2013-05-30T12:18:24.56</time>
      </trkpt>
      <trkpt lat="43.63992" lon="3.82775">
        <ele>133</ele>
        <time>2013-05-30T12:18:26.56</time>
      </trkpt>
      <trkpt lat="43.64015" lon="3.82773">
        <ele>133</ele>
        <time>2013-05-30T12:18:29.56</time>
      </trkpt>
      <trkpt lat="43.64019" lon="3.82771">
        <ele>133</ele>
        <time>2013-05-30T12:18:30.55</time>
      </trkpt>
      <trkpt lat="43.64023" lon="3.82769">
        <ele>133</ele>
        <time>2013-05-30T12:18:31.56</time>
      </trkpt>
      <trkpt lat="43.64026" lon="3.82767">
        <ele>133</ele>
        <time>2013-05-30T12:18:32.56</time>
      </trkpt>
      <trkpt lat="43.6403" lon="3.82763">
        <ele>133</ele>
        <time>2013-05-30T12:18:33.55</time>
      </trkpt>
      <trkpt lat="43.64036" lon="3.82756">
        <ele>133</ele>
        <time>2013-05-30T12:18:35.56</time>
      </trkpt>
      <trkpt lat="43.64039" lon="3.82755">
        <ele>133</ele>
        <time>2013-05-30T12:18:36.56</time>
      </trkpt>
      <trkpt lat="43.64041" lon="3.82754">
        <ele>133</ele>
        <time>2013-05-30T12:18:37.57</time>
      </trkpt>
      <trkpt lat="43.64044" lon="3.82753">
        <ele>133</ele>
        <time>2013-05-30T12:18:38.56</time>
      </trkpt>
      <trkpt lat="43.64046" lon="3.8275">
        <ele>133</ele>
        <time>2013-05-30T12:18:39.56</time>
      </trkpt>
      <trkpt lat="43.64048" lon="3.82748">
        <ele>133</ele>
        <time>2013-05-30T12:18:41.56</time>
      </trkpt>
      <trkpt lat="43.64051" lon="3.82745">
        <ele>133</ele>
        <time>2013-05-30T12:18:42.57</time>
      </trkpt>
      <trkpt lat="43.64054" lon="3.82742">
        <ele>133</ele>
        <time>2013-05-30T12:18:43.56</time>
      </trkpt>
      <trkpt lat="43.64064" lon="3.82736">
        <ele>133</ele>
        <time>2013-05-30T12:18:45.62</time>
      </trkpt>
      <trkpt lat="43.64066" lon="3.82734">
        <ele>133</ele>
        <time>2013-05-30T12:18:46.56</time>
      </trkpt>
      <trkpt lat="43.64069" lon="3.82731">
        <ele>133</ele>
        <time>2013-05-30T12:18:47.56</time>
      </trkpt>
      <trkpt lat="43.64074" lon="3.82726">
        <ele>133</ele>
        <time>2013-05-30T12:18:48.56</time>
      </trkpt>
      <trkpt lat="43.64081" lon="3.82722">
        <ele>133</ele>
        <time>2013-05-30T12:18:50.56</time>
      </trkpt>
      <trkpt lat="43.64085" lon="3.8272">
        <ele>133.5</ele>
        <time>2013-05-30T12:18:51.56</time>
      </trkpt>
      <trkpt lat="43.64088" lon="3.82717">
        <ele>133.5</ele>
        <time>2013-05-30T12:18:52.55</time>
      </trkpt>
      <trkpt lat="43.64093" lon="3.82715">
        <ele>133.5</ele>
        <time>2013-05-30T12:18:53.56</time>
      </trkpt>
      <trkpt lat="43.64097" lon="3.82712">
        <ele>133.5</ele>
        <time>2013-05-30T12:18:54.56</time>
      </trkpt>
      <trkpt lat="43.641" lon="3.82709">
        <ele>133.5</ele>
        <time>2013-05-30T12:18:55.55</time>
      </trkpt>
      <trkpt lat="43.64103" lon="3.82707">
        <ele>133.5</ele>
        <time>2013-05-30T12:18:56.56</time>
      </trkpt>
      <trkpt lat="43.64106" lon="3.82704">
        <ele>133.5</ele>
        <time>2013-05-30T12:18:57.56</time>
      </trkpt>
      <trkpt lat="43.64109" lon="3.827">
        <ele>133.5</ele>
        <time>2013-05-30T12:18:58.56</time>
      </trkpt>
      <trkpt lat="43.64113" lon="3.82697">
        <ele>133.5</ele>
        <time>2013-05-30T12:18:59.55</time>
      </trkpt>
      <trkpt lat="43.64115" lon="3.82694">
        <ele>133.5</ele>
        <time>2013-05-30T12:19:00.56</time>
      </trkpt>
      <trkpt lat="43.64118" lon="3.82692">
        <ele>133.5</ele>
        <time>2013-05-30T12:19:01.56</time>
      </trkpt>
      <trkpt lat="43.64121" lon="3.82689">
        <ele>133.5</ele>
        <time>2013-05-30T12:19:02.57</time>
      </trkpt>
      <trkpt lat="43.64124" lon="3.82686">
        <ele>133.5</ele>
        <time>2013-05-30T12:19:03.56</time>
      </trkpt>
      <trkpt lat="43.64127" lon="3.82683">
        <ele>133.5</ele>
        <time>2013-05-30T12:19:04.57</time>
      </trkpt>
      <trkpt lat="43.6413" lon="3.8268">
        <ele>133.5</ele>
        <time>2013-05-30T12:19:05.56</time>
      </trkpt>
      <trkpt lat="43.64132" lon="3.82679">
        <ele>133.5</ele>
        <time>2013-05-30T12:19:06.56</time>
      </trkpt>
      <trkpt lat="43.64135" lon="3.82676">
        <ele>133.5</ele>
        <time>2013-05-30T12:19:07.56</time>
      </trkpt>
      <trkpt lat="43.64137" lon="3.82674">
        <ele>133.5</ele>
        <time>2013-05-30T12:19:08.56</time>
      </trkpt>
      <trkpt lat="43.64139" lon="3.82673">
        <ele>133.5</ele>
        <time>2013-05-30T12:19:09.55</time>
      </trkpt>
      <trkpt lat="43.64142" lon="3.8267">
        <ele>133.5</ele>
        <time>2013-05-30T12:19:10.56</time>
      </trkpt>
      <trkpt lat="43.64144" lon="3.82669">
        <ele>133.5</ele>
        <time>2013-05-30T12:19:11.56</time>
      </trkpt>
      <trkpt lat="43.64148" lon="3.82665">
        <ele>133.5</ele>
        <time>2013-05-30T12:19:12.56</time>
      </trkpt>
      <trkpt lat="43.64151" lon="3.82662">
        <ele>133.5</ele>
        <time>2013-05-30T12:19:13.56</time>
      </trkpt>
      <trkpt lat="43.64153" lon="3.8266">
        <ele>133.5</ele>
        <time>2013-05-30T12:19:14.56</time>
      </trkpt>
      <trkpt lat="43.64156" lon="3.82656">
        <ele>133.5</ele>
        <time>2013-05-30T12:19:15.60</time>
      </trkpt>
      <trkpt lat="43.64159" lon="3.82653">
        <ele>133.5</ele>
        <time>2013-05-30T12:19:16.56</time>
      </trkpt>
      <trkpt lat="43.64162" lon="3.82649">
        <ele>133.5</ele>
        <time>2013-05-30T12:19:17.56</time>
      </trkpt>
      <trkpt lat="43.64166" lon="3.82645">
        <ele>133.5</ele>
        <time>2013-05-30T12:19:18.56</time>
      </trkpt>
      <trkpt lat="43.64168" lon="3.82642">
        <ele>133.5</ele>
        <time>2013-05-30T12:19:19.56</time>
      </trkpt>
      <trkpt lat="43.64171" lon="3.82638">
        <ele>133.5</ele>
        <time>2013-05-30T12:19:20.56</time>
      </trkpt>
      <trkpt lat="43.64174" lon="3.82635">
        <ele>133.5</ele>
        <time>2013-05-30T12:19:21.57</time>
      </trkpt>
      <trkpt lat="43.64179" lon="3.82635">
        <ele>133.5</ele>
        <time>2013-05-30T12:19:22.56</time>
      </trkpt>
      <trkpt lat="43.64183" lon="3.82635">
        <ele>133.5</ele>
        <time>2013-05-30T12:19:23.56</time>
      </trkpt>
      <trkpt lat="43.64187" lon="3.82635">
        <ele>133.5</ele>
        <time>2013-05-30T12:19:24.56</time>
      </trkpt>
      <trkpt lat="43.64191" lon="3.82633">
        <ele>133.5</ele>
        <time>2013-05-30T12:19:26.55</time>
      </trkpt>
      <trkpt lat="43.64194" lon="3.82631">
        <ele>133.5</ele>
        <time>2013-05-30T12:19:27.56</time>
      </trkpt>
      <trkpt lat="43.64199" lon="3.82631">
        <ele>133.5</ele>
        <time>2013-05-30T12:19:28.55</time>
      </trkpt>
      <trkpt lat="43.64205" lon="3.82635">
        <ele>133.5</ele>
        <time>2013-05-30T12:19:30.38</time>
      </trkpt>
      <trkpt lat="43.64209" lon="3.82637">
        <ele>133.5</ele>
        <time>2013-05-30T12:19:31.24</time>
      </trkpt>
      <trkpt lat="43.64214" lon="3.82639">
        <ele>133.5</ele>
        <time>2013-05-30T12:19:32.23</time>
      </trkpt>
      <trkpt lat="43.64219" lon="3.82641">
        <ele>133.5</ele>
        <time>2013-05-30T12:19:33.22</time>
      </trkpt>
      <trkpt lat="43.64224" lon="3.82643">
        <ele>133.5</ele>
        <time>2013-05-30T12:19:34.23</time>
      </trkpt>
      <trkpt lat="43.6423" lon="3.82647">
        <ele>133.5</ele>
        <time>2013-05-30T12:19:35.24</time>
      </trkpt>
      <trkpt lat="43.64235" lon="3.8265">
        <ele>133.5</ele>
        <time>2013-05-30T12:19:36.22</time>
      </trkpt>
      <trkpt lat="43.6424" lon="3.82653">
        <ele>133.5</ele>
        <time>2013-05-30T12:19:37.23</time>
      </trkpt>
      <trkpt lat="43.64246" lon="3.82654">
        <ele>133.5</ele>
        <time>2013-05-30T12:19:38.23</time>
      </trkpt>
      <trkpt lat="43.64252" lon="3.82656">
        <ele>133.5</ele>
        <time>2013-05-30T12:19:39.23</time>
      </trkpt>
      <trkpt lat="43.64258" lon="3.82655">
        <ele>133.5</ele>
        <time>2013-05-30T12:19:40.23</time>
      </trkpt>
      <trkpt lat="43.64264" lon="3.82653">
        <ele>133.5</ele>
        <time>2013-05-30T12:19:41.23</time>
      </trkpt>
      <trkpt lat="43.64269" lon="3.82651">
        <ele>133.5</ele>
        <time>2013-05-30T12:19:42.34</time>
      </trkpt>
      <trkpt lat="43.64289" lon="3.82666">
        <ele>133.5</ele>
        <time>2013-05-30T12:19:55.23</time>
      </trkpt>
      <trkpt lat="43.6438" lon="3.8262">
        <ele>133</ele>
        <time>2013-05-30T12:20:09.23</time>
      </trkpt>
      <trkpt lat="43.64387" lon="3.82738">
        <ele>134</ele>
        <time>2013-05-30T12:20:20.25</time>
      </trkpt>
      <trkpt lat="43.64366" lon="3.82755">
        <ele>134.5</ele>
        <time>2013-05-30T12:20:22.24</time>
      </trkpt>
      <trkpt lat="43.64376" lon="3.8275">
        <ele>135</ele>
        <time>2013-05-30T12:20:23.24</time>
      </trkpt>
      <trkpt lat="43.64402" lon="3.82733">
        <ele>135</ele>
        <time>2013-05-30T12:20:27.22</time>
      </trkpt>
      <trkpt lat="43.64416" lon="3.82721">
        <ele>135.5</ele>
        <time>2013-05-30T12:20:29.24</time>
      </trkpt>
      <trkpt lat="43.6443" lon="3.82713">
        <ele>136</ele>
        <time>2013-05-30T12:20:31.24</time>
      </trkpt>
      <trkpt lat="43.64442" lon="3.82709">
        <ele>136</ele>
        <time>2013-05-30T12:20:33.24</time>
      </trkpt>
      <trkpt lat="43.64445" lon="3.82707">
        <ele>136.5</ele>
        <time>2013-05-30T12:20:38.24</time>
      </trkpt>
      <trkpt lat="43.64451" lon="3.82712">
        <ele>136.5</ele>
        <time>2013-05-30T12:20:43.24</time>
      </trkpt>
      <trkpt lat="43.6446" lon="3.82719">
        <ele>136.5</ele>
        <time>2013-05-30T12:20:47.24</time>
      </trkpt>
      <trkpt lat="43.64471" lon="3.82729">
        <ele>136.5</ele>
        <time>2013-05-30T12:20:51.24</time>
      </trkpt>
      <trkpt lat="43.64485" lon="3.82733">
        <ele>136.5</ele>
        <time>2013-05-30T12:20:55.25</time>
      </trkpt>
      <trkpt lat="43.64489" lon="3.82731">
        <ele>136.5</ele>
        <time>2013-05-30T12:20:56.24</time>
      </trkpt>
      <trkpt lat="43.64492" lon="3.82729">
        <ele>136.5</ele>
        <time>2013-05-30T12:20:57.24</time>
      </trkpt>
      <trkpt lat="43.64501" lon="3.82726">
        <ele>136.5</ele>
        <time>2013-05-30T12:20:59.24</time>
      </trkpt>
      <trkpt lat="43.64505" lon="3.82725">
        <ele>136.5</ele>
        <time>2013-05-30T12:21:00.24</time>
      </trkpt>
      <trkpt lat="43.64509" lon="3.82724">
        <ele>136.5</ele>
        <time>2013-05-30T12:21:01.24</time>
      </trkpt>
      <trkpt lat="43.64513" lon="3.82723">
        <ele>136.5</ele>
        <time>2013-05-30T12:21:02.24</time>
      </trkpt>
      <trkpt lat="43.64515" lon="3.82722">
        <ele>136.5</ele>
        <time>2013-05-30T12:21:03.24</time>
      </trkpt>
      <trkpt lat="43.64519" lon="3.82722">
        <ele>136.5</ele>
        <time>2013-05-30T12:21:04.24</time>
      </trkpt>
      <trkpt lat="43.64522" lon="3.82721">
        <ele>136.5</ele>
        <time>2013-05-30T12:21:05.24</time>
      </trkpt>
      <trkpt lat="43.64525" lon="3.82721">
        <ele>136.5</ele>
        <time>2013-05-30T12:21:06.24</time>
      </trkpt>
      <trkpt lat="43.64527" lon="3.8272">
        <ele>136.5</ele>
        <time>2013-05-30T12:21:07.25</time>
      </trkpt>
      <trkpt lat="43.64531" lon="3.82716">
        <ele>136.5</ele>
        <time>2013-05-30T12:21:08.24</time>
      </trkpt>
      <trkpt lat="43.64535" lon="3.82714">
        <ele>136.5</ele>
        <time>2013-05-30T12:21:09.24</time>
      </trkpt>
      <trkpt lat="43.64539" lon="3.82711">
        <ele>136.5</ele>
        <time>2013-05-30T12:21:10.25</time>
      </trkpt>
      <trkpt lat="43.64541" lon="3.8271">
        <ele>136.5</ele>
        <time>2013-05-30T12:21:11.24</time>
      </trkpt>
      <trkpt lat="43.64549" lon="3.82702">
        <ele>136.5</ele>
        <time>2013-05-30T12:21:13.25</time>
      </trkpt>
      <trkpt lat="43.64551" lon="3.82701">
        <ele>136.5</ele>
        <time>2013-05-30T12:21:14.24</time>
      </trkpt>
      <trkpt lat="43.64553" lon="3.82701">
        <ele>136.5</ele>
        <time>2013-05-30T12:21:15.24</time>
      </trkpt>
      <trkpt lat="43.64556" lon="3.82699">
        <ele>136.5</ele>
        <time>2013-05-30T12:21:16.24</time>
      </trkpt>
      <trkpt lat="43.6456" lon="3.82697">
        <ele>136.5</ele>
        <time>2013-05-30T12:21:17.24</time>
      </trkpt>
      <trkpt lat="43.64562" lon="3.82698">
        <ele>136.5</ele>
        <time>2013-05-30T12:21:18.25</time>
      </trkpt>
      <trkpt lat="43.64564" lon="3.82699">
        <ele>137</ele>
        <time>2013-05-30T12:21:19.25</time>
      </trkpt>
      <trkpt lat="43.64567" lon="3.82698">
        <ele>137</ele>
        <time>2013-05-30T12:21:20.24</time>
      </trkpt>
      <trkpt lat="43.6457" lon="3.82698">
        <ele>137</ele>
        <time>2013-05-30T12:21:21.24</time>
      </trkpt>
      <trkpt lat="43.64573" lon="3.82695">
        <ele>137</ele>
        <time>2013-05-30T12:21:22.24</time>
      </trkpt>
      <trkpt lat="43.64576" lon="3.82694">
        <ele>137</ele>
        <time>2013-05-30T12:21:23.25</time>
      </trkpt>
      <trkpt lat="43.6458" lon="3.8269">
        <ele>137</ele>
        <time>2013-05-30T12:21:24.24</time>
      </trkpt>
      <trkpt lat="43.64584" lon="3.82686">
        <ele>137</ele>
        <time>2013-05-30T12:21:25.24</time>
      </trkpt>
      <trkpt lat="43.64586" lon="3.82684">
        <ele>137</ele>
        <time>2013-05-30T12:21:26.25</time>
      </trkpt>
      <trkpt lat="43.64584" lon="3.8269">
        <ele>137.5</ele>
        <time>2013-05-30T12:21:28.24</time>
      </trkpt>
      <trkpt lat="43.64586" lon="3.82691">
        <ele>137.5</ele>
        <time>2013-05-30T12:21:30.25</time>
      </trkpt>
      <trkpt lat="43.64588" lon="3.8269">
        <ele>137.5</ele>
        <time>2013-05-30T12:21:31.24</time>
      </trkpt>
      <trkpt lat="43.64591" lon="3.82688">
        <ele>138</ele>
        <time>2013-05-30T12:21:32.24</time>
      </trkpt>
      <trkpt lat="43.64593" lon="3.82689">
        <ele>138</ele>
        <time>2013-05-30T12:21:33.24</time>
      </trkpt>
      <trkpt lat="43.64594" lon="3.8269">
        <ele>138.5</ele>
        <time>2013-05-30T12:21:34.25</time>
      </trkpt>
      <trkpt lat="43.64596" lon="3.82691">
        <ele>138.5</ele>
        <time>2013-05-30T12:21:35.24</time>
      </trkpt>
      <trkpt lat="43.64599" lon="3.8269">
        <ele>139</ele>
        <time>2013-05-30T12:21:36.24</time>
      </trkpt>
      <trkpt lat="43.64602" lon="3.8269">
        <ele>139</ele>
        <time>2013-05-30T12:21:37.24</time>
      </trkpt>
      <trkpt lat="43.64604" lon="3.8269">
        <ele>139</ele>
        <time>2013-05-30T12:21:38.24</time>
      </trkpt>
      <trkpt lat="43.64607" lon="3.8269">
        <ele>139.5</ele>
        <time>2013-05-30T12:21:39.24</time>
      </trkpt>
      <trkpt lat="43.6461" lon="3.8269">
        <ele>140</ele>
        <time>2013-05-30T12:21:40.24</time>
      </trkpt>
      <trkpt lat="43.64613" lon="3.82689">
        <ele>140</ele>
        <time>2013-05-30T12:21:41.24</time>
      </trkpt>
      <trkpt lat="43.64615" lon="3.82689">
        <ele>140</ele>
        <time>2013-05-30T12:21:42.24</time>
      </trkpt>
      <trkpt lat="43.64618" lon="3.82689">
        <ele>140</ele>
        <time>2013-05-30T12:21:43.24</time>
      </trkpt>
      <trkpt lat="43.64621" lon="3.82688">
        <ele>140</ele>
        <time>2013-05-30T12:21:44.24</time>
      </trkpt>
      <trkpt lat="43.64624" lon="3.82687">
        <ele>140</ele>
        <time>2013-05-30T12:21:45.24</time>
      </trkpt>
      <trkpt lat="43.64627" lon="3.82685">
        <ele>140</ele>
        <time>2013-05-30T12:21:46.24</time>
      </trkpt>
      <trkpt lat="43.6463" lon="3.82683">
        <ele>140.5</ele>
        <time>2013-05-30T12:21:47.24</time>
      </trkpt>
      <trkpt lat="43.64632" lon="3.82681">
        <ele>140.5</ele>
        <time>2013-05-30T12:21:48.24</time>
      </trkpt>
      <trkpt lat="43.64635" lon="3.82678">
        <ele>140.5</ele>
        <time>2013-05-30T12:21:49.24</time>
      </trkpt>
      <trkpt lat="43.64638" lon="3.82676">
        <ele>140.5</ele>
        <time>2013-05-30T12:21:50.24</time>
      </trkpt>
      <trkpt lat="43.64642" lon="3.82674">
        <ele>141</ele>
        <time>2013-05-30T12:21:51.24</time>
      </trkpt>
      <trkpt lat="43.64646" lon="3.82671">
        <ele>142</ele>
        <time>2013-05-30T12:21:52.25</time>
      </trkpt>
      <trkpt lat="43.64649" lon="3.82669">
        <ele>142</ele>
        <time>2013-05-30T12:21:53.24</time>
      </trkpt>
      <trkpt lat="43.64652" lon="3.82668">
        <ele>142.5</ele>
        <time>2013-05-30T12:21:54.24</time>
      </trkpt>
      <trkpt lat="43.64655" lon="3.82668">
        <ele>142.5</ele>
        <time>2013-05-30T12:21:55.24</time>
      </trkpt>
      <trkpt lat="43.64659" lon="3.82667">
        <ele>142.5</ele>
        <time>2013-05-30T12:21:56.24</time>
      </trkpt>
      <trkpt lat="43.64662" lon="3.82666">
        <ele>142.5</ele>
        <time>2013-05-30T12:21:57.24</time>
      </trkpt>
      <trkpt lat="43.64665" lon="3.82664">
        <ele>143</ele>
        <time>2013-05-30T12:21:58.27</time>
      </trkpt>
      <trkpt lat="43.64668" lon="3.82663">
        <ele>143.5</ele>
        <time>2013-05-30T12:21:59.24</time>
      </trkpt>
      <trkpt lat="43.6467" lon="3.8266">
        <ele>144</ele>
        <time>2013-05-30T12:22:00.24</time>
      </trkpt>
      <trkpt lat="43.64673" lon="3.82658">
        <ele>144</ele>
        <time>2013-05-30T12:22:01.26</time>
      </trkpt>
      <trkpt lat="43.64676" lon="3.82657">
        <ele>144.5</ele>
        <time>2013-05-30T12:22:02.24</time>
      </trkpt>
      <trkpt lat="43.64678" lon="3.82655">
        <ele>145</ele>
        <time>2013-05-30T12:22:03.24</time>
      </trkpt>
      <trkpt lat="43.64682" lon="3.82654">
        <ele>145</ele>
        <time>2013-05-30T12:22:04.28</time>
      </trkpt>
      <trkpt lat="43.64685" lon="3.82652">
        <ele>145</ele>
        <time>2013-05-30T12:22:05.24</time>
      </trkpt>
      <trkpt lat="43.64689" lon="3.8265">
        <ele>145.5</ele>
        <time>2013-05-30T12:22:06.24</time>
      </trkpt>
      <trkpt lat="43.64693" lon="3.82646">
        <ele>145.5</ele>
        <time>2013-05-30T12:22:07.24</time>
      </trkpt>
      <trkpt lat="43.64696" lon="3.82644">
        <ele>146</ele>
        <time>2013-05-30T12:22:08.24</time>
      </trkpt>
      <trkpt lat="43.647" lon="3.82641">
        <ele>146</ele>
        <time>2013-05-30T12:22:09.24</time>
      </trkpt>
      <trkpt lat="43.64703" lon="3.82639">
        <ele>146</ele>
        <time>2013-05-30T12:22:10.25</time>
      </trkpt>
      <trkpt lat="43.64707" lon="3.82638">
        <ele>146.5</ele>
        <time>2013-05-30T12:22:11.24</time>
      </trkpt>
      <trkpt lat="43.6471" lon="3.82637">
        <ele>146.5</ele>
        <time>2013-05-30T12:22:12.24</time>
      </trkpt>
      <trkpt lat="43.64714" lon="3.82636">
        <ele>147</ele>
        <time>2013-05-30T12:22:13.24</time>
      </trkpt>
      <trkpt lat="43.64717" lon="3.82635">
        <ele>147</ele>
        <time>2013-05-30T12:22:14.24</time>
      </trkpt>
      <trkpt lat="43.64721" lon="3.82634">
        <ele>147.5</ele>
        <time>2013-05-30T12:22:15.24</time>
      </trkpt>
      <trkpt lat="43.64725" lon="3.82633">
        <ele>147.5</ele>
        <time>2013-05-30T12:22:16.24</time>
      </trkpt>
      <trkpt lat="43.6473" lon="3.8263">
        <ele>148.5</ele>
        <time>2013-05-30T12:22:17.24</time>
      </trkpt>
      <trkpt lat="43.64733" lon="3.82629">
        <ele>149</ele>
        <time>2013-05-30T12:22:18.24</time>
      </trkpt>
      <trkpt lat="43.64737" lon="3.82627">
        <ele>149.5</ele>
        <time>2013-05-30T12:22:19.24</time>
      </trkpt>
      <trkpt lat="43.6474" lon="3.82627">
        <ele>149.5</ele>
        <time>2013-05-30T12:22:20.24</time>
      </trkpt>
      <trkpt lat="43.64744" lon="3.82624">
        <ele>150</ele>
        <time>2013-05-30T12:22:21.24</time>
      </trkpt>
      <trkpt lat="43.64748" lon="3.82623">
        <ele>150</ele>
        <time>2013-05-30T12:22:22.24</time>
      </trkpt>
      <trkpt lat="43.64752" lon="3.82622">
        <ele>150</ele>
        <time>2013-05-30T12:22:23.24</time>
      </trkpt>
      <trkpt lat="43.64756" lon="3.82622">
        <ele>150</ele>
        <time>2013-05-30T12:22:24.24</time>
      </trkpt>
      <trkpt lat="43.6476" lon="3.8262">
        <ele>150.5</ele>
        <time>2013-05-30T12:22:25.24</time>
      </trkpt>
      <trkpt lat="43.64764" lon="3.82618">
        <ele>150.5</ele>
        <time>2013-05-30T12:22:26.24</time>
      </trkpt>
      <trkpt lat="43.64768" lon="3.82617">
        <ele>150.5</ele>
        <time>2013-05-30T12:22:27.24</time>
      </trkpt>
      <trkpt lat="43.64771" lon="3.82616">
        <ele>150.5</ele>
        <time>2013-05-30T12:22:28.24</time>
      </trkpt>
      <trkpt lat="43.64776" lon="3.82614">
        <ele>151</ele>
        <time>2013-05-30T12:22:29.24</time>
      </trkpt>
      <trkpt lat="43.64779" lon="3.82611">
        <ele>151</ele>
        <time>2013-05-30T12:22:30.24</time>
      </trkpt>
      <trkpt lat="43.64783" lon="3.82609">
        <ele>151</ele>
        <time>2013-05-30T12:22:31.24</time>
      </trkpt>
      <trkpt lat="43.64787" lon="3.82606">
        <ele>151.5</ele>
        <time>2013-05-30T12:22:32.24</time>
      </trkpt>
      <trkpt lat="43.6479" lon="3.82604">
        <ele>151.5</ele>
        <time>2013-05-30T12:22:33.24</time>
      </trkpt>
      <trkpt lat="43.64794" lon="3.82603">
        <ele>151.5</ele>
        <time>2013-05-30T12:22:34.24</time>
      </trkpt>
      <trkpt lat="43.64798" lon="3.82602">
        <ele>151.5</ele>
        <time>2013-05-30T12:22:35.24</time>
      </trkpt>
      <trkpt lat="43.64802" lon="3.82602">
        <ele>152</ele>
        <time>2013-05-30T12:22:36.25</time>
      </trkpt>
      <trkpt lat="43.64806" lon="3.82601">
        <ele>152</ele>
        <time>2013-05-30T12:22:37.24</time>
      </trkpt>
      <trkpt lat="43.6481" lon="3.82601">
        <ele>152</ele>
        <time>2013-05-30T12:22:38.24</time>
      </trkpt>
      <trkpt lat="43.64814" lon="3.82599">
        <ele>152.5</ele>
        <time>2013-05-30T12:22:39.24</time>
      </trkpt>
      <trkpt lat="43.64818" lon="3.82599">
        <ele>152.5</ele>
        <time>2013-05-30T12:22:40.24</time>
      </trkpt>
      <trkpt lat="43.64822" lon="3.82597">
        <ele>152.5</ele>
        <time>2013-05-30T12:22:41.24</time>
      </trkpt>
      <trkpt lat="43.64826" lon="3.82596">
        <ele>153</ele>
        <time>2013-05-30T12:22:42.25</time>
      </trkpt>
      <trkpt lat="43.6483" lon="3.82595">
        <ele>153</ele>
        <time>2013-05-30T12:22:43.24</time>
      </trkpt>
      <trkpt lat="43.64835" lon="3.82595">
        <ele>153.5</ele>
        <time>2013-05-30T12:22:44.24</time>
      </trkpt>
      <trkpt lat="43.6484" lon="3.82593">
        <ele>153.5</ele>
        <time>2013-05-30T12:22:45.24</time>
      </trkpt>
      <trkpt lat="43.64845" lon="3.82592">
        <ele>153.5</ele>
        <time>2013-05-30T12:22:46.25</time>
      </trkpt>
      <trkpt lat="43.64851" lon="3.82591">
        <ele>154.5</ele>
        <time>2013-05-30T12:22:47.25</time>
      </trkpt>
      <trkpt lat="43.64856" lon="3.82593">
        <ele>154.5</ele>
        <time>2013-05-30T12:22:48.25</time>
      </trkpt>
      <trkpt lat="43.64861" lon="3.82594">
        <ele>154.5</ele>
        <time>2013-05-30T12:22:49.24</time>
      </trkpt>
      <trkpt lat="43.64866" lon="3.82595">
        <ele>154.5</ele>
        <time>2013-05-30T12:22:50.24</time>
      </trkpt>
      <trkpt lat="43.64871" lon="3.82596">
        <ele>154.5</ele>
        <time>2013-05-30T12:22:51.25</time>
      </trkpt>
      <trkpt lat="43.64876" lon="3.82596">
        <ele>155</ele>
        <time>2013-05-30T12:22:52.24</time>
      </trkpt>
      <trkpt lat="43.64881" lon="3.82596">
        <ele>155</ele>
        <time>2013-05-30T12:22:53.24</time>
      </trkpt>
      <trkpt lat="43.64886" lon="3.82595">
        <ele>155</ele>
        <time>2013-05-30T12:22:54.24</time>
      </trkpt>
      <trkpt lat="43.64891" lon="3.82595">
        <ele>155.5</ele>
        <time>2013-05-30T12:22:55.24</time>
      </trkpt>
      <trkpt lat="43.64896" lon="3.82594">
        <ele>156</ele>
        <time>2013-05-30T12:22:56.24</time>
      </trkpt>
      <trkpt lat="43.64901" lon="3.82594">
        <ele>156</ele>
        <time>2013-05-30T12:22:57.24</time>
      </trkpt>
      <trkpt lat="43.64906" lon="3.82593">
        <ele>156</ele>
        <time>2013-05-30T12:22:58.24</time>
      </trkpt>
      <trkpt lat="43.64911" lon="3.82592">
        <ele>156.5</ele>
        <time>2013-05-30T12:22:59.24</time>
      </trkpt>
      <trkpt lat="43.64916" lon="3.82592">
        <ele>156.5</ele>
        <time>2013-05-30T12:23:00.24</time>
      </trkpt>
      <trkpt lat="43.6492" lon="3.8259">
        <ele>156.5</ele>
        <time>2013-05-30T12:23:01.24</time>
      </trkpt>
      <trkpt lat="43.64925" lon="3.8259">
        <ele>156.5</ele>
        <time>2013-05-30T12:23:02.31</time>
      </trkpt>
      <trkpt lat="43.6493" lon="3.8259">
        <ele>157</ele>
        <time>2013-05-30T12:23:03.25</time>
      </trkpt>
      <trkpt lat="43.64934" lon="3.8259">
        <ele>157.5</ele>
        <time>2013-05-30T12:23:04.24</time>
      </trkpt>
      <trkpt lat="43.64938" lon="3.8259">
        <ele>158</ele>
        <time>2013-05-30T12:23:05.24</time>
      </trkpt>
      <trkpt lat="43.64943" lon="3.8259">
        <ele>158</ele>
        <time>2013-05-30T12:23:06.24</time>
      </trkpt>
      <trkpt lat="43.64947" lon="3.82591">
        <ele>158</ele>
        <time>2013-05-30T12:23:07.25</time>
      </trkpt>
      <trkpt lat="43.6495" lon="3.82591">
        <ele>158.5</ele>
        <time>2013-05-30T12:23:08.24</time>
      </trkpt>
      <trkpt lat="43.64954" lon="3.8259">
        <ele>158.5</ele>
        <time>2013-05-30T12:23:09.24</time>
      </trkpt>
      <trkpt lat="43.64957" lon="3.8259">
        <ele>158.5</ele>
        <time>2013-05-30T12:23:10.24</time>
      </trkpt>
      <trkpt lat="43.64961" lon="3.8259">
        <ele>158</ele>
        <time>2013-05-30T12:23:11.24</time>
      </trkpt>
      <trkpt lat="43.64964" lon="3.8259">
        <ele>158.5</ele>
        <time>2013-05-30T12:23:12.24</time>
      </trkpt>
      <trkpt lat="43.64967" lon="3.8259">
        <ele>158.5</ele>
        <time>2013-05-30T12:23:13.24</time>
      </trkpt>
      <trkpt lat="43.64971" lon="3.82589">
        <ele>158.5</ele>
        <time>2013-05-30T12:23:14.24</time>
      </trkpt>
      <trkpt lat="43.64974" lon="3.82589">
        <ele>157.5</ele>
        <time>2013-05-30T12:23:15.24</time>
      </trkpt>
      <trkpt lat="43.64978" lon="3.82589">
        <ele>157</ele>
        <time>2013-05-30T12:23:16.24</time>
      </trkpt>
      <trkpt lat="43.64981" lon="3.82589">
        <ele>157</ele>
        <time>2013-05-30T12:23:17.24</time>
      </trkpt>
      <trkpt lat="43.64985" lon="3.82589">
        <ele>156.5</ele>
        <time>2013-05-30T12:23:18.24</time>
      </trkpt>
      <trkpt lat="43.64989" lon="3.82589">
        <ele>156.5</ele>
        <time>2013-05-30T12:23:19.24</time>
      </trkpt>
      <trkpt lat="43.64992" lon="3.82588">
        <ele>157</ele>
        <time>2013-05-30T12:23:20.24</time>
      </trkpt>
      <trkpt lat="43.64995" lon="3.82587">
        <ele>157</ele>
        <time>2013-05-30T12:23:21.25</time>
      </trkpt>
      <trkpt lat="43.64998" lon="3.82586">
        <ele>157.5</ele>
        <time>2013-05-30T12:23:22.24</time>
      </trkpt>
      <trkpt lat="43.65002" lon="3.82585">
        <ele>158</ele>
        <time>2013-05-30T12:23:23.24</time>
      </trkpt>
      <trkpt lat="43.65005" lon="3.82585">
        <ele>158.5</ele>
        <time>2013-05-30T12:23:24.24</time>
      </trkpt>
      <trkpt lat="43.65008" lon="3.82584">
        <ele>158.5</ele>
        <time>2013-05-30T12:23:25.24</time>
      </trkpt>
      <trkpt lat="43.65012" lon="3.82584">
        <ele>159</ele>
        <time>2013-05-30T12:23:26.25</time>
      </trkpt>
      <trkpt lat="43.65015" lon="3.82583">
        <ele>159</ele>
        <time>2013-05-30T12:23:27.25</time>
      </trkpt>
      <trkpt lat="43.65018" lon="3.82583">
        <ele>159.5</ele>
        <time>2013-05-30T12:23:28.25</time>
      </trkpt>
      <trkpt lat="43.65022" lon="3.82582">
        <ele>160</ele>
        <time>2013-05-30T12:23:29.24</time>
      </trkpt>
      <trkpt lat="43.65025" lon="3.82582">
        <ele>160</ele>
        <time>2013-05-30T12:23:30.24</time>
      </trkpt>
      <trkpt lat="43.65028" lon="3.82581">
        <ele>160.5</ele>
        <time>2013-05-30T12:23:31.24</time>
      </trkpt>
      <trkpt lat="43.65031" lon="3.8258">
        <ele>161</ele>
        <time>2013-05-30T12:23:32.24</time>
      </trkpt>
      <trkpt lat="43.65035" lon="3.82579">
        <ele>161.5</ele>
        <time>2013-05-30T12:23:33.24</time>
      </trkpt>
      <trkpt lat="43.65038" lon="3.82578">
        <ele>161.5</ele>
        <time>2013-05-30T12:23:34.31</time>
      </trkpt>
      <trkpt lat="43.65041" lon="3.82578">
        <ele>162</ele>
        <time>2013-05-30T12:23:35.24</time>
      </trkpt>
      <trkpt lat="43.65045" lon="3.82577">
        <ele>162</ele>
        <time>2013-05-30T12:23:36.24</time>
      </trkpt>
      <trkpt lat="43.65048" lon="3.82576">
        <ele>162.5</ele>
        <time>2013-05-30T12:23:37.24</time>
      </trkpt>
      <trkpt lat="43.65051" lon="3.82576">
        <ele>162.5</ele>
        <time>2013-05-30T12:23:38.24</time>
      </trkpt>
      <trkpt lat="43.65055" lon="3.82575">
        <ele>163</ele>
        <time>2013-05-30T12:23:39.24</time>
      </trkpt>
      <trkpt lat="43.65058" lon="3.82575">
        <ele>163.5</ele>
        <time>2013-05-30T12:23:40.24</time>
      </trkpt>
      <trkpt lat="43.65062" lon="3.82574">
        <ele>163.5</ele>
        <time>2013-05-30T12:23:41.30</time>
      </trkpt>
      <trkpt lat="43.65065" lon="3.82574">
        <ele>163.5</ele>
        <time>2013-05-30T12:23:42.25</time>
      </trkpt>
      <trkpt lat="43.65069" lon="3.82573">
        <ele>163.5</ele>
        <time>2013-05-30T12:23:43.24</time>
      </trkpt>
      <trkpt lat="43.65072" lon="3.82572">
        <ele>163.5</ele>
        <time>2013-05-30T12:23:44.24</time>
      </trkpt>
      <trkpt lat="43.65076" lon="3.82572">
        <ele>164</ele>
        <time>2013-05-30T12:23:45.24</time>
      </trkpt>
      <trkpt lat="43.65079" lon="3.82571">
        <ele>164</ele>
        <time>2013-05-30T12:23:46.24</time>
      </trkpt>
      <trkpt lat="43.65083" lon="3.8257">
        <ele>164</ele>
        <time>2013-05-30T12:23:47.24</time>
      </trkpt>
      <trkpt lat="43.65086" lon="3.82568">
        <ele>164.5</ele>
        <time>2013-05-30T12:23:48.24</time>
      </trkpt>
      <trkpt lat="43.65088" lon="3.82565">
        <ele>164.5</ele>
        <time>2013-05-30T12:23:49.24</time>
      </trkpt>
      <trkpt lat="43.6509" lon="3.8256">
        <ele>164.5</ele>
        <time>2013-05-30T12:23:50.24</time>
      </trkpt>
      <trkpt lat="43.65092" lon="3.82556">
        <ele>164.5</ele>
        <time>2013-05-30T12:23:51.24</time>
      </trkpt>
      <trkpt lat="43.65094" lon="3.82552">
        <ele>164.5</ele>
        <time>2013-05-30T12:23:52.24</time>
      </trkpt>
      <trkpt lat="43.65097" lon="3.82548">
        <ele>164.5</ele>
        <time>2013-05-30T12:23:53.24</time>
      </trkpt>
      <trkpt lat="43.65099" lon="3.82545">
        <ele>164.5</ele>
        <time>2013-05-30T12:23:54.24</time>
      </trkpt>
      <trkpt lat="43.65102" lon="3.82542">
        <ele>164.5</ele>
        <time>2013-05-30T12:23:55.24</time>
      </trkpt>
      <trkpt lat="43.65105" lon="3.82539">
        <ele>164.5</ele>
        <time>2013-05-30T12:23:56.24</time>
      </trkpt>
      <trkpt lat="43.65108" lon="3.82535">
        <ele>164.5</ele>
        <time>2013-05-30T12:23:57.24</time>
      </trkpt>
      <trkpt lat="43.65111" lon="3.82531">
        <ele>165</ele>
        <time>2013-05-30T12:23:58.24</time>
      </trkpt>
      <trkpt lat="43.65113" lon="3.82527">
        <ele>165</ele>
        <time>2013-05-30T12:23:59.24</time>
      </trkpt>
      <trkpt lat="43.65116" lon="3.82524">
        <ele>165</ele>
        <time>2013-05-30T12:24:00.25</time>
      </trkpt>
      <trkpt lat="43.65119" lon="3.8252">
        <ele>165</ele>
        <time>2013-05-30T12:24:01.24</time>
      </trkpt>
      <trkpt lat="43.65122" lon="3.82517">
        <ele>165</ele>
        <time>2013-05-30T12:24:02.24</time>
      </trkpt>
      <trkpt lat="43.65125" lon="3.82513">
        <ele>165.5</ele>
        <time>2013-05-30T12:24:03.24</time>
      </trkpt>
      <trkpt lat="43.65127" lon="3.82508">
        <ele>165.5</ele>
        <time>2013-05-30T12:24:04.24</time>
      </trkpt>
      <trkpt lat="43.6513" lon="3.82504">
        <ele>165.5</ele>
        <time>2013-05-30T12:24:05.24</time>
      </trkpt>
      <trkpt lat="43.65132" lon="3.825">
        <ele>165.5</ele>
        <time>2013-05-30T12:24:06.24</time>
      </trkpt>
      <trkpt lat="43.65135" lon="3.82496">
        <ele>166</ele>
        <time>2013-05-30T12:24:07.24</time>
      </trkpt>
      <trkpt lat="43.65137" lon="3.82493">
        <ele>166</ele>
        <time>2013-05-30T12:24:08.24</time>
      </trkpt>
      <trkpt lat="43.65139" lon="3.8249">
        <ele>166</ele>
        <time>2013-05-30T12:24:09.24</time>
      </trkpt>
      <trkpt lat="43.65142" lon="3.8249">
        <ele>166</ele>
        <time>2013-05-30T12:24:10.24</time>
      </trkpt>
      <trkpt lat="43.65145" lon="3.82489">
        <ele>166.5</ele>
        <time>2013-05-30T12:24:11.24</time>
      </trkpt>
      <trkpt lat="43.65149" lon="3.82492">
        <ele>166.5</ele>
        <time>2013-05-30T12:24:12.24</time>
      </trkpt>
      <trkpt lat="43.65152" lon="3.82498">
        <ele>166.5</ele>
        <time>2013-05-30T12:24:13.24</time>
      </trkpt>
      <trkpt lat="43.65155" lon="3.82503">
        <ele>166.5</ele>
        <time>2013-05-30T12:24:14.25</time>
      </trkpt>
      <trkpt lat="43.65157" lon="3.82507">
        <ele>166.5</ele>
        <time>2013-05-30T12:24:15.24</time>
      </trkpt>
      <trkpt lat="43.65164" lon="3.82514">
        <ele>166.5</ele>
        <time>2013-05-30T12:24:17.25</time>
      </trkpt>
      <trkpt lat="43.65165" lon="3.82524">
        <ele>166.5</ele>
        <time>2013-05-30T12:24:19.25</time>
      </trkpt>
      <trkpt lat="43.65174" lon="3.82532">
        <ele>166.5</ele>
        <time>2013-05-30T12:24:21.24</time>
      </trkpt>
      <trkpt lat="43.65176" lon="3.82534">
        <ele>166.5</ele>
        <time>2013-05-30T12:24:22.24</time>
      </trkpt>
      <trkpt lat="43.65175" lon="3.82541">
        <ele>168.5</ele>
        <time>2013-05-30T12:24:23.24</time>
      </trkpt>
      <trkpt lat="43.65179" lon="3.82547">
        <ele>168.5</ele>
        <time>2013-05-30T12:24:24.25</time>
      </trkpt>
      <trkpt lat="43.65177" lon="3.82553">
        <ele>169.5</ele>
        <time>2013-05-30T12:24:25.24</time>
      </trkpt>
      <trkpt lat="43.6518" lon="3.82555">
        <ele>169.5</ele>
        <time>2013-05-30T12:24:26.24</time>
      </trkpt>
      <trkpt lat="43.65189" lon="3.82559">
        <ele>169.5</ele>
        <time>2013-05-30T12:24:28.24</time>
      </trkpt>
      <trkpt lat="43.65192" lon="3.82555">
        <ele>169.5</ele>
        <time>2013-05-30T12:24:29.24</time>
      </trkpt>
      <trkpt lat="43.65199" lon="3.82564">
        <ele>169.5</ele>
        <time>2013-05-30T12:24:31.23</time>
      </trkpt>
      <trkpt lat="43.65212" lon="3.82564">
        <ele>169.5</ele>
        <time>2013-05-30T12:24:33.24</time>
      </trkpt>
      <trkpt lat="43.65217" lon="3.82567">
        <ele>169.5</ele>
        <time>2013-05-30T12:24:34.24</time>
      </trkpt>
      <trkpt lat="43.6522" lon="3.82571">
        <ele>170</ele>
        <time>2013-05-30T12:24:35.24</time>
      </trkpt>
      <trkpt lat="43.65223" lon="3.82574">
        <ele>170</ele>
        <time>2013-05-30T12:24:36.23</time>
      </trkpt>
      <trkpt lat="43.65226" lon="3.82579">
        <ele>170</ele>
        <time>2013-05-30T12:24:37.24</time>
      </trkpt>
      <trkpt lat="43.65229" lon="3.82582">
        <ele>170</ele>
        <time>2013-05-30T12:24:38.24</time>
      </trkpt>
      <trkpt lat="43.65231" lon="3.82585">
        <ele>170</ele>
        <time>2013-05-30T12:24:39.28</time>
      </trkpt>
      <trkpt lat="43.65233" lon="3.82589">
        <ele>170.5</ele>
        <time>2013-05-30T12:24:40.24</time>
      </trkpt>
      <trkpt lat="43.65235" lon="3.82592">
        <ele>170.5</ele>
        <time>2013-05-30T12:24:41.32</time>
      </trkpt>
      <trkpt lat="43.65233" lon="3.82594">
        <ele>170.5</ele>
        <time>2013-05-30T12:24:42.24</time>
      </trkpt>
      <trkpt lat="43.65232" lon="3.82597">
        <ele>171</ele>
        <time>2013-05-30T12:24:43.24</time>
      </trkpt>
      <trkpt lat="43.65234" lon="3.826">
        <ele>171</ele>
        <time>2013-05-30T12:24:44.24</time>
      </trkpt>
      <trkpt lat="43.65237" lon="3.82604">
        <ele>171</ele>
        <time>2013-05-30T12:24:45.45</time>
      </trkpt>
      <trkpt lat="43.65239" lon="3.8261">
        <ele>171</ele>
        <time>2013-05-30T12:24:46.45</time>
      </trkpt>
      <trkpt lat="43.6524" lon="3.82615">
        <ele>171</ele>
        <time>2013-05-30T12:24:47.45</time>
      </trkpt>
      <trkpt lat="43.65242" lon="3.82619">
        <ele>169.5</ele>
        <time>2013-05-30T12:24:48.45</time>
      </trkpt>
      <trkpt lat="43.65244" lon="3.8262">
        <ele>170</ele>
        <time>2013-05-30T12:24:49.45</time>
      </trkpt>
      <trkpt lat="43.65246" lon="3.82623">
        <ele>170.5</ele>
        <time>2013-05-30T12:24:50.44</time>
      </trkpt>
      <trkpt lat="43.65247" lon="3.82626">
        <ele>170.5</ele>
        <time>2013-05-30T12:24:51.45</time>
      </trkpt>
      <trkpt lat="43.65249" lon="3.82629">
        <ele>170.5</ele>
        <time>2013-05-30T12:24:52.45</time>
      </trkpt>
      <trkpt lat="43.6525" lon="3.82632">
        <ele>169.5</ele>
        <time>2013-05-30T12:24:53.45</time>
      </trkpt>
      <trkpt lat="43.65252" lon="3.82636">
        <ele>168.5</ele>
        <time>2013-05-30T12:24:54.45</time>
      </trkpt>
      <trkpt lat="43.65264" lon="3.82639">
        <ele>167.5</ele>
        <time>2013-05-30T12:24:56.68</time>
      </trkpt>
      <trkpt lat="43.65275" lon="3.82646">
        <ele>166</ele>
        <time>2013-05-30T12:24:58.45</time>
      </trkpt>
      <trkpt lat="43.6528" lon="3.82649">
        <ele>165.5</ele>
        <time>2013-05-30T12:24:59.45</time>
      </trkpt>
      <trkpt lat="43.65285" lon="3.82652">
        <ele>166</ele>
        <time>2013-05-30T12:25:00.44</time>
      </trkpt>
      <trkpt lat="43.65289" lon="3.82653">
        <ele>165.5</ele>
        <time>2013-05-30T12:25:01.44</time>
      </trkpt>
      <trkpt lat="43.65294" lon="3.82657">
        <ele>165.5</ele>
        <time>2013-05-30T12:25:02.45</time>
      </trkpt>
      <trkpt lat="43.65297" lon="3.8266">
        <ele>165.5</ele>
        <time>2013-05-30T12:25:03.44</time>
      </trkpt>
      <trkpt lat="43.65301" lon="3.82663">
        <ele>166</ele>
        <time>2013-05-30T12:25:04.51</time>
      </trkpt>
      <trkpt lat="43.65303" lon="3.82665">
        <ele>167.5</ele>
        <time>2013-05-30T12:25:05.45</time>
      </trkpt>
      <trkpt lat="43.65306" lon="3.82668">
        <ele>167.5</ele>
        <time>2013-05-30T12:25:06.45</time>
      </trkpt>
      <trkpt lat="43.65309" lon="3.82671">
        <ele>168</ele>
        <time>2013-05-30T12:25:07.46</time>
      </trkpt>
      <trkpt lat="43.65312" lon="3.82673">
        <ele>168</ele>
        <time>2013-05-30T12:25:08.44</time>
      </trkpt>
      <trkpt lat="43.65314" lon="3.82675">
        <ele>168</ele>
        <time>2013-05-30T12:25:09.45</time>
      </trkpt>
      <trkpt lat="43.65318" lon="3.82678">
        <ele>166.5</ele>
        <time>2013-05-30T12:25:10.44</time>
      </trkpt>
      <trkpt lat="43.6532" lon="3.82678">
        <ele>166.5</ele>
        <time>2013-05-30T12:25:11.44</time>
      </trkpt>
      <trkpt lat="43.65323" lon="3.82678">
        <ele>166.5</ele>
        <time>2013-05-30T12:25:12.44</time>
      </trkpt>
      <trkpt lat="43.65325" lon="3.82679">
        <ele>166.5</ele>
        <time>2013-05-30T12:25:13.45</time>
      </trkpt>
      <trkpt lat="43.65328" lon="3.8268">
        <ele>166.5</ele>
        <time>2013-05-30T12:25:14.45</time>
      </trkpt>
      <trkpt lat="43.65331" lon="3.82682">
        <ele>166.5</ele>
        <time>2013-05-30T12:25:15.45</time>
      </trkpt>
      <trkpt lat="43.65334" lon="3.82682">
        <ele>167</ele>
        <time>2013-05-30T12:25:16.45</time>
      </trkpt>
      <trkpt lat="43.65337" lon="3.82682">
        <ele>168.5</ele>
        <time>2013-05-30T12:25:17.45</time>
      </trkpt>
      <trkpt lat="43.65339" lon="3.82683">
        <ele>169.5</ele>
        <time>2013-05-30T12:25:18.45</time>
      </trkpt>
      <trkpt lat="43.65342" lon="3.82684">
        <ele>170.5</ele>
        <time>2013-05-30T12:25:19.44</time>
      </trkpt>
      <trkpt lat="43.65345" lon="3.82688">
        <ele>172</ele>
        <time>2013-05-30T12:25:20.44</time>
      </trkpt>
      <trkpt lat="43.65347" lon="3.82687">
        <ele>172.5</ele>
        <time>2013-05-30T12:25:21.44</time>
      </trkpt>
      <trkpt lat="43.6535" lon="3.82688">
        <ele>173.5</ele>
        <time>2013-05-30T12:25:22.44</time>
      </trkpt>
      <trkpt lat="43.65352" lon="3.82691">
        <ele>173.5</ele>
        <time>2013-05-30T12:25:23.44</time>
      </trkpt>
      <trkpt lat="43.65355" lon="3.82691">
        <ele>174</ele>
        <time>2013-05-30T12:25:24.44</time>
      </trkpt>
      <trkpt lat="43.65358" lon="3.82691">
        <ele>174</ele>
        <time>2013-05-30T12:25:25.44</time>
      </trkpt>
      <trkpt lat="43.65362" lon="3.82692">
        <ele>174</ele>
        <time>2013-05-30T12:25:26.44</time>
      </trkpt>
      <trkpt lat="43.65364" lon="3.82689">
        <ele>174</ele>
        <time>2013-05-30T12:25:27.45</time>
      </trkpt>
      <trkpt lat="43.65368" lon="3.82691">
        <ele>174</ele>
        <time>2013-05-30T12:25:28.44</time>
      </trkpt>
      <trkpt lat="43.65371" lon="3.82689">
        <ele>174</ele>
        <time>2013-05-30T12:25:29.44</time>
      </trkpt>
      <trkpt lat="43.65374" lon="3.82688">
        <ele>173</ele>
        <time>2013-05-30T12:25:30.44</time>
      </trkpt>
      <trkpt lat="43.65376" lon="3.82687">
        <ele>174</ele>
        <time>2013-05-30T12:25:31.45</time>
      </trkpt>
      <trkpt lat="43.65378" lon="3.82688">
        <ele>175</ele>
        <time>2013-05-30T12:25:32.44</time>
      </trkpt>
      <trkpt lat="43.65381" lon="3.8269">
        <ele>176.5</ele>
        <time>2013-05-30T12:25:33.44</time>
      </trkpt>
      <trkpt lat="43.65385" lon="3.82696">
        <ele>177.5</ele>
        <time>2013-05-30T12:25:35.45</time>
      </trkpt>
      <trkpt lat="43.65388" lon="3.82696">
        <ele>177.5</ele>
        <time>2013-05-30T12:25:36.45</time>
      </trkpt>
      <trkpt lat="43.6539" lon="3.82697">
        <ele>177.5</ele>
        <time>2013-05-30T12:25:37.44</time>
      </trkpt>
      <trkpt lat="43.65392" lon="3.82697">
        <ele>178</ele>
        <time>2013-05-30T12:25:38.44</time>
      </trkpt>
      <trkpt lat="43.65394" lon="3.82698">
        <ele>177.5</ele>
        <time>2013-05-30T12:25:39.44</time>
      </trkpt>
      <trkpt lat="43.65395" lon="3.82699">
        <ele>177.5</ele>
        <time>2013-05-30T12:25:40.44</time>
      </trkpt>
      <trkpt lat="43.65396" lon="3.82701">
        <ele>177</ele>
        <time>2013-05-30T12:25:41.44</time>
      </trkpt>
      <trkpt lat="43.65425" lon="3.82715">
        <ele>179</ele>
        <time>2013-05-30T12:25:45.44</time>
      </trkpt>
      <trkpt lat="43.65428" lon="3.8272">
        <ele>178</ele>
        <time>2013-05-30T12:25:46.44</time>
      </trkpt>
      <trkpt lat="43.65431" lon="3.82725">
        <ele>177</ele>
        <time>2013-05-30T12:25:47.44</time>
      </trkpt>
      <trkpt lat="43.65434" lon="3.8273">
        <ele>174.5</ele>
        <time>2013-05-30T12:25:48.45</time>
      </trkpt>
      <trkpt lat="43.65439" lon="3.82731">
        <ele>176</ele>
        <time>2013-05-30T12:25:50.44</time>
      </trkpt>
      <trkpt lat="43.65442" lon="3.82732">
        <ele>176</ele>
        <time>2013-05-30T12:25:51.45</time>
      </trkpt>
      <trkpt lat="43.65446" lon="3.82733">
        <ele>177</ele>
        <time>2013-05-30T12:25:52.44</time>
      </trkpt>
      <trkpt lat="43.65448" lon="3.82733">
        <ele>177.5</ele>
        <time>2013-05-30T12:25:53.45</time>
      </trkpt>
      <trkpt lat="43.65452" lon="3.82736">
        <ele>176.5</ele>
        <time>2013-05-30T12:25:54.44</time>
      </trkpt>
      <trkpt lat="43.65455" lon="3.82737">
        <ele>176.5</ele>
        <time>2013-05-30T12:25:55.45</time>
      </trkpt>
      <trkpt lat="43.65458" lon="3.82737">
        <ele>176</ele>
        <time>2013-05-30T12:25:56.44</time>
      </trkpt>
      <trkpt lat="43.65461" lon="3.82739">
        <ele>179</ele>
        <time>2013-05-30T12:25:57.44</time>
      </trkpt>
      <trkpt lat="43.65463" lon="3.82742">
        <ele>179</ele>
        <time>2013-05-30T12:25:58.44</time>
      </trkpt>
      <trkpt lat="43.65465" lon="3.82744">
        <ele>179</ele>
        <time>2013-05-30T12:25:59.44</time>
      </trkpt>
      <trkpt lat="43.65468" lon="3.82748">
        <ele>179.5</ele>
        <time>2013-05-30T12:26:00.44</time>
      </trkpt>
      <trkpt lat="43.65469" lon="3.82754">
        <ele>180.5</ele>
        <time>2013-05-30T12:26:01.44</time>
      </trkpt>
      <trkpt lat="43.65474" lon="3.8277">
        <ele>181</ele>
        <time>2013-05-30T12:26:03.44</time>
      </trkpt>
      <trkpt lat="43.65478" lon="3.8277">
        <ele>181</ele>
        <time>2013-05-30T12:26:04.44</time>
      </trkpt>
      <trkpt lat="43.65483" lon="3.82771">
        <ele>181</ele>
        <time>2013-05-30T12:26:05.45</time>
      </trkpt>
      <trkpt lat="43.65492" lon="3.82779">
        <ele>181</ele>
        <time>2013-05-30T12:26:07.45</time>
      </trkpt>
      <trkpt lat="43.65495" lon="3.82782">
        <ele>181</ele>
        <time>2013-05-30T12:26:08.44</time>
      </trkpt>
      <trkpt lat="43.65498" lon="3.82792">
        <ele>180.5</ele>
        <time>2013-05-30T12:26:10.44</time>
      </trkpt>
      <trkpt lat="43.65499" lon="3.82797">
        <ele>181</ele>
        <time>2013-05-30T12:26:11.44</time>
      </trkpt>
      <trkpt lat="43.655" lon="3.82802">
        <ele>181.5</ele>
        <time>2013-05-30T12:26:12.45</time>
      </trkpt>
      <trkpt lat="43.65504" lon="3.82804">
        <ele>181</ele>
        <time>2013-05-30T12:26:13.44</time>
      </trkpt>
      <trkpt lat="43.65506" lon="3.82808">
        <ele>183</ele>
        <time>2013-05-30T12:26:14.45</time>
      </trkpt>
      <trkpt lat="43.65506" lon="3.82811">
        <ele>185.5</ele>
        <time>2013-05-30T12:26:15.44</time>
      </trkpt>
      <trkpt lat="43.65507" lon="3.82809">
        <ele>187.5</ele>
        <time>2013-05-30T12:26:16.44</time>
      </trkpt>
      <trkpt lat="43.6551" lon="3.82809">
        <ele>188.5</ele>
        <time>2013-05-30T12:26:17.44</time>
      </trkpt>
      <trkpt lat="43.65513" lon="3.82806">
        <ele>189</ele>
        <time>2013-05-30T12:26:18.45</time>
      </trkpt>
      <trkpt lat="43.6552" lon="3.82798">
        <ele>189</ele>
        <time>2013-05-30T12:26:20.45</time>
      </trkpt>
      <trkpt lat="43.65524" lon="3.82797">
        <ele>189</ele>
        <time>2013-05-30T12:26:21.44</time>
      </trkpt>
      <trkpt lat="43.65527" lon="3.82793">
        <ele>189</ele>
        <time>2013-05-30T12:26:22.44</time>
      </trkpt>
      <trkpt lat="43.6553" lon="3.82791">
        <ele>189</ele>
        <time>2013-05-30T12:26:23.44</time>
      </trkpt>
      <trkpt lat="43.65535" lon="3.82791">
        <ele>189.5</ele>
        <time>2013-05-30T12:26:24.46</time>
      </trkpt>
      <trkpt lat="43.65538" lon="3.82791">
        <ele>189.5</ele>
        <time>2013-05-30T12:26:25.44</time>
      </trkpt>
      <trkpt lat="43.65542" lon="3.8279">
        <ele>189</ele>
        <time>2013-05-30T12:26:26.44</time>
      </trkpt>
      <trkpt lat="43.65546" lon="3.82792">
        <ele>189</ele>
        <time>2013-05-30T12:26:27.45</time>
      </trkpt>
      <trkpt lat="43.6555" lon="3.82793">
        <ele>189</ele>
        <time>2013-05-30T12:26:28.45</time>
      </trkpt>
      <trkpt lat="43.65554" lon="3.82796">
        <ele>189</ele>
        <time>2013-05-30T12:26:29.45</time>
      </trkpt>
      <trkpt lat="43.65558" lon="3.82799">
        <ele>191</ele>
        <time>2013-05-30T12:26:30.44</time>
      </trkpt>
      <trkpt lat="43.65562" lon="3.82802">
        <ele>191.5</ele>
        <time>2013-05-30T12:26:31.44</time>
      </trkpt>
      <trkpt lat="43.65566" lon="3.82803">
        <ele>192.5</ele>
        <time>2013-05-30T12:26:32.44</time>
      </trkpt>
      <trkpt lat="43.65569" lon="3.82806">
        <ele>193.5</ele>
        <time>2013-05-30T12:26:33.45</time>
      </trkpt>
      <trkpt lat="43.65573" lon="3.82807">
        <ele>193</ele>
        <time>2013-05-30T12:26:34.45</time>
      </trkpt>
      <trkpt lat="43.65576" lon="3.82806">
        <ele>194.5</ele>
        <time>2013-05-30T12:26:36.44</time>
      </trkpt>
      <trkpt lat="43.65577" lon="3.82805">
        <ele>195.5</ele>
        <time>2013-05-30T12:26:37.44</time>
      </trkpt>
      <trkpt lat="43.65579" lon="3.82806">
        <ele>195</ele>
        <time>2013-05-30T12:26:38.44</time>
      </trkpt>
      <trkpt lat="43.65581" lon="3.82808">
        <ele>195</ele>
        <time>2013-05-30T12:26:39.44</time>
      </trkpt>
      <trkpt lat="43.65583" lon="3.82811">
        <ele>195.5</ele>
        <time>2013-05-30T12:26:40.44</time>
      </trkpt>
      <trkpt lat="43.65586" lon="3.82814">
        <ele>196</ele>
        <time>2013-05-30T12:26:41.44</time>
      </trkpt>
      <trkpt lat="43.65587" lon="3.8282">
        <ele>195</ele>
        <time>2013-05-30T12:26:42.45</time>
      </trkpt>
      <trkpt lat="43.65588" lon="3.82826">
        <ele>194.5</ele>
        <time>2013-05-30T12:26:43.45</time>
      </trkpt>
      <trkpt lat="43.65589" lon="3.82831">
        <ele>194.5</ele>
        <time>2013-05-30T12:26:44.44</time>
      </trkpt>
      <trkpt lat="43.65591" lon="3.82837">
        <ele>194</ele>
        <time>2013-05-30T12:26:45.44</time>
      </trkpt>
      <trkpt lat="43.65593" lon="3.82844">
        <ele>190.5</ele>
        <time>2013-05-30T12:26:46.45</time>
      </trkpt>
      <trkpt lat="43.65596" lon="3.82848">
        <ele>190.5</ele>
        <time>2013-05-30T12:26:47.44</time>
      </trkpt>
      <trkpt lat="43.65598" lon="3.82851">
        <ele>189</ele>
        <time>2013-05-30T12:26:48.44</time>
      </trkpt>
      <trkpt lat="43.65601" lon="3.82856">
        <ele>188.5</ele>
        <time>2013-05-30T12:26:49.43</time>
      </trkpt>
      <trkpt lat="43.65605" lon="3.82856">
        <ele>189.5</ele>
        <time>2013-05-30T12:26:50.45</time>
      </trkpt>
      <trkpt lat="43.65609" lon="3.82854">
        <ele>189.5</ele>
        <time>2013-05-30T12:26:51.44</time>
      </trkpt>
      <trkpt lat="43.65615" lon="3.82852">
        <ele>189.5</ele>
        <time>2013-05-30T12:26:52.45</time>
      </trkpt>
      <trkpt lat="43.65619" lon="3.82848">
        <ele>190</ele>
        <time>2013-05-30T12:26:53.44</time>
      </trkpt>
      <trkpt lat="43.65625" lon="3.82849">
        <ele>190</ele>
        <time>2013-05-30T12:26:54.45</time>
      </trkpt>
      <trkpt lat="43.6563" lon="3.82852">
        <ele>190.5</ele>
        <time>2013-05-30T12:26:55.44</time>
      </trkpt>
      <trkpt lat="43.65635" lon="3.82855">
        <ele>191</ele>
        <time>2013-05-30T12:26:56.45</time>
      </trkpt>
      <trkpt lat="43.65641" lon="3.82859">
        <ele>191.5</ele>
        <time>2013-05-30T12:26:57.45</time>
      </trkpt>
      <trkpt lat="43.65646" lon="3.8286">
        <ele>192</ele>
        <time>2013-05-30T12:26:58.44</time>
      </trkpt>
      <trkpt lat="43.65652" lon="3.82861">
        <ele>192</ele>
        <time>2013-05-30T12:26:59.46</time>
      </trkpt>
      <trkpt lat="43.6566" lon="3.82863">
        <ele>189.5</ele>
        <time>2013-05-30T12:27:00.44</time>
      </trkpt>
      <trkpt lat="43.65673" lon="3.82865">
        <ele>186</ele>
        <time>2013-05-30T12:27:02.45</time>
      </trkpt>
      <trkpt lat="43.6568" lon="3.82868">
        <ele>185.5</ele>
        <time>2013-05-30T12:27:03.44</time>
      </trkpt>
      <trkpt lat="43.65685" lon="3.8287">
        <ele>185.5</ele>
        <time>2013-05-30T12:27:04.44</time>
      </trkpt>
      <trkpt lat="43.65692" lon="3.82874">
        <ele>184</ele>
        <time>2013-05-30T12:27:05.44</time>
      </trkpt>
      <trkpt lat="43.65708" lon="3.82883">
        <ele>179</ele>
        <time>2013-05-30T12:27:07.48</time>
      </trkpt>
      <trkpt lat="43.65727" lon="3.82896">
        <ele>173</ele>
        <time>2013-05-30T12:27:09.45</time>
      </trkpt>
      <trkpt lat="43.65731" lon="3.82906">
        <ele>173</ele>
        <time>2013-05-30T12:27:10.44</time>
      </trkpt>
      <trkpt lat="43.6574" lon="3.82933">
        <ele>166.5</ele>
        <time>2013-05-30T12:27:12.45</time>
      </trkpt>
      <trkpt lat="43.65743" lon="3.82946">
        <ele>165</ele>
        <time>2013-05-30T12:27:13.44</time>
      </trkpt>
      <trkpt lat="43.65746" lon="3.82956">
        <ele>163.5</ele>
        <time>2013-05-30T12:27:14.44</time>
      </trkpt>
      <trkpt lat="43.6575" lon="3.82965">
        <ele>162.5</ele>
        <time>2013-05-30T12:27:15.44</time>
      </trkpt>
      <trkpt lat="43.65753" lon="3.82975">
        <ele>162.5</ele>
        <time>2013-05-30T12:27:16.44</time>
      </trkpt>
      <trkpt lat="43.65757" lon="3.82983">
        <ele>160.5</ele>
        <time>2013-05-30T12:27:17.44</time>
      </trkpt>
      <trkpt lat="43.6576" lon="3.82991">
        <ele>159</ele>
        <time>2013-05-30T12:27:18.44</time>
      </trkpt>
      <trkpt lat="43.65764" lon="3.82999">
        <ele>157.5</ele>
        <time>2013-05-30T12:27:19.43</time>
      </trkpt>
      <trkpt lat="43.65767" lon="3.83007">
        <ele>156</ele>
        <time>2013-05-30T12:27:20.44</time>
      </trkpt>
      <trkpt lat="43.6577" lon="3.83014">
        <ele>155</ele>
        <time>2013-05-30T12:27:21.44</time>
      </trkpt>
      <trkpt lat="43.65773" lon="3.8302">
        <ele>155</ele>
        <time>2013-05-30T12:27:22.44</time>
      </trkpt>
      <trkpt lat="43.65777" lon="3.83023">
        <ele>154</ele>
        <time>2013-05-30T12:27:24.44</time>
      </trkpt>
      <trkpt lat="43.65779" lon="3.83024">
        <ele>154</ele>
        <time>2013-05-30T12:27:25.52</time>
      </trkpt>
      <trkpt lat="43.65779" lon="3.83021">
        <ele>154</ele>
        <time>2013-05-30T12:27:26.43</time>
      </trkpt>
      <trkpt lat="43.65781" lon="3.83018">
        <ele>154</ele>
        <time>2013-05-30T12:27:27.43</time>
      </trkpt>
      <trkpt lat="43.65783" lon="3.83016">
        <ele>154</ele>
        <time>2013-05-30T12:27:28.43</time>
      </trkpt>
      <trkpt lat="43.65785" lon="3.83013">
        <ele>154</ele>
        <time>2013-05-30T12:27:29.44</time>
      </trkpt>
      <trkpt lat="43.65787" lon="3.83012">
        <ele>154</ele>
        <time>2013-05-30T12:27:30.44</time>
      </trkpt>
      <trkpt lat="43.65788" lon="3.83011">
        <ele>153.5</ele>
        <time>2013-05-30T12:27:31.44</time>
      </trkpt>
      <trkpt lat="43.6579" lon="3.83013">
        <ele>150.5</ele>
        <time>2013-05-30T12:27:32.43</time>
      </trkpt>
      <trkpt lat="43.65791" lon="3.83013">
        <ele>149.5</ele>
        <time>2013-05-30T12:27:33.43</time>
      </trkpt>
      <trkpt lat="43.65793" lon="3.83014">
        <ele>149</ele>
        <time>2013-05-30T12:27:34.43</time>
      </trkpt>
      <trkpt lat="43.65795" lon="3.83013">
        <ele>149</ele>
        <time>2013-05-30T12:27:35.41</time>
      </trkpt>
      <trkpt lat="43.65797" lon="3.83012">
        <ele>148.5</ele>
        <time>2013-05-30T12:27:36.41</time>
      </trkpt>
      <trkpt lat="43.65799" lon="3.83011">
        <ele>148.5</ele>
        <time>2013-05-30T12:27:37.41</time>
      </trkpt>
      <trkpt lat="43.65801" lon="3.83009">
        <ele>148.5</ele>
        <time>2013-05-30T12:27:38.41</time>
      </trkpt>
      <trkpt lat="43.65804" lon="3.83008">
        <ele>148.5</ele>
        <time>2013-05-30T12:27:39.40</time>
      </trkpt>
      <trkpt lat="43.65806" lon="3.83006">
        <ele>148.5</ele>
        <time>2013-05-30T12:27:40.41</time>
      </trkpt>
      <trkpt lat="43.65808" lon="3.83002">
        <ele>148</ele>
        <time>2013-05-30T12:27:41.41</time>
      </trkpt>
      <trkpt lat="43.65809" lon="3.83">
        <ele>149.5</ele>
        <time>2013-05-30T12:27:42.40</time>
      </trkpt>
      <trkpt lat="43.65811" lon="3.82997">
        <ele>150</ele>
        <time>2013-05-30T12:27:43.41</time>
      </trkpt>
      <trkpt lat="43.65814" lon="3.82995">
        <ele>150.5</ele>
        <time>2013-05-30T12:27:44.41</time>
      </trkpt>
      <trkpt lat="43.65817" lon="3.82994">
        <ele>150</ele>
        <time>2013-05-30T12:27:45.42</time>
      </trkpt>
      <trkpt lat="43.65818" lon="3.82991">
        <ele>150</ele>
        <time>2013-05-30T12:27:46.39</time>
      </trkpt>
      <trkpt lat="43.65819" lon="3.82987">
        <ele>150</ele>
        <time>2013-05-30T12:27:47.29</time>
      </trkpt>
      <trkpt lat="43.65821" lon="3.82983">
        <ele>151.5</ele>
        <time>2013-05-30T12:27:48.28</time>
      </trkpt>
      <trkpt lat="43.65822" lon="3.82979">
        <ele>151.5</ele>
        <time>2013-05-30T12:27:49.28</time>
      </trkpt>
      <trkpt lat="43.65824" lon="3.82975">
        <ele>151.5</ele>
        <time>2013-05-30T12:27:50.28</time>
      </trkpt>
      <trkpt lat="43.65826" lon="3.82972">
        <ele>151.5</ele>
        <time>2013-05-30T12:27:51.29</time>
      </trkpt>
      <trkpt lat="43.65826" lon="3.82965">
        <ele>151.5</ele>
        <time>2013-05-30T12:27:52.29</time>
      </trkpt>
      <trkpt lat="43.65826" lon="3.82959">
        <ele>151.5</ele>
        <time>2013-05-30T12:27:53.29</time>
      </trkpt>
      <trkpt lat="43.65826" lon="3.82953">
        <ele>151</ele>
        <time>2013-05-30T12:27:54.29</time>
      </trkpt>
      <trkpt lat="43.65828" lon="3.82946">
        <ele>150.5</ele>
        <time>2013-05-30T12:27:55.28</time>
      </trkpt>
      <trkpt lat="43.65829" lon="3.8294">
        <ele>150</ele>
        <time>2013-05-30T12:27:56.31</time>
      </trkpt>
      <trkpt lat="43.6583" lon="3.8293">
        <ele>148.5</ele>
        <time>2013-05-30T12:27:58.28</time>
      </trkpt>
      <trkpt lat="43.65832" lon="3.82924">
        <ele>148.5</ele>
        <time>2013-05-30T12:27:59.29</time>
      </trkpt>
      <trkpt lat="43.65833" lon="3.82918">
        <ele>148.5</ele>
        <time>2013-05-30T12:28:00.29</time>
      </trkpt>
      <trkpt lat="43.65836" lon="3.82912">
        <ele>147</ele>
        <time>2013-05-30T12:28:01.29</time>
      </trkpt>
      <trkpt lat="43.65838" lon="3.82908">
        <ele>144.5</ele>
        <time>2013-05-30T12:28:02.28</time>
      </trkpt>
      <trkpt lat="43.65841" lon="3.82904">
        <ele>143.5</ele>
        <time>2013-05-30T12:28:03.28</time>
      </trkpt>
      <trkpt lat="43.65844" lon="3.82898">
        <ele>143.5</ele>
        <time>2013-05-30T12:28:04.28</time>
      </trkpt>
      <trkpt lat="43.65848" lon="3.82894">
        <ele>143.5</ele>
        <time>2013-05-30T12:28:05.29</time>
      </trkpt>
      <trkpt lat="43.65852" lon="3.8289">
        <ele>143</ele>
        <time>2013-05-30T12:28:06.29</time>
      </trkpt>
      <trkpt lat="43.65856" lon="3.82888">
        <ele>143.5</ele>
        <time>2013-05-30T12:28:07.29</time>
      </trkpt>
      <trkpt lat="43.6586" lon="3.82886">
        <ele>143</ele>
        <time>2013-05-30T12:28:08.31</time>
      </trkpt>
      <trkpt lat="43.65864" lon="3.82883">
        <ele>143.5</ele>
        <time>2013-05-30T12:28:09.28</time>
      </trkpt>
      <trkpt lat="43.65867" lon="3.82879">
        <ele>143.5</ele>
        <time>2013-05-30T12:28:10.28</time>
      </trkpt>
      <trkpt lat="43.65871" lon="3.82877">
        <ele>143.5</ele>
        <time>2013-05-30T12:28:11.28</time>
      </trkpt>
      <trkpt lat="43.65875" lon="3.82877">
        <ele>143.5</ele>
        <time>2013-05-30T12:28:12.29</time>
      </trkpt>
      <trkpt lat="43.65878" lon="3.82876">
        <ele>144</ele>
        <time>2013-05-30T12:28:13.29</time>
      </trkpt>
      <trkpt lat="43.65881" lon="3.82875">
        <ele>144</ele>
        <time>2013-05-30T12:28:14.30</time>
      </trkpt>
      <trkpt lat="43.65884" lon="3.82874">
        <ele>144</ele>
        <time>2013-05-30T12:28:15.28</time>
      </trkpt>
      <trkpt lat="43.65887" lon="3.82873">
        <ele>144</ele>
        <time>2013-05-30T12:28:16.28</time>
      </trkpt>
      <trkpt lat="43.6589" lon="3.82872">
        <ele>144</ele>
        <time>2013-05-30T12:28:17.29</time>
      </trkpt>
      <trkpt lat="43.65894" lon="3.82871">
        <ele>144</ele>
        <time>2013-05-30T12:28:18.29</time>
      </trkpt>
      <trkpt lat="43.65897" lon="3.82871">
        <ele>144</ele>
        <time>2013-05-30T12:28:19.36</time>
      </trkpt>
      <trkpt lat="43.659" lon="3.8287">
        <ele>144</ele>
        <time>2013-05-30T12:28:20.28</time>
      </trkpt>
      <trkpt lat="43.65903" lon="3.8287">
        <ele>144</ele>
        <time>2013-05-30T12:28:21.29</time>
      </trkpt>
      <trkpt lat="43.65906" lon="3.82869">
        <ele>144</ele>
        <time>2013-05-30T12:28:22.28</time>
      </trkpt>
      <trkpt lat="43.65909" lon="3.82869">
        <ele>144</ele>
        <time>2013-05-30T12:28:23.28</time>
      </trkpt>
      <trkpt lat="43.65912" lon="3.82869">
        <ele>144.5</ele>
        <time>2013-05-30T12:28:24.28</time>
      </trkpt>
      <trkpt lat="43.65916" lon="3.82868">
        <ele>144.5</ele>
        <time>2013-05-30T12:28:25.29</time>
      </trkpt>
      <trkpt lat="43.65919" lon="3.82867">
        <ele>145</ele>
        <time>2013-05-30T12:28:26.28</time>
      </trkpt>
      <trkpt lat="43.65921" lon="3.82866">
        <ele>145</ele>
        <time>2013-05-30T12:28:27.29</time>
      </trkpt>
      <trkpt lat="43.65924" lon="3.82865">
        <ele>145.5</ele>
        <time>2013-05-30T12:28:28.30</time>
      </trkpt>
      <trkpt lat="43.65926" lon="3.82864">
        <ele>147</ele>
        <time>2013-05-30T12:28:29.29</time>
      </trkpt>
      <trkpt lat="43.65929" lon="3.82863">
        <ele>147.5</ele>
        <time>2013-05-30T12:28:30.28</time>
      </trkpt>
      <trkpt lat="43.65932" lon="3.82862">
        <ele>147.5</ele>
        <time>2013-05-30T12:28:31.28</time>
      </trkpt>
      <trkpt lat="43.65934" lon="3.82859">
        <ele>147.5</ele>
        <time>2013-05-30T12:28:32.29</time>
      </trkpt>
      <trkpt lat="43.65936" lon="3.82856">
        <ele>148</ele>
        <time>2013-05-30T12:28:33.28</time>
      </trkpt>
      <trkpt lat="43.65938" lon="3.82853">
        <ele>148</ele>
        <time>2013-05-30T12:28:34.28</time>
      </trkpt>
      <trkpt lat="43.6594" lon="3.8285">
        <ele>148</ele>
        <time>2013-05-30T12:28:35.28</time>
      </trkpt>
      <trkpt lat="43.65941" lon="3.82846">
        <ele>148.5</ele>
        <time>2013-05-30T12:28:36.28</time>
      </trkpt>
      <trkpt lat="43.65943" lon="3.82843">
        <ele>148.5</ele>
        <time>2013-05-30T12:28:37.28</time>
      </trkpt>
      <trkpt lat="43.65944" lon="3.82838">
        <ele>148.5</ele>
        <time>2013-05-30T12:28:38.28</time>
      </trkpt>
      <trkpt lat="43.65946" lon="3.82834">
        <ele>148.5</ele>
        <time>2013-05-30T12:28:39.29</time>
      </trkpt>
      <trkpt lat="43.65948" lon="3.8283">
        <ele>148.5</ele>
        <time>2013-05-30T12:28:40.28</time>
      </trkpt>
      <trkpt lat="43.6595" lon="3.82826">
        <ele>148.5</ele>
        <time>2013-05-30T12:28:41.29</time>
      </trkpt>
      <trkpt lat="43.65952" lon="3.82822">
        <ele>147.5</ele>
        <time>2013-05-30T12:28:42.28</time>
      </trkpt>
      <trkpt lat="43.65954" lon="3.82818">
        <ele>146.5</ele>
        <time>2013-05-30T12:28:43.29</time>
      </trkpt>
      <trkpt lat="43.65956" lon="3.82814">
        <ele>146</ele>
        <time>2013-05-30T12:28:44.29</time>
      </trkpt>
      <trkpt lat="43.65958" lon="3.8281">
        <ele>146.5</ele>
        <time>2013-05-30T12:28:45.29</time>
      </trkpt>
      <trkpt lat="43.6596" lon="3.82806">
        <ele>147</ele>
        <time>2013-05-30T12:28:46.28</time>
      </trkpt>
      <trkpt lat="43.65961" lon="3.82802">
        <ele>146.5</ele>
        <time>2013-05-30T12:28:47.29</time>
      </trkpt>
      <trkpt lat="43.65963" lon="3.82799">
        <ele>146.5</ele>
        <time>2013-05-30T12:28:48.28</time>
      </trkpt>
      <trkpt lat="43.65964" lon="3.82795">
        <ele>144.5</ele>
        <time>2013-05-30T12:28:49.29</time>
      </trkpt>
      <trkpt lat="43.65966" lon="3.82792">
        <ele>143</ele>
        <time>2013-05-30T12:28:50.28</time>
      </trkpt>
      <trkpt lat="43.65968" lon="3.82787">
        <ele>142.5</ele>
        <time>2013-05-30T12:28:51.28</time>
      </trkpt>
      <trkpt lat="43.65969" lon="3.82782">
        <ele>142</ele>
        <time>2013-05-30T12:28:52.28</time>
      </trkpt>
      <trkpt lat="43.65971" lon="3.82777">
        <ele>141.5</ele>
        <time>2013-05-30T12:28:53.28</time>
      </trkpt>
      <trkpt lat="43.65973" lon="3.82772">
        <ele>141.5</ele>
        <time>2013-05-30T12:28:54.28</time>
      </trkpt>
      <trkpt lat="43.65976" lon="3.82768">
        <ele>142.5</ele>
        <time>2013-05-30T12:28:55.28</time>
      </trkpt>
      <trkpt lat="43.65978" lon="3.82763">
        <ele>143.5</ele>
        <time>2013-05-30T12:28:56.28</time>
      </trkpt>
      <trkpt lat="43.6598" lon="3.82757">
        <ele>144.5</ele>
        <time>2013-05-30T12:28:57.28</time>
      </trkpt>
      <trkpt lat="43.65983" lon="3.82752">
        <ele>144.5</ele>
        <time>2013-05-30T12:28:58.29</time>
      </trkpt>
      <trkpt lat="43.65985" lon="3.82747">
        <ele>144.5</ele>
        <time>2013-05-30T12:28:59.28</time>
      </trkpt>
      <trkpt lat="43.65988" lon="3.82742">
        <ele>144.5</ele>
        <time>2013-05-30T12:29:00.28</time>
      </trkpt>
      <trkpt lat="43.6599" lon="3.82737">
        <ele>144.5</ele>
        <time>2013-05-30T12:29:01.28</time>
      </trkpt>
      <trkpt lat="43.65992" lon="3.82731">
        <ele>144.5</ele>
        <time>2013-05-30T12:29:02.28</time>
      </trkpt>
      <trkpt lat="43.65995" lon="3.82726">
        <ele>144.5</ele>
        <time>2013-05-30T12:29:03.28</time>
      </trkpt>
      <trkpt lat="43.65997" lon="3.8272">
        <ele>144.5</ele>
        <time>2013-05-30T12:29:04.29</time>
      </trkpt>
      <trkpt lat="43.65999" lon="3.82714">
        <ele>144</ele>
        <time>2013-05-30T12:29:05.29</time>
      </trkpt>
      <trkpt lat="43.66002" lon="3.82708">
        <ele>144.5</ele>
        <time>2013-05-30T12:29:06.28</time>
      </trkpt>
      <trkpt lat="43.66004" lon="3.82702">
        <ele>144.5</ele>
        <time>2013-05-30T12:29:07.28</time>
      </trkpt>
      <trkpt lat="43.66007" lon="3.82695">
        <ele>144</ele>
        <time>2013-05-30T12:29:08.36</time>
      </trkpt>
      <trkpt lat="43.66009" lon="3.82689">
        <ele>143.5</ele>
        <time>2013-05-30T12:29:09.28</time>
      </trkpt>
      <trkpt lat="43.66012" lon="3.82683">
        <ele>143</ele>
        <time>2013-05-30T12:29:10.28</time>
      </trkpt>
      <trkpt lat="43.66014" lon="3.82677">
        <ele>143</ele>
        <time>2013-05-30T12:29:11.28</time>
      </trkpt>
      <trkpt lat="43.66017" lon="3.8267">
        <ele>143</ele>
        <time>2013-05-30T12:29:12.29</time>
      </trkpt>
      <trkpt lat="43.66019" lon="3.82663">
        <ele>143</ele>
        <time>2013-05-30T12:29:13.29</time>
      </trkpt>
      <trkpt lat="43.66021" lon="3.82658">
        <ele>143.5</ele>
        <time>2013-05-30T12:29:14.28</time>
      </trkpt>
      <trkpt lat="43.66026" lon="3.82655">
        <ele>143.5</ele>
        <time>2013-05-30T12:29:15.29</time>
      </trkpt>
      <trkpt lat="43.6603" lon="3.82656">
        <ele>144.5</ele>
        <time>2013-05-30T12:29:16.28</time>
      </trkpt>
      <trkpt lat="43.66035" lon="3.82661">
        <ele>144.5</ele>
        <time>2013-05-30T12:29:17.28</time>
      </trkpt>
      <trkpt lat="43.66038" lon="3.82663">
        <ele>145</ele>
        <time>2013-05-30T12:29:18.28</time>
      </trkpt>
      <trkpt lat="43.66043" lon="3.82665">
        <ele>145.5</ele>
        <time>2013-05-30T12:29:19.28</time>
      </trkpt>
      <trkpt lat="43.66046" lon="3.82668">
        <ele>146</ele>
        <time>2013-05-30T12:29:20.28</time>
      </trkpt>
      <trkpt lat="43.6605" lon="3.8267">
        <ele>146.5</ele>
        <time>2013-05-30T12:29:21.28</time>
      </trkpt>
      <trkpt lat="43.66053" lon="3.82673">
        <ele>147</ele>
        <time>2013-05-30T12:29:22.28</time>
      </trkpt>
      <trkpt lat="43.66057" lon="3.82676">
        <ele>147</ele>
        <time>2013-05-30T12:29:23.28</time>
      </trkpt>
      <trkpt lat="43.6606" lon="3.82679">
        <ele>147</ele>
        <time>2013-05-30T12:29:24.31</time>
      </trkpt>
      <trkpt lat="43.66063" lon="3.82681">
        <ele>148</ele>
        <time>2013-05-30T12:29:25.28</time>
      </trkpt>
      <trkpt lat="43.66067" lon="3.82683">
        <ele>148</ele>
        <time>2013-05-30T12:29:26.28</time>
      </trkpt>
      <trkpt lat="43.6607" lon="3.82685">
        <ele>148.5</ele>
        <time>2013-05-30T12:29:27.30</time>
      </trkpt>
      <trkpt lat="43.66074" lon="3.82686">
        <ele>148.5</ele>
        <time>2013-05-30T12:29:28.28</time>
      </trkpt>
      <trkpt lat="43.66077" lon="3.82685">
        <ele>149</ele>
        <time>2013-05-30T12:29:29.28</time>
      </trkpt>
      <trkpt lat="43.66081" lon="3.82683">
        <ele>149</ele>
        <time>2013-05-30T12:29:30.27</time>
      </trkpt>
      <trkpt lat="43.66084" lon="3.8268">
        <ele>149</ele>
        <time>2013-05-30T12:29:31.28</time>
      </trkpt>
      <trkpt lat="43.66087" lon="3.82676">
        <ele>149</ele>
        <time>2013-05-30T12:29:32.28</time>
      </trkpt>
      <trkpt lat="43.66091" lon="3.82674">
        <ele>149</ele>
        <time>2013-05-30T12:29:33.28</time>
      </trkpt>
      <trkpt lat="43.66095" lon="3.82675">
        <ele>149</ele>
        <time>2013-05-30T12:29:34.27</time>
      </trkpt>
      <trkpt lat="43.66099" lon="3.82677">
        <ele>149</ele>
        <time>2013-05-30T12:29:35.28</time>
      </trkpt>
      <trkpt lat="43.66103" lon="3.82678">
        <ele>149</ele>
        <time>2013-05-30T12:29:36.28</time>
      </trkpt>
      <trkpt lat="43.66106" lon="3.82679">
        <ele>148</ele>
        <time>2013-05-30T12:29:37.37</time>
      </trkpt>
      <trkpt lat="43.66109" lon="3.82681">
        <ele>148.5</ele>
        <time>2013-05-30T12:29:38.28</time>
      </trkpt>
      <trkpt lat="43.66111" lon="3.82683">
        <ele>148.5</ele>
        <time>2013-05-30T12:29:39.28</time>
      </trkpt>
      <trkpt lat="43.66114" lon="3.82683">
        <ele>148.5</ele>
        <time>2013-05-30T12:29:40.28</time>
      </trkpt>
      <trkpt lat="43.66116" lon="3.82684">
        <ele>148.5</ele>
        <time>2013-05-30T12:29:41.28</time>
      </trkpt>
      <trkpt lat="43.66119" lon="3.82684">
        <ele>148.5</ele>
        <time>2013-05-30T12:29:42.28</time>
      </trkpt>
      <trkpt lat="43.66122" lon="3.82684">
        <ele>148</ele>
        <time>2013-05-30T12:29:43.28</time>
      </trkpt>
      <trkpt lat="43.66125" lon="3.82684">
        <ele>148</ele>
        <time>2013-05-30T12:29:44.29</time>
      </trkpt>
      <trkpt lat="43.66127" lon="3.82684">
        <ele>147.5</ele>
        <time>2013-05-30T12:29:45.28</time>
      </trkpt>
      <trkpt lat="43.6613" lon="3.82685">
        <ele>147.5</ele>
        <time>2013-05-30T12:29:46.28</time>
      </trkpt>
      <trkpt lat="43.66133" lon="3.82685">
        <ele>147.5</ele>
        <time>2013-05-30T12:29:47.28</time>
      </trkpt>
      <trkpt lat="43.66136" lon="3.82686">
        <ele>148</ele>
        <time>2013-05-30T12:29:48.28</time>
      </trkpt>
      <trkpt lat="43.66138" lon="3.82686">
        <ele>148</ele>
        <time>2013-05-30T12:29:49.28</time>
      </trkpt>
      <trkpt lat="43.66141" lon="3.82686">
        <ele>148</ele>
        <time>2013-05-30T12:29:50.28</time>
      </trkpt>
      <trkpt lat="43.66143" lon="3.82686">
        <ele>148</ele>
        <time>2013-05-30T12:29:51.28</time>
      </trkpt>
      <trkpt lat="43.66146" lon="3.82687">
        <ele>148</ele>
        <time>2013-05-30T12:29:52.28</time>
      </trkpt>
      <trkpt lat="43.66148" lon="3.82688">
        <ele>148.5</ele>
        <time>2013-05-30T12:29:53.28</time>
      </trkpt>
      <trkpt lat="43.6615" lon="3.82689">
        <ele>148.5</ele>
        <time>2013-05-30T12:29:54.28</time>
      </trkpt>
      <trkpt lat="43.66152" lon="3.8269">
        <ele>148.5</ele>
        <time>2013-05-30T12:29:55.28</time>
      </trkpt>
      <trkpt lat="43.66154" lon="3.82692">
        <ele>149</ele>
        <time>2013-05-30T12:29:56.28</time>
      </trkpt>
      <trkpt lat="43.66156" lon="3.82693">
        <ele>149.5</ele>
        <time>2013-05-30T12:29:57.28</time>
      </trkpt>
      <trkpt lat="43.66157" lon="3.82695">
        <ele>149</ele>
        <time>2013-05-30T12:29:58.28</time>
      </trkpt>
      <trkpt lat="43.66159" lon="3.82696">
        <ele>149.5</ele>
        <time>2013-05-30T12:29:59.28</time>
      </trkpt>
      <trkpt lat="43.66161" lon="3.82698">
        <ele>149.5</ele>
        <time>2013-05-30T12:30:00.28</time>
      </trkpt>
      <trkpt lat="43.66163" lon="3.827">
        <ele>150</ele>
        <time>2013-05-30T12:30:01.28</time>
      </trkpt>
      <trkpt lat="43.66165" lon="3.82701">
        <ele>150.5</ele>
        <time>2013-05-30T12:30:02.28</time>
      </trkpt>
      <trkpt lat="43.66167" lon="3.82702">
        <ele>150.5</ele>
        <time>2013-05-30T12:30:03.28</time>
      </trkpt>
      <trkpt lat="43.66169" lon="3.82703">
        <ele>150.5</ele>
        <time>2013-05-30T12:30:04.28</time>
      </trkpt>
      <trkpt lat="43.66171" lon="3.82703">
        <ele>150.5</ele>
        <time>2013-05-30T12:30:05.37</time>
      </trkpt>
      <trkpt lat="43.66174" lon="3.82704">
        <ele>150.5</ele>
        <time>2013-05-30T12:30:06.28</time>
      </trkpt>
      <trkpt lat="43.66175" lon="3.82704">
        <ele>151</ele>
        <time>2013-05-30T12:30:07.28</time>
      </trkpt>
      <trkpt lat="43.66177" lon="3.82703">
        <ele>151</ele>
        <time>2013-05-30T12:30:08.27</time>
      </trkpt>
      <trkpt lat="43.66178" lon="3.82701">
        <ele>151.5</ele>
        <time>2013-05-30T12:30:09.29</time>
      </trkpt>
      <trkpt lat="43.66179" lon="3.82697">
        <ele>152</ele>
        <time>2013-05-30T12:30:10.28</time>
      </trkpt>
      <trkpt lat="43.66181" lon="3.82693">
        <ele>152.5</ele>
        <time>2013-05-30T12:30:11.28</time>
      </trkpt>
      <trkpt lat="43.66183" lon="3.82688">
        <ele>152.5</ele>
        <time>2013-05-30T12:30:12.28</time>
      </trkpt>
      <trkpt lat="43.66185" lon="3.82683">
        <ele>152</ele>
        <time>2013-05-30T12:30:13.28</time>
      </trkpt>
      <trkpt lat="43.66187" lon="3.82677">
        <ele>151.5</ele>
        <time>2013-05-30T12:30:14.28</time>
      </trkpt>
      <trkpt lat="43.6619" lon="3.82671">
        <ele>151</ele>
        <time>2013-05-30T12:30:15.29</time>
      </trkpt>
      <trkpt lat="43.66192" lon="3.82665">
        <ele>150.5</ele>
        <time>2013-05-30T12:30:16.28</time>
      </trkpt>
      <trkpt lat="43.66195" lon="3.82658">
        <ele>150.5</ele>
        <time>2013-05-30T12:30:17.28</time>
      </trkpt>
      <trkpt lat="43.66198" lon="3.82652">
        <ele>150.5</ele>
        <time>2013-05-30T12:30:18.28</time>
      </trkpt>
      <trkpt lat="43.662" lon="3.82645">
        <ele>150.5</ele>
        <time>2013-05-30T12:30:19.29</time>
      </trkpt>
      <trkpt lat="43.66202" lon="3.82638">
        <ele>150.5</ele>
        <time>2013-05-30T12:30:20.28</time>
      </trkpt>
      <trkpt lat="43.66204" lon="3.82631">
        <ele>150.5</ele>
        <time>2013-05-30T12:30:21.28</time>
      </trkpt>
      <trkpt lat="43.66207" lon="3.82624">
        <ele>150.5</ele>
        <time>2013-05-30T12:30:22.33</time>
      </trkpt>
      <trkpt lat="43.66209" lon="3.82618">
        <ele>150.5</ele>
        <time>2013-05-30T12:30:23.28</time>
      </trkpt>
      <trkpt lat="43.66212" lon="3.82611">
        <ele>150</ele>
        <time>2013-05-30T12:30:24.28</time>
      </trkpt>
      <trkpt lat="43.66215" lon="3.82606">
        <ele>149.5</ele>
        <time>2013-05-30T12:30:25.28</time>
      </trkpt>
      <trkpt lat="43.66218" lon="3.82602">
        <ele>149.5</ele>
        <time>2013-05-30T12:30:26.28</time>
      </trkpt>
      <trkpt lat="43.66221" lon="3.82599">
        <ele>149.5</ele>
        <time>2013-05-30T12:30:27.28</time>
      </trkpt>
      <trkpt lat="43.66225" lon="3.82597">
        <ele>149.5</ele>
        <time>2013-05-30T12:30:28.28</time>
      </trkpt>
      <trkpt lat="43.66228" lon="3.82594">
        <ele>150</ele>
        <time>2013-05-30T12:30:29.28</time>
      </trkpt>
      <trkpt lat="43.66232" lon="3.82593">
        <ele>150</ele>
        <time>2013-05-30T12:30:30.29</time>
      </trkpt>
      <trkpt lat="43.66235" lon="3.82593">
        <ele>150</ele>
        <time>2013-05-30T12:30:31.28</time>
      </trkpt>
      <trkpt lat="43.66238" lon="3.82592">
        <ele>150</ele>
        <time>2013-05-30T12:30:32.28</time>
      </trkpt>
      <trkpt lat="43.66241" lon="3.8259">
        <ele>150</ele>
        <time>2013-05-30T12:30:33.28</time>
      </trkpt>
      <trkpt lat="43.66244" lon="3.82589">
        <ele>151</ele>
        <time>2013-05-30T12:30:34.29</time>
      </trkpt>
      <trkpt lat="43.66246" lon="3.82588">
        <ele>151.5</ele>
        <time>2013-05-30T12:30:35.28</time>
      </trkpt>
      <trkpt lat="43.66249" lon="3.82587">
        <ele>151.5</ele>
        <time>2013-05-30T12:30:36.28</time>
      </trkpt>
      <trkpt lat="43.66252" lon="3.82585">
        <ele>151.5</ele>
        <time>2013-05-30T12:30:37.28</time>
      </trkpt>
      <trkpt lat="43.66254" lon="3.82585">
        <ele>152</ele>
        <time>2013-05-30T12:30:38.27</time>
      </trkpt>
      <trkpt lat="43.66257" lon="3.82584">
        <ele>152</ele>
        <time>2013-05-30T12:30:39.28</time>
      </trkpt>
      <trkpt lat="43.66259" lon="3.82583">
        <ele>152.5</ele>
        <time>2013-05-30T12:30:40.27</time>
      </trkpt>
      <trkpt lat="43.66262" lon="3.82582">
        <ele>152.5</ele>
        <time>2013-05-30T12:30:41.28</time>
      </trkpt>
      <trkpt lat="43.66264" lon="3.82581">
        <ele>153.5</ele>
        <time>2013-05-30T12:30:42.28</time>
      </trkpt>
      <trkpt lat="43.66266" lon="3.8258">
        <ele>153.5</ele>
        <time>2013-05-30T12:30:43.28</time>
      </trkpt>
      <trkpt lat="43.66269" lon="3.82579">
        <ele>154</ele>
        <time>2013-05-30T12:30:44.28</time>
      </trkpt>
      <trkpt lat="43.66272" lon="3.82577">
        <ele>154</ele>
        <time>2013-05-30T12:30:45.27</time>
      </trkpt>
      <trkpt lat="43.66275" lon="3.82576">
        <ele>154</ele>
        <time>2013-05-30T12:30:46.28</time>
      </trkpt>
      <trkpt lat="43.66277" lon="3.82575">
        <ele>154.5</ele>
        <time>2013-05-30T12:30:47.28</time>
      </trkpt>
      <trkpt lat="43.6628" lon="3.82573">
        <ele>154.5</ele>
        <time>2013-05-30T12:30:48.28</time>
      </trkpt>
      <trkpt lat="43.66282" lon="3.82571">
        <ele>154.5</ele>
        <time>2013-05-30T12:30:49.27</time>
      </trkpt>
      <trkpt lat="43.66284" lon="3.82569">
        <ele>154.5</ele>
        <time>2013-05-30T12:30:50.28</time>
      </trkpt>
      <trkpt lat="43.66287" lon="3.82567">
        <ele>154.5</ele>
        <time>2013-05-30T12:30:51.27</time>
      </trkpt>
      <trkpt lat="43.66289" lon="3.82566">
        <ele>154.5</ele>
        <time>2013-05-30T12:30:52.28</time>
      </trkpt>
      <trkpt lat="43.66292" lon="3.82564">
        <ele>154.5</ele>
        <time>2013-05-30T12:30:53.28</time>
      </trkpt>
      <trkpt lat="43.66294" lon="3.82563">
        <ele>154.5</ele>
        <time>2013-05-30T12:30:54.29</time>
      </trkpt>
      <trkpt lat="43.66296" lon="3.82561">
        <ele>154.5</ele>
        <time>2013-05-30T12:30:55.28</time>
      </trkpt>
      <trkpt lat="43.66298" lon="3.82559">
        <ele>154.5</ele>
        <time>2013-05-30T12:30:56.32</time>
      </trkpt>
      <trkpt lat="43.66299" lon="3.82556">
        <ele>155</ele>
        <time>2013-05-30T12:30:57.28</time>
      </trkpt>
      <trkpt lat="43.663" lon="3.82554">
        <ele>155</ele>
        <time>2013-05-30T12:30:58.28</time>
      </trkpt>
      <trkpt lat="43.66299" lon="3.82551">
        <ele>155</ele>
        <time>2013-05-30T12:30:59.28</time>
      </trkpt>
      <trkpt lat="43.66298" lon="3.82547">
        <ele>155</ele>
        <time>2013-05-30T12:31:00.28</time>
      </trkpt>
      <trkpt lat="43.66298" lon="3.82543">
        <ele>155</ele>
        <time>2013-05-30T12:31:01.28</time>
      </trkpt>
      <trkpt lat="43.66297" lon="3.82538">
        <ele>155</ele>
        <time>2013-05-30T12:31:02.28</time>
      </trkpt>
      <trkpt lat="43.66296" lon="3.82534">
        <ele>154.5</ele>
        <time>2013-05-30T12:31:03.28</time>
      </trkpt>
      <trkpt lat="43.66296" lon="3.82529">
        <ele>153</ele>
        <time>2013-05-30T12:31:04.28</time>
      </trkpt>
      <trkpt lat="43.66296" lon="3.82524">
        <ele>153</ele>
        <time>2013-05-30T12:31:05.28</time>
      </trkpt>
      <trkpt lat="43.66296" lon="3.82519">
        <ele>153</ele>
        <time>2013-05-30T12:31:06.28</time>
      </trkpt>
      <trkpt lat="43.66296" lon="3.82513">
        <ele>152.5</ele>
        <time>2013-05-30T12:31:08.28</time>
      </trkpt>
      <trkpt lat="43.66295" lon="3.82509">
        <ele>152.5</ele>
        <time>2013-05-30T12:31:09.28</time>
      </trkpt>
      <trkpt lat="43.66296" lon="3.82504">
        <ele>152</ele>
        <time>2013-05-30T12:31:10.27</time>
      </trkpt>
      <trkpt lat="43.66296" lon="3.825">
        <ele>152</ele>
        <time>2013-05-30T12:31:11.28</time>
      </trkpt>
      <trkpt lat="43.66297" lon="3.82496">
        <ele>152</ele>
        <time>2013-05-30T12:31:12.28</time>
      </trkpt>
      <trkpt lat="43.66298" lon="3.82491">
        <ele>152</ele>
        <time>2013-05-30T12:31:13.28</time>
      </trkpt>
      <trkpt lat="43.66298" lon="3.82488">
        <ele>151.5</ele>
        <time>2013-05-30T12:31:14.28</time>
      </trkpt>
      <trkpt lat="43.66299" lon="3.82484">
        <ele>151.5</ele>
        <time>2013-05-30T12:31:15.27</time>
      </trkpt>
      <trkpt lat="43.663" lon="3.82479">
        <ele>151.5</ele>
        <time>2013-05-30T12:31:16.28</time>
      </trkpt>
      <trkpt lat="43.66301" lon="3.82474">
        <ele>151.5</ele>
        <time>2013-05-30T12:31:17.28</time>
      </trkpt>
      <trkpt lat="43.66301" lon="3.82469">
        <ele>151</ele>
        <time>2013-05-30T12:31:18.28</time>
      </trkpt>
      <trkpt lat="43.66302" lon="3.82464">
        <ele>149</ele>
        <time>2013-05-30T12:31:19.28</time>
      </trkpt>
      <trkpt lat="43.66304" lon="3.82458">
        <ele>149</ele>
        <time>2013-05-30T12:31:20.28</time>
      </trkpt>
      <trkpt lat="43.66305" lon="3.82451">
        <ele>149.5</ele>
        <time>2013-05-30T12:31:21.28</time>
      </trkpt>
      <trkpt lat="43.66308" lon="3.82448">
        <ele>149.5</ele>
        <time>2013-05-30T12:31:23.28</time>
      </trkpt>
      <trkpt lat="43.6631" lon="3.82445">
        <ele>149.5</ele>
        <time>2013-05-30T12:31:24.28</time>
      </trkpt>
      <trkpt lat="43.66312" lon="3.82443">
        <ele>149.5</ele>
        <time>2013-05-30T12:31:25.28</time>
      </trkpt>
      <trkpt lat="43.66315" lon="3.8244">
        <ele>150</ele>
        <time>2013-05-30T12:31:26.40</time>
      </trkpt>
      <trkpt lat="43.66317" lon="3.82438">
        <ele>150.5</ele>
        <time>2013-05-30T12:31:27.28</time>
      </trkpt>
      <trkpt lat="43.66319" lon="3.82436">
        <ele>150.5</ele>
        <time>2013-05-30T12:31:28.27</time>
      </trkpt>
      <trkpt lat="43.66322" lon="3.82433">
        <ele>150.5</ele>
        <time>2013-05-30T12:31:29.28</time>
      </trkpt>
      <trkpt lat="43.66325" lon="3.82433">
        <ele>151</ele>
        <time>2013-05-30T12:31:30.27</time>
      </trkpt>
      <trkpt lat="43.66327" lon="3.82431">
        <ele>150.5</ele>
        <time>2013-05-30T12:31:31.29</time>
      </trkpt>
      <trkpt lat="43.6633" lon="3.82429">
        <ele>151</ele>
        <time>2013-05-30T12:31:32.28</time>
      </trkpt>
      <trkpt lat="43.66332" lon="3.82428">
        <ele>151</ele>
        <time>2013-05-30T12:31:33.28</time>
      </trkpt>
      <trkpt lat="43.66334" lon="3.82426">
        <ele>151</ele>
        <time>2013-05-30T12:31:34.27</time>
      </trkpt>
      <trkpt lat="43.66337" lon="3.82424">
        <ele>151</ele>
        <time>2013-05-30T12:31:35.28</time>
      </trkpt>
      <trkpt lat="43.66339" lon="3.82422">
        <ele>152.5</ele>
        <time>2013-05-30T12:31:36.28</time>
      </trkpt>
      <trkpt lat="43.66341" lon="3.82419">
        <ele>152.5</ele>
        <time>2013-05-30T12:31:37.27</time>
      </trkpt>
      <trkpt lat="43.66344" lon="3.82418">
        <ele>153</ele>
        <time>2013-05-30T12:31:38.28</time>
      </trkpt>
      <trkpt lat="43.66346" lon="3.82417">
        <ele>154</ele>
        <time>2013-05-30T12:31:39.27</time>
      </trkpt>
      <trkpt lat="43.66348" lon="3.82414">
        <ele>155</ele>
        <time>2013-05-30T12:31:40.30</time>
      </trkpt>
      <trkpt lat="43.6635" lon="3.82412">
        <ele>155</ele>
        <time>2013-05-30T12:31:41.27</time>
      </trkpt>
      <trkpt lat="43.66352" lon="3.8241">
        <ele>155</ele>
        <time>2013-05-30T12:31:42.27</time>
      </trkpt>
      <trkpt lat="43.66354" lon="3.82409">
        <ele>155.5</ele>
        <time>2013-05-30T12:31:43.27</time>
      </trkpt>
      <trkpt lat="43.66356" lon="3.82407">
        <ele>156</ele>
        <time>2013-05-30T12:31:44.27</time>
      </trkpt>
      <trkpt lat="43.66358" lon="3.82405">
        <ele>156.5</ele>
        <time>2013-05-30T12:31:45.27</time>
      </trkpt>
      <trkpt lat="43.66359" lon="3.82403">
        <ele>157</ele>
        <time>2013-05-30T12:31:46.27</time>
      </trkpt>
      <trkpt lat="43.66361" lon="3.824">
        <ele>158</ele>
        <time>2013-05-30T12:31:47.28</time>
      </trkpt>
      <trkpt lat="43.66364" lon="3.82389">
        <ele>158</ele>
        <time>2013-05-30T12:31:49.28</time>
      </trkpt>
      <trkpt lat="43.66349" lon="3.82396">
        <ele>158.5</ele>
        <time>2013-05-30T12:31:52.28</time>
      </trkpt>
      <trkpt lat="43.66346" lon="3.8239">
        <ele>158.5</ele>
        <time>2013-05-30T12:31:53.28</time>
      </trkpt>
      <trkpt lat="43.66342" lon="3.82386">
        <ele>158.5</ele>
        <time>2013-05-30T12:31:54.28</time>
      </trkpt>
      <trkpt lat="43.66338" lon="3.82381">
        <ele>158.5</ele>
        <time>2013-05-30T12:31:55.28</time>
      </trkpt>
      <trkpt lat="43.66338" lon="3.82374">
        <ele>158.5</ele>
        <time>2013-05-30T12:31:56.28</time>
      </trkpt>
      <trkpt lat="43.66333" lon="3.8236">
        <ele>161</ele>
        <time>2013-05-30T12:31:58.28</time>
      </trkpt>
      <trkpt lat="43.66328" lon="3.82357">
        <ele>161</ele>
        <time>2013-05-30T12:31:59.28</time>
      </trkpt>
      <trkpt lat="43.66324" lon="3.82353">
        <ele>161</ele>
        <time>2013-05-30T12:32:00.28</time>
      </trkpt>
      <trkpt lat="43.66321" lon="3.82346">
        <ele>161</ele>
        <time>2013-05-30T12:32:01.28</time>
      </trkpt>
      <trkpt lat="43.66318" lon="3.82339">
        <ele>161</ele>
        <time>2013-05-30T12:32:02.28</time>
      </trkpt>
      <trkpt lat="43.66315" lon="3.82332">
        <ele>161.5</ele>
        <time>2013-05-30T12:32:03.28</time>
      </trkpt>
      <trkpt lat="43.66312" lon="3.82326">
        <ele>161.5</ele>
        <time>2013-05-30T12:32:04.45</time>
      </trkpt>
      <trkpt lat="43.66308" lon="3.82319">
        <ele>162.5</ele>
        <time>2013-05-30T12:32:06.28</time>
      </trkpt>
      <trkpt lat="43.66306" lon="3.82315">
        <ele>162.5</ele>
        <time>2013-05-30T12:32:07.28</time>
      </trkpt>
      <trkpt lat="43.66305" lon="3.82311">
        <ele>163</ele>
        <time>2013-05-30T12:32:08.28</time>
      </trkpt>
      <trkpt lat="43.66304" lon="3.82308">
        <ele>163.5</ele>
        <time>2013-05-30T12:32:09.30</time>
      </trkpt>
      <trkpt lat="43.66304" lon="3.82302">
        <ele>163</ele>
        <time>2013-05-30T12:32:10.28</time>
      </trkpt>
      <trkpt lat="43.66304" lon="3.82299">
        <ele>163</ele>
        <time>2013-05-30T12:32:11.28</time>
      </trkpt>
      <trkpt lat="43.66305" lon="3.82283">
        <ele>162</ele>
        <time>2013-05-30T12:32:13.28</time>
      </trkpt>
      <trkpt lat="43.66307" lon="3.82269">
        <ele>162</ele>
        <time>2013-05-30T12:32:15.27</time>
      </trkpt>
      <trkpt lat="43.66309" lon="3.82257">
        <ele>161.5</ele>
        <time>2013-05-30T12:32:17.28</time>
      </trkpt>
      <trkpt lat="43.66307" lon="3.82256">
        <ele>163</ele>
        <time>2013-05-30T12:32:18.28</time>
      </trkpt>
      <trkpt lat="43.66307" lon="3.82252">
        <ele>163</ele>
        <time>2013-05-30T12:32:19.28</time>
      </trkpt>
      <trkpt lat="43.66307" lon="3.82247">
        <ele>163</ele>
        <time>2013-05-30T12:32:20.28</time>
      </trkpt>
      <trkpt lat="43.66307" lon="3.82243">
        <ele>163</ele>
        <time>2013-05-30T12:32:21.28</time>
      </trkpt>
      <trkpt lat="43.66307" lon="3.82238">
        <ele>163</ele>
        <time>2013-05-30T12:32:22.28</time>
      </trkpt>
      <trkpt lat="43.66307" lon="3.82233">
        <ele>162.5</ele>
        <time>2013-05-30T12:32:23.27</time>
      </trkpt>
      <trkpt lat="43.66307" lon="3.82228">
        <ele>162.5</ele>
        <time>2013-05-30T12:32:24.28</time>
      </trkpt>
      <trkpt lat="43.66307" lon="3.82225">
        <ele>162.5</ele>
        <time>2013-05-30T12:32:25.27</time>
      </trkpt>
      <trkpt lat="43.66307" lon="3.82221">
        <ele>162.5</ele>
        <time>2013-05-30T12:32:26.27</time>
      </trkpt>
      <trkpt lat="43.66307" lon="3.82218">
        <ele>162</ele>
        <time>2013-05-30T12:32:27.34</time>
      </trkpt>
      <trkpt lat="43.66308" lon="3.82214">
        <ele>162</ele>
        <time>2013-05-30T12:32:28.28</time>
      </trkpt>
      <trkpt lat="43.66308" lon="3.8221">
        <ele>161.5</ele>
        <time>2013-05-30T12:32:29.28</time>
      </trkpt>
      <trkpt lat="43.66307" lon="3.82205">
        <ele>161.5</ele>
        <time>2013-05-30T12:32:30.28</time>
      </trkpt>
      <trkpt lat="43.66306" lon="3.82201">
        <ele>162</ele>
        <time>2013-05-30T12:32:31.27</time>
      </trkpt>
      <trkpt lat="43.66305" lon="3.82196">
        <ele>162</ele>
        <time>2013-05-30T12:32:32.27</time>
      </trkpt>
      <trkpt lat="43.66304" lon="3.82191">
        <ele>162</ele>
        <time>2013-05-30T12:32:33.27</time>
      </trkpt>
      <trkpt lat="43.66303" lon="3.82186">
        <ele>162</ele>
        <time>2013-05-30T12:32:34.27</time>
      </trkpt>
      <trkpt lat="43.66302" lon="3.82181">
        <ele>162</ele>
        <time>2013-05-30T12:32:35.27</time>
      </trkpt>
      <trkpt lat="43.663" lon="3.82176">
        <ele>162.5</ele>
        <time>2013-05-30T12:32:36.28</time>
      </trkpt>
      <trkpt lat="43.66296" lon="3.82169">
        <ele>163</ele>
        <time>2013-05-30T12:32:38.28</time>
      </trkpt>
      <trkpt lat="43.66294" lon="3.82163">
        <ele>163</ele>
        <time>2013-05-30T12:32:39.28</time>
      </trkpt>
      <trkpt lat="43.6629" lon="3.82158">
        <ele>162.5</ele>
        <time>2013-05-30T12:32:40.28</time>
      </trkpt>
      <trkpt lat="43.66286" lon="3.82152">
        <ele>162.5</ele>
        <time>2013-05-30T12:32:41.28</time>
      </trkpt>
      <trkpt lat="43.66283" lon="3.82146">
        <ele>162</ele>
        <time>2013-05-30T12:32:42.28</time>
      </trkpt>
      <trkpt lat="43.66279" lon="3.82139">
        <ele>162.5</ele>
        <time>2013-05-30T12:32:43.27</time>
      </trkpt>
      <trkpt lat="43.66276" lon="3.82131">
        <ele>162</ele>
        <time>2013-05-30T12:32:44.28</time>
      </trkpt>
      <trkpt lat="43.66273" lon="3.82123">
        <ele>162.5</ele>
        <time>2013-05-30T12:32:45.28</time>
      </trkpt>
      <trkpt lat="43.66271" lon="3.82115">
        <ele>162.5</ele>
        <time>2013-05-30T12:32:46.28</time>
      </trkpt>
      <trkpt lat="43.66269" lon="3.82108">
        <ele>163</ele>
        <time>2013-05-30T12:32:47.29</time>
      </trkpt>
      <trkpt lat="43.66267" lon="3.82102">
        <ele>163</ele>
        <time>2013-05-30T12:32:48.28</time>
      </trkpt>
      <trkpt lat="43.66265" lon="3.82095">
        <ele>163</ele>
        <time>2013-05-30T12:32:49.28</time>
      </trkpt>
      <trkpt lat="43.66261" lon="3.82089">
        <ele>163</ele>
        <time>2013-05-30T12:32:50.28</time>
      </trkpt>
      <trkpt lat="43.66257" lon="3.82081">
        <ele>163</ele>
        <time>2013-05-30T12:32:51.28</time>
      </trkpt>
      <trkpt lat="43.66253" lon="3.82073">
        <ele>163</ele>
        <time>2013-05-30T12:32:52.28</time>
      </trkpt>
      <trkpt lat="43.66248" lon="3.82064">
        <ele>163</ele>
        <time>2013-05-30T12:32:53.28</time>
      </trkpt>
      <trkpt lat="43.66245" lon="3.82056">
        <ele>164</ele>
        <time>2013-05-30T12:32:54.28</time>
      </trkpt>
      <trkpt lat="43.66243" lon="3.82049">
        <ele>165.5</ele>
        <time>2013-05-30T12:32:55.28</time>
      </trkpt>
      <trkpt lat="43.66242" lon="3.82043">
        <ele>165.5</ele>
        <time>2013-05-30T12:32:56.28</time>
      </trkpt>
      <trkpt lat="43.66241" lon="3.82037">
        <ele>166</ele>
        <time>2013-05-30T12:32:57.29</time>
      </trkpt>
      <trkpt lat="43.6624" lon="3.82032">
        <ele>165</ele>
        <time>2013-05-30T12:32:58.28</time>
      </trkpt>
      <trkpt lat="43.66238" lon="3.82027">
        <ele>163.5</ele>
        <time>2013-05-30T12:32:59.28</time>
      </trkpt>
      <trkpt lat="43.66235" lon="3.82026">
        <ele>163</ele>
        <time>2013-05-30T12:33:00.28</time>
      </trkpt>
      <trkpt lat="43.66224" lon="3.82021">
        <ele>164.5</ele>
        <time>2013-05-30T12:33:02.27</time>
      </trkpt>
      <trkpt lat="43.66219" lon="3.82017">
        <ele>164</ele>
        <time>2013-05-30T12:33:03.28</time>
      </trkpt>
      <trkpt lat="43.66213" lon="3.82013">
        <ele>164.5</ele>
        <time>2013-05-30T12:33:04.28</time>
      </trkpt>
      <trkpt lat="43.66205" lon="3.82012">
        <ele>165</ele>
        <time>2013-05-30T12:33:05.27</time>
      </trkpt>
      <trkpt lat="43.66199" lon="3.8201">
        <ele>165.5</ele>
        <time>2013-05-30T12:33:06.27</time>
      </trkpt>
      <trkpt lat="43.66197" lon="3.82002">
        <ele>164</ele>
        <time>2013-05-30T12:33:07.27</time>
      </trkpt>
      <trkpt lat="43.66197" lon="3.81995">
        <ele>164</ele>
        <time>2013-05-30T12:33:08.28</time>
      </trkpt>
      <trkpt lat="43.66199" lon="3.81987">
        <ele>163.5</ele>
        <time>2013-05-30T12:33:10.29</time>
      </trkpt>
      <trkpt lat="43.662" lon="3.81983">
        <ele>164</ele>
        <time>2013-05-30T12:33:11.28</time>
      </trkpt>
      <trkpt lat="43.66201" lon="3.81978">
        <ele>163.5</ele>
        <time>2013-05-30T12:33:12.27</time>
      </trkpt>
      <trkpt lat="43.66204" lon="3.81975">
        <ele>163.5</ele>
        <time>2013-05-30T12:33:13.28</time>
      </trkpt>
      <trkpt lat="43.66205" lon="3.81971">
        <ele>163.5</ele>
        <time>2013-05-30T12:33:14.27</time>
      </trkpt>
      <trkpt lat="43.66205" lon="3.81969">
        <ele>163</ele>
        <time>2013-05-30T12:33:15.28</time>
      </trkpt>
      <trkpt lat="43.66205" lon="3.81966">
        <ele>164</ele>
        <time>2013-05-30T12:33:16.28</time>
      </trkpt>
      <trkpt lat="43.66205" lon="3.81962">
        <ele>164</ele>
        <time>2013-05-30T12:33:17.29</time>
      </trkpt>
      <trkpt lat="43.66205" lon="3.81958">
        <ele>164</ele>
        <time>2013-05-30T12:33:18.27</time>
      </trkpt>
      <trkpt lat="43.66205" lon="3.81953">
        <ele>163</ele>
        <time>2013-05-30T12:33:19.27</time>
      </trkpt>
      <trkpt lat="43.66206" lon="3.81948">
        <ele>163</ele>
        <time>2013-05-30T12:33:20.27</time>
      </trkpt>
      <trkpt lat="43.66206" lon="3.81944">
        <ele>162</ele>
        <time>2013-05-30T12:33:21.28</time>
      </trkpt>
      <trkpt lat="43.66206" lon="3.81939">
        <ele>161</ele>
        <time>2013-05-30T12:33:22.28</time>
      </trkpt>
      <trkpt lat="43.66207" lon="3.81934">
        <ele>160</ele>
        <time>2013-05-30T12:33:23.34</time>
      </trkpt>
      <trkpt lat="43.66208" lon="3.81929">
        <ele>159.5</ele>
        <time>2013-05-30T12:33:24.28</time>
      </trkpt>
      <trkpt lat="43.66209" lon="3.81924">
        <ele>158.5</ele>
        <time>2013-05-30T12:33:25.28</time>
      </trkpt>
      <trkpt lat="43.6621" lon="3.8192">
        <ele>158.5</ele>
        <time>2013-05-30T12:33:26.28</time>
      </trkpt>
      <trkpt lat="43.66211" lon="3.81916">
        <ele>157.5</ele>
        <time>2013-05-30T12:33:27.28</time>
      </trkpt>
      <trkpt lat="43.66212" lon="3.81911">
        <ele>156.5</ele>
        <time>2013-05-30T12:33:28.28</time>
      </trkpt>
      <trkpt lat="43.66213" lon="3.81907">
        <ele>156</ele>
        <time>2013-05-30T12:33:29.28</time>
      </trkpt>
      <trkpt lat="43.66214" lon="3.81902">
        <ele>155.5</ele>
        <time>2013-05-30T12:33:30.28</time>
      </trkpt>
      <trkpt lat="43.66214" lon="3.81898">
        <ele>155</ele>
        <time>2013-05-30T12:33:31.28</time>
      </trkpt>
      <trkpt lat="43.66215" lon="3.81893">
        <ele>155</ele>
        <time>2013-05-30T12:33:32.27</time>
      </trkpt>
      <trkpt lat="43.66215" lon="3.81889">
        <ele>155</ele>
        <time>2013-05-30T12:33:33.28</time>
      </trkpt>
      <trkpt lat="43.66215" lon="3.81885">
        <ele>154.5</ele>
        <time>2013-05-30T12:33:34.32</time>
      </trkpt>
      <trkpt lat="43.66214" lon="3.81881">
        <ele>155</ele>
        <time>2013-05-30T12:33:35.28</time>
      </trkpt>
      <trkpt lat="43.66215" lon="3.81876">
        <ele>157.5</ele>
        <time>2013-05-30T12:33:37.28</time>
      </trkpt>
      <trkpt lat="43.66216" lon="3.81871">
        <ele>158</ele>
        <time>2013-05-30T12:33:38.28</time>
      </trkpt>
      <trkpt lat="43.66217" lon="3.81866">
        <ele>157</ele>
        <time>2013-05-30T12:33:39.28</time>
      </trkpt>
      <trkpt lat="43.66218" lon="3.8186">
        <ele>157</ele>
        <time>2013-05-30T12:33:40.28</time>
      </trkpt>
      <trkpt lat="43.66218" lon="3.81855">
        <ele>156.5</ele>
        <time>2013-05-30T12:33:41.28</time>
      </trkpt>
      <trkpt lat="43.66219" lon="3.81851">
        <ele>157</ele>
        <time>2013-05-30T12:33:43.28</time>
      </trkpt>
      <trkpt lat="43.66221" lon="3.81847">
        <ele>156</ele>
        <time>2013-05-30T12:33:44.27</time>
      </trkpt>
      <trkpt lat="43.66223" lon="3.81844">
        <ele>154.5</ele>
        <time>2013-05-30T12:33:45.28</time>
      </trkpt>
      <trkpt lat="43.66224" lon="3.81841">
        <ele>153.5</ele>
        <time>2013-05-30T12:33:46.27</time>
      </trkpt>
      <trkpt lat="43.66223" lon="3.81837">
        <ele>153</ele>
        <time>2013-05-30T12:33:47.28</time>
      </trkpt>
      <trkpt lat="43.66223" lon="3.81833">
        <ele>152.5</ele>
        <time>2013-05-30T12:33:48.28</time>
      </trkpt>
      <trkpt lat="43.66223" lon="3.81829">
        <ele>152</ele>
        <time>2013-05-30T12:33:49.27</time>
      </trkpt>
      <trkpt lat="43.66222" lon="3.81825">
        <ele>152</ele>
        <time>2013-05-30T12:33:50.28</time>
      </trkpt>
      <trkpt lat="43.66222" lon="3.8182">
        <ele>152</ele>
        <time>2013-05-30T12:33:51.28</time>
      </trkpt>
      <trkpt lat="43.66221" lon="3.81815">
        <ele>152.5</ele>
        <time>2013-05-30T12:33:52.27</time>
      </trkpt>
      <trkpt lat="43.66222" lon="3.8181">
        <ele>152.5</ele>
        <time>2013-05-30T12:33:53.28</time>
      </trkpt>
      <trkpt lat="43.66223" lon="3.81806">
        <ele>151.5</ele>
        <time>2013-05-30T12:33:54.28</time>
      </trkpt>
      <trkpt lat="43.66222" lon="3.81803">
        <ele>153.5</ele>
        <time>2013-05-30T12:33:55.28</time>
      </trkpt>
      <trkpt lat="43.66222" lon="3.81799">
        <ele>154</ele>
        <time>2013-05-30T12:33:56.27</time>
      </trkpt>
      <trkpt lat="43.66222" lon="3.81796">
        <ele>153.5</ele>
        <time>2013-05-30T12:33:57.27</time>
      </trkpt>
      <trkpt lat="43.66222" lon="3.81791">
        <ele>154</ele>
        <time>2013-05-30T12:33:58.28</time>
      </trkpt>
      <trkpt lat="43.66222" lon="3.81787">
        <ele>154.5</ele>
        <time>2013-05-30T12:33:59.28</time>
      </trkpt>
      <trkpt lat="43.66223" lon="3.81784">
        <ele>154</ele>
        <time>2013-05-30T12:34:00.28</time>
      </trkpt>
      <trkpt lat="43.66224" lon="3.81781">
        <ele>154.5</ele>
        <time>2013-05-30T12:34:01.28</time>
      </trkpt>
      <trkpt lat="43.66225" lon="3.81778">
        <ele>155.5</ele>
        <time>2013-05-30T12:34:02.28</time>
      </trkpt>
      <trkpt lat="43.66225" lon="3.81775">
        <ele>155.5</ele>
        <time>2013-05-30T12:34:03.27</time>
      </trkpt>
      <trkpt lat="43.66225" lon="3.81772">
        <ele>155</ele>
        <time>2013-05-30T12:34:04.29</time>
      </trkpt>
      <trkpt lat="43.66226" lon="3.8177">
        <ele>155.5</ele>
        <time>2013-05-30T12:34:05.27</time>
      </trkpt>
      <trkpt lat="43.66225" lon="3.81767">
        <ele>155.5</ele>
        <time>2013-05-30T12:34:06.28</time>
      </trkpt>
      <trkpt lat="43.66225" lon="3.81763">
        <ele>156</ele>
        <time>2013-05-30T12:34:07.28</time>
      </trkpt>
      <trkpt lat="43.66224" lon="3.81758">
        <ele>157</ele>
        <time>2013-05-30T12:34:08.28</time>
      </trkpt>
      <trkpt lat="43.66224" lon="3.81754">
        <ele>157.5</ele>
        <time>2013-05-30T12:34:09.28</time>
      </trkpt>
      <trkpt lat="43.66223" lon="3.8175">
        <ele>157</ele>
        <time>2013-05-30T12:34:10.28</time>
      </trkpt>
      <trkpt lat="43.66222" lon="3.81745">
        <ele>157.5</ele>
        <time>2013-05-30T12:34:11.28</time>
      </trkpt>
      <trkpt lat="43.66222" lon="3.8174">
        <ele>158</ele>
        <time>2013-05-30T12:34:12.31</time>
      </trkpt>
      <trkpt lat="43.66221" lon="3.81736">
        <ele>158.5</ele>
        <time>2013-05-30T12:34:13.28</time>
      </trkpt>
      <trkpt lat="43.66222" lon="3.81732">
        <ele>158.5</ele>
        <time>2013-05-30T12:34:14.29</time>
      </trkpt>
      <trkpt lat="43.66223" lon="3.81728">
        <ele>157</ele>
        <time>2013-05-30T12:34:15.28</time>
      </trkpt>
      <trkpt lat="43.66222" lon="3.81725">
        <ele>157</ele>
        <time>2013-05-30T12:34:16.28</time>
      </trkpt>
      <trkpt lat="43.6622" lon="3.81722">
        <ele>158</ele>
        <time>2013-05-30T12:34:17.28</time>
      </trkpt>
      <trkpt lat="43.66219" lon="3.81718">
        <ele>158.5</ele>
        <time>2013-05-30T12:34:18.27</time>
      </trkpt>
      <trkpt lat="43.66219" lon="3.81715">
        <ele>158.5</ele>
        <time>2013-05-30T12:34:19.28</time>
      </trkpt>
      <trkpt lat="43.66219" lon="3.81711">
        <ele>158.5</ele>
        <time>2013-05-30T12:34:20.28</time>
      </trkpt>
      <trkpt lat="43.66218" lon="3.81707">
        <ele>159</ele>
        <time>2013-05-30T12:34:21.28</time>
      </trkpt>
      <trkpt lat="43.66219" lon="3.81703">
        <ele>159</ele>
        <time>2013-05-30T12:34:22.28</time>
      </trkpt>
      <trkpt lat="43.66219" lon="3.81701">
        <ele>159</ele>
        <time>2013-05-30T12:34:23.27</time>
      </trkpt>
      <trkpt lat="43.66218" lon="3.81697">
        <ele>159</ele>
        <time>2013-05-30T12:34:24.28</time>
      </trkpt>
      <trkpt lat="43.66217" lon="3.81694">
        <ele>159.5</ele>
        <time>2013-05-30T12:34:25.28</time>
      </trkpt>
      <trkpt lat="43.66218" lon="3.8169">
        <ele>160</ele>
        <time>2013-05-30T12:34:26.28</time>
      </trkpt>
      <trkpt lat="43.66218" lon="3.81687">
        <ele>160</ele>
        <time>2013-05-30T12:34:27.27</time>
      </trkpt>
      <trkpt lat="43.66219" lon="3.81683">
        <ele>159.5</ele>
        <time>2013-05-30T12:34:28.27</time>
      </trkpt>
      <trkpt lat="43.6622" lon="3.81679">
        <ele>159.5</ele>
        <time>2013-05-30T12:34:29.27</time>
      </trkpt>
      <trkpt lat="43.66221" lon="3.81675">
        <ele>159.5</ele>
        <time>2013-05-30T12:34:30.27</time>
      </trkpt>
      <trkpt lat="43.66218" lon="3.81669">
        <ele>160.5</ele>
        <time>2013-05-30T12:34:31.57</time>
      </trkpt>
      <trkpt lat="43.66216" lon="3.81664">
        <ele>160.5</ele>
        <time>2013-05-30T12:34:32.57</time>
      </trkpt>
      <trkpt lat="43.66216" lon="3.81659">
        <ele>161</ele>
        <time>2013-05-30T12:34:33.58</time>
      </trkpt>
      <trkpt lat="43.66214" lon="3.81654">
        <ele>161.5</ele>
        <time>2013-05-30T12:34:34.57</time>
      </trkpt>
      <trkpt lat="43.66212" lon="3.81648">
        <ele>160.5</ele>
        <time>2013-05-30T12:34:35.57</time>
      </trkpt>
      <trkpt lat="43.66214" lon="3.8164">
        <ele>161.5</ele>
        <time>2013-05-30T12:34:36.57</time>
      </trkpt>
      <trkpt lat="43.66215" lon="3.81633">
        <ele>160.5</ele>
        <time>2013-05-30T12:34:37.58</time>
      </trkpt>
      <trkpt lat="43.66212" lon="3.81629">
        <ele>160</ele>
        <time>2013-05-30T12:34:40.58</time>
      </trkpt>
      <trkpt lat="43.6621" lon="3.81627">
        <ele>160</ele>
        <time>2013-05-30T12:34:41.58</time>
      </trkpt>
      <trkpt lat="43.66209" lon="3.81623">
        <ele>160</ele>
        <time>2013-05-30T12:34:42.57</time>
      </trkpt>
      <trkpt lat="43.6621" lon="3.81617">
        <ele>160</ele>
        <time>2013-05-30T12:34:43.58</time>
      </trkpt>
      <trkpt lat="43.6621" lon="3.81611">
        <ele>160</ele>
        <time>2013-05-30T12:34:44.58</time>
      </trkpt>
      <trkpt lat="43.66209" lon="3.81605">
        <ele>161</ele>
        <time>2013-05-30T12:34:45.58</time>
      </trkpt>
      <trkpt lat="43.66208" lon="3.816">
        <ele>161</ele>
        <time>2013-05-30T12:34:46.58</time>
      </trkpt>
      <trkpt lat="43.66206" lon="3.81596">
        <ele>161.5</ele>
        <time>2013-05-30T12:34:47.58</time>
      </trkpt>
      <trkpt lat="43.66203" lon="3.81592">
        <ele>160.5</ele>
        <time>2013-05-30T12:34:48.58</time>
      </trkpt>
      <trkpt lat="43.662" lon="3.81588">
        <ele>160.5</ele>
        <time>2013-05-30T12:34:49.58</time>
      </trkpt>
      <trkpt lat="43.66199" lon="3.81582">
        <ele>161.5</ele>
        <time>2013-05-30T12:34:50.58</time>
      </trkpt>
      <trkpt lat="43.66204" lon="3.81571">
        <ele>162</ele>
        <time>2013-05-30T12:34:52.58</time>
      </trkpt>
      <trkpt lat="43.66206" lon="3.81565">
        <ele>161.5</ele>
        <time>2013-05-30T12:34:53.58</time>
      </trkpt>
      <trkpt lat="43.66206" lon="3.8156">
        <ele>160</ele>
        <time>2013-05-30T12:34:54.58</time>
      </trkpt>
      <trkpt lat="43.66204" lon="3.81556">
        <ele>158.5</ele>
        <time>2013-05-30T12:34:55.58</time>
      </trkpt>
      <trkpt lat="43.66203" lon="3.81552">
        <ele>158.5</ele>
        <time>2013-05-30T12:34:56.57</time>
      </trkpt>
      <trkpt lat="43.66202" lon="3.81548">
        <ele>158</ele>
        <time>2013-05-30T12:34:57.57</time>
      </trkpt>
      <trkpt lat="43.662" lon="3.81544">
        <ele>157.5</ele>
        <time>2013-05-30T12:34:58.58</time>
      </trkpt>
      <trkpt lat="43.66198" lon="3.8154">
        <ele>156.5</ele>
        <time>2013-05-30T12:34:59.57</time>
      </trkpt>
      <trkpt lat="43.66197" lon="3.81535">
        <ele>155.5</ele>
        <time>2013-05-30T12:35:00.58</time>
      </trkpt>
      <trkpt lat="43.66196" lon="3.8153">
        <ele>154.5</ele>
        <time>2013-05-30T12:35:01.57</time>
      </trkpt>
      <trkpt lat="43.66193" lon="3.81527">
        <ele>154.5</ele>
        <time>2013-05-30T12:35:02.57</time>
      </trkpt>
      <trkpt lat="43.6619" lon="3.81523">
        <ele>153.5</ele>
        <time>2013-05-30T12:35:03.57</time>
      </trkpt>
      <trkpt lat="43.66189" lon="3.81517">
        <ele>153</ele>
        <time>2013-05-30T12:35:04.57</time>
      </trkpt>
      <trkpt lat="43.66189" lon="3.81512">
        <ele>152.5</ele>
        <time>2013-05-30T12:35:05.57</time>
      </trkpt>
      <trkpt lat="43.66189" lon="3.81506">
        <ele>152</ele>
        <time>2013-05-30T12:35:06.58</time>
      </trkpt>
      <trkpt lat="43.66189" lon="3.81502">
        <ele>152</ele>
        <time>2013-05-30T12:35:07.57</time>
      </trkpt>
      <trkpt lat="43.66188" lon="3.81496">
        <ele>152</ele>
        <time>2013-05-30T12:35:08.73</time>
      </trkpt>
      <trkpt lat="43.66186" lon="3.81492">
        <ele>151.5</ele>
        <time>2013-05-30T12:35:09.59</time>
      </trkpt>
      <trkpt lat="43.66183" lon="3.81489">
        <ele>150.5</ele>
        <time>2013-05-30T12:35:11.59</time>
      </trkpt>
      <trkpt lat="43.66179" lon="3.81486">
        <ele>150</ele>
        <time>2013-05-30T12:35:12.60</time>
      </trkpt>
      <trkpt lat="43.66177" lon="3.81478">
        <ele>148</ele>
        <time>2013-05-30T12:35:13.59</time>
      </trkpt>
      <trkpt lat="43.66174" lon="3.81473">
        <ele>147.5</ele>
        <time>2013-05-30T12:35:14.59</time>
      </trkpt>
      <trkpt lat="43.6617" lon="3.81467">
        <ele>146</ele>
        <time>2013-05-30T12:35:15.59</time>
      </trkpt>
      <trkpt lat="43.66166" lon="3.81462">
        <ele>145.5</ele>
        <time>2013-05-30T12:35:16.60</time>
      </trkpt>
      <trkpt lat="43.66163" lon="3.81458">
        <ele>147</ele>
        <time>2013-05-30T12:35:17.59</time>
      </trkpt>
      <trkpt lat="43.66163" lon="3.81453">
        <ele>146.5</ele>
        <time>2013-05-30T12:35:18.59</time>
      </trkpt>
      <trkpt lat="43.66164" lon="3.81448">
        <ele>145.5</ele>
        <time>2013-05-30T12:35:19.59</time>
      </trkpt>
      <trkpt lat="43.66165" lon="3.81443">
        <ele>145</ele>
        <time>2013-05-30T12:35:21.66</time>
      </trkpt>
      <trkpt lat="43.66167" lon="3.81441">
        <ele>144.5</ele>
        <time>2013-05-30T12:35:22.59</time>
      </trkpt>
      <trkpt lat="43.66166" lon="3.81439">
        <ele>144</ele>
        <time>2013-05-30T12:35:23.59</time>
      </trkpt>
      <trkpt lat="43.66167" lon="3.81435">
        <ele>143</ele>
        <time>2013-05-30T12:35:24.59</time>
      </trkpt>
      <trkpt lat="43.66167" lon="3.81431">
        <ele>142.5</ele>
        <time>2013-05-30T12:35:25.59</time>
      </trkpt>
      <trkpt lat="43.66166" lon="3.81428">
        <ele>142</ele>
        <time>2013-05-30T12:35:26.59</time>
      </trkpt>
      <trkpt lat="43.66164" lon="3.81425">
        <ele>142.5</ele>
        <time>2013-05-30T12:35:27.59</time>
      </trkpt>
      <trkpt lat="43.66161" lon="3.81422">
        <ele>143</ele>
        <time>2013-05-30T12:35:28.59</time>
      </trkpt>
      <trkpt lat="43.66158" lon="3.81419">
        <ele>142.5</ele>
        <time>2013-05-30T12:35:29.62</time>
      </trkpt>
      <trkpt lat="43.66154" lon="3.81403">
        <ele>141</ele>
        <time>2013-05-30T12:35:31.58</time>
      </trkpt>
      <trkpt lat="43.66152" lon="3.81396">
        <ele>140</ele>
        <time>2013-05-30T12:35:32.59</time>
      </trkpt>
      <trkpt lat="43.6615" lon="3.81388">
        <ele>139.5</ele>
        <time>2013-05-30T12:35:33.59</time>
      </trkpt>
      <trkpt lat="43.66148" lon="3.8138">
        <ele>139</ele>
        <time>2013-05-30T12:35:34.59</time>
      </trkpt>
      <trkpt lat="43.66146" lon="3.81371">
        <ele>139</ele>
        <time>2013-05-30T12:35:35.59</time>
      </trkpt>
      <trkpt lat="43.66145" lon="3.81363">
        <ele>138</ele>
        <time>2013-05-30T12:35:36.60</time>
      </trkpt>
      <trkpt lat="43.66143" lon="3.81355">
        <ele>137</ele>
        <time>2013-05-30T12:35:37.59</time>
      </trkpt>
      <trkpt lat="43.66142" lon="3.81348">
        <ele>136.5</ele>
        <time>2013-05-30T12:35:38.59</time>
      </trkpt>
      <trkpt lat="43.66142" lon="3.81341">
        <ele>134.5</ele>
        <time>2013-05-30T12:35:39.60</time>
      </trkpt>
      <trkpt lat="43.6614" lon="3.81335">
        <ele>134.5</ele>
        <time>2013-05-30T12:35:40.59</time>
      </trkpt>
      <trkpt lat="43.66139" lon="3.81331">
        <ele>135</ele>
        <time>2013-05-30T12:35:41.59</time>
      </trkpt>
      <trkpt lat="43.66141" lon="3.81328">
        <ele>134.5</ele>
        <time>2013-05-30T12:35:42.59</time>
      </trkpt>
      <trkpt lat="43.66144" lon="3.81325">
        <ele>136</ele>
        <time>2013-05-30T12:35:44.60</time>
      </trkpt>
      <trkpt lat="43.66147" lon="3.81323">
        <ele>135.5</ele>
        <time>2013-05-30T12:35:45.64</time>
      </trkpt>
      <trkpt lat="43.6615" lon="3.81321">
        <ele>134.5</ele>
        <time>2013-05-30T12:35:46.59</time>
      </trkpt>
      <trkpt lat="43.66152" lon="3.81319">
        <ele>134</ele>
        <time>2013-05-30T12:35:47.60</time>
      </trkpt>
      <trkpt lat="43.66155" lon="3.81317">
        <ele>134</ele>
        <time>2013-05-30T12:35:48.59</time>
      </trkpt>
      <trkpt lat="43.66158" lon="3.81316">
        <ele>133.5</ele>
        <time>2013-05-30T12:35:49.60</time>
      </trkpt>
      <trkpt lat="43.66161" lon="3.81314">
        <ele>133.5</ele>
        <time>2013-05-30T12:35:50.60</time>
      </trkpt>
      <trkpt lat="43.66163" lon="3.81311">
        <ele>134</ele>
        <time>2013-05-30T12:35:51.59</time>
      </trkpt>
      <trkpt lat="43.66166" lon="3.81309">
        <ele>135</ele>
        <time>2013-05-30T12:35:52.59</time>
      </trkpt>
      <trkpt lat="43.66168" lon="3.81307">
        <ele>135.5</ele>
        <time>2013-05-30T12:35:53.58</time>
      </trkpt>
      <trkpt lat="43.66173" lon="3.81304">
        <ele>135.5</ele>
        <time>2013-05-30T12:35:55.59</time>
      </trkpt>
      <trkpt lat="43.66175" lon="3.81302">
        <ele>135.5</ele>
        <time>2013-05-30T12:35:56.59</time>
      </trkpt>
      <trkpt lat="43.66178" lon="3.81301">
        <ele>135.5</ele>
        <time>2013-05-30T12:35:57.59</time>
      </trkpt>
      <trkpt lat="43.66181" lon="3.813">
        <ele>136</ele>
        <time>2013-05-30T12:35:58.59</time>
      </trkpt>
      <trkpt lat="43.66183" lon="3.81298">
        <ele>136.5</ele>
        <time>2013-05-30T12:35:59.60</time>
      </trkpt>
      <trkpt lat="43.66188" lon="3.81294">
        <ele>136.5</ele>
        <time>2013-05-30T12:36:01.59</time>
      </trkpt>
      <trkpt lat="43.66191" lon="3.81292">
        <ele>136.5</ele>
        <time>2013-05-30T12:36:02.59</time>
      </trkpt>
      <trkpt lat="43.66193" lon="3.81291">
        <ele>136.5</ele>
        <time>2013-05-30T12:36:03.58</time>
      </trkpt>
      <trkpt lat="43.66196" lon="3.8129">
        <ele>137</ele>
        <time>2013-05-30T12:36:04.60</time>
      </trkpt>
      <trkpt lat="43.66199" lon="3.81288">
        <ele>137.5</ele>
        <time>2013-05-30T12:36:05.59</time>
      </trkpt>
      <trkpt lat="43.66201" lon="3.81286">
        <ele>137.5</ele>
        <time>2013-05-30T12:36:06.59</time>
      </trkpt>
      <trkpt lat="43.66204" lon="3.81285">
        <ele>137.5</ele>
        <time>2013-05-30T12:36:07.58</time>
      </trkpt>
      <trkpt lat="43.66206" lon="3.81283">
        <ele>138</ele>
        <time>2013-05-30T12:36:08.59</time>
      </trkpt>
      <trkpt lat="43.66209" lon="3.81281">
        <ele>138</ele>
        <time>2013-05-30T12:36:09.59</time>
      </trkpt>
      <trkpt lat="43.66211" lon="3.81279">
        <ele>138.5</ele>
        <time>2013-05-30T12:36:10.58</time>
      </trkpt>
      <trkpt lat="43.66213" lon="3.81277">
        <ele>139</ele>
        <time>2013-05-30T12:36:11.58</time>
      </trkpt>
      <trkpt lat="43.66216" lon="3.81276">
        <ele>139</ele>
        <time>2013-05-30T12:36:12.60</time>
      </trkpt>
      <trkpt lat="43.66218" lon="3.81275">
        <ele>139</ele>
        <time>2013-05-30T12:36:13.58</time>
      </trkpt>
      <trkpt lat="43.66221" lon="3.81274">
        <ele>139.5</ele>
        <time>2013-05-30T12:36:14.58</time>
      </trkpt>
      <trkpt lat="43.66223" lon="3.81272">
        <ele>139.5</ele>
        <time>2013-05-30T12:36:15.58</time>
      </trkpt>
      <trkpt lat="43.66226" lon="3.81272">
        <ele>140</ele>
        <time>2013-05-30T12:36:16.59</time>
      </trkpt>
      <trkpt lat="43.66228" lon="3.81271">
        <ele>140.5</ele>
        <time>2013-05-30T12:36:17.59</time>
      </trkpt>
      <trkpt lat="43.6623" lon="3.8127">
        <ele>141</ele>
        <time>2013-05-30T12:36:18.59</time>
      </trkpt>
      <trkpt lat="43.66233" lon="3.8127">
        <ele>141.5</ele>
        <time>2013-05-30T12:36:19.58</time>
      </trkpt>
      <trkpt lat="43.66235" lon="3.81269">
        <ele>141.5</ele>
        <time>2013-05-30T12:36:20.58</time>
      </trkpt>
      <trkpt lat="43.66238" lon="3.81268">
        <ele>142</ele>
        <time>2013-05-30T12:36:21.59</time>
      </trkpt>
      <trkpt lat="43.6624" lon="3.81268">
        <ele>142</ele>
        <time>2013-05-30T12:36:22.58</time>
      </trkpt>
      <trkpt lat="43.66243" lon="3.81268">
        <ele>142</ele>
        <time>2013-05-30T12:36:23.59</time>
      </trkpt>
      <trkpt lat="43.66246" lon="3.81267">
        <ele>142.5</ele>
        <time>2013-05-30T12:36:24.58</time>
      </trkpt>
      <trkpt lat="43.66249" lon="3.81267">
        <ele>143</ele>
        <time>2013-05-30T12:36:25.59</time>
      </trkpt>
      <trkpt lat="43.66251" lon="3.81266">
        <ele>143</ele>
        <time>2013-05-30T12:36:26.58</time>
      </trkpt>
      <trkpt lat="43.66254" lon="3.81265">
        <ele>143.5</ele>
        <time>2013-05-30T12:36:27.63</time>
      </trkpt>
      <trkpt lat="43.66256" lon="3.81264">
        <ele>143.5</ele>
        <time>2013-05-30T12:36:28.58</time>
      </trkpt>
      <trkpt lat="43.66259" lon="3.81263">
        <ele>144</ele>
        <time>2013-05-30T12:36:29.58</time>
      </trkpt>
      <trkpt lat="43.66261" lon="3.81261">
        <ele>144.5</ele>
        <time>2013-05-30T12:36:30.58</time>
      </trkpt>
      <trkpt lat="43.66264" lon="3.81259">
        <ele>144</ele>
        <time>2013-05-30T12:36:31.60</time>
      </trkpt>
      <trkpt lat="43.66266" lon="3.81258">
        <ele>144.5</ele>
        <time>2013-05-30T12:36:32.59</time>
      </trkpt>
      <trkpt lat="43.66269" lon="3.81256">
        <ele>145</ele>
        <time>2013-05-30T12:36:33.59</time>
      </trkpt>
      <trkpt lat="43.66271" lon="3.81254">
        <ele>145</ele>
        <time>2013-05-30T12:36:34.59</time>
      </trkpt>
      <trkpt lat="43.66273" lon="3.81252">
        <ele>145.5</ele>
        <time>2013-05-30T12:36:35.59</time>
      </trkpt>
      <trkpt lat="43.66275" lon="3.8125">
        <ele>145.5</ele>
        <time>2013-05-30T12:36:36.69</time>
      </trkpt>
      <trkpt lat="43.66278" lon="3.81248">
        <ele>146</ele>
        <time>2013-05-30T12:36:37.58</time>
      </trkpt>
      <trkpt lat="43.6628" lon="3.81245">
        <ele>146</ele>
        <time>2013-05-30T12:36:38.58</time>
      </trkpt>
      <trkpt lat="43.66282" lon="3.81243">
        <ele>146.5</ele>
        <time>2013-05-30T12:36:39.59</time>
      </trkpt>
      <trkpt lat="43.66284" lon="3.81241">
        <ele>147</ele>
        <time>2013-05-30T12:36:40.58</time>
      </trkpt>
      <trkpt lat="43.66286" lon="3.81239">
        <ele>147.5</ele>
        <time>2013-05-30T12:36:41.58</time>
      </trkpt>
      <trkpt lat="43.66288" lon="3.81237">
        <ele>148.5</ele>
        <time>2013-05-30T12:36:42.59</time>
      </trkpt>
      <trkpt lat="43.66291" lon="3.81235">
        <ele>149</ele>
        <time>2013-05-30T12:36:43.59</time>
      </trkpt>
      <trkpt lat="43.66293" lon="3.81234">
        <ele>149.5</ele>
        <time>2013-05-30T12:36:44.59</time>
      </trkpt>
      <trkpt lat="43.66295" lon="3.81233">
        <ele>149.5</ele>
        <time>2013-05-30T12:36:45.59</time>
      </trkpt>
      <trkpt lat="43.66298" lon="3.81232">
        <ele>150</ele>
        <time>2013-05-30T12:36:46.58</time>
      </trkpt>
      <trkpt lat="43.663" lon="3.81231">
        <ele>150</ele>
        <time>2013-05-30T12:36:47.59</time>
      </trkpt>
      <trkpt lat="43.66302" lon="3.81231">
        <ele>150.5</ele>
        <time>2013-05-30T12:36:48.58</time>
      </trkpt>
      <trkpt lat="43.66305" lon="3.81231">
        <ele>150.5</ele>
        <time>2013-05-30T12:36:49.59</time>
      </trkpt>
      <trkpt lat="43.66307" lon="3.81231">
        <ele>151</ele>
        <time>2013-05-30T12:36:50.59</time>
      </trkpt>
      <trkpt lat="43.66309" lon="3.81232">
        <ele>151.5</ele>
        <time>2013-05-30T12:36:51.59</time>
      </trkpt>
      <trkpt lat="43.66311" lon="3.81232">
        <ele>151.5</ele>
        <time>2013-05-30T12:36:52.58</time>
      </trkpt>
      <trkpt lat="43.66313" lon="3.81232">
        <ele>151.5</ele>
        <time>2013-05-30T12:36:53.59</time>
      </trkpt>
      <trkpt lat="43.66316" lon="3.81231">
        <ele>151</ele>
        <time>2013-05-30T12:36:54.59</time>
      </trkpt>
      <trkpt lat="43.66318" lon="3.81231">
        <ele>151.5</ele>
        <time>2013-05-30T12:36:55.58</time>
      </trkpt>
      <trkpt lat="43.6632" lon="3.81231">
        <ele>151.5</ele>
        <time>2013-05-30T12:36:56.59</time>
      </trkpt>
      <trkpt lat="43.66322" lon="3.81231">
        <ele>151</ele>
        <time>2013-05-30T12:36:57.58</time>
      </trkpt>
      <trkpt lat="43.66325" lon="3.81231">
        <ele>151</ele>
        <time>2013-05-30T12:36:58.58</time>
      </trkpt>
      <trkpt lat="43.66327" lon="3.8123">
        <ele>151</ele>
        <time>2013-05-30T12:36:59.58</time>
      </trkpt>
      <trkpt lat="43.66329" lon="3.81229">
        <ele>151.5</ele>
        <time>2013-05-30T12:37:00.59</time>
      </trkpt>
      <trkpt lat="43.66332" lon="3.81228">
        <ele>151.5</ele>
        <time>2013-05-30T12:37:01.59</time>
      </trkpt>
      <trkpt lat="43.66334" lon="3.81228">
        <ele>152</ele>
        <time>2013-05-30T12:37:02.59</time>
      </trkpt>
      <trkpt lat="43.66336" lon="3.81228">
        <ele>152</ele>
        <time>2013-05-30T12:37:03.59</time>
      </trkpt>
      <trkpt lat="43.66338" lon="3.81228">
        <ele>152</ele>
        <time>2013-05-30T12:37:04.59</time>
      </trkpt>
      <trkpt lat="43.6634" lon="3.81227">
        <ele>152</ele>
        <time>2013-05-30T12:37:05.59</time>
      </trkpt>
      <trkpt lat="43.66341" lon="3.81227">
        <ele>152</ele>
        <time>2013-05-30T12:37:06.59</time>
      </trkpt>
      <trkpt lat="43.66343" lon="3.81227">
        <ele>152.5</ele>
        <time>2013-05-30T12:37:07.59</time>
      </trkpt>
      <trkpt lat="43.66345" lon="3.81226">
        <ele>154.5</ele>
        <time>2013-05-30T12:37:08.59</time>
      </trkpt>
      <trkpt lat="43.66347" lon="3.81225">
        <ele>155</ele>
        <time>2013-05-30T12:37:09.61</time>
      </trkpt>
      <trkpt lat="43.66351" lon="3.81226">
        <ele>154.5</ele>
        <time>2013-05-30T12:37:11.59</time>
      </trkpt>
      <trkpt lat="43.66353" lon="3.81227">
        <ele>154</ele>
        <time>2013-05-30T12:37:12.59</time>
      </trkpt>
      <trkpt lat="43.66355" lon="3.81227">
        <ele>153</ele>
        <time>2013-05-30T12:37:13.58</time>
      </trkpt>
      <trkpt lat="43.66357" lon="3.81228">
        <ele>152.5</ele>
        <time>2013-05-30T12:37:14.59</time>
      </trkpt>
      <trkpt lat="43.66359" lon="3.81228">
        <ele>152.5</ele>
        <time>2013-05-30T12:37:15.59</time>
      </trkpt>
      <trkpt lat="43.66361" lon="3.81229">
        <ele>152.5</ele>
        <time>2013-05-30T12:37:16.58</time>
      </trkpt>
      <trkpt lat="43.66363" lon="3.8123">
        <ele>153</ele>
        <time>2013-05-30T12:37:17.58</time>
      </trkpt>
      <trkpt lat="43.66365" lon="3.8123">
        <ele>153</ele>
        <time>2013-05-30T12:37:18.58</time>
      </trkpt>
      <trkpt lat="43.66368" lon="3.8123">
        <ele>153</ele>
        <time>2013-05-30T12:37:19.58</time>
      </trkpt>
      <trkpt lat="43.6637" lon="3.8123">
        <ele>153</ele>
        <time>2013-05-30T12:37:20.58</time>
      </trkpt>
      <trkpt lat="43.66372" lon="3.8123">
        <ele>153.5</ele>
        <time>2013-05-30T12:37:21.59</time>
      </trkpt>
      <trkpt lat="43.66375" lon="3.8123">
        <ele>154</ele>
        <time>2013-05-30T12:37:22.58</time>
      </trkpt>
      <trkpt lat="43.66377" lon="3.81229">
        <ele>154.5</ele>
        <time>2013-05-30T12:37:23.66</time>
      </trkpt>
      <trkpt lat="43.66379" lon="3.81229">
        <ele>155</ele>
        <time>2013-05-30T12:37:24.59</time>
      </trkpt>
      <trkpt lat="43.66382" lon="3.81228">
        <ele>155</ele>
        <time>2013-05-30T12:37:25.59</time>
      </trkpt>
      <trkpt lat="43.66384" lon="3.81227">
        <ele>156</ele>
        <time>2013-05-30T12:37:26.59</time>
      </trkpt>
      <trkpt lat="43.66386" lon="3.81227">
        <ele>156.5</ele>
        <time>2013-05-30T12:37:27.59</time>
      </trkpt>
      <trkpt lat="43.66389" lon="3.81227">
        <ele>157.5</ele>
        <time>2013-05-30T12:37:28.59</time>
      </trkpt>
      <trkpt lat="43.66391" lon="3.81227">
        <ele>158.5</ele>
        <time>2013-05-30T12:37:29.58</time>
      </trkpt>
      <trkpt lat="43.66393" lon="3.81228">
        <ele>158</ele>
        <time>2013-05-30T12:37:30.59</time>
      </trkpt>
      <trkpt lat="43.66395" lon="3.81228">
        <ele>158.5</ele>
        <time>2013-05-30T12:37:31.59</time>
      </trkpt>
      <trkpt lat="43.66398" lon="3.81228">
        <ele>158.5</ele>
        <time>2013-05-30T12:37:32.59</time>
      </trkpt>
      <trkpt lat="43.664" lon="3.81228">
        <ele>159.5</ele>
        <time>2013-05-30T12:37:33.59</time>
      </trkpt>
      <trkpt lat="43.66402" lon="3.81228">
        <ele>160</ele>
        <time>2013-05-30T12:37:34.59</time>
      </trkpt>
      <trkpt lat="43.66404" lon="3.81228">
        <ele>160.5</ele>
        <time>2013-05-30T12:37:35.58</time>
      </trkpt>
      <trkpt lat="43.66406" lon="3.81228">
        <ele>160.5</ele>
        <time>2013-05-30T12:37:36.59</time>
      </trkpt>
      <trkpt lat="43.66409" lon="3.81228">
        <ele>160.5</ele>
        <time>2013-05-30T12:37:37.59</time>
      </trkpt>
      <trkpt lat="43.66411" lon="3.81227">
        <ele>161.5</ele>
        <time>2013-05-30T12:37:38.59</time>
      </trkpt>
      <trkpt lat="43.66413" lon="3.81227">
        <ele>161</ele>
        <time>2013-05-30T12:37:39.59</time>
      </trkpt>
      <trkpt lat="43.66415" lon="3.81226">
        <ele>161.5</ele>
        <time>2013-05-30T12:37:40.59</time>
      </trkpt>
      <trkpt lat="43.66418" lon="3.81226">
        <ele>161.5</ele>
        <time>2013-05-30T12:37:41.59</time>
      </trkpt>
      <trkpt lat="43.6642" lon="3.81225">
        <ele>162</ele>
        <time>2013-05-30T12:37:42.59</time>
      </trkpt>
      <trkpt lat="43.66422" lon="3.81224">
        <ele>162</ele>
        <time>2013-05-30T12:37:43.59</time>
      </trkpt>
      <trkpt lat="43.66424" lon="3.81223">
        <ele>162</ele>
        <time>2013-05-30T12:37:44.59</time>
      </trkpt>
      <trkpt lat="43.66426" lon="3.81223">
        <ele>161.5</ele>
        <time>2013-05-30T12:37:45.59</time>
      </trkpt>
      <trkpt lat="43.66428" lon="3.81222">
        <ele>160.5</ele>
        <time>2013-05-30T12:37:46.61</time>
      </trkpt>
      <trkpt lat="43.66431" lon="3.81222">
        <ele>160.5</ele>
        <time>2013-05-30T12:37:47.59</time>
      </trkpt>
      <trkpt lat="43.66433" lon="3.81222">
        <ele>160.5</ele>
        <time>2013-05-30T12:37:48.59</time>
      </trkpt>
      <trkpt lat="43.66435" lon="3.81221">
        <ele>160.5</ele>
        <time>2013-05-30T12:37:49.58</time>
      </trkpt>
      <trkpt lat="43.66438" lon="3.81221">
        <ele>161.5</ele>
        <time>2013-05-30T12:37:50.58</time>
      </trkpt>
      <trkpt lat="43.6644" lon="3.81221">
        <ele>162.5</ele>
        <time>2013-05-30T12:37:51.59</time>
      </trkpt>
      <trkpt lat="43.66442" lon="3.81222">
        <ele>162</ele>
        <time>2013-05-30T12:37:52.59</time>
      </trkpt>
      <trkpt lat="43.66444" lon="3.81222">
        <ele>162</ele>
        <time>2013-05-30T12:37:53.58</time>
      </trkpt>
      <trkpt lat="43.66446" lon="3.81222">
        <ele>162.5</ele>
        <time>2013-05-30T12:37:54.58</time>
      </trkpt>
      <trkpt lat="43.66449" lon="3.81222">
        <ele>162</ele>
        <time>2013-05-30T12:37:55.59</time>
      </trkpt>
      <trkpt lat="43.66451" lon="3.81223">
        <ele>162</ele>
        <time>2013-05-30T12:37:56.58</time>
      </trkpt>
      <trkpt lat="43.66453" lon="3.81223">
        <ele>162</ele>
        <time>2013-05-30T12:37:57.59</time>
      </trkpt>
      <trkpt lat="43.66455" lon="3.81224">
        <ele>162</ele>
        <time>2013-05-30T12:37:58.62</time>
      </trkpt>
      <trkpt lat="43.66457" lon="3.81223">
        <ele>162</ele>
        <time>2013-05-30T12:37:59.59</time>
      </trkpt>
      <trkpt lat="43.66459" lon="3.81223">
        <ele>162.5</ele>
        <time>2013-05-30T12:38:01.16</time>
      </trkpt>
      <trkpt lat="43.66462" lon="3.81224">
        <ele>162</ele>
        <time>2013-05-30T12:38:01.80</time>
      </trkpt>
      <trkpt lat="43.66464" lon="3.81224">
        <ele>162</ele>
        <time>2013-05-30T12:38:02.81</time>
      </trkpt>
      <trkpt lat="43.66466" lon="3.81225">
        <ele>162</ele>
        <time>2013-05-30T12:38:03.81</time>
      </trkpt>
      <trkpt lat="43.66468" lon="3.81224">
        <ele>162.5</ele>
        <time>2013-05-30T12:38:04.80</time>
      </trkpt>
      <trkpt lat="43.6647" lon="3.81225">
        <ele>162.5</ele>
        <time>2013-05-30T12:38:05.81</time>
      </trkpt>
      <trkpt lat="43.66473" lon="3.81225">
        <ele>162.5</ele>
        <time>2013-05-30T12:38:06.81</time>
      </trkpt>
      <trkpt lat="43.66475" lon="3.81225">
        <ele>162.5</ele>
        <time>2013-05-30T12:38:07.81</time>
      </trkpt>
      <trkpt lat="43.66477" lon="3.81225">
        <ele>162.5</ele>
        <time>2013-05-30T12:38:08.80</time>
      </trkpt>
      <trkpt lat="43.6648" lon="3.81226">
        <ele>162.5</ele>
        <time>2013-05-30T12:38:09.81</time>
      </trkpt>
      <trkpt lat="43.66482" lon="3.81227">
        <ele>163</ele>
        <time>2013-05-30T12:38:10.81</time>
      </trkpt>
      <trkpt lat="43.66484" lon="3.81227">
        <ele>162.5</ele>
        <time>2013-05-30T12:38:11.81</time>
      </trkpt>
      <trkpt lat="43.66486" lon="3.81227">
        <ele>163</ele>
        <time>2013-05-30T12:38:12.81</time>
      </trkpt>
      <trkpt lat="43.66489" lon="3.81228">
        <ele>163.5</ele>
        <time>2013-05-30T12:38:13.82</time>
      </trkpt>
      <trkpt lat="43.66491" lon="3.81228">
        <ele>163.5</ele>
        <time>2013-05-30T12:38:14.81</time>
      </trkpt>
      <trkpt lat="43.66494" lon="3.81229">
        <ele>164</ele>
        <time>2013-05-30T12:38:15.81</time>
      </trkpt>
      <trkpt lat="43.66496" lon="3.81229">
        <ele>164</ele>
        <time>2013-05-30T12:38:16.81</time>
      </trkpt>
      <trkpt lat="43.66498" lon="3.81229">
        <ele>164</ele>
        <time>2013-05-30T12:38:17.81</time>
      </trkpt>
      <trkpt lat="43.665" lon="3.8123">
        <ele>164</ele>
        <time>2013-05-30T12:38:18.81</time>
      </trkpt>
      <trkpt lat="43.66502" lon="3.8123">
        <ele>164</ele>
        <time>2013-05-30T12:38:19.81</time>
      </trkpt>
      <trkpt lat="43.66504" lon="3.8123">
        <ele>164</ele>
        <time>2013-05-30T12:38:20.81</time>
      </trkpt>
      <trkpt lat="43.66507" lon="3.81231">
        <ele>164</ele>
        <time>2013-05-30T12:38:21.81</time>
      </trkpt>
      <trkpt lat="43.66509" lon="3.81231">
        <ele>164</ele>
        <time>2013-05-30T12:38:22.81</time>
      </trkpt>
      <trkpt lat="43.66511" lon="3.81231">
        <ele>164</ele>
        <time>2013-05-30T12:38:23.81</time>
      </trkpt>
      <trkpt lat="43.66514" lon="3.81231">
        <ele>164.5</ele>
        <time>2013-05-30T12:38:24.81</time>
      </trkpt>
      <trkpt lat="43.66516" lon="3.81231">
        <ele>165</ele>
        <time>2013-05-30T12:38:25.81</time>
      </trkpt>
      <trkpt lat="43.66518" lon="3.81231">
        <ele>165.5</ele>
        <time>2013-05-30T12:38:26.81</time>
      </trkpt>
      <trkpt lat="43.66521" lon="3.81231">
        <ele>165.5</ele>
        <time>2013-05-30T12:38:27.81</time>
      </trkpt>
      <trkpt lat="43.66523" lon="3.81231">
        <ele>166</ele>
        <time>2013-05-30T12:38:28.81</time>
      </trkpt>
      <trkpt lat="43.66525" lon="3.81231">
        <ele>166</ele>
        <time>2013-05-30T12:38:29.81</time>
      </trkpt>
      <trkpt lat="43.66528" lon="3.81232">
        <ele>166</ele>
        <time>2013-05-30T12:38:30.80</time>
      </trkpt>
      <trkpt lat="43.6653" lon="3.81232">
        <ele>166</ele>
        <time>2013-05-30T12:38:31.81</time>
      </trkpt>
      <trkpt lat="43.66532" lon="3.81231">
        <ele>167</ele>
        <time>2013-05-30T12:38:32.81</time>
      </trkpt>
      <trkpt lat="43.66534" lon="3.81231">
        <ele>167.5</ele>
        <time>2013-05-30T12:38:33.81</time>
      </trkpt>
      <trkpt lat="43.66537" lon="3.81231">
        <ele>167.5</ele>
        <time>2013-05-30T12:38:34.80</time>
      </trkpt>
      <trkpt lat="43.66539" lon="3.81231">
        <ele>166.5</ele>
        <time>2013-05-30T12:38:35.81</time>
      </trkpt>
      <trkpt lat="43.66541" lon="3.8123">
        <ele>166</ele>
        <time>2013-05-30T12:38:36.80</time>
      </trkpt>
      <trkpt lat="43.66544" lon="3.8123">
        <ele>166</ele>
        <time>2013-05-30T12:38:37.81</time>
      </trkpt>
      <trkpt lat="43.66546" lon="3.8123">
        <ele>166.5</ele>
        <time>2013-05-30T12:38:38.80</time>
      </trkpt>
      <trkpt lat="43.66552" lon="3.81227">
        <ele>169</ele>
        <time>2013-05-30T12:38:40.91</time>
      </trkpt>
      <trkpt lat="43.66554" lon="3.81226">
        <ele>169.5</ele>
        <time>2013-05-30T12:38:41.90</time>
      </trkpt>
      <trkpt lat="43.66556" lon="3.81225">
        <ele>171</ele>
        <time>2013-05-30T12:38:42.89</time>
      </trkpt>
      <trkpt lat="43.66558" lon="3.81225">
        <ele>171.5</ele>
        <time>2013-05-30T12:38:43.91</time>
      </trkpt>
      <trkpt lat="43.6656" lon="3.81225">
        <ele>172.5</ele>
        <time>2013-05-30T12:38:44.90</time>
      </trkpt>
      <trkpt lat="43.66562" lon="3.81224">
        <ele>173</ele>
        <time>2013-05-30T12:38:45.90</time>
      </trkpt>
      <trkpt lat="43.66564" lon="3.81224">
        <ele>175</ele>
        <time>2013-05-30T12:38:46.91</time>
      </trkpt>
      <trkpt lat="43.66566" lon="3.81224">
        <ele>175.5</ele>
        <time>2013-05-30T12:38:47.90</time>
      </trkpt>
      <trkpt lat="43.66568" lon="3.81225">
        <ele>177</ele>
        <time>2013-05-30T12:38:48.91</time>
      </trkpt>
      <trkpt lat="43.6657" lon="3.81225">
        <ele>177</ele>
        <time>2013-05-30T12:38:50.12</time>
      </trkpt>
      <trkpt lat="43.66573" lon="3.81224">
        <ele>181</ele>
        <time>2013-05-30T12:38:51.90</time>
      </trkpt>
      <trkpt lat="43.66574" lon="3.81224">
        <ele>183.5</ele>
        <time>2013-05-30T12:38:52.90</time>
      </trkpt>
      <trkpt lat="43.66577" lon="3.81224">
        <ele>183.5</ele>
        <time>2013-05-30T12:38:53.90</time>
      </trkpt>
      <trkpt lat="43.66579" lon="3.81224">
        <ele>184</ele>
        <time>2013-05-30T12:38:54.90</time>
      </trkpt>
      <trkpt lat="43.6658" lon="3.81224">
        <ele>184</ele>
        <time>2013-05-30T12:38:55.89</time>
      </trkpt>
      <trkpt lat="43.66582" lon="3.81224">
        <ele>184.5</ele>
        <time>2013-05-30T12:38:56.90</time>
      </trkpt>
      <trkpt lat="43.66584" lon="3.81223">
        <ele>184</ele>
        <time>2013-05-30T12:38:57.90</time>
      </trkpt>
      <trkpt lat="43.66586" lon="3.81224">
        <ele>184</ele>
        <time>2013-05-30T12:38:59.25</time>
      </trkpt>
      <trkpt lat="43.66588" lon="3.81224">
        <ele>183.5</ele>
        <time>2013-05-30T12:38:59.89</time>
      </trkpt>
      <trkpt lat="43.6659" lon="3.81224">
        <ele>183.5</ele>
        <time>2013-05-30T12:39:01.72</time>
      </trkpt>
      <trkpt lat="43.66592" lon="3.81225">
        <ele>183</ele>
        <time>2013-05-30T12:39:02.72</time>
      </trkpt>
      <trkpt lat="43.66594" lon="3.81225">
        <ele>183</ele>
        <time>2013-05-30T12:39:03.72</time>
      </trkpt>
      <trkpt lat="43.66596" lon="3.81224">
        <ele>183</ele>
        <time>2013-05-30T12:39:04.73</time>
      </trkpt>
      <trkpt lat="43.66597" lon="3.81223">
        <ele>183</ele>
        <time>2013-05-30T12:39:05.72</time>
      </trkpt>
      <trkpt lat="43.66599" lon="3.81222">
        <ele>183</ele>
        <time>2013-05-30T12:39:06.73</time>
      </trkpt>
      <trkpt lat="43.66601" lon="3.81221">
        <ele>183</ele>
        <time>2013-05-30T12:39:07.72</time>
      </trkpt>
      <trkpt lat="43.66603" lon="3.81221">
        <ele>183</ele>
        <time>2013-05-30T12:39:08.73</time>
      </trkpt>
      <trkpt lat="43.66605" lon="3.8122">
        <ele>182.5</ele>
        <time>2013-05-30T12:39:09.74</time>
      </trkpt>
      <trkpt lat="43.66607" lon="3.81219">
        <ele>182.5</ele>
        <time>2013-05-30T12:39:10.73</time>
      </trkpt>
      <trkpt lat="43.66609" lon="3.81218">
        <ele>182.5</ele>
        <time>2013-05-30T12:39:11.72</time>
      </trkpt>
      <trkpt lat="43.66611" lon="3.81217">
        <ele>182.5</ele>
        <time>2013-05-30T12:39:12.72</time>
      </trkpt>
      <trkpt lat="43.66613" lon="3.81216">
        <ele>182</ele>
        <time>2013-05-30T12:39:13.73</time>
      </trkpt>
      <trkpt lat="43.66616" lon="3.81215">
        <ele>181.5</ele>
        <time>2013-05-30T12:39:14.73</time>
      </trkpt>
      <trkpt lat="43.66618" lon="3.81214">
        <ele>181</ele>
        <time>2013-05-30T12:39:15.72</time>
      </trkpt>
      <trkpt lat="43.6662" lon="3.81214">
        <ele>181</ele>
        <time>2013-05-30T12:39:16.72</time>
      </trkpt>
      <trkpt lat="43.66623" lon="3.81213">
        <ele>180.5</ele>
        <time>2013-05-30T12:39:17.72</time>
      </trkpt>
      <trkpt lat="43.66625" lon="3.81213">
        <ele>180.5</ele>
        <time>2013-05-30T12:39:18.72</time>
      </trkpt>
      <trkpt lat="43.66627" lon="3.81212">
        <ele>180.5</ele>
        <time>2013-05-30T12:39:19.73</time>
      </trkpt>
      <trkpt lat="43.6663" lon="3.81212">
        <ele>180.5</ele>
        <time>2013-05-30T12:39:20.73</time>
      </trkpt>
      <trkpt lat="43.66633" lon="3.81212">
        <ele>180.5</ele>
        <time>2013-05-30T12:39:21.72</time>
      </trkpt>
      <trkpt lat="43.66635" lon="3.81212">
        <ele>180</ele>
        <time>2013-05-30T12:39:22.72</time>
      </trkpt>
      <trkpt lat="43.66638" lon="3.81212">
        <ele>180</ele>
        <time>2013-05-30T12:39:23.72</time>
      </trkpt>
      <trkpt lat="43.6664" lon="3.81212">
        <ele>180</ele>
        <time>2013-05-30T12:39:24.73</time>
      </trkpt>
      <trkpt lat="43.66643" lon="3.81212">
        <ele>180</ele>
        <time>2013-05-30T12:39:25.73</time>
      </trkpt>
      <trkpt lat="43.66646" lon="3.81212">
        <ele>180</ele>
        <time>2013-05-30T12:39:26.73</time>
      </trkpt>
      <trkpt lat="43.66648" lon="3.81212">
        <ele>180.5</ele>
        <time>2013-05-30T12:39:27.74</time>
      </trkpt>
      <trkpt lat="43.6665" lon="3.8121">
        <ele>182</ele>
        <time>2013-05-30T12:39:28.73</time>
      </trkpt>
      <trkpt lat="43.66653" lon="3.81209">
        <ele>182</ele>
        <time>2013-05-30T12:39:29.73</time>
      </trkpt>
      <trkpt lat="43.66655" lon="3.81208">
        <ele>182</ele>
        <time>2013-05-30T12:39:30.72</time>
      </trkpt>
      <trkpt lat="43.66658" lon="3.81207">
        <ele>182.5</ele>
        <time>2013-05-30T12:39:31.73</time>
      </trkpt>
      <trkpt lat="43.6666" lon="3.81206">
        <ele>182.5</ele>
        <time>2013-05-30T12:39:32.90</time>
      </trkpt>
      <trkpt lat="43.66662" lon="3.81205">
        <ele>182.5</ele>
        <time>2013-05-30T12:39:34.25</time>
      </trkpt>
      <trkpt lat="43.66665" lon="3.81204">
        <ele>183</ele>
        <time>2013-05-30T12:39:34.73</time>
      </trkpt>
      <trkpt lat="43.66667" lon="3.81204">
        <ele>183</ele>
        <time>2013-05-30T12:39:35.72</time>
      </trkpt>
      <trkpt lat="43.6667" lon="3.81204">
        <ele>183</ele>
        <time>2013-05-30T12:39:36.72</time>
      </trkpt>
      <trkpt lat="43.66672" lon="3.81203">
        <ele>183</ele>
        <time>2013-05-30T12:39:37.73</time>
      </trkpt>
      <trkpt lat="43.66675" lon="3.81203">
        <ele>183</ele>
        <time>2013-05-30T12:39:38.72</time>
      </trkpt>
      <trkpt lat="43.66677" lon="3.81203">
        <ele>183</ele>
        <time>2013-05-30T12:39:39.73</time>
      </trkpt>
      <trkpt lat="43.6668" lon="3.81204">
        <ele>183</ele>
        <time>2013-05-30T12:39:40.73</time>
      </trkpt>
      <trkpt lat="43.66683" lon="3.81204">
        <ele>183</ele>
        <time>2013-05-30T12:39:41.81</time>
      </trkpt>
      <trkpt lat="43.66686" lon="3.81205">
        <ele>183</ele>
        <time>2013-05-30T12:39:42.72</time>
      </trkpt>
      <trkpt lat="43.66689" lon="3.81206">
        <ele>183</ele>
        <time>2013-05-30T12:39:43.72</time>
      </trkpt>
      <trkpt lat="43.66693" lon="3.81208">
        <ele>183</ele>
        <time>2013-05-30T12:39:44.72</time>
      </trkpt>
      <trkpt lat="43.66696" lon="3.81209">
        <ele>183.5</ele>
        <time>2013-05-30T12:39:45.72</time>
      </trkpt>
      <trkpt lat="43.667" lon="3.81209">
        <ele>183.5</ele>
        <time>2013-05-30T12:39:46.73</time>
      </trkpt>
      <trkpt lat="43.66704" lon="3.81209">
        <ele>184</ele>
        <time>2013-05-30T12:39:47.72</time>
      </trkpt>
      <trkpt lat="43.66708" lon="3.81208">
        <ele>182.5</ele>
        <time>2013-05-30T12:39:48.73</time>
      </trkpt>
      <trkpt lat="43.66711" lon="3.81206">
        <ele>183</ele>
        <time>2013-05-30T12:39:49.72</time>
      </trkpt>
      <trkpt lat="43.66714" lon="3.81205">
        <ele>183</ele>
        <time>2013-05-30T12:39:50.75</time>
      </trkpt>
      <trkpt lat="43.66716" lon="3.81204">
        <ele>182.5</ele>
        <time>2013-05-30T12:39:51.72</time>
      </trkpt>
      <trkpt lat="43.66719" lon="3.81203">
        <ele>182.5</ele>
        <time>2013-05-30T12:39:52.72</time>
      </trkpt>
      <trkpt lat="43.66722" lon="3.81203">
        <ele>182.5</ele>
        <time>2013-05-30T12:39:53.72</time>
      </trkpt>
      <trkpt lat="43.66725" lon="3.81203">
        <ele>183</ele>
        <time>2013-05-30T12:39:54.72</time>
      </trkpt>
      <trkpt lat="43.66728" lon="3.81203">
        <ele>183</ele>
        <time>2013-05-30T12:39:55.73</time>
      </trkpt>
      <trkpt lat="43.66731" lon="3.81204">
        <ele>183.5</ele>
        <time>2013-05-30T12:39:56.72</time>
      </trkpt>
      <trkpt lat="43.66734" lon="3.81206">
        <ele>183</ele>
        <time>2013-05-30T12:39:57.74</time>
      </trkpt>
      <trkpt lat="43.66738" lon="3.81208">
        <ele>183</ele>
        <time>2013-05-30T12:39:58.72</time>
      </trkpt>
      <trkpt lat="43.66741" lon="3.8121">
        <ele>183</ele>
        <time>2013-05-30T12:39:59.72</time>
      </trkpt>
      <trkpt lat="43.66745" lon="3.8121">
        <ele>183</ele>
        <time>2013-05-30T12:40:00.73</time>
      </trkpt>
      <trkpt lat="43.66748" lon="3.81209">
        <ele>183</ele>
        <time>2013-05-30T12:40:01.72</time>
      </trkpt>
      <trkpt lat="43.66749" lon="3.81207">
        <ele>183</ele>
        <time>2013-05-30T12:40:02.72</time>
      </trkpt>
      <trkpt lat="43.66751" lon="3.81204">
        <ele>183</ele>
        <time>2013-05-30T12:40:03.72</time>
      </trkpt>
      <trkpt lat="43.66752" lon="3.81202">
        <ele>182</ele>
        <time>2013-05-30T12:40:04.73</time>
      </trkpt>
      <trkpt lat="43.66754" lon="3.81201">
        <ele>181</ele>
        <time>2013-05-30T12:40:05.72</time>
      </trkpt>
      <trkpt lat="43.66757" lon="3.812">
        <ele>180.5</ele>
        <time>2013-05-30T12:40:06.73</time>
      </trkpt>
      <trkpt lat="43.66759" lon="3.81199">
        <ele>179.5</ele>
        <time>2013-05-30T12:40:07.72</time>
      </trkpt>
      <trkpt lat="43.66762" lon="3.81197">
        <ele>179.5</ele>
        <time>2013-05-30T12:40:08.72</time>
      </trkpt>
      <trkpt lat="43.66764" lon="3.81194">
        <ele>179</ele>
        <time>2013-05-30T12:40:09.72</time>
      </trkpt>
      <trkpt lat="43.66766" lon="3.8119">
        <ele>179</ele>
        <time>2013-05-30T12:40:10.72</time>
      </trkpt>
      <trkpt lat="43.66768" lon="3.81188">
        <ele>179</ele>
        <time>2013-05-30T12:40:11.72</time>
      </trkpt>
      <trkpt lat="43.66769" lon="3.81186">
        <ele>178.5</ele>
        <time>2013-05-30T12:40:12.79</time>
      </trkpt>
      <trkpt lat="43.66769" lon="3.81184">
        <ele>178</ele>
        <time>2013-05-30T12:40:13.74</time>
      </trkpt>
      <trkpt lat="43.6677" lon="3.81182">
        <ele>178</ele>
        <time>2013-05-30T12:40:14.73</time>
      </trkpt>
      <trkpt lat="43.6677" lon="3.8118">
        <ele>178</ele>
        <time>2013-05-30T12:40:15.72</time>
      </trkpt>
      <trkpt lat="43.6677" lon="3.81178">
        <ele>178</ele>
        <time>2013-05-30T12:40:16.73</time>
      </trkpt>
      <trkpt lat="43.6677" lon="3.81176">
        <ele>178.5</ele>
        <time>2013-05-30T12:40:17.72</time>
      </trkpt>
      <trkpt lat="43.6677" lon="3.81174">
        <ele>178.5</ele>
        <time>2013-05-30T12:40:18.73</time>
      </trkpt>
      <trkpt lat="43.6677" lon="3.81171">
        <ele>178.5</ele>
        <time>2013-05-30T12:40:19.73</time>
      </trkpt>
      <trkpt lat="43.6677" lon="3.81168">
        <ele>178.5</ele>
        <time>2013-05-30T12:40:20.73</time>
      </trkpt>
      <trkpt lat="43.6677" lon="3.81165">
        <ele>178.5</ele>
        <time>2013-05-30T12:40:21.73</time>
      </trkpt>
      <trkpt lat="43.66771" lon="3.81162">
        <ele>178</ele>
        <time>2013-05-30T12:40:22.72</time>
      </trkpt>
      <trkpt lat="43.66775" lon="3.8116">
        <ele>178</ele>
        <time>2013-05-30T12:40:23.72</time>
      </trkpt>
      <trkpt lat="43.6678" lon="3.8116">
        <ele>177.5</ele>
        <time>2013-05-30T12:40:24.72</time>
      </trkpt>
      <trkpt lat="43.66784" lon="3.81161">
        <ele>176.5</ele>
        <time>2013-05-30T12:40:25.72</time>
      </trkpt>
      <trkpt lat="43.66789" lon="3.81163">
        <ele>176.5</ele>
        <time>2013-05-30T12:40:26.72</time>
      </trkpt>
      <trkpt lat="43.66793" lon="3.81163">
        <ele>176.5</ele>
        <time>2013-05-30T12:40:27.73</time>
      </trkpt>
      <trkpt lat="43.66798" lon="3.81163">
        <ele>176</ele>
        <time>2013-05-30T12:40:28.72</time>
      </trkpt>
      <trkpt lat="43.66802" lon="3.81162">
        <ele>175</ele>
        <time>2013-05-30T12:40:29.72</time>
      </trkpt>
      <trkpt lat="43.66805" lon="3.81159">
        <ele>173.5</ele>
        <time>2013-05-30T12:40:30.72</time>
      </trkpt>
      <trkpt lat="43.66806" lon="3.81153">
        <ele>173.5</ele>
        <time>2013-05-30T12:40:31.73</time>
      </trkpt>
      <trkpt lat="43.66804" lon="3.81146">
        <ele>174.5</ele>
        <time>2013-05-30T12:40:32.73</time>
      </trkpt>
      <trkpt lat="43.66803" lon="3.8114">
        <ele>176</ele>
        <time>2013-05-30T12:40:33.72</time>
      </trkpt>
      <trkpt lat="43.66803" lon="3.81134">
        <ele>176</ele>
        <time>2013-05-30T12:40:34.73</time>
      </trkpt>
      <trkpt lat="43.66803" lon="3.81129">
        <ele>176.5</ele>
        <time>2013-05-30T12:40:35.73</time>
      </trkpt>
      <trkpt lat="43.66805" lon="3.81125">
        <ele>176.5</ele>
        <time>2013-05-30T12:40:36.73</time>
      </trkpt>
      <trkpt lat="43.66806" lon="3.81119">
        <ele>176</ele>
        <time>2013-05-30T12:40:37.73</time>
      </trkpt>
      <trkpt lat="43.66809" lon="3.81113">
        <ele>174.5</ele>
        <time>2013-05-30T12:40:38.72</time>
      </trkpt>
      <trkpt lat="43.66812" lon="3.81107">
        <ele>172</ele>
        <time>2013-05-30T12:40:39.72</time>
      </trkpt>
      <trkpt lat="43.66816" lon="3.811">
        <ele>173</ele>
        <time>2013-05-30T12:40:40.73</time>
      </trkpt>
      <trkpt lat="43.6682" lon="3.81091">
        <ele>173.5</ele>
        <time>2013-05-30T12:40:41.95</time>
      </trkpt>
      <trkpt lat="43.66827" lon="3.81087">
        <ele>173.5</ele>
        <time>2013-05-30T12:40:42.72</time>
      </trkpt>
      <trkpt lat="43.66834" lon="3.81086">
        <ele>172</ele>
        <time>2013-05-30T12:40:43.73</time>
      </trkpt>
      <trkpt lat="43.6684" lon="3.81087">
        <ele>171.5</ele>
        <time>2013-05-30T12:40:44.74</time>
      </trkpt>
      <trkpt lat="43.66846" lon="3.81087">
        <ele>171.5</ele>
        <time>2013-05-30T12:40:45.73</time>
      </trkpt>
      <trkpt lat="43.66852" lon="3.81087">
        <ele>171</ele>
        <time>2013-05-30T12:40:46.73</time>
      </trkpt>
      <trkpt lat="43.66858" lon="3.81087">
        <ele>170.5</ele>
        <time>2013-05-30T12:40:47.74</time>
      </trkpt>
      <trkpt lat="43.66864" lon="3.81085">
        <ele>170</ele>
        <time>2013-05-30T12:40:48.72</time>
      </trkpt>
      <trkpt lat="43.6687" lon="3.81083">
        <ele>170</ele>
        <time>2013-05-30T12:40:49.73</time>
      </trkpt>
      <trkpt lat="43.66876" lon="3.81082">
        <ele>169.5</ele>
        <time>2013-05-30T12:40:50.73</time>
      </trkpt>
      <trkpt lat="43.66882" lon="3.81081">
        <ele>169</ele>
        <time>2013-05-30T12:40:51.72</time>
      </trkpt>
      <trkpt lat="43.66887" lon="3.81081">
        <ele>169</ele>
        <time>2013-05-30T12:40:52.73</time>
      </trkpt>
      <trkpt lat="43.66894" lon="3.81079">
        <ele>169</ele>
        <time>2013-05-30T12:40:53.72</time>
      </trkpt>
      <trkpt lat="43.66899" lon="3.81073">
        <ele>169</ele>
        <time>2013-05-30T12:40:54.73</time>
      </trkpt>
      <trkpt lat="43.66904" lon="3.81064">
        <ele>167.5</ele>
        <time>2013-05-30T12:40:56.72</time>
      </trkpt>
      <trkpt lat="43.66908" lon="3.81061">
        <ele>167.5</ele>
        <time>2013-05-30T12:40:57.72</time>
      </trkpt>
      <trkpt lat="43.66913" lon="3.81061">
        <ele>167.5</ele>
        <time>2013-05-30T12:40:58.72</time>
      </trkpt>
      <trkpt lat="43.66917" lon="3.81058">
        <ele>167</ele>
        <time>2013-05-30T12:40:59.72</time>
      </trkpt>
      <trkpt lat="43.66921" lon="3.81055">
        <ele>167</ele>
        <time>2013-05-30T12:41:00.73</time>
      </trkpt>
      <trkpt lat="43.66925" lon="3.81051">
        <ele>166.5</ele>
        <time>2013-05-30T12:41:01.72</time>
      </trkpt>
      <trkpt lat="43.66929" lon="3.81049">
        <ele>165.5</ele>
        <time>2013-05-30T12:41:02.72</time>
      </trkpt>
      <trkpt lat="43.66933" lon="3.81047">
        <ele>165.5</ele>
        <time>2013-05-30T12:41:03.72</time>
      </trkpt>
      <trkpt lat="43.66937" lon="3.81045">
        <ele>165.5</ele>
        <time>2013-05-30T12:41:04.72</time>
      </trkpt>
      <trkpt lat="43.6694" lon="3.81043">
        <ele>165.5</ele>
        <time>2013-05-30T12:41:05.72</time>
      </trkpt>
      <trkpt lat="43.66944" lon="3.81041">
        <ele>166</ele>
        <time>2013-05-30T12:41:06.73</time>
      </trkpt>
      <trkpt lat="43.66947" lon="3.81039">
        <ele>165.5</ele>
        <time>2013-05-30T12:41:07.72</time>
      </trkpt>
      <trkpt lat="43.6695" lon="3.81037">
        <ele>166</ele>
        <time>2013-05-30T12:41:08.72</time>
      </trkpt>
      <trkpt lat="43.66952" lon="3.81034">
        <ele>167</ele>
        <time>2013-05-30T12:41:09.73</time>
      </trkpt>
      <trkpt lat="43.66954" lon="3.81032">
        <ele>169</ele>
        <time>2013-05-30T12:41:10.72</time>
      </trkpt>
      <trkpt lat="43.66958" lon="3.81031">
        <ele>168</ele>
        <time>2013-05-30T12:41:11.73</time>
      </trkpt>
      <trkpt lat="43.6696" lon="3.81029">
        <ele>168.5</ele>
        <time>2013-05-30T12:41:12.73</time>
      </trkpt>
      <trkpt lat="43.66963" lon="3.81028">
        <ele>168</ele>
        <time>2013-05-30T12:41:13.73</time>
      </trkpt>
      <trkpt lat="43.66965" lon="3.81026">
        <ele>167.5</ele>
        <time>2013-05-30T12:41:14.73</time>
      </trkpt>
      <trkpt lat="43.66968" lon="3.81025">
        <ele>167.5</ele>
        <time>2013-05-30T12:41:15.73</time>
      </trkpt>
      <trkpt lat="43.6697" lon="3.81026">
        <ele>167.5</ele>
        <time>2013-05-30T12:41:16.73</time>
      </trkpt>
      <trkpt lat="43.66972" lon="3.81027">
        <ele>169.5</ele>
        <time>2013-05-30T12:41:17.73</time>
      </trkpt>
      <trkpt lat="43.66974" lon="3.81028">
        <ele>170</ele>
        <time>2013-05-30T12:41:18.73</time>
      </trkpt>
      <trkpt lat="43.66976" lon="3.81029">
        <ele>171</ele>
        <time>2013-05-30T12:41:19.73</time>
      </trkpt>
      <trkpt lat="43.66979" lon="3.8103">
        <ele>171</ele>
        <time>2013-05-30T12:41:20.73</time>
      </trkpt>
      <trkpt lat="43.66981" lon="3.8103">
        <ele>171</ele>
        <time>2013-05-30T12:41:21.73</time>
      </trkpt>
      <trkpt lat="43.66983" lon="3.81031">
        <ele>170</ele>
        <time>2013-05-30T12:41:22.73</time>
      </trkpt>
      <trkpt lat="43.66985" lon="3.81032">
        <ele>170.5</ele>
        <time>2013-05-30T12:41:23.73</time>
      </trkpt>
      <trkpt lat="43.66988" lon="3.81033">
        <ele>170.5</ele>
        <time>2013-05-30T12:41:24.73</time>
      </trkpt>
      <trkpt lat="43.6699" lon="3.81032">
        <ele>171.5</ele>
        <time>2013-05-30T12:41:25.73</time>
      </trkpt>
      <trkpt lat="43.66993" lon="3.81032">
        <ele>172.5</ele>
        <time>2013-05-30T12:41:26.73</time>
      </trkpt>
      <trkpt lat="43.66996" lon="3.81027">
        <ele>172.5</ele>
        <time>2013-05-30T12:41:27.73</time>
      </trkpt>
      <trkpt lat="43.66998" lon="3.81025">
        <ele>172.5</ele>
        <time>2013-05-30T12:41:28.73</time>
      </trkpt>
      <trkpt lat="43.66998" lon="3.81023">
        <ele>174.5</ele>
        <time>2013-05-30T12:41:29.72</time>
      </trkpt>
      <trkpt lat="43.67001" lon="3.81022">
        <ele>171.5</ele>
        <time>2013-05-30T12:41:30.72</time>
      </trkpt>
      <trkpt lat="43.67003" lon="3.8102">
        <ele>173</ele>
        <time>2013-05-30T12:41:31.72</time>
      </trkpt>
      <trkpt lat="43.67004" lon="3.81019">
        <ele>174.5</ele>
        <time>2013-05-30T12:41:32.73</time>
      </trkpt>
      <trkpt lat="43.67005" lon="3.81018">
        <ele>176</ele>
        <time>2013-05-30T12:41:33.73</time>
      </trkpt>
      <trkpt lat="43.67007" lon="3.81018">
        <ele>176</ele>
        <time>2013-05-30T12:41:34.73</time>
      </trkpt>
      <trkpt lat="43.67009" lon="3.81018">
        <ele>175.5</ele>
        <time>2013-05-30T12:41:35.73</time>
      </trkpt>
      <trkpt lat="43.6701" lon="3.81017">
        <ele>176.5</ele>
        <time>2013-05-30T12:41:36.73</time>
      </trkpt>
      <trkpt lat="43.67013" lon="3.81017">
        <ele>176.5</ele>
        <time>2013-05-30T12:41:37.73</time>
      </trkpt>
      <trkpt lat="43.67015" lon="3.81017">
        <ele>178</ele>
        <time>2013-05-30T12:41:38.73</time>
      </trkpt>
      <trkpt lat="43.67018" lon="3.81019">
        <ele>178.5</ele>
        <time>2013-05-30T12:41:39.73</time>
      </trkpt>
      <trkpt lat="43.67021" lon="3.81023">
        <ele>178</ele>
        <time>2013-05-30T12:41:40.72</time>
      </trkpt>
      <trkpt lat="43.67024" lon="3.81027">
        <ele>177.5</ele>
        <time>2013-05-30T12:41:41.73</time>
      </trkpt>
      <trkpt lat="43.67028" lon="3.81031">
        <ele>176.5</ele>
        <time>2013-05-30T12:41:42.72</time>
      </trkpt>
      <trkpt lat="43.6703" lon="3.81036">
        <ele>177</ele>
        <time>2013-05-30T12:41:43.72</time>
      </trkpt>
      <trkpt lat="43.67032" lon="3.8104">
        <ele>176.5</ele>
        <time>2013-05-30T12:41:44.73</time>
      </trkpt>
      <trkpt lat="43.67041" lon="3.81049">
        <ele>174</ele>
        <time>2013-05-30T12:41:46.73</time>
      </trkpt>
      <trkpt lat="43.67045" lon="3.81049">
        <ele>173.5</ele>
        <time>2013-05-30T12:41:47.73</time>
      </trkpt>
      <trkpt lat="43.6705" lon="3.81048">
        <ele>173.5</ele>
        <time>2013-05-30T12:41:48.97</time>
      </trkpt>
      <trkpt lat="43.67054" lon="3.81048">
        <ele>174.5</ele>
        <time>2013-05-30T12:41:49.72</time>
      </trkpt>
      <trkpt lat="43.67058" lon="3.8105">
        <ele>173</ele>
        <time>2013-05-30T12:41:50.78</time>
      </trkpt>
      <trkpt lat="43.6706" lon="3.81049">
        <ele>173</ele>
        <time>2013-05-30T12:41:51.73</time>
      </trkpt>
      <trkpt lat="43.67063" lon="3.81049">
        <ele>172</ele>
        <time>2013-05-30T12:41:52.73</time>
      </trkpt>
      <trkpt lat="43.67066" lon="3.81048">
        <ele>172</ele>
        <time>2013-05-30T12:41:53.73</time>
      </trkpt>
      <trkpt lat="43.67068" lon="3.81048">
        <ele>173</ele>
        <time>2013-05-30T12:41:54.73</time>
      </trkpt>
      <trkpt lat="43.67071" lon="3.81051">
        <ele>173</ele>
        <time>2013-05-30T12:41:55.73</time>
      </trkpt>
      <trkpt lat="43.67075" lon="3.81053">
        <ele>177</ele>
        <time>2013-05-30T12:41:57.73</time>
      </trkpt>
      <trkpt lat="43.67078" lon="3.81053">
        <ele>177.5</ele>
        <time>2013-05-30T12:41:58.73</time>
      </trkpt>
      <trkpt lat="43.67081" lon="3.81053">
        <ele>178</ele>
        <time>2013-05-30T12:41:59.73</time>
      </trkpt>
      <trkpt lat="43.67084" lon="3.81053">
        <ele>178</ele>
        <time>2013-05-30T12:42:00.73</time>
      </trkpt>
      <trkpt lat="43.67087" lon="3.81052">
        <ele>179.5</ele>
        <time>2013-05-30T12:42:01.73</time>
      </trkpt>
      <trkpt lat="43.6709" lon="3.81053">
        <ele>179.5</ele>
        <time>2013-05-30T12:42:02.72</time>
      </trkpt>
      <trkpt lat="43.67093" lon="3.81053">
        <ele>179</ele>
        <time>2013-05-30T12:42:03.73</time>
      </trkpt>
      <trkpt lat="43.67097" lon="3.81054">
        <ele>179</ele>
        <time>2013-05-30T12:42:04.72</time>
      </trkpt>
      <trkpt lat="43.671" lon="3.81054">
        <ele>179</ele>
        <time>2013-05-30T12:42:05.72</time>
      </trkpt>
      <trkpt lat="43.67103" lon="3.81056">
        <ele>178.5</ele>
        <time>2013-05-30T12:42:06.73</time>
      </trkpt>
      <trkpt lat="43.67107" lon="3.81057">
        <ele>176.5</ele>
        <time>2013-05-30T12:42:07.73</time>
      </trkpt>
      <trkpt lat="43.6711" lon="3.81059">
        <ele>175</ele>
        <time>2013-05-30T12:42:08.72</time>
      </trkpt>
      <trkpt lat="43.67113" lon="3.81061">
        <ele>174.5</ele>
        <time>2013-05-30T12:42:09.72</time>
      </trkpt>
      <trkpt lat="43.67116" lon="3.81064">
        <ele>174.5</ele>
        <time>2013-05-30T12:42:10.72</time>
      </trkpt>
      <trkpt lat="43.67118" lon="3.81066">
        <ele>174</ele>
        <time>2013-05-30T12:42:11.72</time>
      </trkpt>
      <trkpt lat="43.6712" lon="3.81068">
        <ele>175</ele>
        <time>2013-05-30T12:42:12.72</time>
      </trkpt>
      <trkpt lat="43.67123" lon="3.81068">
        <ele>174.5</ele>
        <time>2013-05-30T12:42:13.73</time>
      </trkpt>
      <trkpt lat="43.67126" lon="3.81069">
        <ele>174.5</ele>
        <time>2013-05-30T12:42:14.72</time>
      </trkpt>
      <trkpt lat="43.67129" lon="3.81069">
        <ele>174</ele>
        <time>2013-05-30T12:42:15.73</time>
      </trkpt>
      <trkpt lat="43.67132" lon="3.81068">
        <ele>173.5</ele>
        <time>2013-05-30T12:42:16.72</time>
      </trkpt>
      <trkpt lat="43.67135" lon="3.81068">
        <ele>174</ele>
        <time>2013-05-30T12:42:17.72</time>
      </trkpt>
      <trkpt lat="43.67138" lon="3.81068">
        <ele>173</ele>
        <time>2013-05-30T12:42:18.73</time>
      </trkpt>
      <trkpt lat="43.67141" lon="3.81067">
        <ele>173</ele>
        <time>2013-05-30T12:42:19.72</time>
      </trkpt>
      <trkpt lat="43.67144" lon="3.81065">
        <ele>172.5</ele>
        <time>2013-05-30T12:42:20.72</time>
      </trkpt>
      <trkpt lat="43.67147" lon="3.81063">
        <ele>172</ele>
        <time>2013-05-30T12:42:21.72</time>
      </trkpt>
      <trkpt lat="43.6715" lon="3.81061">
        <ele>171.5</ele>
        <time>2013-05-30T12:42:22.72</time>
      </trkpt>
      <trkpt lat="43.67153" lon="3.81059">
        <ele>171</ele>
        <time>2013-05-30T12:42:23.72</time>
      </trkpt>
      <trkpt lat="43.67156" lon="3.81057">
        <ele>170.5</ele>
        <time>2013-05-30T12:42:24.73</time>
      </trkpt>
      <trkpt lat="43.67159" lon="3.81055">
        <ele>170.5</ele>
        <time>2013-05-30T12:42:25.73</time>
      </trkpt>
      <trkpt lat="43.6716" lon="3.81051">
        <ele>170</ele>
        <time>2013-05-30T12:42:26.72</time>
      </trkpt>
      <trkpt lat="43.67163" lon="3.81048">
        <ele>169</ele>
        <time>2013-05-30T12:42:27.72</time>
      </trkpt>
      <trkpt lat="43.67166" lon="3.81046">
        <ele>168</ele>
        <time>2013-05-30T12:42:28.72</time>
      </trkpt>
      <trkpt lat="43.67169" lon="3.81044">
        <ele>168</ele>
        <time>2013-05-30T12:42:29.72</time>
      </trkpt>
      <trkpt lat="43.67172" lon="3.81041">
        <ele>168</ele>
        <time>2013-05-30T12:42:30.73</time>
      </trkpt>
      <trkpt lat="43.67176" lon="3.81039">
        <ele>167.5</ele>
        <time>2013-05-30T12:42:31.73</time>
      </trkpt>
      <trkpt lat="43.6718" lon="3.81037">
        <ele>167</ele>
        <time>2013-05-30T12:42:32.72</time>
      </trkpt>
      <trkpt lat="43.67183" lon="3.81035">
        <ele>166.5</ele>
        <time>2013-05-30T12:42:33.72</time>
      </trkpt>
      <trkpt lat="43.67187" lon="3.81032">
        <ele>166</ele>
        <time>2013-05-30T12:42:34.72</time>
      </trkpt>
      <trkpt lat="43.6719" lon="3.81029">
        <ele>165.5</ele>
        <time>2013-05-30T12:42:35.72</time>
      </trkpt>
      <trkpt lat="43.67194" lon="3.81026">
        <ele>165</ele>
        <time>2013-05-30T12:42:36.72</time>
      </trkpt>
      <trkpt lat="43.67197" lon="3.81024">
        <ele>165</ele>
        <time>2013-05-30T12:42:37.72</time>
      </trkpt>
      <trkpt lat="43.67201" lon="3.81021">
        <ele>166</ele>
        <time>2013-05-30T12:42:38.73</time>
      </trkpt>
      <trkpt lat="43.67204" lon="3.8102">
        <ele>167</ele>
        <time>2013-05-30T12:42:39.73</time>
      </trkpt>
      <trkpt lat="43.67208" lon="3.81018">
        <ele>167</ele>
        <time>2013-05-30T12:42:40.72</time>
      </trkpt>
      <trkpt lat="43.67211" lon="3.81017">
        <ele>167</ele>
        <time>2013-05-30T12:42:41.77</time>
      </trkpt>
      <trkpt lat="43.67215" lon="3.81016">
        <ele>167</ele>
        <time>2013-05-30T12:42:42.72</time>
      </trkpt>
      <trkpt lat="43.67218" lon="3.81015">
        <ele>165.5</ele>
        <time>2013-05-30T12:42:43.73</time>
      </trkpt>
      <trkpt lat="43.67221" lon="3.81012">
        <ele>165</ele>
        <time>2013-05-30T12:42:44.73</time>
      </trkpt>
      <trkpt lat="43.67225" lon="3.81007">
        <ele>165.5</ele>
        <time>2013-05-30T12:42:45.73</time>
      </trkpt>
      <trkpt lat="43.67229" lon="3.81004">
        <ele>165.5</ele>
        <time>2013-05-30T12:42:46.73</time>
      </trkpt>
      <trkpt lat="43.6723" lon="3.81">
        <ele>167.5</ele>
        <time>2013-05-30T12:42:47.73</time>
      </trkpt>
      <trkpt lat="43.67231" lon="3.80987">
        <ele>168</ele>
        <time>2013-05-30T12:42:49.72</time>
      </trkpt>
      <trkpt lat="43.6723" lon="3.80981">
        <ele>168.5</ele>
        <time>2013-05-30T12:42:50.72</time>
      </trkpt>
      <trkpt lat="43.67229" lon="3.80975">
        <ele>169.5</ele>
        <time>2013-05-30T12:42:51.72</time>
      </trkpt>
      <trkpt lat="43.67228" lon="3.80969">
        <ele>170.5</ele>
        <time>2013-05-30T12:42:52.73</time>
      </trkpt>
      <trkpt lat="43.67228" lon="3.80963">
        <ele>170.5</ele>
        <time>2013-05-30T12:42:53.72</time>
      </trkpt>
      <trkpt lat="43.67231" lon="3.80958">
        <ele>169</ele>
        <time>2013-05-30T12:42:54.72</time>
      </trkpt>
      <trkpt lat="43.67235" lon="3.80953">
        <ele>168</ele>
        <time>2013-05-30T12:42:55.72</time>
      </trkpt>
      <trkpt lat="43.67238" lon="3.80948">
        <ele>167.5</ele>
        <time>2013-05-30T12:42:56.72</time>
      </trkpt>
      <trkpt lat="43.67238" lon="3.80942">
        <ele>169</ele>
        <time>2013-05-30T12:42:57.72</time>
      </trkpt>
      <trkpt lat="43.6724" lon="3.80935">
        <ele>169</ele>
        <time>2013-05-30T12:42:58.72</time>
      </trkpt>
      <trkpt lat="43.67241" lon="3.80929">
        <ele>169</ele>
        <time>2013-05-30T12:42:59.72</time>
      </trkpt>
      <trkpt lat="43.67242" lon="3.80921">
        <ele>169.5</ele>
        <time>2013-05-30T12:43:00.72</time>
      </trkpt>
      <trkpt lat="43.67245" lon="3.80915">
        <ele>169</ele>
        <time>2013-05-30T12:43:01.72</time>
      </trkpt>
      <trkpt lat="43.67247" lon="3.80908">
        <ele>168.5</ele>
        <time>2013-05-30T12:43:02.72</time>
      </trkpt>
      <trkpt lat="43.67249" lon="3.80901">
        <ele>168</ele>
        <time>2013-05-30T12:43:03.73</time>
      </trkpt>
      <trkpt lat="43.67252" lon="3.80895">
        <ele>167</ele>
        <time>2013-05-30T12:43:04.89</time>
      </trkpt>
      <trkpt lat="43.67255" lon="3.80889">
        <ele>166.5</ele>
        <time>2013-05-30T12:43:05.72</time>
      </trkpt>
      <trkpt lat="43.67258" lon="3.80882">
        <ele>165.5</ele>
        <time>2013-05-30T12:43:06.72</time>
      </trkpt>
      <trkpt lat="43.67262" lon="3.80878">
        <ele>165.5</ele>
        <time>2013-05-30T12:43:07.72</time>
      </trkpt>
      <trkpt lat="43.67263" lon="3.8087">
        <ele>164</ele>
        <time>2013-05-30T12:43:08.73</time>
      </trkpt>
      <trkpt lat="43.67265" lon="3.80865">
        <ele>163.5</ele>
        <time>2013-05-30T12:43:09.72</time>
      </trkpt>
      <trkpt lat="43.67268" lon="3.80861">
        <ele>162.5</ele>
        <time>2013-05-30T12:43:10.72</time>
      </trkpt>
      <trkpt lat="43.67274" lon="3.80858">
        <ele>162</ele>
        <time>2013-05-30T12:43:11.72</time>
      </trkpt>
      <trkpt lat="43.67278" lon="3.80854">
        <ele>161</ele>
        <time>2013-05-30T12:43:12.72</time>
      </trkpt>
      <trkpt lat="43.67287" lon="3.8084">
        <ele>160.5</ele>
        <time>2013-05-30T12:43:14.72</time>
      </trkpt>
      <trkpt lat="43.67291" lon="3.80835">
        <ele>160.5</ele>
        <time>2013-05-30T12:43:15.72</time>
      </trkpt>
      <trkpt lat="43.67295" lon="3.80831">
        <ele>159.5</ele>
        <time>2013-05-30T12:43:16.72</time>
      </trkpt>
      <trkpt lat="43.67298" lon="3.80825">
        <ele>158.5</ele>
        <time>2013-05-30T12:43:17.72</time>
      </trkpt>
      <trkpt lat="43.67302" lon="3.80821">
        <ele>158</ele>
        <time>2013-05-30T12:43:18.73</time>
      </trkpt>
      <trkpt lat="43.67306" lon="3.80817">
        <ele>156</ele>
        <time>2013-05-30T12:43:19.73</time>
      </trkpt>
      <trkpt lat="43.67308" lon="3.80812">
        <ele>155.5</ele>
        <time>2013-05-30T12:43:20.73</time>
      </trkpt>
      <trkpt lat="43.6731" lon="3.80808">
        <ele>155.5</ele>
        <time>2013-05-30T12:43:21.72</time>
      </trkpt>
      <trkpt lat="43.67311" lon="3.80803">
        <ele>155</ele>
        <time>2013-05-30T12:43:22.72</time>
      </trkpt>
      <trkpt lat="43.67313" lon="3.80798">
        <ele>154.5</ele>
        <time>2013-05-30T12:43:23.72</time>
      </trkpt>
      <trkpt lat="43.67315" lon="3.80793">
        <ele>154</ele>
        <time>2013-05-30T12:43:24.72</time>
      </trkpt>
      <trkpt lat="43.67318" lon="3.80788">
        <ele>153</ele>
        <time>2013-05-30T12:43:25.72</time>
      </trkpt>
      <trkpt lat="43.6732" lon="3.80783">
        <ele>152.5</ele>
        <time>2013-05-30T12:43:26.72</time>
      </trkpt>
      <trkpt lat="43.67323" lon="3.80777">
        <ele>152</ele>
        <time>2013-05-30T12:43:27.72</time>
      </trkpt>
      <trkpt lat="43.67327" lon="3.80772">
        <ele>152</ele>
        <time>2013-05-30T12:43:28.72</time>
      </trkpt>
      <trkpt lat="43.67332" lon="3.80768">
        <ele>151</ele>
        <time>2013-05-30T12:43:29.73</time>
      </trkpt>
      <trkpt lat="43.67337" lon="3.80763">
        <ele>150.5</ele>
        <time>2013-05-30T12:43:30.72</time>
      </trkpt>
      <trkpt lat="43.6734" lon="3.80758">
        <ele>150</ele>
        <time>2013-05-30T12:43:31.72</time>
      </trkpt>
      <trkpt lat="43.67344" lon="3.80753">
        <ele>150</ele>
        <time>2013-05-30T12:43:32.72</time>
      </trkpt>
      <trkpt lat="43.6735" lon="3.80752">
        <ele>149</ele>
        <time>2013-05-30T12:43:33.72</time>
      </trkpt>
      <trkpt lat="43.67355" lon="3.80749">
        <ele>149</ele>
        <time>2013-05-30T12:43:34.72</time>
      </trkpt>
      <trkpt lat="43.67358" lon="3.80742">
        <ele>148.5</ele>
        <time>2013-05-30T12:43:35.72</time>
      </trkpt>
      <trkpt lat="43.67361" lon="3.80736">
        <ele>148</ele>
        <time>2013-05-30T12:43:36.72</time>
      </trkpt>
      <trkpt lat="43.67367" lon="3.80733">
        <ele>148</ele>
        <time>2013-05-30T12:43:37.73</time>
      </trkpt>
      <trkpt lat="43.67374" lon="3.80732">
        <ele>149</ele>
        <time>2013-05-30T12:43:38.73</time>
      </trkpt>
      <trkpt lat="43.67381" lon="3.80735">
        <ele>148.5</ele>
        <time>2013-05-30T12:43:39.73</time>
      </trkpt>
      <trkpt lat="43.67386" lon="3.80736">
        <ele>148.5</ele>
        <time>2013-05-30T12:43:40.73</time>
      </trkpt>
      <trkpt lat="43.67392" lon="3.80737">
        <ele>148.5</ele>
        <time>2013-05-30T12:43:41.72</time>
      </trkpt>
      <trkpt lat="43.67398" lon="3.80734">
        <ele>149.5</ele>
        <time>2013-05-30T12:43:42.72</time>
      </trkpt>
      <trkpt lat="43.67405" lon="3.80735">
        <ele>148.5</ele>
        <time>2013-05-30T12:43:43.73</time>
      </trkpt>
      <trkpt lat="43.67411" lon="3.80734">
        <ele>149</ele>
        <time>2013-05-30T12:43:44.73</time>
      </trkpt>
      <trkpt lat="43.67416" lon="3.80733">
        <ele>149</ele>
        <time>2013-05-30T12:43:45.72</time>
      </trkpt>
      <trkpt lat="43.67424" lon="3.80735">
        <ele>148.5</ele>
        <time>2013-05-30T12:43:46.73</time>
      </trkpt>
      <trkpt lat="43.6743" lon="3.80734">
        <ele>148.5</ele>
        <time>2013-05-30T12:43:47.73</time>
      </trkpt>
      <trkpt lat="43.67436" lon="3.80736">
        <ele>148</ele>
        <time>2013-05-30T12:43:48.72</time>
      </trkpt>
      <trkpt lat="43.67443" lon="3.80737">
        <ele>147</ele>
        <time>2013-05-30T12:43:49.73</time>
      </trkpt>
      <trkpt lat="43.6745" lon="3.80737">
        <ele>147</ele>
        <time>2013-05-30T12:43:50.73</time>
      </trkpt>
      <trkpt lat="43.67457" lon="3.80737">
        <ele>147</ele>
        <time>2013-05-30T12:43:51.72</time>
      </trkpt>
      <trkpt lat="43.67463" lon="3.80736">
        <ele>146.5</ele>
        <time>2013-05-30T12:43:52.72</time>
      </trkpt>
      <trkpt lat="43.6747" lon="3.80737">
        <ele>145</ele>
        <time>2013-05-30T12:43:53.72</time>
      </trkpt>
      <trkpt lat="43.67475" lon="3.80734">
        <ele>144.5</ele>
        <time>2013-05-30T12:43:54.73</time>
      </trkpt>
      <trkpt lat="43.67481" lon="3.80734">
        <ele>144.5</ele>
        <time>2013-05-30T12:43:55.72</time>
      </trkpt>
      <trkpt lat="43.67486" lon="3.80734">
        <ele>144</ele>
        <time>2013-05-30T12:43:56.72</time>
      </trkpt>
      <trkpt lat="43.67492" lon="3.80733">
        <ele>143.5</ele>
        <time>2013-05-30T12:43:57.73</time>
      </trkpt>
      <trkpt lat="43.67498" lon="3.80733">
        <ele>143</ele>
        <time>2013-05-30T12:43:58.73</time>
      </trkpt>
      <trkpt lat="43.67504" lon="3.80735">
        <ele>143</ele>
        <time>2013-05-30T12:43:59.72</time>
      </trkpt>
      <trkpt lat="43.6751" lon="3.80736">
        <ele>142.5</ele>
        <time>2013-05-30T12:44:00.72</time>
      </trkpt>
      <trkpt lat="43.67516" lon="3.80739">
        <ele>141.5</ele>
        <time>2013-05-30T12:44:01.73</time>
      </trkpt>
      <trkpt lat="43.67523" lon="3.80741">
        <ele>140</ele>
        <time>2013-05-30T12:44:02.73</time>
      </trkpt>
      <trkpt lat="43.67529" lon="3.80742">
        <ele>139</ele>
        <time>2013-05-30T12:44:03.73</time>
      </trkpt>
      <trkpt lat="43.67536" lon="3.80741">
        <ele>139</ele>
        <time>2013-05-30T12:44:04.73</time>
      </trkpt>
      <trkpt lat="43.67543" lon="3.80743">
        <ele>137.5</ele>
        <time>2013-05-30T12:44:05.73</time>
      </trkpt>
      <trkpt lat="43.67549" lon="3.80745">
        <ele>137</ele>
        <time>2013-05-30T12:44:06.73</time>
      </trkpt>
      <trkpt lat="43.67554" lon="3.80746">
        <ele>137</ele>
        <time>2013-05-30T12:44:07.73</time>
      </trkpt>
      <trkpt lat="43.6756" lon="3.80745">
        <ele>136.5</ele>
        <time>2013-05-30T12:44:08.72</time>
      </trkpt>
      <trkpt lat="43.67565" lon="3.80744">
        <ele>136.5</ele>
        <time>2013-05-30T12:44:09.72</time>
      </trkpt>
      <trkpt lat="43.6757" lon="3.80744">
        <ele>136.5</ele>
        <time>2013-05-30T12:44:10.72</time>
      </trkpt>
      <trkpt lat="43.67575" lon="3.80746">
        <ele>137</ele>
        <time>2013-05-30T12:44:11.72</time>
      </trkpt>
      <trkpt lat="43.6758" lon="3.80748">
        <ele>137</ele>
        <time>2013-05-30T12:44:12.72</time>
      </trkpt>
      <trkpt lat="43.67585" lon="3.8075">
        <ele>137</ele>
        <time>2013-05-30T12:44:13.72</time>
      </trkpt>
      <trkpt lat="43.67591" lon="3.80751">
        <ele>137</ele>
        <time>2013-05-30T12:44:14.73</time>
      </trkpt>
      <trkpt lat="43.67596" lon="3.80748">
        <ele>137</ele>
        <time>2013-05-30T12:44:15.73</time>
      </trkpt>
      <trkpt lat="43.676" lon="3.80745">
        <ele>137.5</ele>
        <time>2013-05-30T12:44:16.71</time>
      </trkpt>
      <trkpt lat="43.67605" lon="3.80741">
        <ele>137</ele>
        <time>2013-05-30T12:44:17.73</time>
      </trkpt>
      <trkpt lat="43.67608" lon="3.80736">
        <ele>137</ele>
        <time>2013-05-30T12:44:18.72</time>
      </trkpt>
      <trkpt lat="43.67612" lon="3.8073">
        <ele>137.5</ele>
        <time>2013-05-30T12:44:19.62</time>
      </trkpt>
      <trkpt lat="43.67628" lon="3.80708">
        <ele>137.5</ele>
        <time>2013-05-30T12:44:22.34</time>
      </trkpt>
      <trkpt lat="43.67631" lon="3.80702">
        <ele>137.5</ele>
        <time>2013-05-30T12:44:23.35</time>
      </trkpt>
      <trkpt lat="43.67635" lon="3.80698">
        <ele>137.5</ele>
        <time>2013-05-30T12:44:24.35</time>
      </trkpt>
      <trkpt lat="43.67639" lon="3.80694">
        <ele>137.5</ele>
        <time>2013-05-30T12:44:25.35</time>
      </trkpt>
      <trkpt lat="43.67643" lon="3.80689">
        <ele>137.5</ele>
        <time>2013-05-30T12:44:26.35</time>
      </trkpt>
      <trkpt lat="43.67646" lon="3.80683">
        <ele>137.5</ele>
        <time>2013-05-30T12:44:27.35</time>
      </trkpt>
      <trkpt lat="43.67649" lon="3.80679">
        <ele>137.5</ele>
        <time>2013-05-30T12:44:28.35</time>
      </trkpt>
      <trkpt lat="43.67652" lon="3.80675">
        <ele>138</ele>
        <time>2013-05-30T12:44:29.36</time>
      </trkpt>
      <trkpt lat="43.67655" lon="3.8067">
        <ele>138.5</ele>
        <time>2013-05-30T12:44:30.35</time>
      </trkpt>
      <trkpt lat="43.67658" lon="3.80666">
        <ele>138</ele>
        <time>2013-05-30T12:44:31.34</time>
      </trkpt>
      <trkpt lat="43.67661" lon="3.80661">
        <ele>137</ele>
        <time>2013-05-30T12:44:32.35</time>
      </trkpt>
      <trkpt lat="43.67665" lon="3.80657">
        <ele>137</ele>
        <time>2013-05-30T12:44:33.36</time>
      </trkpt>
      <trkpt lat="43.67668" lon="3.80652">
        <ele>137</ele>
        <time>2013-05-30T12:44:34.35</time>
      </trkpt>
      <trkpt lat="43.67671" lon="3.80648">
        <ele>137</ele>
        <time>2013-05-30T12:44:35.35</time>
      </trkpt>
      <trkpt lat="43.67674" lon="3.80645">
        <ele>138.5</ele>
        <time>2013-05-30T12:44:36.35</time>
      </trkpt>
      <trkpt lat="43.67677" lon="3.80644">
        <ele>138.5</ele>
        <time>2013-05-30T12:44:37.34</time>
      </trkpt>
      <trkpt lat="43.6768" lon="3.80643">
        <ele>139</ele>
        <time>2013-05-30T12:44:38.34</time>
      </trkpt>
      <trkpt lat="43.67683" lon="3.80641">
        <ele>138</ele>
        <time>2013-05-30T12:44:39.35</time>
      </trkpt>
      <trkpt lat="43.67684" lon="3.80639">
        <ele>138</ele>
        <time>2013-05-30T12:44:40.35</time>
      </trkpt>
      <trkpt lat="43.67684" lon="3.80636">
        <ele>138</ele>
        <time>2013-05-30T12:44:41.35</time>
      </trkpt>
      <trkpt lat="43.67683" lon="3.80632">
        <ele>138</ele>
        <time>2013-05-30T12:44:42.35</time>
      </trkpt>
      <trkpt lat="43.67682" lon="3.8063">
        <ele>137</ele>
        <time>2013-05-30T12:44:43.35</time>
      </trkpt>
      <trkpt lat="43.67678" lon="3.80631">
        <ele>138</ele>
        <time>2013-05-30T12:44:44.35</time>
      </trkpt>
      <trkpt lat="43.67676" lon="3.8063">
        <ele>137.5</ele>
        <time>2013-05-30T12:44:45.34</time>
      </trkpt>
      <trkpt lat="43.67674" lon="3.8063">
        <ele>137</ele>
        <time>2013-05-30T12:44:46.35</time>
      </trkpt>
      <trkpt lat="43.67672" lon="3.8063">
        <ele>136.5</ele>
        <time>2013-05-30T12:44:47.35</time>
      </trkpt>
      <trkpt lat="43.6767" lon="3.80631">
        <ele>136</ele>
        <time>2013-05-30T12:44:48.35</time>
      </trkpt>
      <trkpt lat="43.67667" lon="3.80631">
        <ele>136.5</ele>
        <time>2013-05-30T12:44:49.35</time>
      </trkpt>
      <trkpt lat="43.67664" lon="3.80633">
        <ele>138</ele>
        <time>2013-05-30T12:44:50.35</time>
      </trkpt>
      <trkpt lat="43.67662" lon="3.80632">
        <ele>138</ele>
        <time>2013-05-30T12:44:51.35</time>
      </trkpt>
      <trkpt lat="43.67659" lon="3.80631">
        <ele>138</ele>
        <time>2013-05-30T12:44:52.35</time>
      </trkpt>
      <trkpt lat="43.67657" lon="3.8063">
        <ele>138.5</ele>
        <time>2013-05-30T12:44:53.35</time>
      </trkpt>
      <trkpt lat="43.67654" lon="3.8063">
        <ele>139</ele>
        <time>2013-05-30T12:44:54.34</time>
      </trkpt>
      <trkpt lat="43.67652" lon="3.80631">
        <ele>141</ele>
        <time>2013-05-30T12:44:55.35</time>
      </trkpt>
      <trkpt lat="43.6765" lon="3.80632">
        <ele>142.5</ele>
        <time>2013-05-30T12:44:56.34</time>
      </trkpt>
      <trkpt lat="43.67648" lon="3.8063">
        <ele>143</ele>
        <time>2013-05-30T12:44:57.34</time>
      </trkpt>
      <trkpt lat="43.67646" lon="3.80631">
        <ele>144.5</ele>
        <time>2013-05-30T12:44:58.34</time>
      </trkpt>
      <trkpt lat="43.67644" lon="3.8063">
        <ele>145.5</ele>
        <time>2013-05-30T12:44:59.34</time>
      </trkpt>
      <trkpt lat="43.67643" lon="3.8063">
        <ele>147</ele>
        <time>2013-05-30T12:45:00.34</time>
      </trkpt>
      <trkpt lat="43.67641" lon="3.80629">
        <ele>148.5</ele>
        <time>2013-05-30T12:45:01.34</time>
      </trkpt>
      <trkpt lat="43.67639" lon="3.80629">
        <ele>149.5</ele>
        <time>2013-05-30T12:45:02.35</time>
      </trkpt>
      <trkpt lat="43.67637" lon="3.80628">
        <ele>151</ele>
        <time>2013-05-30T12:45:03.34</time>
      </trkpt>
      <trkpt lat="43.67635" lon="3.80628">
        <ele>152</ele>
        <time>2013-05-30T12:45:04.34</time>
      </trkpt>
      <trkpt lat="43.67632" lon="3.80628">
        <ele>153</ele>
        <time>2013-05-30T12:45:05.35</time>
      </trkpt>
      <trkpt lat="43.67631" lon="3.80629">
        <ele>155.5</ele>
        <time>2013-05-30T12:45:06.35</time>
      </trkpt>
      <trkpt lat="43.67629" lon="3.80627">
        <ele>155.5</ele>
        <time>2013-05-30T12:45:07.34</time>
      </trkpt>
      <trkpt lat="43.67627" lon="3.80627">
        <ele>157.5</ele>
        <time>2013-05-30T12:45:08.35</time>
      </trkpt>
      <trkpt lat="43.67625" lon="3.80626">
        <ele>158.5</ele>
        <time>2013-05-30T12:45:09.34</time>
      </trkpt>
      <trkpt lat="43.67623" lon="3.80626">
        <ele>159.5</ele>
        <time>2013-05-30T12:45:10.35</time>
      </trkpt>
      <trkpt lat="43.6762" lon="3.80627">
        <ele>161.5</ele>
        <time>2013-05-30T12:45:11.35</time>
      </trkpt>
      <trkpt lat="43.67618" lon="3.80626">
        <ele>162.5</ele>
        <time>2013-05-30T12:45:12.35</time>
      </trkpt>
      <trkpt lat="43.67616" lon="3.80625">
        <ele>163</ele>
        <time>2013-05-30T12:45:13.34</time>
      </trkpt>
      <trkpt lat="43.67614" lon="3.80622">
        <ele>163</ele>
        <time>2013-05-30T12:45:14.35</time>
      </trkpt>
      <trkpt lat="43.67613" lon="3.80622">
        <ele>164</ele>
        <time>2013-05-30T12:45:15.34</time>
      </trkpt>
      <trkpt lat="43.67611" lon="3.80623">
        <ele>166</ele>
        <time>2013-05-30T12:45:16.35</time>
      </trkpt>
      <trkpt lat="43.6761" lon="3.80622">
        <ele>167</ele>
        <time>2013-05-30T12:45:17.34</time>
      </trkpt>
      <trkpt lat="43.67607" lon="3.80621">
        <ele>166.5</ele>
        <time>2013-05-30T12:45:18.35</time>
      </trkpt>
      <trkpt lat="43.67606" lon="3.80619">
        <ele>168.5</ele>
        <time>2013-05-30T12:45:19.34</time>
      </trkpt>
      <trkpt lat="43.67604" lon="3.8062">
        <ele>170.5</ele>
        <time>2013-05-30T12:45:20.44</time>
      </trkpt>
      <trkpt lat="43.676" lon="3.80612">
        <ele>167.5</ele>
        <time>2013-05-30T12:45:22.34</time>
      </trkpt>
      <trkpt lat="43.67598" lon="3.80609">
        <ele>166.5</ele>
        <time>2013-05-30T12:45:23.34</time>
      </trkpt>
      <trkpt lat="43.67596" lon="3.80606">
        <ele>165.5</ele>
        <time>2013-05-30T12:45:24.34</time>
      </trkpt>
      <trkpt lat="43.67595" lon="3.80604">
        <ele>166</ele>
        <time>2013-05-30T12:45:25.35</time>
      </trkpt>
      <trkpt lat="43.67594" lon="3.806">
        <ele>164.5</ele>
        <time>2013-05-30T12:45:26.35</time>
      </trkpt>
      <trkpt lat="43.67592" lon="3.80599">
        <ele>163.5</ele>
        <time>2013-05-30T12:45:27.34</time>
      </trkpt>
      <trkpt lat="43.6759" lon="3.80597">
        <ele>163.5</ele>
        <time>2013-05-30T12:45:28.34</time>
      </trkpt>
      <trkpt lat="43.67589" lon="3.80594">
        <ele>163.5</ele>
        <time>2013-05-30T12:45:29.34</time>
      </trkpt>
      <trkpt lat="43.67588" lon="3.80591">
        <ele>163</ele>
        <time>2013-05-30T12:45:30.34</time>
      </trkpt>
      <trkpt lat="43.67586" lon="3.80592">
        <ele>164</ele>
        <time>2013-05-30T12:45:31.35</time>
      </trkpt>
      <trkpt lat="43.67583" lon="3.80592">
        <ele>164.5</ele>
        <time>2013-05-30T12:45:32.35</time>
      </trkpt>
      <trkpt lat="43.67581" lon="3.80591">
        <ele>165</ele>
        <time>2013-05-30T12:45:33.35</time>
      </trkpt>
      <trkpt lat="43.67579" lon="3.80591">
        <ele>165.5</ele>
        <time>2013-05-30T12:45:34.34</time>
      </trkpt>
      <trkpt lat="43.67576" lon="3.80591">
        <ele>166</ele>
        <time>2013-05-30T12:45:35.41</time>
      </trkpt>
      <trkpt lat="43.67572" lon="3.80589">
        <ele>164</ele>
        <time>2013-05-30T12:45:36.42</time>
      </trkpt>
      <trkpt lat="43.6757" lon="3.80589">
        <ele>162</ele>
        <time>2013-05-30T12:45:37.35</time>
      </trkpt>
      <trkpt lat="43.67567" lon="3.80588">
        <ele>161.5</ele>
        <time>2013-05-30T12:45:38.35</time>
      </trkpt>
      <trkpt lat="43.67565" lon="3.80586">
        <ele>161.5</ele>
        <time>2013-05-30T12:45:39.35</time>
      </trkpt>
      <trkpt lat="43.67564" lon="3.80582">
        <ele>161</ele>
        <time>2013-05-30T12:45:40.34</time>
      </trkpt>
      <trkpt lat="43.67562" lon="3.80581">
        <ele>161</ele>
        <time>2013-05-30T12:45:41.34</time>
      </trkpt>
      <trkpt lat="43.6756" lon="3.80581">
        <ele>161.5</ele>
        <time>2013-05-30T12:45:42.34</time>
      </trkpt>
      <trkpt lat="43.67557" lon="3.8058">
        <ele>162.5</ele>
        <time>2013-05-30T12:45:43.34</time>
      </trkpt>
      <trkpt lat="43.67555" lon="3.8058">
        <ele>162.5</ele>
        <time>2013-05-30T12:45:44.40</time>
      </trkpt>
      <trkpt lat="43.67553" lon="3.8058">
        <ele>163</ele>
        <time>2013-05-30T12:45:45.34</time>
      </trkpt>
      <trkpt lat="43.6755" lon="3.8058">
        <ele>163</ele>
        <time>2013-05-30T12:45:46.35</time>
      </trkpt>
      <trkpt lat="43.67548" lon="3.8058">
        <ele>163</ele>
        <time>2013-05-30T12:45:47.36</time>
      </trkpt>
      <trkpt lat="43.67545" lon="3.80581">
        <ele>163</ele>
        <time>2013-05-30T12:45:48.34</time>
      </trkpt>
      <trkpt lat="43.67543" lon="3.80581">
        <ele>163</ele>
        <time>2013-05-30T12:45:49.34</time>
      </trkpt>
      <trkpt lat="43.6754" lon="3.80582">
        <ele>163.5</ele>
        <time>2013-05-30T12:45:50.34</time>
      </trkpt>
      <trkpt lat="43.67539" lon="3.80584">
        <ele>163.5</ele>
        <time>2013-05-30T12:45:51.34</time>
      </trkpt>
      <trkpt lat="43.67537" lon="3.80587">
        <ele>164</ele>
        <time>2013-05-30T12:45:52.34</time>
      </trkpt>
      <trkpt lat="43.67534" lon="3.80588">
        <ele>164</ele>
        <time>2013-05-30T12:45:53.34</time>
      </trkpt>
      <trkpt lat="43.67532" lon="3.80589">
        <ele>164</ele>
        <time>2013-05-30T12:45:54.34</time>
      </trkpt>
      <trkpt lat="43.6753" lon="3.80591">
        <ele>164</ele>
        <time>2013-05-30T12:45:55.34</time>
      </trkpt>
      <trkpt lat="43.67528" lon="3.80593">
        <ele>164</ele>
        <time>2013-05-30T12:45:56.34</time>
      </trkpt>
      <trkpt lat="43.67526" lon="3.80594">
        <ele>164</ele>
        <time>2013-05-30T12:45:57.34</time>
      </trkpt>
      <trkpt lat="43.67524" lon="3.80595">
        <ele>164</ele>
        <time>2013-05-30T12:45:58.34</time>
      </trkpt>
      <trkpt lat="43.67522" lon="3.80596">
        <ele>164</ele>
        <time>2013-05-30T12:45:59.34</time>
      </trkpt>
      <trkpt lat="43.6752" lon="3.80597">
        <ele>164</ele>
        <time>2013-05-30T12:46:00.34</time>
      </trkpt>
      <trkpt lat="43.67518" lon="3.80598">
        <ele>164</ele>
        <time>2013-05-30T12:46:01.34</time>
      </trkpt>
      <trkpt lat="43.67516" lon="3.80598">
        <ele>164</ele>
        <time>2013-05-30T12:46:02.34</time>
      </trkpt>
      <trkpt lat="43.67513" lon="3.80599">
        <ele>163.5</ele>
        <time>2013-05-30T12:46:03.34</time>
      </trkpt>
      <trkpt lat="43.67511" lon="3.806">
        <ele>164</ele>
        <time>2013-05-30T12:46:04.34</time>
      </trkpt>
      <trkpt lat="43.67509" lon="3.80601">
        <ele>164</ele>
        <time>2013-05-30T12:46:05.34</time>
      </trkpt>
      <trkpt lat="43.67506" lon="3.80601">
        <ele>164</ele>
        <time>2013-05-30T12:46:06.34</time>
      </trkpt>
      <trkpt lat="43.67504" lon="3.80602">
        <ele>164</ele>
        <time>2013-05-30T12:46:07.39</time>
      </trkpt>
      <trkpt lat="43.67502" lon="3.80601">
        <ele>164</ele>
        <time>2013-05-30T12:46:08.34</time>
      </trkpt>
      <trkpt lat="43.67499" lon="3.80601">
        <ele>164</ele>
        <time>2013-05-30T12:46:09.34</time>
      </trkpt>
      <trkpt lat="43.67496" lon="3.80602">
        <ele>164</ele>
        <time>2013-05-30T12:46:10.34</time>
      </trkpt>
      <trkpt lat="43.67493" lon="3.80602">
        <ele>164.5</ele>
        <time>2013-05-30T12:46:11.34</time>
      </trkpt>
      <trkpt lat="43.67491" lon="3.80602">
        <ele>164.5</ele>
        <time>2013-05-30T12:46:12.34</time>
      </trkpt>
      <trkpt lat="43.67488" lon="3.80603">
        <ele>164.5</ele>
        <time>2013-05-30T12:46:13.34</time>
      </trkpt>
      <trkpt lat="43.67485" lon="3.80603">
        <ele>164.5</ele>
        <time>2013-05-30T12:46:14.34</time>
      </trkpt>
      <trkpt lat="43.67482" lon="3.80603">
        <ele>164.5</ele>
        <time>2013-05-30T12:46:15.35</time>
      </trkpt>
      <trkpt lat="43.67479" lon="3.80603">
        <ele>165</ele>
        <time>2013-05-30T12:46:16.34</time>
      </trkpt>
      <trkpt lat="43.67476" lon="3.80603">
        <ele>165</ele>
        <time>2013-05-30T12:46:17.35</time>
      </trkpt>
      <trkpt lat="43.67473" lon="3.80603">
        <ele>165</ele>
        <time>2013-05-30T12:46:18.34</time>
      </trkpt>
      <trkpt lat="43.6747" lon="3.80602">
        <ele>165.5</ele>
        <time>2013-05-30T12:46:19.35</time>
      </trkpt>
      <trkpt lat="43.67467" lon="3.80601">
        <ele>166</ele>
        <time>2013-05-30T12:46:20.34</time>
      </trkpt>
      <trkpt lat="43.67465" lon="3.80601">
        <ele>166</ele>
        <time>2013-05-30T12:46:21.35</time>
      </trkpt>
      <trkpt lat="43.67462" lon="3.806">
        <ele>166.5</ele>
        <time>2013-05-30T12:46:22.35</time>
      </trkpt>
      <trkpt lat="43.67459" lon="3.80599">
        <ele>167</ele>
        <time>2013-05-30T12:46:23.34</time>
      </trkpt>
      <trkpt lat="43.67457" lon="3.80598">
        <ele>167</ele>
        <time>2013-05-30T12:46:24.34</time>
      </trkpt>
      <trkpt lat="43.67454" lon="3.80598">
        <ele>167.5</ele>
        <time>2013-05-30T12:46:25.34</time>
      </trkpt>
      <trkpt lat="43.67451" lon="3.80597">
        <ele>167.5</ele>
        <time>2013-05-30T12:46:26.34</time>
      </trkpt>
      <trkpt lat="43.67449" lon="3.80596">
        <ele>168</ele>
        <time>2013-05-30T12:46:27.34</time>
      </trkpt>
      <trkpt lat="43.67446" lon="3.80595">
        <ele>168</ele>
        <time>2013-05-30T12:46:28.34</time>
      </trkpt>
      <trkpt lat="43.67444" lon="3.80594">
        <ele>168</ele>
        <time>2013-05-30T12:46:29.35</time>
      </trkpt>
      <trkpt lat="43.67441" lon="3.80594">
        <ele>169</ele>
        <time>2013-05-30T12:46:30.35</time>
      </trkpt>
      <trkpt lat="43.67438" lon="3.80593">
        <ele>169.5</ele>
        <time>2013-05-30T12:46:31.34</time>
      </trkpt>
      <trkpt lat="43.67436" lon="3.80592">
        <ele>169.5</ele>
        <time>2013-05-30T12:46:32.35</time>
      </trkpt>
      <trkpt lat="43.67433" lon="3.80592">
        <ele>170</ele>
        <time>2013-05-30T12:46:33.34</time>
      </trkpt>
      <trkpt lat="43.67431" lon="3.80591">
        <ele>170.5</ele>
        <time>2013-05-30T12:46:34.34</time>
      </trkpt>
      <trkpt lat="43.67428" lon="3.8059">
        <ele>170.5</ele>
        <time>2013-05-30T12:46:35.34</time>
      </trkpt>
      <trkpt lat="43.67426" lon="3.80589">
        <ele>170.5</ele>
        <time>2013-05-30T12:46:36.34</time>
      </trkpt>
      <trkpt lat="43.67424" lon="3.80588">
        <ele>170.5</ele>
        <time>2013-05-30T12:46:37.34</time>
      </trkpt>
      <trkpt lat="43.67421" lon="3.80587">
        <ele>170.5</ele>
        <time>2013-05-30T12:46:38.35</time>
      </trkpt>
      <trkpt lat="43.67419" lon="3.80587">
        <ele>171</ele>
        <time>2013-05-30T12:46:39.34</time>
      </trkpt>
      <trkpt lat="43.67416" lon="3.80588">
        <ele>171</ele>
        <time>2013-05-30T12:46:40.34</time>
      </trkpt>
      <trkpt lat="43.67413" lon="3.80589">
        <ele>171</ele>
        <time>2013-05-30T12:46:41.35</time>
      </trkpt>
      <trkpt lat="43.67411" lon="3.80589">
        <ele>171.5</ele>
        <time>2013-05-30T12:46:42.34</time>
      </trkpt>
      <trkpt lat="43.67408" lon="3.80589">
        <ele>171.5</ele>
        <time>2013-05-30T12:46:43.34</time>
      </trkpt>
      <trkpt lat="43.67405" lon="3.8059">
        <ele>171.5</ele>
        <time>2013-05-30T12:46:44.34</time>
      </trkpt>
      <trkpt lat="43.67402" lon="3.8059">
        <ele>172</ele>
        <time>2013-05-30T12:46:45.38</time>
      </trkpt>
      <trkpt lat="43.674" lon="3.8059">
        <ele>172</ele>
        <time>2013-05-30T12:46:46.34</time>
      </trkpt>
      <trkpt lat="43.67397" lon="3.8059">
        <ele>172</ele>
        <time>2013-05-30T12:46:47.34</time>
      </trkpt>
      <trkpt lat="43.67395" lon="3.8059">
        <ele>172</ele>
        <time>2013-05-30T12:46:48.34</time>
      </trkpt>
      <trkpt lat="43.67393" lon="3.80589">
        <ele>171.5</ele>
        <time>2013-05-30T12:46:49.35</time>
      </trkpt>
      <trkpt lat="43.6739" lon="3.80588">
        <ele>171.5</ele>
        <time>2013-05-30T12:46:50.35</time>
      </trkpt>
      <trkpt lat="43.67388" lon="3.80587">
        <ele>171.5</ele>
        <time>2013-05-30T12:46:51.35</time>
      </trkpt>
      <trkpt lat="43.67385" lon="3.80586">
        <ele>171.5</ele>
        <time>2013-05-30T12:46:52.34</time>
      </trkpt>
      <trkpt lat="43.67383" lon="3.80584">
        <ele>172</ele>
        <time>2013-05-30T12:46:53.35</time>
      </trkpt>
      <trkpt lat="43.6738" lon="3.80583">
        <ele>172</ele>
        <time>2013-05-30T12:46:54.35</time>
      </trkpt>
      <trkpt lat="43.67378" lon="3.80582">
        <ele>172</ele>
        <time>2013-05-30T12:46:55.34</time>
      </trkpt>
      <trkpt lat="43.67376" lon="3.80581">
        <ele>172.5</ele>
        <time>2013-05-30T12:46:56.34</time>
      </trkpt>
      <trkpt lat="43.67374" lon="3.80579">
        <ele>172.5</ele>
        <time>2013-05-30T12:46:57.34</time>
      </trkpt>
      <trkpt lat="43.67372" lon="3.80578">
        <ele>172.5</ele>
        <time>2013-05-30T12:46:58.38</time>
      </trkpt>
      <trkpt lat="43.6737" lon="3.80577">
        <ele>173</ele>
        <time>2013-05-30T12:46:59.42</time>
      </trkpt>
      <trkpt lat="43.67368" lon="3.80574">
        <ele>173.5</ele>
        <time>2013-05-30T12:47:00.34</time>
      </trkpt>
      <trkpt lat="43.67366" lon="3.80572">
        <ele>173</ele>
        <time>2013-05-30T12:47:01.34</time>
      </trkpt>
      <trkpt lat="43.67364" lon="3.8057">
        <ele>173</ele>
        <time>2013-05-30T12:47:02.34</time>
      </trkpt>
      <trkpt lat="43.67362" lon="3.80567">
        <ele>172.5</ele>
        <time>2013-05-30T12:47:03.34</time>
      </trkpt>
      <trkpt lat="43.6736" lon="3.80565">
        <ele>172.5</ele>
        <time>2013-05-30T12:47:04.34</time>
      </trkpt>
      <trkpt lat="43.67358" lon="3.80563">
        <ele>172</ele>
        <time>2013-05-30T12:47:05.34</time>
      </trkpt>
      <trkpt lat="43.67356" lon="3.80561">
        <ele>172</ele>
        <time>2013-05-30T12:47:06.34</time>
      </trkpt>
      <trkpt lat="43.67354" lon="3.80559">
        <ele>171.5</ele>
        <time>2013-05-30T12:47:07.34</time>
      </trkpt>
      <trkpt lat="43.67351" lon="3.80557">
        <ele>172</ele>
        <time>2013-05-30T12:47:08.34</time>
      </trkpt>
      <trkpt lat="43.67349" lon="3.80556">
        <ele>172.5</ele>
        <time>2013-05-30T12:47:09.34</time>
      </trkpt>
      <trkpt lat="43.67347" lon="3.80553">
        <ele>172</ele>
        <time>2013-05-30T12:47:10.34</time>
      </trkpt>
      <trkpt lat="43.67344" lon="3.80551">
        <ele>172</ele>
        <time>2013-05-30T12:47:11.34</time>
      </trkpt>
      <trkpt lat="43.67342" lon="3.8055">
        <ele>172</ele>
        <time>2013-05-30T12:47:12.34</time>
      </trkpt>
      <trkpt lat="43.67339" lon="3.80547">
        <ele>172</ele>
        <time>2013-05-30T12:47:13.34</time>
      </trkpt>
      <trkpt lat="43.67336" lon="3.80545">
        <ele>171.5</ele>
        <time>2013-05-30T12:47:14.34</time>
      </trkpt>
      <trkpt lat="43.67333" lon="3.80542">
        <ele>171.5</ele>
        <time>2013-05-30T12:47:15.45</time>
      </trkpt>
      <trkpt lat="43.67329" lon="3.8054">
        <ele>171.5</ele>
        <time>2013-05-30T12:47:16.34</time>
      </trkpt>
      <trkpt lat="43.67325" lon="3.80537">
        <ele>171</ele>
        <time>2013-05-30T12:47:17.34</time>
      </trkpt>
      <trkpt lat="43.67321" lon="3.80534">
        <ele>171</ele>
        <time>2013-05-30T12:47:18.34</time>
      </trkpt>
      <trkpt lat="43.67317" lon="3.80531">
        <ele>170.5</ele>
        <time>2013-05-30T12:47:19.34</time>
      </trkpt>
      <trkpt lat="43.67313" lon="3.80528">
        <ele>171</ele>
        <time>2013-05-30T12:47:20.34</time>
      </trkpt>
      <trkpt lat="43.67308" lon="3.80525">
        <ele>171</ele>
        <time>2013-05-30T12:47:21.34</time>
      </trkpt>
      <trkpt lat="43.67304" lon="3.80522">
        <ele>171</ele>
        <time>2013-05-30T12:47:22.34</time>
      </trkpt>
      <trkpt lat="43.67299" lon="3.8052">
        <ele>171</ele>
        <time>2013-05-30T12:47:23.34</time>
      </trkpt>
      <trkpt lat="43.67294" lon="3.80518">
        <ele>171.5</ele>
        <time>2013-05-30T12:47:24.34</time>
      </trkpt>
      <trkpt lat="43.67289" lon="3.80517">
        <ele>171.5</ele>
        <time>2013-05-30T12:47:25.34</time>
      </trkpt>
      <trkpt lat="43.67285" lon="3.80515">
        <ele>170.5</ele>
        <time>2013-05-30T12:47:26.34</time>
      </trkpt>
      <trkpt lat="43.6728" lon="3.80516">
        <ele>170.5</ele>
        <time>2013-05-30T12:47:27.38</time>
      </trkpt>
      <trkpt lat="43.67276" lon="3.80517">
        <ele>170.5</ele>
        <time>2013-05-30T12:47:28.34</time>
      </trkpt>
      <trkpt lat="43.67272" lon="3.80518">
        <ele>170</ele>
        <time>2013-05-30T12:47:29.34</time>
      </trkpt>
      <trkpt lat="43.67268" lon="3.8052">
        <ele>170</ele>
        <time>2013-05-30T12:47:30.34</time>
      </trkpt>
      <trkpt lat="43.67264" lon="3.80523">
        <ele>170.5</ele>
        <time>2013-05-30T12:47:31.34</time>
      </trkpt>
      <trkpt lat="43.6726" lon="3.80525">
        <ele>171</ele>
        <time>2013-05-30T12:47:32.34</time>
      </trkpt>
      <trkpt lat="43.67256" lon="3.80528">
        <ele>171</ele>
        <time>2013-05-30T12:47:33.34</time>
      </trkpt>
      <trkpt lat="43.67252" lon="3.8053">
        <ele>171.5</ele>
        <time>2013-05-30T12:47:34.35</time>
      </trkpt>
      <trkpt lat="43.67247" lon="3.8053">
        <ele>172</ele>
        <time>2013-05-30T12:47:35.34</time>
      </trkpt>
      <trkpt lat="43.67243" lon="3.80531">
        <ele>172.5</ele>
        <time>2013-05-30T12:47:36.34</time>
      </trkpt>
      <trkpt lat="43.67239" lon="3.80533">
        <ele>173.5</ele>
        <time>2013-05-30T12:47:37.34</time>
      </trkpt>
      <trkpt lat="43.67235" lon="3.80533">
        <ele>173</ele>
        <time>2013-05-30T12:47:38.35</time>
      </trkpt>
      <trkpt lat="43.67231" lon="3.80533">
        <ele>173</ele>
        <time>2013-05-30T12:47:39.34</time>
      </trkpt>
      <trkpt lat="43.67226" lon="3.80534">
        <ele>174</ele>
        <time>2013-05-30T12:47:40.35</time>
      </trkpt>
      <trkpt lat="43.67224" lon="3.80532">
        <ele>172</ele>
        <time>2013-05-30T12:47:41.34</time>
      </trkpt>
      <trkpt lat="43.6722" lon="3.80531">
        <ele>172.5</ele>
        <time>2013-05-30T12:47:42.34</time>
      </trkpt>
      <trkpt lat="43.67216" lon="3.8053">
        <ele>173</ele>
        <time>2013-05-30T12:47:43.35</time>
      </trkpt>
      <trkpt lat="43.67213" lon="3.80527">
        <ele>173</ele>
        <time>2013-05-30T12:47:44.35</time>
      </trkpt>
      <trkpt lat="43.6721" lon="3.80525">
        <ele>173</ele>
        <time>2013-05-30T12:47:45.34</time>
      </trkpt>
      <trkpt lat="43.67207" lon="3.80522">
        <ele>173</ele>
        <time>2013-05-30T12:47:46.35</time>
      </trkpt>
      <trkpt lat="43.67204" lon="3.80519">
        <ele>173</ele>
        <time>2013-05-30T12:47:47.34</time>
      </trkpt>
      <trkpt lat="43.67201" lon="3.80517">
        <ele>173</ele>
        <time>2013-05-30T12:47:48.34</time>
      </trkpt>
      <trkpt lat="43.67199" lon="3.80514">
        <ele>173.5</ele>
        <time>2013-05-30T12:47:49.34</time>
      </trkpt>
      <trkpt lat="43.67197" lon="3.8051">
        <ele>173</ele>
        <time>2013-05-30T12:47:50.34</time>
      </trkpt>
      <trkpt lat="43.67194" lon="3.80507">
        <ele>173.5</ele>
        <time>2013-05-30T12:47:51.34</time>
      </trkpt>
      <trkpt lat="43.67191" lon="3.80504">
        <ele>173.5</ele>
        <time>2013-05-30T12:47:52.35</time>
      </trkpt>
      <trkpt lat="43.67189" lon="3.805">
        <ele>173.5</ele>
        <time>2013-05-30T12:47:53.33</time>
      </trkpt>
      <trkpt lat="43.67186" lon="3.80496">
        <ele>173.5</ele>
        <time>2013-05-30T12:47:54.33</time>
      </trkpt>
      <trkpt lat="43.67184" lon="3.80492">
        <ele>173.5</ele>
        <time>2013-05-30T12:47:55.39</time>
      </trkpt>
      <trkpt lat="43.67181" lon="3.8049">
        <ele>173.5</ele>
        <time>2013-05-30T12:47:56.35</time>
      </trkpt>
      <trkpt lat="43.67179" lon="3.80486">
        <ele>172.5</ele>
        <time>2013-05-30T12:47:57.35</time>
      </trkpt>
      <trkpt lat="43.67174" lon="3.80483">
        <ele>172.5</ele>
        <time>2013-05-30T12:47:58.35</time>
      </trkpt>
      <trkpt lat="43.6717" lon="3.80481">
        <ele>172.5</ele>
        <time>2013-05-30T12:47:59.34</time>
      </trkpt>
      <trkpt lat="43.67165" lon="3.80477">
        <ele>172</ele>
        <time>2013-05-30T12:48:00.34</time>
      </trkpt>
      <trkpt lat="43.67159" lon="3.80475">
        <ele>170</ele>
        <time>2013-05-30T12:48:01.35</time>
      </trkpt>
      <trkpt lat="43.67155" lon="3.80468">
        <ele>169.5</ele>
        <time>2013-05-30T12:48:02.34</time>
      </trkpt>
      <trkpt lat="43.6715" lon="3.80464">
        <ele>168.5</ele>
        <time>2013-05-30T12:48:03.34</time>
      </trkpt>
      <trkpt lat="43.67143" lon="3.80462">
        <ele>167</ele>
        <time>2013-05-30T12:48:04.39</time>
      </trkpt>
      <trkpt lat="43.67135" lon="3.80464">
        <ele>165</ele>
        <time>2013-05-30T12:48:05.43</time>
      </trkpt>
      <trkpt lat="43.67128" lon="3.80458">
        <ele>164.5</ele>
        <time>2013-05-30T12:48:06.35</time>
      </trkpt>
      <trkpt lat="43.6712" lon="3.80452">
        <ele>165.5</ele>
        <time>2013-05-30T12:48:07.43</time>
      </trkpt>
      <trkpt lat="43.67109" lon="3.8044">
        <ele>164</ele>
        <time>2013-05-30T12:48:09.35</time>
      </trkpt>
      <trkpt lat="43.67103" lon="3.80435">
        <ele>164</ele>
        <time>2013-05-30T12:48:10.35</time>
      </trkpt>
      <trkpt lat="43.67097" lon="3.80427">
        <ele>163</ele>
        <time>2013-05-30T12:48:11.35</time>
      </trkpt>
      <trkpt lat="43.67091" lon="3.80423">
        <ele>161</ele>
        <time>2013-05-30T12:48:12.34</time>
      </trkpt>
      <trkpt lat="43.67085" lon="3.80416">
        <ele>158.5</ele>
        <time>2013-05-30T12:48:13.34</time>
      </trkpt>
      <trkpt lat="43.6708" lon="3.80412">
        <ele>156</ele>
        <time>2013-05-30T12:48:14.34</time>
      </trkpt>
      <trkpt lat="43.67074" lon="3.80412">
        <ele>155</ele>
        <time>2013-05-30T12:48:15.34</time>
      </trkpt>
      <trkpt lat="43.67071" lon="3.80416">
        <ele>154.5</ele>
        <time>2013-05-30T12:48:16.34</time>
      </trkpt>
      <trkpt lat="43.67068" lon="3.8042">
        <ele>153.5</ele>
        <time>2013-05-30T12:48:17.34</time>
      </trkpt>
      <trkpt lat="43.67063" lon="3.80423">
        <ele>154</ele>
        <time>2013-05-30T12:48:18.34</time>
      </trkpt>
      <trkpt lat="43.67058" lon="3.80425">
        <ele>153.5</ele>
        <time>2013-05-30T12:48:19.34</time>
      </trkpt>
      <trkpt lat="43.67054" lon="3.80427">
        <ele>153</ele>
        <time>2013-05-30T12:48:20.33</time>
      </trkpt>
      <trkpt lat="43.6705" lon="3.8043">
        <ele>152.5</ele>
        <time>2013-05-30T12:48:21.41</time>
      </trkpt>
      <trkpt lat="43.67045" lon="3.80432">
        <ele>152.5</ele>
        <time>2013-05-30T12:48:22.34</time>
      </trkpt>
      <trkpt lat="43.67041" lon="3.80432">
        <ele>152.5</ele>
        <time>2013-05-30T12:48:23.34</time>
      </trkpt>
      <trkpt lat="43.67036" lon="3.80434">
        <ele>153</ele>
        <time>2013-05-30T12:48:24.34</time>
      </trkpt>
      <trkpt lat="43.67033" lon="3.80435">
        <ele>152</ele>
        <time>2013-05-30T12:48:25.35</time>
      </trkpt>
      <trkpt lat="43.6703" lon="3.80437">
        <ele>152.5</ele>
        <time>2013-05-30T12:48:26.34</time>
      </trkpt>
      <trkpt lat="43.67028" lon="3.80437">
        <ele>152.5</ele>
        <time>2013-05-30T12:48:27.34</time>
      </trkpt>
      <trkpt lat="43.67025" lon="3.80437">
        <ele>152</ele>
        <time>2013-05-30T12:48:28.35</time>
      </trkpt>
      <trkpt lat="43.67023" lon="3.80439">
        <ele>152</ele>
        <time>2013-05-30T12:48:29.34</time>
      </trkpt>
      <trkpt lat="43.67021" lon="3.8044">
        <ele>152</ele>
        <time>2013-05-30T12:48:30.34</time>
      </trkpt>
      <trkpt lat="43.67018" lon="3.80441">
        <ele>152.5</ele>
        <time>2013-05-30T12:48:31.34</time>
      </trkpt>
      <trkpt lat="43.67017" lon="3.80443">
        <ele>152.5</ele>
        <time>2013-05-30T12:48:32.35</time>
      </trkpt>
      <trkpt lat="43.67015" lon="3.80444">
        <ele>152.5</ele>
        <time>2013-05-30T12:48:33.34</time>
      </trkpt>
      <trkpt lat="43.67014" lon="3.80447">
        <ele>152.5</ele>
        <time>2013-05-30T12:48:34.34</time>
      </trkpt>
      <trkpt lat="43.67012" lon="3.80447">
        <ele>151.5</ele>
        <time>2013-05-30T12:48:35.35</time>
      </trkpt>
      <trkpt lat="43.6701" lon="3.80449">
        <ele>151.5</ele>
        <time>2013-05-30T12:48:36.34</time>
      </trkpt>
      <trkpt lat="43.67009" lon="3.80451">
        <ele>151</ele>
        <time>2013-05-30T12:48:37.34</time>
      </trkpt>
      <trkpt lat="43.67008" lon="3.80452">
        <ele>150.5</ele>
        <time>2013-05-30T12:48:38.34</time>
      </trkpt>
      <trkpt lat="43.67006" lon="3.80454">
        <ele>150.5</ele>
        <time>2013-05-30T12:48:39.35</time>
      </trkpt>
      <trkpt lat="43.67004" lon="3.80456">
        <ele>151</ele>
        <time>2013-05-30T12:48:40.34</time>
      </trkpt>
      <trkpt lat="43.67003" lon="3.80459">
        <ele>151</ele>
        <time>2013-05-30T12:48:41.34</time>
      </trkpt>
      <trkpt lat="43.67001" lon="3.80461">
        <ele>151.5</ele>
        <time>2013-05-30T12:48:42.34</time>
      </trkpt>
      <trkpt lat="43.67" lon="3.80463">
        <ele>151.5</ele>
        <time>2013-05-30T12:48:43.34</time>
      </trkpt>
      <trkpt lat="43.66998" lon="3.80464">
        <ele>152.5</ele>
        <time>2013-05-30T12:48:44.34</time>
      </trkpt>
      <trkpt lat="43.66996" lon="3.80467">
        <ele>153</ele>
        <time>2013-05-30T12:48:45.34</time>
      </trkpt>
      <trkpt lat="43.66994" lon="3.80469">
        <ele>153.5</ele>
        <time>2013-05-30T12:48:46.35</time>
      </trkpt>
      <trkpt lat="43.66992" lon="3.80472">
        <ele>154</ele>
        <time>2013-05-30T12:48:47.34</time>
      </trkpt>
      <trkpt lat="43.6699" lon="3.80474">
        <ele>154.5</ele>
        <time>2013-05-30T12:48:48.34</time>
      </trkpt>
      <trkpt lat="43.66988" lon="3.80477">
        <ele>154.5</ele>
        <time>2013-05-30T12:48:49.34</time>
      </trkpt>
      <trkpt lat="43.66987" lon="3.80479">
        <ele>154.5</ele>
        <time>2013-05-30T12:48:50.34</time>
      </trkpt>
      <trkpt lat="43.66985" lon="3.80481">
        <ele>155</ele>
        <time>2013-05-30T12:48:51.34</time>
      </trkpt>
      <trkpt lat="43.66983" lon="3.80484">
        <ele>155</ele>
        <time>2013-05-30T12:48:52.34</time>
      </trkpt>
      <trkpt lat="43.66981" lon="3.80486">
        <ele>155</ele>
        <time>2013-05-30T12:48:53.34</time>
      </trkpt>
      <trkpt lat="43.6698" lon="3.80488">
        <ele>155</ele>
        <time>2013-05-30T12:48:54.45</time>
      </trkpt>
      <trkpt lat="43.66978" lon="3.8049">
        <ele>155.5</ele>
        <time>2013-05-30T12:48:55.35</time>
      </trkpt>
      <trkpt lat="43.66976" lon="3.80492">
        <ele>156</ele>
        <time>2013-05-30T12:48:56.34</time>
      </trkpt>
      <trkpt lat="43.66974" lon="3.80495">
        <ele>156</ele>
        <time>2013-05-30T12:48:57.34</time>
      </trkpt>
      <trkpt lat="43.66972" lon="3.80497">
        <ele>156.5</ele>
        <time>2013-05-30T12:48:58.34</time>
      </trkpt>
      <trkpt lat="43.66971" lon="3.80499">
        <ele>156.5</ele>
        <time>2013-05-30T12:48:59.34</time>
      </trkpt>
      <trkpt lat="43.66969" lon="3.80501">
        <ele>157</ele>
        <time>2013-05-30T12:49:00.34</time>
      </trkpt>
      <trkpt lat="43.66967" lon="3.80503">
        <ele>157</ele>
        <time>2013-05-30T12:49:01.34</time>
      </trkpt>
      <trkpt lat="43.66965" lon="3.80505">
        <ele>157</ele>
        <time>2013-05-30T12:49:02.34</time>
      </trkpt>
      <trkpt lat="43.66963" lon="3.80507">
        <ele>157.5</ele>
        <time>2013-05-30T12:49:03.34</time>
      </trkpt>
      <trkpt lat="43.66962" lon="3.80509">
        <ele>157.5</ele>
        <time>2013-05-30T12:49:04.34</time>
      </trkpt>
      <trkpt lat="43.6696" lon="3.80511">
        <ele>157.5</ele>
        <time>2013-05-30T12:49:05.34</time>
      </trkpt>
      <trkpt lat="43.66958" lon="3.80513">
        <ele>157.5</ele>
        <time>2013-05-30T12:49:06.35</time>
      </trkpt>
      <trkpt lat="43.66956" lon="3.80515">
        <ele>157.5</ele>
        <time>2013-05-30T12:49:07.34</time>
      </trkpt>
      <trkpt lat="43.66954" lon="3.80517">
        <ele>157.5</ele>
        <time>2013-05-30T12:49:08.34</time>
      </trkpt>
      <trkpt lat="43.66952" lon="3.80519">
        <ele>157</ele>
        <time>2013-05-30T12:49:09.34</time>
      </trkpt>
      <trkpt lat="43.6695" lon="3.80521">
        <ele>157</ele>
        <time>2013-05-30T12:49:10.34</time>
      </trkpt>
      <trkpt lat="43.66948" lon="3.80522">
        <ele>157.5</ele>
        <time>2013-05-30T12:49:11.34</time>
      </trkpt>
      <trkpt lat="43.66947" lon="3.80523">
        <ele>157.5</ele>
        <time>2013-05-30T12:49:12.34</time>
      </trkpt>
      <trkpt lat="43.66944" lon="3.80524">
        <ele>158</ele>
        <time>2013-05-30T12:49:13.34</time>
      </trkpt>
      <trkpt lat="43.66942" lon="3.80524">
        <ele>158.5</ele>
        <time>2013-05-30T12:49:14.34</time>
      </trkpt>
      <trkpt lat="43.6694" lon="3.80523">
        <ele>158.5</ele>
        <time>2013-05-30T12:49:15.35</time>
      </trkpt>
      <trkpt lat="43.66937" lon="3.80524">
        <ele>159</ele>
        <time>2013-05-30T12:49:16.35</time>
      </trkpt>
      <trkpt lat="43.66934" lon="3.80523">
        <ele>159</ele>
        <time>2013-05-30T12:49:17.35</time>
      </trkpt>
      <trkpt lat="43.66932" lon="3.80522">
        <ele>159</ele>
        <time>2013-05-30T12:49:18.34</time>
      </trkpt>
      <trkpt lat="43.66929" lon="3.80521">
        <ele>159.5</ele>
        <time>2013-05-30T12:49:19.34</time>
      </trkpt>
      <trkpt lat="43.66927" lon="3.80519">
        <ele>160</ele>
        <time>2013-05-30T12:49:20.33</time>
      </trkpt>
      <trkpt lat="43.66925" lon="3.80516">
        <ele>160</ele>
        <time>2013-05-30T12:49:21.34</time>
      </trkpt>
      <trkpt lat="43.66924" lon="3.80514">
        <ele>160.5</ele>
        <time>2013-05-30T12:49:22.35</time>
      </trkpt>
      <trkpt lat="43.66924" lon="3.80511">
        <ele>161</ele>
        <time>2013-05-30T12:49:23.35</time>
      </trkpt>
      <trkpt lat="43.66924" lon="3.80508">
        <ele>162</ele>
        <time>2013-05-30T12:49:24.38</time>
      </trkpt>
      <trkpt lat="43.66925" lon="3.80505">
        <ele>162.5</ele>
        <time>2013-05-30T12:49:25.34</time>
      </trkpt>
      <trkpt lat="43.66927" lon="3.80502">
        <ele>162</ele>
        <time>2013-05-30T12:49:26.34</time>
      </trkpt>
      <trkpt lat="43.66927" lon="3.80498">
        <ele>160.5</ele>
        <time>2013-05-30T12:49:27.35</time>
      </trkpt>
      <trkpt lat="43.66928" lon="3.80495">
        <ele>160.5</ele>
        <time>2013-05-30T12:49:28.34</time>
      </trkpt>
      <trkpt lat="43.6693" lon="3.80492">
        <ele>160.5</ele>
        <time>2013-05-30T12:49:29.34</time>
      </trkpt>
      <trkpt lat="43.66931" lon="3.80489">
        <ele>160.5</ele>
        <time>2013-05-30T12:49:30.34</time>
      </trkpt>
      <trkpt lat="43.66933" lon="3.80486">
        <ele>160</ele>
        <time>2013-05-30T12:49:31.34</time>
      </trkpt>
      <trkpt lat="43.66935" lon="3.80483">
        <ele>160</ele>
        <time>2013-05-30T12:49:32.34</time>
      </trkpt>
      <trkpt lat="43.66936" lon="3.8048">
        <ele>159.5</ele>
        <time>2013-05-30T12:49:33.34</time>
      </trkpt>
      <trkpt lat="43.66937" lon="3.80477">
        <ele>160</ele>
        <time>2013-05-30T12:49:34.34</time>
      </trkpt>
      <trkpt lat="43.66938" lon="3.80474">
        <ele>160.5</ele>
        <time>2013-05-30T12:49:35.34</time>
      </trkpt>
      <trkpt lat="43.6694" lon="3.8047">
        <ele>161.5</ele>
        <time>2013-05-30T12:49:36.35</time>
      </trkpt>
      <trkpt lat="43.66941" lon="3.80467">
        <ele>162</ele>
        <time>2013-05-30T12:49:37.35</time>
      </trkpt>
      <trkpt lat="43.66941" lon="3.80463">
        <ele>162.5</ele>
        <time>2013-05-30T12:49:38.34</time>
      </trkpt>
      <trkpt lat="43.66942" lon="3.8046">
        <ele>163</ele>
        <time>2013-05-30T12:49:39.34</time>
      </trkpt>
      <trkpt lat="43.66943" lon="3.80456">
        <ele>164.5</ele>
        <time>2013-05-30T12:49:40.34</time>
      </trkpt>
      <trkpt lat="43.66943" lon="3.80453">
        <ele>164.5</ele>
        <time>2013-05-30T12:49:41.35</time>
      </trkpt>
      <trkpt lat="43.66943" lon="3.80449">
        <ele>164.5</ele>
        <time>2013-05-30T12:49:42.34</time>
      </trkpt>
      <trkpt lat="43.66942" lon="3.80446">
        <ele>165</ele>
        <time>2013-05-30T12:49:43.43</time>
      </trkpt>
      <trkpt lat="43.66941" lon="3.80442">
        <ele>165.5</ele>
        <time>2013-05-30T12:49:44.34</time>
      </trkpt>
      <trkpt lat="43.6694" lon="3.80439">
        <ele>165.5</ele>
        <time>2013-05-30T12:49:45.36</time>
      </trkpt>
      <trkpt lat="43.66939" lon="3.80437">
        <ele>165.5</ele>
        <time>2013-05-30T12:49:46.35</time>
      </trkpt>
      <trkpt lat="43.66938" lon="3.80434">
        <ele>165.5</ele>
        <time>2013-05-30T12:49:47.33</time>
      </trkpt>
      <trkpt lat="43.66937" lon="3.80432">
        <ele>166</ele>
        <time>2013-05-30T12:49:48.37</time>
      </trkpt>
      <trkpt lat="43.66936" lon="3.80428">
        <ele>165.5</ele>
        <time>2013-05-30T12:49:49.34</time>
      </trkpt>
      <trkpt lat="43.66934" lon="3.80426">
        <ele>166</ele>
        <time>2013-05-30T12:49:50.34</time>
      </trkpt>
      <trkpt lat="43.66933" lon="3.80423">
        <ele>166</ele>
        <time>2013-05-30T12:49:51.34</time>
      </trkpt>
      <trkpt lat="43.66931" lon="3.80422">
        <ele>167</ele>
        <time>2013-05-30T12:49:52.34</time>
      </trkpt>
      <trkpt lat="43.6693" lon="3.80422">
        <ele>168.5</ele>
        <time>2013-05-30T12:49:53.34</time>
      </trkpt>
      <trkpt lat="43.66929" lon="3.80425">
        <ele>172.5</ele>
        <time>2013-05-30T12:49:54.33</time>
      </trkpt>
      <trkpt lat="43.66928" lon="3.80423">
        <ele>173</ele>
        <time>2013-05-30T12:49:55.33</time>
      </trkpt>
      <trkpt lat="43.66927" lon="3.8042">
        <ele>173</ele>
        <time>2013-05-30T12:49:56.33</time>
      </trkpt>
      <trkpt lat="43.66927" lon="3.80417">
        <ele>173</ele>
        <time>2013-05-30T12:49:57.33</time>
      </trkpt>
      <trkpt lat="43.66926" lon="3.80412">
        <ele>172.5</ele>
        <time>2013-05-30T12:49:58.34</time>
      </trkpt>
      <trkpt lat="43.66926" lon="3.80408">
        <ele>172</ele>
        <time>2013-05-30T12:49:59.33</time>
      </trkpt>
      <trkpt lat="43.66926" lon="3.80405">
        <ele>172</ele>
        <time>2013-05-30T12:50:00.33</time>
      </trkpt>
      <trkpt lat="43.66927" lon="3.80402">
        <ele>171.5</ele>
        <time>2013-05-30T12:50:01.33</time>
      </trkpt>
      <trkpt lat="43.66927" lon="3.80398">
        <ele>171.5</ele>
        <time>2013-05-30T12:50:02.33</time>
      </trkpt>
      <trkpt lat="43.66927" lon="3.80396">
        <ele>170.5</ele>
        <time>2013-05-30T12:50:03.34</time>
      </trkpt>
      <trkpt lat="43.66928" lon="3.80394">
        <ele>171</ele>
        <time>2013-05-30T12:50:04.35</time>
      </trkpt>
      <trkpt lat="43.66928" lon="3.8039">
        <ele>171</ele>
        <time>2013-05-30T12:50:05.34</time>
      </trkpt>
      <trkpt lat="43.66928" lon="3.80386">
        <ele>172</ele>
        <time>2013-05-30T12:50:06.33</time>
      </trkpt>
      <trkpt lat="43.66929" lon="3.80382">
        <ele>170.5</ele>
        <time>2013-05-30T12:50:07.34</time>
      </trkpt>
      <trkpt lat="43.66931" lon="3.80378">
        <ele>170.5</ele>
        <time>2013-05-30T12:50:08.34</time>
      </trkpt>
      <trkpt lat="43.66933" lon="3.80375">
        <ele>170</ele>
        <time>2013-05-30T12:50:09.34</time>
      </trkpt>
      <trkpt lat="43.66935" lon="3.80371">
        <ele>170.5</ele>
        <time>2013-05-30T12:50:10.35</time>
      </trkpt>
      <trkpt lat="43.66935" lon="3.80366">
        <ele>171.5</ele>
        <time>2013-05-30T12:50:11.43</time>
      </trkpt>
      <trkpt lat="43.66937" lon="3.80361">
        <ele>172.5</ele>
        <time>2013-05-30T12:50:12.34</time>
      </trkpt>
      <trkpt lat="43.66939" lon="3.80358">
        <ele>173.5</ele>
        <time>2013-05-30T12:50:13.35</time>
      </trkpt>
      <trkpt lat="43.66941" lon="3.80355">
        <ele>174.5</ele>
        <time>2013-05-30T12:50:14.34</time>
      </trkpt>
      <trkpt lat="43.66944" lon="3.80352">
        <ele>175</ele>
        <time>2013-05-30T12:50:15.34</time>
      </trkpt>
      <trkpt lat="43.66947" lon="3.80351">
        <ele>175</ele>
        <time>2013-05-30T12:50:16.34</time>
      </trkpt>
      <trkpt lat="43.6695" lon="3.80348">
        <ele>176</ele>
        <time>2013-05-30T12:50:17.34</time>
      </trkpt>
      <trkpt lat="43.66953" lon="3.80347">
        <ele>176.5</ele>
        <time>2013-05-30T12:50:18.33</time>
      </trkpt>
      <trkpt lat="43.66956" lon="3.80345">
        <ele>177</ele>
        <time>2013-05-30T12:50:19.34</time>
      </trkpt>
      <trkpt lat="43.66958" lon="3.80344">
        <ele>178</ele>
        <time>2013-05-30T12:50:20.33</time>
      </trkpt>
      <trkpt lat="43.66961" lon="3.80342">
        <ele>177</ele>
        <time>2013-05-30T12:50:21.33</time>
      </trkpt>
      <trkpt lat="43.66964" lon="3.8034">
        <ele>176.5</ele>
        <time>2013-05-30T12:50:22.33</time>
      </trkpt>
      <trkpt lat="43.66966" lon="3.80337">
        <ele>176</ele>
        <time>2013-05-30T12:50:23.34</time>
      </trkpt>
      <trkpt lat="43.66968" lon="3.80334">
        <ele>175.5</ele>
        <time>2013-05-30T12:50:24.33</time>
      </trkpt>
      <trkpt lat="43.6697" lon="3.80331">
        <ele>174.5</ele>
        <time>2013-05-30T12:50:25.33</time>
      </trkpt>
      <trkpt lat="43.66971" lon="3.80328">
        <ele>174.5</ele>
        <time>2013-05-30T12:50:26.33</time>
      </trkpt>
      <trkpt lat="43.66972" lon="3.80324">
        <ele>175</ele>
        <time>2013-05-30T12:50:27.33</time>
      </trkpt>
      <trkpt lat="43.66973" lon="3.8032">
        <ele>175.5</ele>
        <time>2013-05-30T12:50:28.34</time>
      </trkpt>
      <trkpt lat="43.66973" lon="3.80317">
        <ele>175.5</ele>
        <time>2013-05-30T12:50:29.41</time>
      </trkpt>
      <trkpt lat="43.66973" lon="3.80313">
        <ele>175.5</ele>
        <time>2013-05-30T12:50:30.33</time>
      </trkpt>
      <trkpt lat="43.66972" lon="3.8031">
        <ele>176</ele>
        <time>2013-05-30T12:50:31.34</time>
      </trkpt>
      <trkpt lat="43.66971" lon="3.80306">
        <ele>176</ele>
        <time>2013-05-30T12:50:32.35</time>
      </trkpt>
      <trkpt lat="43.66969" lon="3.80303">
        <ele>176.5</ele>
        <time>2013-05-30T12:50:33.34</time>
      </trkpt>
      <trkpt lat="43.66968" lon="3.803">
        <ele>177</ele>
        <time>2013-05-30T12:50:34.34</time>
      </trkpt>
      <trkpt lat="43.66966" lon="3.80298">
        <ele>177</ele>
        <time>2013-05-30T12:50:35.33</time>
      </trkpt>
      <trkpt lat="43.66964" lon="3.80296">
        <ele>178</ele>
        <time>2013-05-30T12:50:36.35</time>
      </trkpt>
      <trkpt lat="43.66962" lon="3.80294">
        <ele>178</ele>
        <time>2013-05-30T12:50:37.34</time>
      </trkpt>
      <trkpt lat="43.6696" lon="3.80291">
        <ele>178.5</ele>
        <time>2013-05-30T12:50:38.34</time>
      </trkpt>
      <trkpt lat="43.66958" lon="3.80289">
        <ele>178.5</ele>
        <time>2013-05-30T12:50:39.34</time>
      </trkpt>
      <trkpt lat="43.66956" lon="3.80288">
        <ele>179.5</ele>
        <time>2013-05-30T12:50:40.34</time>
      </trkpt>
      <trkpt lat="43.66954" lon="3.80288">
        <ele>180</ele>
        <time>2013-05-30T12:50:41.34</time>
      </trkpt>
      <trkpt lat="43.66951" lon="3.80285">
        <ele>180</ele>
        <time>2013-05-30T12:50:42.33</time>
      </trkpt>
      <trkpt lat="43.66949" lon="3.80283">
        <ele>180.5</ele>
        <time>2013-05-30T12:50:43.34</time>
      </trkpt>
      <trkpt lat="43.66947" lon="3.80282">
        <ele>180</ele>
        <time>2013-05-30T12:50:44.34</time>
      </trkpt>
      <trkpt lat="43.66945" lon="3.80281">
        <ele>181.5</ele>
        <time>2013-05-30T12:50:45.34</time>
      </trkpt>
      <trkpt lat="43.66943" lon="3.80278">
        <ele>182.5</ele>
        <time>2013-05-30T12:50:46.35</time>
      </trkpt>
      <trkpt lat="43.66939" lon="3.80271">
        <ele>181.5</ele>
        <time>2013-05-30T12:50:48.34</time>
      </trkpt>
      <trkpt lat="43.66935" lon="3.80272">
        <ele>182</ele>
        <time>2013-05-30T12:50:49.34</time>
      </trkpt>
      <trkpt lat="43.66932" lon="3.80272">
        <ele>183</ele>
        <time>2013-05-30T12:50:50.33</time>
      </trkpt>
      <trkpt lat="43.6693" lon="3.80268">
        <ele>182</ele>
        <time>2013-05-30T12:50:51.34</time>
      </trkpt>
      <trkpt lat="43.66928" lon="3.80266">
        <ele>181.5</ele>
        <time>2013-05-30T12:50:52.34</time>
      </trkpt>
      <trkpt lat="43.66925" lon="3.80266">
        <ele>182</ele>
        <time>2013-05-30T12:50:53.34</time>
      </trkpt>
      <trkpt lat="43.66922" lon="3.80265">
        <ele>182</ele>
        <time>2013-05-30T12:50:54.34</time>
      </trkpt>
      <trkpt lat="43.6692" lon="3.80264">
        <ele>182</ele>
        <time>2013-05-30T12:50:55.33</time>
      </trkpt>
      <trkpt lat="43.66917" lon="3.80264">
        <ele>182.5</ele>
        <time>2013-05-30T12:50:56.34</time>
      </trkpt>
      <trkpt lat="43.66914" lon="3.80264">
        <ele>183</ele>
        <time>2013-05-30T12:50:57.34</time>
      </trkpt>
      <trkpt lat="43.66912" lon="3.80263">
        <ele>182.5</ele>
        <time>2013-05-30T12:50:58.33</time>
      </trkpt>
      <trkpt lat="43.66909" lon="3.8026">
        <ele>182</ele>
        <time>2013-05-30T12:50:59.33</time>
      </trkpt>
      <trkpt lat="43.66906" lon="3.80258">
        <ele>182</ele>
        <time>2013-05-30T12:51:00.34</time>
      </trkpt>
      <trkpt lat="43.66903" lon="3.80257">
        <ele>181.5</ele>
        <time>2013-05-30T12:51:01.34</time>
      </trkpt>
      <trkpt lat="43.669" lon="3.80254">
        <ele>181.5</ele>
        <time>2013-05-30T12:51:02.33</time>
      </trkpt>
      <trkpt lat="43.66896" lon="3.80253">
        <ele>181.5</ele>
        <time>2013-05-30T12:51:03.33</time>
      </trkpt>
      <trkpt lat="43.66892" lon="3.8025">
        <ele>181</ele>
        <time>2013-05-30T12:51:04.34</time>
      </trkpt>
      <trkpt lat="43.66889" lon="3.80248">
        <ele>180.5</ele>
        <time>2013-05-30T12:51:05.33</time>
      </trkpt>
      <trkpt lat="43.66885" lon="3.80245">
        <ele>180.5</ele>
        <time>2013-05-30T12:51:06.34</time>
      </trkpt>
      <trkpt lat="43.66881" lon="3.80241">
        <ele>180.5</ele>
        <time>2013-05-30T12:51:07.34</time>
      </trkpt>
      <trkpt lat="43.66876" lon="3.80239">
        <ele>180.5</ele>
        <time>2013-05-30T12:51:08.34</time>
      </trkpt>
      <trkpt lat="43.66872" lon="3.80236">
        <ele>180.5</ele>
        <time>2013-05-30T12:51:09.37</time>
      </trkpt>
      <trkpt lat="43.66866" lon="3.80234">
        <ele>180</ele>
        <time>2013-05-30T12:51:10.33</time>
      </trkpt>
      <trkpt lat="43.66861" lon="3.80232">
        <ele>179.5</ele>
        <time>2013-05-30T12:51:11.33</time>
      </trkpt>
      <trkpt lat="43.66855" lon="3.80231">
        <ele>179</ele>
        <time>2013-05-30T12:51:12.33</time>
      </trkpt>
      <trkpt lat="43.66849" lon="3.80229">
        <ele>178.5</ele>
        <time>2013-05-30T12:51:13.33</time>
      </trkpt>
      <trkpt lat="43.66843" lon="3.80228">
        <ele>178.5</ele>
        <time>2013-05-30T12:51:14.34</time>
      </trkpt>
      <trkpt lat="43.66839" lon="3.80222">
        <ele>178</ele>
        <time>2013-05-30T12:51:15.33</time>
      </trkpt>
      <trkpt lat="43.66832" lon="3.80224">
        <ele>178</ele>
        <time>2013-05-30T12:51:16.33</time>
      </trkpt>
      <trkpt lat="43.66825" lon="3.80227">
        <ele>177.5</ele>
        <time>2013-05-30T12:51:17.33</time>
      </trkpt>
      <trkpt lat="43.66819" lon="3.80232">
        <ele>177.5</ele>
        <time>2013-05-30T12:51:18.34</time>
      </trkpt>
      <trkpt lat="43.66808" lon="3.80234">
        <ele>177.5</ele>
        <time>2013-05-30T12:51:20.34</time>
      </trkpt>
      <trkpt lat="43.66801" lon="3.80236">
        <ele>177.5</ele>
        <time>2013-05-30T12:51:21.34</time>
      </trkpt>
      <trkpt lat="43.66794" lon="3.80237">
        <ele>177.5</ele>
        <time>2013-05-30T12:51:22.34</time>
      </trkpt>
      <trkpt lat="43.66789" lon="3.80229">
        <ele>177.5</ele>
        <time>2013-05-30T12:51:23.35</time>
      </trkpt>
      <trkpt lat="43.66785" lon="3.80219">
        <ele>177</ele>
        <time>2013-05-30T12:51:24.43</time>
      </trkpt>
      <trkpt lat="43.66737" lon="3.80254">
        <ele>176</ele>
        <time>2013-05-30T12:51:30.34</time>
      </trkpt>
      <trkpt lat="43.66713" lon="3.80224">
        <ele>177</ele>
        <time>2013-05-30T12:51:36.34</time>
      </trkpt>
      <trkpt lat="43.66706" lon="3.80217">
        <ele>177</ele>
        <time>2013-05-30T12:51:37.33</time>
      </trkpt>
      <trkpt lat="43.66699" lon="3.80212">
        <ele>176</ele>
        <time>2013-05-30T12:51:38.33</time>
      </trkpt>
      <trkpt lat="43.66692" lon="3.80204">
        <ele>174.5</ele>
        <time>2013-05-30T12:51:39.34</time>
      </trkpt>
      <trkpt lat="43.66681" lon="3.80187">
        <ele>172.5</ele>
        <time>2013-05-30T12:51:41.35</time>
      </trkpt>
      <trkpt lat="43.66663" lon="3.80179">
        <ele>162.5</ele>
        <time>2013-05-30T12:51:43.33</time>
      </trkpt>
      <trkpt lat="43.66648" lon="3.80174">
        <ele>156</ele>
        <time>2013-05-30T12:51:45.33</time>
      </trkpt>
      <trkpt lat="43.66641" lon="3.80173">
        <ele>155</ele>
        <time>2013-05-30T12:51:46.34</time>
      </trkpt>
      <trkpt lat="43.66635" lon="3.80172">
        <ele>154.5</ele>
        <time>2013-05-30T12:51:47.33</time>
      </trkpt>
      <trkpt lat="43.66629" lon="3.8017">
        <ele>154.5</ele>
        <time>2013-05-30T12:51:48.33</time>
      </trkpt>
      <trkpt lat="43.66624" lon="3.80167">
        <ele>154.5</ele>
        <time>2013-05-30T12:51:49.33</time>
      </trkpt>
      <trkpt lat="43.66619" lon="3.80162">
        <ele>154</ele>
        <time>2013-05-30T12:51:50.33</time>
      </trkpt>
      <trkpt lat="43.66613" lon="3.80159">
        <ele>153.5</ele>
        <time>2013-05-30T12:51:51.34</time>
      </trkpt>
      <trkpt lat="43.66609" lon="3.80152">
        <ele>153.5</ele>
        <time>2013-05-30T12:51:52.34</time>
      </trkpt>
      <trkpt lat="43.66605" lon="3.80147">
        <ele>153</ele>
        <time>2013-05-30T12:51:53.33</time>
      </trkpt>
      <trkpt lat="43.66601" lon="3.80143">
        <ele>152.5</ele>
        <time>2013-05-30T12:51:54.33</time>
      </trkpt>
      <trkpt lat="43.66598" lon="3.80139">
        <ele>152</ele>
        <time>2013-05-30T12:51:55.33</time>
      </trkpt>
      <trkpt lat="43.66596" lon="3.80136">
        <ele>153</ele>
        <time>2013-05-30T12:51:56.34</time>
      </trkpt>
      <trkpt lat="43.66593" lon="3.80133">
        <ele>152.5</ele>
        <time>2013-05-30T12:51:58.34</time>
      </trkpt>
      <trkpt lat="43.66593" lon="3.80131">
        <ele>152.5</ele>
        <time>2013-05-30T12:51:59.34</time>
      </trkpt>
      <trkpt lat="43.66592" lon="3.8013">
        <ele>153</ele>
        <time>2013-05-30T12:52:00.34</time>
      </trkpt>
      <trkpt lat="43.66591" lon="3.80128">
        <ele>153</ele>
        <time>2013-05-30T12:52:01.34</time>
      </trkpt>
      <trkpt lat="43.66589" lon="3.80127">
        <ele>152.5</ele>
        <time>2013-05-30T12:52:02.33</time>
      </trkpt>
      <trkpt lat="43.66586" lon="3.80126">
        <ele>153.5</ele>
        <time>2013-05-30T12:52:03.34</time>
      </trkpt>
      <trkpt lat="43.66584" lon="3.80123">
        <ele>155</ele>
        <time>2013-05-30T12:52:04.33</time>
      </trkpt>
      <trkpt lat="43.66581" lon="3.80121">
        <ele>154.5</ele>
        <time>2013-05-30T12:52:05.34</time>
      </trkpt>
      <trkpt lat="43.66577" lon="3.80119">
        <ele>155</ele>
        <time>2013-05-30T12:52:06.33</time>
      </trkpt>
      <trkpt lat="43.66574" lon="3.80115">
        <ele>155</ele>
        <time>2013-05-30T12:52:07.34</time>
      </trkpt>
      <trkpt lat="43.66571" lon="3.80111">
        <ele>155</ele>
        <time>2013-05-30T12:52:08.34</time>
      </trkpt>
      <trkpt lat="43.66567" lon="3.80109">
        <ele>155.5</ele>
        <time>2013-05-30T12:52:09.33</time>
      </trkpt>
      <trkpt lat="43.66565" lon="3.80103">
        <ele>155.5</ele>
        <time>2013-05-30T12:52:10.34</time>
      </trkpt>
      <trkpt lat="43.66561" lon="3.801">
        <ele>155</ele>
        <time>2013-05-30T12:52:11.34</time>
      </trkpt>
      <trkpt lat="43.66557" lon="3.80098">
        <ele>157</ele>
        <time>2013-05-30T12:52:12.34</time>
      </trkpt>
      <trkpt lat="43.66554" lon="3.80095">
        <ele>157</ele>
        <time>2013-05-30T12:52:13.33</time>
      </trkpt>
      <trkpt lat="43.6655" lon="3.80093">
        <ele>158.5</ele>
        <time>2013-05-30T12:52:14.34</time>
      </trkpt>
      <trkpt lat="43.66546" lon="3.8009">
        <ele>157</ele>
        <time>2013-05-30T12:52:15.34</time>
      </trkpt>
      <trkpt lat="43.66542" lon="3.80086">
        <ele>156.5</ele>
        <time>2013-05-30T12:52:16.34</time>
      </trkpt>
      <trkpt lat="43.66539" lon="3.80083">
        <ele>156</ele>
        <time>2013-05-30T12:52:17.34</time>
      </trkpt>
      <trkpt lat="43.66537" lon="3.80082">
        <ele>156.5</ele>
        <time>2013-05-30T12:52:18.34</time>
      </trkpt>
      <trkpt lat="43.66533" lon="3.80079">
        <ele>155</ele>
        <time>2013-05-30T12:52:19.34</time>
      </trkpt>
      <trkpt lat="43.6653" lon="3.80077">
        <ele>155.5</ele>
        <time>2013-05-30T12:52:20.34</time>
      </trkpt>
      <trkpt lat="43.66526" lon="3.80077">
        <ele>155.5</ele>
        <time>2013-05-30T12:52:21.33</time>
      </trkpt>
      <trkpt lat="43.66522" lon="3.80075">
        <ele>155.5</ele>
        <time>2013-05-30T12:52:22.34</time>
      </trkpt>
      <trkpt lat="43.66518" lon="3.80072">
        <ele>155.5</ele>
        <time>2013-05-30T12:52:23.34</time>
      </trkpt>
      <trkpt lat="43.66514" lon="3.80069">
        <ele>155.5</ele>
        <time>2013-05-30T12:52:24.34</time>
      </trkpt>
      <trkpt lat="43.6651" lon="3.80069">
        <ele>156</ele>
        <time>2013-05-30T12:52:25.34</time>
      </trkpt>
      <trkpt lat="43.66506" lon="3.80069">
        <ele>157</ele>
        <time>2013-05-30T12:52:26.34</time>
      </trkpt>
      <trkpt lat="43.66503" lon="3.80065">
        <ele>157</ele>
        <time>2013-05-30T12:52:27.34</time>
      </trkpt>
      <trkpt lat="43.665" lon="3.80062">
        <ele>158.5</ele>
        <time>2013-05-30T12:52:28.33</time>
      </trkpt>
      <trkpt lat="43.66497" lon="3.80061">
        <ele>160</ele>
        <time>2013-05-30T12:52:29.33</time>
      </trkpt>
      <trkpt lat="43.66495" lon="3.80058">
        <ele>161</ele>
        <time>2013-05-30T12:52:30.34</time>
      </trkpt>
      <trkpt lat="43.66492" lon="3.80057">
        <ele>162</ele>
        <time>2013-05-30T12:52:31.34</time>
      </trkpt>
      <trkpt lat="43.66488" lon="3.80055">
        <ele>162.5</ele>
        <time>2013-05-30T12:52:32.34</time>
      </trkpt>
      <trkpt lat="43.66485" lon="3.80053">
        <ele>163</ele>
        <time>2013-05-30T12:52:33.34</time>
      </trkpt>
      <trkpt lat="43.66481" lon="3.8005">
        <ele>163</ele>
        <time>2013-05-30T12:52:34.34</time>
      </trkpt>
      <trkpt lat="43.66477" lon="3.80047">
        <ele>163.5</ele>
        <time>2013-05-30T12:52:35.34</time>
      </trkpt>
      <trkpt lat="43.66473" lon="3.80044">
        <ele>163</ele>
        <time>2013-05-30T12:52:36.33</time>
      </trkpt>
      <trkpt lat="43.6647" lon="3.80039">
        <ele>162.5</ele>
        <time>2013-05-30T12:52:37.33</time>
      </trkpt>
      <trkpt lat="43.66465" lon="3.80036">
        <ele>161.5</ele>
        <time>2013-05-30T12:52:38.33</time>
      </trkpt>
      <trkpt lat="43.66462" lon="3.80034">
        <ele>161</ele>
        <time>2013-05-30T12:52:39.34</time>
      </trkpt>
      <trkpt lat="43.66455" lon="3.80024">
        <ele>161</ele>
        <time>2013-05-30T12:52:41.33</time>
      </trkpt>
      <trkpt lat="43.66451" lon="3.80022">
        <ele>160.5</ele>
        <time>2013-05-30T12:52:42.33</time>
      </trkpt>
      <trkpt lat="43.66447" lon="3.8002">
        <ele>160.5</ele>
        <time>2013-05-30T12:52:43.34</time>
      </trkpt>
      <trkpt lat="43.66443" lon="3.80017">
        <ele>160.5</ele>
        <time>2013-05-30T12:52:44.33</time>
      </trkpt>
      <trkpt lat="43.66439" lon="3.80013">
        <ele>160.5</ele>
        <time>2013-05-30T12:52:45.34</time>
      </trkpt>
      <trkpt lat="43.66435" lon="3.80011">
        <ele>160.5</ele>
        <time>2013-05-30T12:52:46.34</time>
      </trkpt>
      <trkpt lat="43.66433" lon="3.80007">
        <ele>160.5</ele>
        <time>2013-05-30T12:52:47.34</time>
      </trkpt>
      <trkpt lat="43.6643" lon="3.80006">
        <ele>160.5</ele>
        <time>2013-05-30T12:52:49.34</time>
      </trkpt>
      <trkpt lat="43.6643" lon="3.80006">
        <ele>160.5</ele>
        <time>2013-05-30T12:52:50.34</time>
      </trkpt>
      <trkpt lat="43.6643" lon="3.80006">
        <ele>160.5</ele>
        <time>2013-05-30T12:52:51.34</time>
      </trkpt>
      <trkpt lat="43.66433" lon="3.80006">
        <ele>160.5</ele>
        <time>2013-05-30T12:52:52.34</time>
      </trkpt>
      <trkpt lat="43.66436" lon="3.80005">
        <ele>162</ele>
        <time>2013-05-30T12:52:53.37</time>
      </trkpt>
      <trkpt lat="43.6644" lon="3.80005">
        <ele>161.5</ele>
        <time>2013-05-30T12:52:54.34</time>
      </trkpt>
      <trkpt lat="43.66443" lon="3.80004">
        <ele>163</ele>
        <time>2013-05-30T12:52:55.34</time>
      </trkpt>
      <trkpt lat="43.66446" lon="3.80002">
        <ele>165</ele>
        <time>2013-05-30T12:52:56.34</time>
      </trkpt>
      <trkpt lat="43.6645" lon="3.80003">
        <ele>165</ele>
        <time>2013-05-30T12:52:57.34</time>
      </trkpt>
      <trkpt lat="43.66454" lon="3.80003">
        <ele>166</ele>
        <time>2013-05-30T12:52:58.33</time>
      </trkpt>
      <trkpt lat="43.66458" lon="3.80006">
        <ele>163.5</ele>
        <time>2013-05-30T12:52:59.33</time>
      </trkpt>
      <trkpt lat="43.66461" lon="3.80009">
        <ele>163.5</ele>
        <time>2013-05-30T12:53:00.33</time>
      </trkpt>
      <trkpt lat="43.66465" lon="3.80012">
        <ele>163.5</ele>
        <time>2013-05-30T12:53:01.33</time>
      </trkpt>
      <trkpt lat="43.66469" lon="3.80015">
        <ele>163.5</ele>
        <time>2013-05-30T12:53:02.33</time>
      </trkpt>
      <trkpt lat="43.66473" lon="3.80018">
        <ele>163.5</ele>
        <time>2013-05-30T12:53:03.33</time>
      </trkpt>
      <trkpt lat="43.66477" lon="3.80021">
        <ele>163</ele>
        <time>2013-05-30T12:53:04.33</time>
      </trkpt>
      <trkpt lat="43.66482" lon="3.80023">
        <ele>163</ele>
        <time>2013-05-30T12:53:05.32</time>
      </trkpt>
      <trkpt lat="43.66486" lon="3.80025">
        <ele>163.5</ele>
        <time>2013-05-30T12:53:06.33</time>
      </trkpt>
      <trkpt lat="43.6649" lon="3.80027">
        <ele>164</ele>
        <time>2013-05-30T12:53:07.34</time>
      </trkpt>
      <trkpt lat="43.66495" lon="3.80029">
        <ele>164.5</ele>
        <time>2013-05-30T12:53:08.34</time>
      </trkpt>
      <trkpt lat="43.66499" lon="3.80031">
        <ele>165.5</ele>
        <time>2013-05-30T12:53:09.33</time>
      </trkpt>
      <trkpt lat="43.66504" lon="3.80034">
        <ele>165.5</ele>
        <time>2013-05-30T12:53:10.33</time>
      </trkpt>
      <trkpt lat="43.66509" lon="3.80036">
        <ele>166</ele>
        <time>2013-05-30T12:53:11.34</time>
      </trkpt>
      <trkpt lat="43.66513" lon="3.80038">
        <ele>167</ele>
        <time>2013-05-30T12:53:12.33</time>
      </trkpt>
      <trkpt lat="43.66518" lon="3.8004">
        <ele>167.5</ele>
        <time>2013-05-30T12:53:13.33</time>
      </trkpt>
      <trkpt lat="43.66523" lon="3.80042">
        <ele>167.5</ele>
        <time>2013-05-30T12:53:14.33</time>
      </trkpt>
      <trkpt lat="43.66527" lon="3.80044">
        <ele>167.5</ele>
        <time>2013-05-30T12:53:15.33</time>
      </trkpt>
      <trkpt lat="43.66531" lon="3.80043">
        <ele>167.5</ele>
        <time>2013-05-30T12:53:16.33</time>
      </trkpt>
      <trkpt lat="43.66534" lon="3.80042">
        <ele>167.5</ele>
        <time>2013-05-30T12:53:17.33</time>
      </trkpt>
      <trkpt lat="43.66538" lon="3.80042">
        <ele>167.5</ele>
        <time>2013-05-30T12:53:18.33</time>
      </trkpt>
      <trkpt lat="43.66542" lon="3.80042">
        <ele>168.5</ele>
        <time>2013-05-30T12:53:19.33</time>
      </trkpt>
      <trkpt lat="43.66546" lon="3.80045">
        <ele>169</ele>
        <time>2013-05-30T12:53:20.41</time>
      </trkpt>
      <trkpt lat="43.66551" lon="3.80049">
        <ele>169</ele>
        <time>2013-05-30T12:53:21.33</time>
      </trkpt>
      <trkpt lat="43.66556" lon="3.80052">
        <ele>169</ele>
        <time>2013-05-30T12:53:22.33</time>
      </trkpt>
      <trkpt lat="43.6656" lon="3.80055">
        <ele>169</ele>
        <time>2013-05-30T12:53:23.34</time>
      </trkpt>
      <trkpt lat="43.66561" lon="3.8006">
        <ele>170</ele>
        <time>2013-05-30T12:53:24.33</time>
      </trkpt>
      <trkpt lat="43.66564" lon="3.80064">
        <ele>170</ele>
        <time>2013-05-30T12:53:25.33</time>
      </trkpt>
      <trkpt lat="43.66568" lon="3.80068">
        <ele>170.5</ele>
        <time>2013-05-30T12:53:26.34</time>
      </trkpt>
      <trkpt lat="43.66572" lon="3.80071">
        <ele>170.5</ele>
        <time>2013-05-30T12:53:27.33</time>
      </trkpt>
      <trkpt lat="43.66575" lon="3.80074">
        <ele>170</ele>
        <time>2013-05-30T12:53:28.33</time>
      </trkpt>
      <trkpt lat="43.66579" lon="3.80077">
        <ele>171.5</ele>
        <time>2013-05-30T12:53:29.33</time>
      </trkpt>
      <trkpt lat="43.66582" lon="3.8008">
        <ele>171.5</ele>
        <time>2013-05-30T12:53:30.33</time>
      </trkpt>
      <trkpt lat="43.66585" lon="3.80083">
        <ele>171.5</ele>
        <time>2013-05-30T12:53:31.41</time>
      </trkpt>
      <trkpt lat="43.66588" lon="3.80086">
        <ele>172</ele>
        <time>2013-05-30T12:53:32.33</time>
      </trkpt>
      <trkpt lat="43.66591" lon="3.80089">
        <ele>172</ele>
        <time>2013-05-30T12:53:33.33</time>
      </trkpt>
      <trkpt lat="43.66593" lon="3.8009">
        <ele>172.5</ele>
        <time>2013-05-30T12:53:34.34</time>
      </trkpt>
      <trkpt lat="43.66594" lon="3.80087">
        <ele>173</ele>
        <time>2013-05-30T12:53:35.34</time>
      </trkpt>
      <trkpt lat="43.66595" lon="3.80086">
        <ele>173</ele>
        <time>2013-05-30T12:53:36.33</time>
      </trkpt>
      <trkpt lat="43.66596" lon="3.80083">
        <ele>172.5</ele>
        <time>2013-05-30T12:53:37.34</time>
      </trkpt>
      <trkpt lat="43.66595" lon="3.80081">
        <ele>172</ele>
        <time>2013-05-30T12:53:38.34</time>
      </trkpt>
      <trkpt lat="43.66595" lon="3.80078">
        <ele>172</ele>
        <time>2013-05-30T12:53:39.34</time>
      </trkpt>
      <trkpt lat="43.66595" lon="3.80075">
        <ele>172</ele>
        <time>2013-05-30T12:53:40.34</time>
      </trkpt>
      <trkpt lat="43.66596" lon="3.80072">
        <ele>170.5</ele>
        <time>2013-05-30T12:53:41.33</time>
      </trkpt>
      <trkpt lat="43.66597" lon="3.80069">
        <ele>168.5</ele>
        <time>2013-05-30T12:53:42.34</time>
      </trkpt>
      <trkpt lat="43.66598" lon="3.80065">
        <ele>167.5</ele>
        <time>2013-05-30T12:53:43.43</time>
      </trkpt>
      <trkpt lat="43.66599" lon="3.80061">
        <ele>167.5</ele>
        <time>2013-05-30T12:53:44.33</time>
      </trkpt>
      <trkpt lat="43.66599" lon="3.80058">
        <ele>167.5</ele>
        <time>2013-05-30T12:53:45.33</time>
      </trkpt>
      <trkpt lat="43.66599" lon="3.80053">
        <ele>167</ele>
        <time>2013-05-30T12:53:46.34</time>
      </trkpt>
      <trkpt lat="43.66599" lon="3.80047">
        <ele>166.5</ele>
        <time>2013-05-30T12:53:47.34</time>
      </trkpt>
      <trkpt lat="43.66596" lon="3.80041">
        <ele>163</ele>
        <time>2013-05-30T12:53:49.33</time>
      </trkpt>
      <trkpt lat="43.66595" lon="3.80042">
        <ele>162</ele>
        <time>2013-05-30T12:53:50.34</time>
      </trkpt>
      <trkpt lat="43.66593" lon="3.80042">
        <ele>161</ele>
        <time>2013-05-30T12:53:51.33</time>
      </trkpt>
      <trkpt lat="43.66592" lon="3.80041">
        <ele>159.5</ele>
        <time>2013-05-30T12:53:52.33</time>
      </trkpt>
      <trkpt lat="43.66591" lon="3.8004">
        <ele>158.5</ele>
        <time>2013-05-30T12:53:53.33</time>
      </trkpt>
      <trkpt lat="43.6659" lon="3.8004">
        <ele>158</ele>
        <time>2013-05-30T12:53:54.33</time>
      </trkpt>
      <trkpt lat="43.66588" lon="3.8004">
        <ele>159</ele>
        <time>2013-05-30T12:53:55.34</time>
      </trkpt>
      <trkpt lat="43.6658" lon="3.80038">
        <ele>155.5</ele>
        <time>2013-05-30T12:53:57.33</time>
      </trkpt>
      <trkpt lat="43.66577" lon="3.80034">
        <ele>154.5</ele>
        <time>2013-05-30T12:53:58.34</time>
      </trkpt>
      <trkpt lat="43.66575" lon="3.80028">
        <ele>153</ele>
        <time>2013-05-30T12:53:59.33</time>
      </trkpt>
      <trkpt lat="43.66572" lon="3.80024">
        <ele>151</ele>
        <time>2013-05-30T12:54:00.33</time>
      </trkpt>
      <trkpt lat="43.66569" lon="3.80021">
        <ele>150</ele>
        <time>2013-05-30T12:54:02.33</time>
      </trkpt>
      <trkpt lat="43.66571" lon="3.80022">
        <ele>149.5</ele>
        <time>2013-05-30T12:54:03.33</time>
      </trkpt>
      <trkpt lat="43.6657" lon="3.80021">
        <ele>149.5</ele>
        <time>2013-05-30T12:54:04.34</time>
      </trkpt>
      <trkpt lat="43.66569" lon="3.80019">
        <ele>150.5</ele>
        <time>2013-05-30T12:54:05.34</time>
      </trkpt>
      <trkpt lat="43.66568" lon="3.80017">
        <ele>150</ele>
        <time>2013-05-30T12:54:06.34</time>
      </trkpt>
      <trkpt lat="43.66565" lon="3.80015">
        <ele>150</ele>
        <time>2013-05-30T12:54:07.33</time>
      </trkpt>
      <trkpt lat="43.66562" lon="3.80012">
        <ele>150</ele>
        <time>2013-05-30T12:54:08.33</time>
      </trkpt>
      <trkpt lat="43.66558" lon="3.8001">
        <ele>150</ele>
        <time>2013-05-30T12:54:09.34</time>
      </trkpt>
      <trkpt lat="43.66554" lon="3.80007">
        <ele>150</ele>
        <time>2013-05-30T12:54:10.34</time>
      </trkpt>
      <trkpt lat="43.6655" lon="3.80001">
        <ele>149.5</ele>
        <time>2013-05-30T12:54:11.34</time>
      </trkpt>
      <trkpt lat="43.66544" lon="3.8">
        <ele>149.5</ele>
        <time>2013-05-30T12:54:12.34</time>
      </trkpt>
      <trkpt lat="43.6654" lon="3.79993">
        <ele>149</ele>
        <time>2013-05-30T12:54:13.33</time>
      </trkpt>
      <trkpt lat="43.66536" lon="3.79987">
        <ele>148.5</ele>
        <time>2013-05-30T12:54:14.33</time>
      </trkpt>
      <trkpt lat="43.66531" lon="3.79981">
        <ele>148</ele>
        <time>2013-05-30T12:54:15.33</time>
      </trkpt>
      <trkpt lat="43.66527" lon="3.79976">
        <ele>147.5</ele>
        <time>2013-05-30T12:54:16.33</time>
      </trkpt>
      <trkpt lat="43.66523" lon="3.79973">
        <ele>147.5</ele>
        <time>2013-05-30T12:54:17.34</time>
      </trkpt>
      <trkpt lat="43.66519" lon="3.7997">
        <ele>147.5</ele>
        <time>2013-05-30T12:54:18.34</time>
      </trkpt>
      <trkpt lat="43.66505" lon="3.79965">
        <ele>147</ele>
        <time>2013-05-30T12:54:20.34</time>
      </trkpt>
      <trkpt lat="43.66499" lon="3.79963">
        <ele>147</ele>
        <time>2013-05-30T12:54:21.42</time>
      </trkpt>
      <trkpt lat="43.66493" lon="3.79965">
        <ele>147</ele>
        <time>2013-05-30T12:54:22.33</time>
      </trkpt>
      <trkpt lat="43.66486" lon="3.79964">
        <ele>147</ele>
        <time>2013-05-30T12:54:23.33</time>
      </trkpt>
      <trkpt lat="43.6648" lon="3.79963">
        <ele>147</ele>
        <time>2013-05-30T12:54:24.33</time>
      </trkpt>
      <trkpt lat="43.66474" lon="3.79962">
        <ele>147</ele>
        <time>2013-05-30T12:54:25.33</time>
      </trkpt>
      <trkpt lat="43.66467" lon="3.79962">
        <ele>147</ele>
        <time>2013-05-30T12:54:26.34</time>
      </trkpt>
      <trkpt lat="43.66461" lon="3.79958">
        <ele>147</ele>
        <time>2013-05-30T12:54:27.33</time>
      </trkpt>
      <trkpt lat="43.66457" lon="3.79947">
        <ele>147</ele>
        <time>2013-05-30T12:54:29.33</time>
      </trkpt>
      <trkpt lat="43.66454" lon="3.79942">
        <ele>147.5</ele>
        <time>2013-05-30T12:54:30.34</time>
      </trkpt>
      <trkpt lat="43.66452" lon="3.79937">
        <ele>147.5</ele>
        <time>2013-05-30T12:54:31.34</time>
      </trkpt>
      <trkpt lat="43.66451" lon="3.79933">
        <ele>147.5</ele>
        <time>2013-05-30T12:54:32.34</time>
      </trkpt>
      <trkpt lat="43.66453" lon="3.79928">
        <ele>147</ele>
        <time>2013-05-30T12:54:33.33</time>
      </trkpt>
      <trkpt lat="43.66453" lon="3.79924">
        <ele>146.5</ele>
        <time>2013-05-30T12:54:34.33</time>
      </trkpt>
      <trkpt lat="43.66453" lon="3.79921">
        <ele>147.5</ele>
        <time>2013-05-30T12:54:35.33</time>
      </trkpt>
      <trkpt lat="43.66452" lon="3.79912">
        <ele>150</ele>
        <time>2013-05-30T12:54:37.33</time>
      </trkpt>
      <trkpt lat="43.66452" lon="3.79908">
        <ele>151.5</ele>
        <time>2013-05-30T12:54:38.34</time>
      </trkpt>
      <trkpt lat="43.6645" lon="3.79906">
        <ele>151.5</ele>
        <time>2013-05-30T12:54:39.34</time>
      </trkpt>
      <trkpt lat="43.66448" lon="3.79904">
        <ele>152.5</ele>
        <time>2013-05-30T12:54:40.33</time>
      </trkpt>
      <trkpt lat="43.66446" lon="3.79902">
        <ele>152.5</ele>
        <time>2013-05-30T12:54:41.33</time>
      </trkpt>
      <trkpt lat="43.66444" lon="3.799">
        <ele>153.5</ele>
        <time>2013-05-30T12:54:42.33</time>
      </trkpt>
      <trkpt lat="43.66441" lon="3.79898">
        <ele>153.5</ele>
        <time>2013-05-30T12:54:43.42</time>
      </trkpt>
      <trkpt lat="43.66439" lon="3.79895">
        <ele>153</ele>
        <time>2013-05-30T12:54:44.33</time>
      </trkpt>
      <trkpt lat="43.66436" lon="3.79893">
        <ele>153</ele>
        <time>2013-05-30T12:54:45.34</time>
      </trkpt>
      <trkpt lat="43.66434" lon="3.7989">
        <ele>154.5</ele>
        <time>2013-05-30T12:54:46.32</time>
      </trkpt>
      <trkpt lat="43.66431" lon="3.79887">
        <ele>154.5</ele>
        <time>2013-05-30T12:54:47.32</time>
      </trkpt>
      <trkpt lat="43.66428" lon="3.79884">
        <ele>154</ele>
        <time>2013-05-30T12:54:48.33</time>
      </trkpt>
      <trkpt lat="43.66426" lon="3.7988">
        <ele>153.5</ele>
        <time>2013-05-30T12:54:49.33</time>
      </trkpt>
      <trkpt lat="43.66423" lon="3.79878">
        <ele>156</ele>
        <time>2013-05-30T12:54:50.33</time>
      </trkpt>
      <trkpt lat="43.6642" lon="3.79876">
        <ele>155.5</ele>
        <time>2013-05-30T12:54:51.33</time>
      </trkpt>
      <trkpt lat="43.66416" lon="3.79874">
        <ele>155.5</ele>
        <time>2013-05-30T12:54:52.33</time>
      </trkpt>
      <trkpt lat="43.66414" lon="3.79869">
        <ele>156</ele>
        <time>2013-05-30T12:54:53.33</time>
      </trkpt>
      <trkpt lat="43.66411" lon="3.79868">
        <ele>158</ele>
        <time>2013-05-30T12:54:54.33</time>
      </trkpt>
      <trkpt lat="43.66407" lon="3.79865">
        <ele>157.5</ele>
        <time>2013-05-30T12:54:55.34</time>
      </trkpt>
      <trkpt lat="43.66403" lon="3.79862">
        <ele>155</ele>
        <time>2013-05-30T12:54:56.33</time>
      </trkpt>
      <trkpt lat="43.66399" lon="3.79857">
        <ele>154</ele>
        <time>2013-05-30T12:54:57.33</time>
      </trkpt>
      <trkpt lat="43.66396" lon="3.79853">
        <ele>153.5</ele>
        <time>2013-05-30T12:54:58.33</time>
      </trkpt>
      <trkpt lat="43.66392" lon="3.7985">
        <ele>153</ele>
        <time>2013-05-30T12:54:59.33</time>
      </trkpt>
      <trkpt lat="43.66389" lon="3.79845">
        <ele>152.5</ele>
        <time>2013-05-30T12:55:00.33</time>
      </trkpt>
      <trkpt lat="43.66386" lon="3.7984">
        <ele>151.5</ele>
        <time>2013-05-30T12:55:01.34</time>
      </trkpt>
      <trkpt lat="43.66383" lon="3.79834">
        <ele>151.5</ele>
        <time>2013-05-30T12:55:02.34</time>
      </trkpt>
      <trkpt lat="43.66379" lon="3.79831">
        <ele>149</ele>
        <time>2013-05-30T12:55:03.33</time>
      </trkpt>
      <trkpt lat="43.66375" lon="3.79828">
        <ele>148</ele>
        <time>2013-05-30T12:55:04.33</time>
      </trkpt>
      <trkpt lat="43.6637" lon="3.79824">
        <ele>144.5</ele>
        <time>2013-05-30T12:55:05.33</time>
      </trkpt>
      <trkpt lat="43.66366" lon="3.7982">
        <ele>144.5</ele>
        <time>2013-05-30T12:55:06.33</time>
      </trkpt>
      <trkpt lat="43.66361" lon="3.79817">
        <ele>143.5</ele>
        <time>2013-05-30T12:55:07.33</time>
      </trkpt>
      <trkpt lat="43.66356" lon="3.79812">
        <ele>142.5</ele>
        <time>2013-05-30T12:55:08.33</time>
      </trkpt>
      <trkpt lat="43.66352" lon="3.79809">
        <ele>141.5</ele>
        <time>2013-05-30T12:55:09.34</time>
      </trkpt>
      <trkpt lat="43.66347" lon="3.79805">
        <ele>140</ele>
        <time>2013-05-30T12:55:10.33</time>
      </trkpt>
      <trkpt lat="43.66342" lon="3.79803">
        <ele>137</ele>
        <time>2013-05-30T12:55:11.33</time>
      </trkpt>
      <trkpt lat="43.66338" lon="3.798">
        <ele>136.5</ele>
        <time>2013-05-30T12:55:12.33</time>
      </trkpt>
      <trkpt lat="43.66333" lon="3.79796">
        <ele>136.5</ele>
        <time>2013-05-30T12:55:13.32</time>
      </trkpt>
      <trkpt lat="43.66329" lon="3.79794">
        <ele>136</ele>
        <time>2013-05-30T12:55:14.33</time>
      </trkpt>
      <trkpt lat="43.66325" lon="3.79789">
        <ele>135</ele>
        <time>2013-05-30T12:55:15.33</time>
      </trkpt>
      <trkpt lat="43.66321" lon="3.79784">
        <ele>136.5</ele>
        <time>2013-05-30T12:55:16.33</time>
      </trkpt>
      <trkpt lat="43.66317" lon="3.79781">
        <ele>135</ele>
        <time>2013-05-30T12:55:17.33</time>
      </trkpt>
      <trkpt lat="43.66313" lon="3.7978">
        <ele>135</ele>
        <time>2013-05-30T12:55:18.33</time>
      </trkpt>
      <trkpt lat="43.6631" lon="3.79777">
        <ele>139.5</ele>
        <time>2013-05-30T12:55:19.33</time>
      </trkpt>
      <trkpt lat="43.66307" lon="3.79775">
        <ele>139</ele>
        <time>2013-05-30T12:55:20.32</time>
      </trkpt>
      <trkpt lat="43.66302" lon="3.79774">
        <ele>138</ele>
        <time>2013-05-30T12:55:21.32</time>
      </trkpt>
      <trkpt lat="43.66298" lon="3.79772">
        <ele>138.5</ele>
        <time>2013-05-30T12:55:22.33</time>
      </trkpt>
      <trkpt lat="43.66294" lon="3.79771">
        <ele>138.5</ele>
        <time>2013-05-30T12:55:23.34</time>
      </trkpt>
      <trkpt lat="43.6629" lon="3.7977">
        <ele>138</ele>
        <time>2013-05-30T12:55:24.32</time>
      </trkpt>
      <trkpt lat="43.66285" lon="3.79767">
        <ele>138</ele>
        <time>2013-05-30T12:55:25.33</time>
      </trkpt>
      <trkpt lat="43.66281" lon="3.79764">
        <ele>136.5</ele>
        <time>2013-05-30T12:55:26.36</time>
      </trkpt>
      <trkpt lat="43.66276" lon="3.7976">
        <ele>136.5</ele>
        <time>2013-05-30T12:55:27.33</time>
      </trkpt>
      <trkpt lat="43.66271" lon="3.79757">
        <ele>136.5</ele>
        <time>2013-05-30T12:55:28.33</time>
      </trkpt>
      <trkpt lat="43.66266" lon="3.79752">
        <ele>135</ele>
        <time>2013-05-30T12:55:29.32</time>
      </trkpt>
      <trkpt lat="43.66261" lon="3.79748">
        <ele>135</ele>
        <time>2013-05-30T12:55:30.33</time>
      </trkpt>
      <trkpt lat="43.66253" lon="3.79748">
        <ele>132.5</ele>
        <time>2013-05-30T12:55:31.34</time>
      </trkpt>
      <trkpt lat="43.66247" lon="3.79746">
        <ele>131</ele>
        <time>2013-05-30T12:55:32.33</time>
      </trkpt>
      <trkpt lat="43.66241" lon="3.79743">
        <ele>130.5</ele>
        <time>2013-05-30T12:55:33.33</time>
      </trkpt>
      <trkpt lat="43.66235" lon="3.79739">
        <ele>130.5</ele>
        <time>2013-05-30T12:55:34.33</time>
      </trkpt>
      <trkpt lat="43.6623" lon="3.79736">
        <ele>130</ele>
        <time>2013-05-30T12:55:35.33</time>
      </trkpt>
      <trkpt lat="43.66226" lon="3.79733">
        <ele>134</ele>
        <time>2013-05-30T12:55:36.32</time>
      </trkpt>
      <trkpt lat="43.66223" lon="3.79724">
        <ele>136.5</ele>
        <time>2013-05-30T12:55:37.33</time>
      </trkpt>
      <trkpt lat="43.66218" lon="3.7972">
        <ele>136</ele>
        <time>2013-05-30T12:55:38.33</time>
      </trkpt>
      <trkpt lat="43.66213" lon="3.79713">
        <ele>133</ele>
        <time>2013-05-30T12:55:39.33</time>
      </trkpt>
      <trkpt lat="43.6621" lon="3.79707">
        <ele>133.5</ele>
        <time>2013-05-30T12:55:40.33</time>
      </trkpt>
      <trkpt lat="43.66205" lon="3.79702">
        <ele>131</ele>
        <time>2013-05-30T12:55:41.32</time>
      </trkpt>
      <trkpt lat="43.66199" lon="3.79699">
        <ele>128.5</ele>
        <time>2013-05-30T12:55:42.32</time>
      </trkpt>
      <trkpt lat="43.66194" lon="3.79695">
        <ele>128</ele>
        <time>2013-05-30T12:55:43.32</time>
      </trkpt>
      <trkpt lat="43.66189" lon="3.79691">
        <ele>128</ele>
        <time>2013-05-30T12:55:44.32</time>
      </trkpt>
      <trkpt lat="43.66184" lon="3.79685">
        <ele>128.5</ele>
        <time>2013-05-30T12:55:45.33</time>
      </trkpt>
      <trkpt lat="43.66178" lon="3.7968">
        <ele>127.5</ele>
        <time>2013-05-30T12:55:46.32</time>
      </trkpt>
      <trkpt lat="43.66173" lon="3.79675">
        <ele>126</ele>
        <time>2013-05-30T12:55:47.32</time>
      </trkpt>
      <trkpt lat="43.66169" lon="3.79669">
        <ele>127</ele>
        <time>2013-05-30T12:55:48.32</time>
      </trkpt>
      <trkpt lat="43.66163" lon="3.79666">
        <ele>126.5</ele>
        <time>2013-05-30T12:55:49.33</time>
      </trkpt>
      <trkpt lat="43.66157" lon="3.79663">
        <ele>125.5</ele>
        <time>2013-05-30T12:55:50.39</time>
      </trkpt>
      <trkpt lat="43.66151" lon="3.79658">
        <ele>125</ele>
        <time>2013-05-30T12:55:51.33</time>
      </trkpt>
      <trkpt lat="43.66146" lon="3.79653">
        <ele>124</ele>
        <time>2013-05-30T12:55:52.32</time>
      </trkpt>
      <trkpt lat="43.66142" lon="3.79646">
        <ele>123.5</ele>
        <time>2013-05-30T12:55:53.33</time>
      </trkpt>
      <trkpt lat="43.66137" lon="3.79643">
        <ele>123.5</ele>
        <time>2013-05-30T12:55:54.32</time>
      </trkpt>
      <trkpt lat="43.66133" lon="3.79638">
        <ele>123.5</ele>
        <time>2013-05-30T12:55:55.33</time>
      </trkpt>
      <trkpt lat="43.6613" lon="3.79619">
        <ele>122.5</ele>
        <time>2013-05-30T12:55:57.33</time>
      </trkpt>
      <trkpt lat="43.6613" lon="3.79597">
        <ele>123.5</ele>
        <time>2013-05-30T12:55:59.33</time>
      </trkpt>
      <trkpt lat="43.66128" lon="3.79575">
        <ele>124.5</ele>
        <time>2013-05-30T12:56:01.33</time>
      </trkpt>
      <trkpt lat="43.66126" lon="3.79566">
        <ele>124.5</ele>
        <time>2013-05-30T12:56:02.33</time>
      </trkpt>
      <trkpt lat="43.66122" lon="3.79544">
        <ele>124</ele>
        <time>2013-05-30T12:56:04.33</time>
      </trkpt>
      <trkpt lat="43.66114" lon="3.79525">
        <ele>123</ele>
        <time>2013-05-30T12:56:06.33</time>
      </trkpt>
      <trkpt lat="43.66109" lon="3.79518">
        <ele>122.5</ele>
        <time>2013-05-30T12:56:07.34</time>
      </trkpt>
      <trkpt lat="43.66105" lon="3.79511">
        <ele>124</ele>
        <time>2013-05-30T12:56:08.34</time>
      </trkpt>
      <trkpt lat="43.661" lon="3.79504">
        <ele>124</ele>
        <time>2013-05-30T12:56:09.33</time>
      </trkpt>
      <trkpt lat="43.66096" lon="3.79499">
        <ele>124</ele>
        <time>2013-05-30T12:56:10.32</time>
      </trkpt>
      <trkpt lat="43.66091" lon="3.79494">
        <ele>124</ele>
        <time>2013-05-30T12:56:11.33</time>
      </trkpt>
      <trkpt lat="43.66086" lon="3.79492">
        <ele>123.5</ele>
        <time>2013-05-30T12:56:12.33</time>
      </trkpt>
      <trkpt lat="43.66081" lon="3.79486">
        <ele>123.5</ele>
        <time>2013-05-30T12:56:13.33</time>
      </trkpt>
      <trkpt lat="43.66077" lon="3.79482">
        <ele>124</ele>
        <time>2013-05-30T12:56:14.33</time>
      </trkpt>
      <trkpt lat="43.66073" lon="3.79478">
        <ele>124.5</ele>
        <time>2013-05-30T12:56:15.33</time>
      </trkpt>
      <trkpt lat="43.66069" lon="3.79477">
        <ele>125</ele>
        <time>2013-05-30T12:56:16.33</time>
      </trkpt>
      <trkpt lat="43.66064" lon="3.79476">
        <ele>125.5</ele>
        <time>2013-05-30T12:56:17.33</time>
      </trkpt>
      <trkpt lat="43.66059" lon="3.79474">
        <ele>124.5</ele>
        <time>2013-05-30T12:56:18.34</time>
      </trkpt>
      <trkpt lat="43.66055" lon="3.79473">
        <ele>125.5</ele>
        <time>2013-05-30T12:56:19.33</time>
      </trkpt>
      <trkpt lat="43.66052" lon="3.7947">
        <ele>126.5</ele>
        <time>2013-05-30T12:56:20.34</time>
      </trkpt>
      <trkpt lat="43.66049" lon="3.79467">
        <ele>126</ele>
        <time>2013-05-30T12:56:21.34</time>
      </trkpt>
      <trkpt lat="43.66045" lon="3.79465">
        <ele>126</ele>
        <time>2013-05-30T12:56:22.33</time>
      </trkpt>
      <trkpt lat="43.66042" lon="3.79461">
        <ele>126</ele>
        <time>2013-05-30T12:56:23.33</time>
      </trkpt>
      <trkpt lat="43.66039" lon="3.7946">
        <ele>126</ele>
        <time>2013-05-30T12:56:24.33</time>
      </trkpt>
      <trkpt lat="43.66036" lon="3.79458">
        <ele>125.5</ele>
        <time>2013-05-30T12:56:25.33</time>
      </trkpt>
      <trkpt lat="43.66035" lon="3.79455">
        <ele>125.5</ele>
        <time>2013-05-30T12:56:26.33</time>
      </trkpt>
      <trkpt lat="43.66034" lon="3.79453">
        <ele>125.5</ele>
        <time>2013-05-30T12:56:27.33</time>
      </trkpt>
      <trkpt lat="43.66034" lon="3.79451">
        <ele>126</ele>
        <time>2013-05-30T12:56:28.33</time>
      </trkpt>
      <trkpt lat="43.66034" lon="3.7945">
        <ele>126.5</ele>
        <time>2013-05-30T12:56:29.33</time>
      </trkpt>
      <trkpt lat="43.66032" lon="3.79452">
        <ele>126.5</ele>
        <time>2013-05-30T12:56:31.33</time>
      </trkpt>
      <trkpt lat="43.66031" lon="3.79452">
        <ele>126.5</ele>
        <time>2013-05-30T12:56:32.33</time>
      </trkpt>
      <trkpt lat="43.6603" lon="3.79452">
        <ele>126.5</ele>
        <time>2013-05-30T12:56:33.33</time>
      </trkpt>
      <trkpt lat="43.66029" lon="3.79453">
        <ele>127.5</ele>
        <time>2013-05-30T12:56:34.34</time>
      </trkpt>
      <trkpt lat="43.66029" lon="3.79454">
        <ele>127.5</ele>
        <time>2013-05-30T12:56:35.33</time>
      </trkpt>
      <trkpt lat="43.66028" lon="3.79455">
        <ele>127.5</ele>
        <time>2013-05-30T12:56:36.33</time>
      </trkpt>
      <trkpt lat="43.66027" lon="3.79456">
        <ele>128</ele>
        <time>2013-05-30T12:56:37.38</time>
      </trkpt>
      <trkpt lat="43.66025" lon="3.79458">
        <ele>128.5</ele>
        <time>2013-05-30T12:56:38.33</time>
      </trkpt>
      <trkpt lat="43.66024" lon="3.79459">
        <ele>128.5</ele>
        <time>2013-05-30T12:56:39.32</time>
      </trkpt>
      <trkpt lat="43.66024" lon="3.79461">
        <ele>129</ele>
        <time>2013-05-30T12:56:40.33</time>
      </trkpt>
      <trkpt lat="43.66024" lon="3.79464">
        <ele>129.5</ele>
        <time>2013-05-30T12:56:41.34</time>
      </trkpt>
      <trkpt lat="43.66024" lon="3.79467">
        <ele>129.5</ele>
        <time>2013-05-30T12:56:42.33</time>
      </trkpt>
      <trkpt lat="43.66024" lon="3.79469">
        <ele>131</ele>
        <time>2013-05-30T12:56:43.33</time>
      </trkpt>
      <trkpt lat="43.66024" lon="3.79472">
        <ele>130.5</ele>
        <time>2013-05-30T12:56:44.32</time>
      </trkpt>
      <trkpt lat="43.66024" lon="3.79476">
        <ele>131</ele>
        <time>2013-05-30T12:56:45.33</time>
      </trkpt>
      <trkpt lat="43.66024" lon="3.7948">
        <ele>131</ele>
        <time>2013-05-30T12:56:46.33</time>
      </trkpt>
      <trkpt lat="43.66023" lon="3.79484">
        <ele>131.5</ele>
        <time>2013-05-30T12:56:47.33</time>
      </trkpt>
      <trkpt lat="43.66023" lon="3.79488">
        <ele>131.5</ele>
        <time>2013-05-30T12:56:48.33</time>
      </trkpt>
      <trkpt lat="43.66023" lon="3.79492">
        <ele>131.5</ele>
        <time>2013-05-30T12:56:49.34</time>
      </trkpt>
      <trkpt lat="43.66023" lon="3.79495">
        <ele>131.5</ele>
        <time>2013-05-30T12:56:50.32</time>
      </trkpt>
      <trkpt lat="43.66023" lon="3.79499">
        <ele>131.5</ele>
        <time>2013-05-30T12:56:51.33</time>
      </trkpt>
      <trkpt lat="43.66023" lon="3.79503">
        <ele>132</ele>
        <time>2013-05-30T12:56:52.32</time>
      </trkpt>
      <trkpt lat="43.66023" lon="3.79507">
        <ele>132</ele>
        <time>2013-05-30T12:56:53.33</time>
      </trkpt>
      <trkpt lat="43.66023" lon="3.79511">
        <ele>132</ele>
        <time>2013-05-30T12:56:54.33</time>
      </trkpt>
      <trkpt lat="43.66024" lon="3.79514">
        <ele>132.5</ele>
        <time>2013-05-30T12:56:55.33</time>
      </trkpt>
      <trkpt lat="43.66025" lon="3.79518">
        <ele>133</ele>
        <time>2013-05-30T12:56:56.33</time>
      </trkpt>
      <trkpt lat="43.66025" lon="3.79521">
        <ele>133.5</ele>
        <time>2013-05-30T12:56:57.33</time>
      </trkpt>
      <trkpt lat="43.66025" lon="3.79526">
        <ele>133.5</ele>
        <time>2013-05-30T12:56:58.33</time>
      </trkpt>
      <trkpt lat="43.66025" lon="3.79531">
        <ele>134.5</ele>
        <time>2013-05-30T12:56:59.33</time>
      </trkpt>
      <trkpt lat="43.66025" lon="3.79535">
        <ele>135</ele>
        <time>2013-05-30T12:57:00.32</time>
      </trkpt>
      <trkpt lat="43.66025" lon="3.79539">
        <ele>135.5</ele>
        <time>2013-05-30T12:57:01.33</time>
      </trkpt>
      <trkpt lat="43.66027" lon="3.79543">
        <ele>138</ele>
        <time>2013-05-30T12:57:02.32</time>
      </trkpt>
      <trkpt lat="43.66028" lon="3.79547">
        <ele>138.5</ele>
        <time>2013-05-30T12:57:03.33</time>
      </trkpt>
      <trkpt lat="43.66029" lon="3.79551">
        <ele>138.5</ele>
        <time>2013-05-30T12:57:04.33</time>
      </trkpt>
      <trkpt lat="43.66029" lon="3.79555">
        <ele>139</ele>
        <time>2013-05-30T12:57:05.34</time>
      </trkpt>
      <trkpt lat="43.6603" lon="3.79559">
        <ele>138.5</ele>
        <time>2013-05-30T12:57:06.33</time>
      </trkpt>
      <trkpt lat="43.66031" lon="3.79563">
        <ele>138</ele>
        <time>2013-05-30T12:57:07.34</time>
      </trkpt>
      <trkpt lat="43.66031" lon="3.79567">
        <ele>138</ele>
        <time>2013-05-30T12:57:08.32</time>
      </trkpt>
      <trkpt lat="43.66032" lon="3.79571">
        <ele>138.5</ele>
        <time>2013-05-30T12:57:09.33</time>
      </trkpt>
      <trkpt lat="43.66032" lon="3.79575">
        <ele>138</ele>
        <time>2013-05-30T12:57:10.33</time>
      </trkpt>
      <trkpt lat="43.66034" lon="3.79579">
        <ele>137.5</ele>
        <time>2013-05-30T12:57:11.33</time>
      </trkpt>
      <trkpt lat="43.66032" lon="3.79584">
        <ele>137</ele>
        <time>2013-05-30T12:57:12.33</time>
      </trkpt>
      <trkpt lat="43.66034" lon="3.79587">
        <ele>137</ele>
        <time>2013-05-30T12:57:13.32</time>
      </trkpt>
      <trkpt lat="43.66034" lon="3.79591">
        <ele>137</ele>
        <time>2013-05-30T12:57:14.33</time>
      </trkpt>
      <trkpt lat="43.66036" lon="3.79594">
        <ele>137</ele>
        <time>2013-05-30T12:57:15.32</time>
      </trkpt>
      <trkpt lat="43.66036" lon="3.79598">
        <ele>137</ele>
        <time>2013-05-30T12:57:16.32</time>
      </trkpt>
      <trkpt lat="43.66036" lon="3.79602">
        <ele>137</ele>
        <time>2013-05-30T12:57:17.32</time>
      </trkpt>
      <trkpt lat="43.66038" lon="3.79606">
        <ele>136.5</ele>
        <time>2013-05-30T12:57:18.33</time>
      </trkpt>
      <trkpt lat="43.66038" lon="3.7961">
        <ele>136</ele>
        <time>2013-05-30T12:57:19.33</time>
      </trkpt>
      <trkpt lat="43.66038" lon="3.79613">
        <ele>135.5</ele>
        <time>2013-05-30T12:57:20.34</time>
      </trkpt>
      <trkpt lat="43.66037" lon="3.79617">
        <ele>135</ele>
        <time>2013-05-30T12:57:21.33</time>
      </trkpt>
      <trkpt lat="43.66036" lon="3.7962">
        <ele>135</ele>
        <time>2013-05-30T12:57:22.33</time>
      </trkpt>
      <trkpt lat="43.66034" lon="3.79623">
        <ele>136</ele>
        <time>2013-05-30T12:57:23.33</time>
      </trkpt>
      <trkpt lat="43.66035" lon="3.79627">
        <ele>135.5</ele>
        <time>2013-05-30T12:57:24.32</time>
      </trkpt>
      <trkpt lat="43.66034" lon="3.79631">
        <ele>135</ele>
        <time>2013-05-30T12:57:25.33</time>
      </trkpt>
      <trkpt lat="43.66033" lon="3.79635">
        <ele>135</ele>
        <time>2013-05-30T12:57:26.32</time>
      </trkpt>
      <trkpt lat="43.66031" lon="3.79639">
        <ele>135</ele>
        <time>2013-05-30T12:57:27.32</time>
      </trkpt>
      <trkpt lat="43.6603" lon="3.79643">
        <ele>135</ele>
        <time>2013-05-30T12:57:28.33</time>
      </trkpt>
      <trkpt lat="43.66029" lon="3.79646">
        <ele>134.5</ele>
        <time>2013-05-30T12:57:29.78</time>
      </trkpt>
      <trkpt lat="43.66028" lon="3.7965">
        <ele>134.5</ele>
        <time>2013-05-30T12:57:30.32</time>
      </trkpt>
      <trkpt lat="43.66026" lon="3.79653">
        <ele>135.5</ele>
        <time>2013-05-30T12:57:31.33</time>
      </trkpt>
      <trkpt lat="43.66025" lon="3.79657">
        <ele>136.5</ele>
        <time>2013-05-30T12:57:32.34</time>
      </trkpt>
      <trkpt lat="43.66023" lon="3.7966">
        <ele>137.5</ele>
        <time>2013-05-30T12:57:33.33</time>
      </trkpt>
      <trkpt lat="43.66022" lon="3.79663">
        <ele>138.5</ele>
        <time>2013-05-30T12:57:34.32</time>
      </trkpt>
      <trkpt lat="43.6602" lon="3.79667">
        <ele>139</ele>
        <time>2013-05-30T12:57:35.32</time>
      </trkpt>
      <trkpt lat="43.66019" lon="3.7967">
        <ele>140</ele>
        <time>2013-05-30T12:57:36.32</time>
      </trkpt>
      <trkpt lat="43.66018" lon="3.79674">
        <ele>140</ele>
        <time>2013-05-30T12:57:37.33</time>
      </trkpt>
      <trkpt lat="43.66017" lon="3.79678">
        <ele>140.5</ele>
        <time>2013-05-30T12:57:38.32</time>
      </trkpt>
      <trkpt lat="43.66017" lon="3.79682">
        <ele>141</ele>
        <time>2013-05-30T12:57:39.32</time>
      </trkpt>
      <trkpt lat="43.66016" lon="3.79686">
        <ele>141</ele>
        <time>2013-05-30T12:57:40.32</time>
      </trkpt>
      <trkpt lat="43.66016" lon="3.7969">
        <ele>141.5</ele>
        <time>2013-05-30T12:57:41.32</time>
      </trkpt>
      <trkpt lat="43.66015" lon="3.79694">
        <ele>142</ele>
        <time>2013-05-30T12:57:42.33</time>
      </trkpt>
      <trkpt lat="43.66014" lon="3.79698">
        <ele>142.5</ele>
        <time>2013-05-30T12:57:43.32</time>
      </trkpt>
      <trkpt lat="43.66014" lon="3.79702">
        <ele>143</ele>
        <time>2013-05-30T12:57:44.32</time>
      </trkpt>
      <trkpt lat="43.66013" lon="3.79706">
        <ele>143</ele>
        <time>2013-05-30T12:57:45.33</time>
      </trkpt>
      <trkpt lat="43.66012" lon="3.79709">
        <ele>143.5</ele>
        <time>2013-05-30T12:57:46.32</time>
      </trkpt>
      <trkpt lat="43.66011" lon="3.79712">
        <ele>144</ele>
        <time>2013-05-30T12:57:47.32</time>
      </trkpt>
      <trkpt lat="43.6601" lon="3.79716">
        <ele>144.5</ele>
        <time>2013-05-30T12:57:49.48</time>
      </trkpt>
      <trkpt lat="43.66009" lon="3.79718">
        <ele>145</ele>
        <time>2013-05-30T12:57:49.79</time>
      </trkpt>
      <trkpt lat="43.66008" lon="3.79722">
        <ele>145.5</ele>
        <time>2013-05-30T12:57:50.79</time>
      </trkpt>
      <trkpt lat="43.66007" lon="3.79725">
        <ele>145.5</ele>
        <time>2013-05-30T12:57:51.80</time>
      </trkpt>
      <trkpt lat="43.66006" lon="3.79728">
        <ele>146</ele>
        <time>2013-05-30T12:57:52.80</time>
      </trkpt>
      <trkpt lat="43.66006" lon="3.79731">
        <ele>146.5</ele>
        <time>2013-05-30T12:57:53.79</time>
      </trkpt>
      <trkpt lat="43.66005" lon="3.79735">
        <ele>147</ele>
        <time>2013-05-30T12:57:54.79</time>
      </trkpt>
      <trkpt lat="43.66004" lon="3.79738">
        <ele>147</ele>
        <time>2013-05-30T12:57:55.80</time>
      </trkpt>
      <trkpt lat="43.66004" lon="3.79741">
        <ele>147.5</ele>
        <time>2013-05-30T12:57:56.80</time>
      </trkpt>
      <trkpt lat="43.66003" lon="3.79744">
        <ele>148.5</ele>
        <time>2013-05-30T12:57:57.80</time>
      </trkpt>
      <trkpt lat="43.66003" lon="3.79747">
        <ele>148.5</ele>
        <time>2013-05-30T12:57:58.80</time>
      </trkpt>
      <trkpt lat="43.66002" lon="3.79751">
        <ele>149</ele>
        <time>2013-05-30T12:57:59.80</time>
      </trkpt>
      <trkpt lat="43.66002" lon="3.79755">
        <ele>149.5</ele>
        <time>2013-05-30T12:58:00.80</time>
      </trkpt>
      <trkpt lat="43.66001" lon="3.79759">
        <ele>149.5</ele>
        <time>2013-05-30T12:58:01.80</time>
      </trkpt>
      <trkpt lat="43.66001" lon="3.79762">
        <ele>150</ele>
        <time>2013-05-30T12:58:02.80</time>
      </trkpt>
      <trkpt lat="43.66" lon="3.79765">
        <ele>150.5</ele>
        <time>2013-05-30T12:58:03.80</time>
      </trkpt>
      <trkpt lat="43.65999" lon="3.79769">
        <ele>151</ele>
        <time>2013-05-30T12:58:04.80</time>
      </trkpt>
      <trkpt lat="43.65999" lon="3.79772">
        <ele>151.5</ele>
        <time>2013-05-30T12:58:05.80</time>
      </trkpt>
      <trkpt lat="43.65998" lon="3.79776">
        <ele>152</ele>
        <time>2013-05-30T12:58:06.79</time>
      </trkpt>
      <trkpt lat="43.65998" lon="3.79779">
        <ele>152</ele>
        <time>2013-05-30T12:58:07.79</time>
      </trkpt>
      <trkpt lat="43.65998" lon="3.79783">
        <ele>152.5</ele>
        <time>2013-05-30T12:58:08.79</time>
      </trkpt>
      <trkpt lat="43.65997" lon="3.79786">
        <ele>152.5</ele>
        <time>2013-05-30T12:58:09.80</time>
      </trkpt>
      <trkpt lat="43.65997" lon="3.7979">
        <ele>153</ele>
        <time>2013-05-30T12:58:10.79</time>
      </trkpt>
      <trkpt lat="43.65997" lon="3.79793">
        <ele>153.5</ele>
        <time>2013-05-30T12:58:11.80</time>
      </trkpt>
      <trkpt lat="43.65997" lon="3.79796">
        <ele>153.5</ele>
        <time>2013-05-30T12:58:12.84</time>
      </trkpt>
      <trkpt lat="43.65997" lon="3.79799">
        <ele>154</ele>
        <time>2013-05-30T12:58:13.79</time>
      </trkpt>
      <trkpt lat="43.65997" lon="3.79803">
        <ele>154</ele>
        <time>2013-05-30T12:58:14.80</time>
      </trkpt>
      <trkpt lat="43.65998" lon="3.79807">
        <ele>154.5</ele>
        <time>2013-05-30T12:58:15.90</time>
      </trkpt>
      <trkpt lat="43.65998" lon="3.79811">
        <ele>154.5</ele>
        <time>2013-05-30T12:58:16.79</time>
      </trkpt>
      <trkpt lat="43.65998" lon="3.79814">
        <ele>155</ele>
        <time>2013-05-30T12:58:17.79</time>
      </trkpt>
      <trkpt lat="43.65998" lon="3.79817">
        <ele>155.5</ele>
        <time>2013-05-30T12:58:18.79</time>
      </trkpt>
      <trkpt lat="43.65998" lon="3.7982">
        <ele>156</ele>
        <time>2013-05-30T12:58:19.79</time>
      </trkpt>
      <trkpt lat="43.65999" lon="3.79824">
        <ele>156.5</ele>
        <time>2013-05-30T12:58:20.79</time>
      </trkpt>
      <trkpt lat="43.65999" lon="3.79827">
        <ele>156.5</ele>
        <time>2013-05-30T12:58:21.79</time>
      </trkpt>
      <trkpt lat="43.65999" lon="3.7983">
        <ele>157</ele>
        <time>2013-05-30T12:58:22.79</time>
      </trkpt>
      <trkpt lat="43.65999" lon="3.79833">
        <ele>157.5</ele>
        <time>2013-05-30T12:58:23.79</time>
      </trkpt>
      <trkpt lat="43.65999" lon="3.79836">
        <ele>157.5</ele>
        <time>2013-05-30T12:58:24.79</time>
      </trkpt>
      <trkpt lat="43.65999" lon="3.7984">
        <ele>158</ele>
        <time>2013-05-30T12:58:25.80</time>
      </trkpt>
      <trkpt lat="43.65999" lon="3.79842">
        <ele>158.5</ele>
        <time>2013-05-30T12:58:26.84</time>
      </trkpt>
      <trkpt lat="43.65999" lon="3.79845">
        <ele>159</ele>
        <time>2013-05-30T12:58:27.88</time>
      </trkpt>
      <trkpt lat="43.65999" lon="3.79849">
        <ele>159.5</ele>
        <time>2013-05-30T12:58:28.80</time>
      </trkpt>
      <trkpt lat="43.65999" lon="3.79851">
        <ele>160</ele>
        <time>2013-05-30T12:58:29.79</time>
      </trkpt>
      <trkpt lat="43.65999" lon="3.79854">
        <ele>160.5</ele>
        <time>2013-05-30T12:58:30.79</time>
      </trkpt>
      <trkpt lat="43.65998" lon="3.79857">
        <ele>160.5</ele>
        <time>2013-05-30T12:58:31.79</time>
      </trkpt>
      <trkpt lat="43.65998" lon="3.7986">
        <ele>161</ele>
        <time>2013-05-30T12:58:32.79</time>
      </trkpt>
      <trkpt lat="43.65997" lon="3.79863">
        <ele>161</ele>
        <time>2013-05-30T12:58:33.79</time>
      </trkpt>
      <trkpt lat="43.65997" lon="3.79865">
        <ele>161.5</ele>
        <time>2013-05-30T12:58:34.79</time>
      </trkpt>
      <trkpt lat="43.65996" lon="3.79868">
        <ele>162</ele>
        <time>2013-05-30T12:58:35.80</time>
      </trkpt>
      <trkpt lat="43.65995" lon="3.79872">
        <ele>162</ele>
        <time>2013-05-30T12:58:36.84</time>
      </trkpt>
      <trkpt lat="43.65994" lon="3.79875">
        <ele>162.5</ele>
        <time>2013-05-30T12:58:37.80</time>
      </trkpt>
      <trkpt lat="43.65993" lon="3.79877">
        <ele>163</ele>
        <time>2013-05-30T12:58:38.79</time>
      </trkpt>
      <trkpt lat="43.65992" lon="3.7988">
        <ele>163</ele>
        <time>2013-05-30T12:58:39.79</time>
      </trkpt>
      <trkpt lat="43.65991" lon="3.79883">
        <ele>163</ele>
        <time>2013-05-30T12:58:40.79</time>
      </trkpt>
      <trkpt lat="43.6599" lon="3.79886">
        <ele>163.5</ele>
        <time>2013-05-30T12:58:41.79</time>
      </trkpt>
      <trkpt lat="43.65988" lon="3.79889">
        <ele>164</ele>
        <time>2013-05-30T12:58:42.79</time>
      </trkpt>
      <trkpt lat="43.65987" lon="3.79891">
        <ele>164</ele>
        <time>2013-05-30T12:58:43.79</time>
      </trkpt>
      <trkpt lat="43.65985" lon="3.79894">
        <ele>163.5</ele>
        <time>2013-05-30T12:58:44.79</time>
      </trkpt>
      <trkpt lat="43.65983" lon="3.79898">
        <ele>164</ele>
        <time>2013-05-30T12:58:45.81</time>
      </trkpt>
      <trkpt lat="43.65981" lon="3.79901">
        <ele>164.5</ele>
        <time>2013-05-30T12:58:46.79</time>
      </trkpt>
      <trkpt lat="43.6598" lon="3.79903">
        <ele>164.5</ele>
        <time>2013-05-30T12:58:47.79</time>
      </trkpt>
      <trkpt lat="43.65978" lon="3.79906">
        <ele>164.5</ele>
        <time>2013-05-30T12:58:48.80</time>
      </trkpt>
      <trkpt lat="43.65975" lon="3.79908">
        <ele>164.5</ele>
        <time>2013-05-30T12:58:49.79</time>
      </trkpt>
      <trkpt lat="43.65973" lon="3.7991">
        <ele>165</ele>
        <time>2013-05-30T12:58:50.79</time>
      </trkpt>
      <trkpt lat="43.65971" lon="3.79913">
        <ele>165</ele>
        <time>2013-05-30T12:58:51.79</time>
      </trkpt>
      <trkpt lat="43.65969" lon="3.79915">
        <ele>165.5</ele>
        <time>2013-05-30T12:58:52.79</time>
      </trkpt>
      <trkpt lat="43.65968" lon="3.79918">
        <ele>165.5</ele>
        <time>2013-05-30T12:58:53.79</time>
      </trkpt>
      <trkpt lat="43.65966" lon="3.7992">
        <ele>166</ele>
        <time>2013-05-30T12:58:54.83</time>
      </trkpt>
      <trkpt lat="43.65964" lon="3.79922">
        <ele>166</ele>
        <time>2013-05-30T12:58:55.79</time>
      </trkpt>
      <trkpt lat="43.65962" lon="3.79925">
        <ele>166</ele>
        <time>2013-05-30T12:58:56.83</time>
      </trkpt>
      <trkpt lat="43.6596" lon="3.79927">
        <ele>166.5</ele>
        <time>2013-05-30T12:58:57.79</time>
      </trkpt>
      <trkpt lat="43.65958" lon="3.79929">
        <ele>166.5</ele>
        <time>2013-05-30T12:58:58.79</time>
      </trkpt>
      <trkpt lat="43.65955" lon="3.7993">
        <ele>166.5</ele>
        <time>2013-05-30T12:58:59.79</time>
      </trkpt>
      <trkpt lat="43.65954" lon="3.79933">
        <ele>166.5</ele>
        <time>2013-05-30T12:59:00.79</time>
      </trkpt>
      <trkpt lat="43.65952" lon="3.79935">
        <ele>166.5</ele>
        <time>2013-05-30T12:59:01.79</time>
      </trkpt>
      <trkpt lat="43.6595" lon="3.79938">
        <ele>166.5</ele>
        <time>2013-05-30T12:59:02.79</time>
      </trkpt>
      <trkpt lat="43.65948" lon="3.7994">
        <ele>166.5</ele>
        <time>2013-05-30T12:59:03.79</time>
      </trkpt>
      <trkpt lat="43.65947" lon="3.79944">
        <ele>167</ele>
        <time>2013-05-30T12:59:04.79</time>
      </trkpt>
      <trkpt lat="43.65945" lon="3.79947">
        <ele>167</ele>
        <time>2013-05-30T12:59:05.80</time>
      </trkpt>
      <trkpt lat="43.65943" lon="3.79949">
        <ele>167.5</ele>
        <time>2013-05-30T12:59:06.79</time>
      </trkpt>
      <trkpt lat="43.65942" lon="3.79952">
        <ele>168</ele>
        <time>2013-05-30T12:59:07.79</time>
      </trkpt>
      <trkpt lat="43.6594" lon="3.79954">
        <ele>168</ele>
        <time>2013-05-30T12:59:08.79</time>
      </trkpt>
      <trkpt lat="43.65938" lon="3.79957">
        <ele>168.5</ele>
        <time>2013-05-30T12:59:09.79</time>
      </trkpt>
      <trkpt lat="43.65937" lon="3.79959">
        <ele>169</ele>
        <time>2013-05-30T12:59:10.79</time>
      </trkpt>
      <trkpt lat="43.65935" lon="3.79962">
        <ele>169</ele>
        <time>2013-05-30T12:59:11.79</time>
      </trkpt>
      <trkpt lat="43.65933" lon="3.79965">
        <ele>169.5</ele>
        <time>2013-05-30T12:59:12.79</time>
      </trkpt>
      <trkpt lat="43.65932" lon="3.79968">
        <ele>169.5</ele>
        <time>2013-05-30T12:59:13.79</time>
      </trkpt>
      <trkpt lat="43.65931" lon="3.7997">
        <ele>170</ele>
        <time>2013-05-30T12:59:14.79</time>
      </trkpt>
      <trkpt lat="43.65929" lon="3.79973">
        <ele>170.5</ele>
        <time>2013-05-30T12:59:15.79</time>
      </trkpt>
      <trkpt lat="43.65928" lon="3.79976">
        <ele>170.5</ele>
        <time>2013-05-30T12:59:16.79</time>
      </trkpt>
      <trkpt lat="43.65926" lon="3.79978">
        <ele>171</ele>
        <time>2013-05-30T12:59:17.79</time>
      </trkpt>
      <trkpt lat="43.65924" lon="3.79981">
        <ele>171</ele>
        <time>2013-05-30T12:59:18.79</time>
      </trkpt>
      <trkpt lat="43.65923" lon="3.79983">
        <ele>171.5</ele>
        <time>2013-05-30T12:59:19.79</time>
      </trkpt>
      <trkpt lat="43.65921" lon="3.79985">
        <ele>171.5</ele>
        <time>2013-05-30T12:59:20.79</time>
      </trkpt>
      <trkpt lat="43.6592" lon="3.79988">
        <ele>172</ele>
        <time>2013-05-30T12:59:21.79</time>
      </trkpt>
      <trkpt lat="43.65919" lon="3.7999">
        <ele>172</ele>
        <time>2013-05-30T12:59:22.79</time>
      </trkpt>
      <trkpt lat="43.65917" lon="3.79992">
        <ele>171.5</ele>
        <time>2013-05-30T12:59:23.79</time>
      </trkpt>
      <trkpt lat="43.65915" lon="3.79995">
        <ele>172</ele>
        <time>2013-05-30T12:59:24.79</time>
      </trkpt>
      <trkpt lat="43.65913" lon="3.79997">
        <ele>172</ele>
        <time>2013-05-30T12:59:25.79</time>
      </trkpt>
      <trkpt lat="43.6591" lon="3.79999">
        <ele>172.5</ele>
        <time>2013-05-30T12:59:26.80</time>
      </trkpt>
      <trkpt lat="43.65908" lon="3.80001">
        <ele>172.5</ele>
        <time>2013-05-30T12:59:27.79</time>
      </trkpt>
      <trkpt lat="43.65905" lon="3.80002">
        <ele>172.5</ele>
        <time>2013-05-30T12:59:28.79</time>
      </trkpt>
      <trkpt lat="43.65903" lon="3.80004">
        <ele>172.5</ele>
        <time>2013-05-30T12:59:29.79</time>
      </trkpt>
      <trkpt lat="43.65901" lon="3.80005">
        <ele>172.5</ele>
        <time>2013-05-30T12:59:30.79</time>
      </trkpt>
      <trkpt lat="43.65898" lon="3.80006">
        <ele>172.5</ele>
        <time>2013-05-30T12:59:31.79</time>
      </trkpt>
      <trkpt lat="43.65896" lon="3.80006">
        <ele>172.5</ele>
        <time>2013-05-30T12:59:32.79</time>
      </trkpt>
      <trkpt lat="43.65894" lon="3.80007">
        <ele>172.5</ele>
        <time>2013-05-30T12:59:33.79</time>
      </trkpt>
      <trkpt lat="43.65892" lon="3.80008">
        <ele>173.5</ele>
        <time>2013-05-30T12:59:34.79</time>
      </trkpt>
      <trkpt lat="43.65889" lon="3.80009">
        <ele>174</ele>
        <time>2013-05-30T12:59:35.79</time>
      </trkpt>
      <trkpt lat="43.65887" lon="3.80009">
        <ele>174.5</ele>
        <time>2013-05-30T12:59:36.79</time>
      </trkpt>
      <trkpt lat="43.65885" lon="3.8001">
        <ele>174.5</ele>
        <time>2013-05-30T12:59:37.79</time>
      </trkpt>
      <trkpt lat="43.65883" lon="3.8001">
        <ele>174.5</ele>
        <time>2013-05-30T12:59:38.80</time>
      </trkpt>
      <trkpt lat="43.65881" lon="3.80012">
        <ele>176</ele>
        <time>2013-05-30T12:59:39.79</time>
      </trkpt>
      <trkpt lat="43.65879" lon="3.80013">
        <ele>176.5</ele>
        <time>2013-05-30T12:59:40.79</time>
      </trkpt>
      <trkpt lat="43.65877" lon="3.80014">
        <ele>176.5</ele>
        <time>2013-05-30T12:59:41.79</time>
      </trkpt>
      <trkpt lat="43.65875" lon="3.80014">
        <ele>177</ele>
        <time>2013-05-30T12:59:42.79</time>
      </trkpt>
      <trkpt lat="43.65872" lon="3.80016">
        <ele>178</ele>
        <time>2013-05-30T12:59:43.80</time>
      </trkpt>
      <trkpt lat="43.6587" lon="3.80017">
        <ele>178.5</ele>
        <time>2013-05-30T12:59:44.79</time>
      </trkpt>
      <trkpt lat="43.65868" lon="3.80017">
        <ele>178.5</ele>
        <time>2013-05-30T12:59:45.80</time>
      </trkpt>
      <trkpt lat="43.65867" lon="3.80018">
        <ele>178</ele>
        <time>2013-05-30T12:59:46.79</time>
      </trkpt>
      <trkpt lat="43.65865" lon="3.80018">
        <ele>177.5</ele>
        <time>2013-05-30T12:59:47.79</time>
      </trkpt>
      <trkpt lat="43.65862" lon="3.80019">
        <ele>177.5</ele>
        <time>2013-05-30T12:59:48.79</time>
      </trkpt>
      <trkpt lat="43.6586" lon="3.80019">
        <ele>177.5</ele>
        <time>2013-05-30T12:59:49.79</time>
      </trkpt>
      <trkpt lat="43.65857" lon="3.8002">
        <ele>178</ele>
        <time>2013-05-30T12:59:50.79</time>
      </trkpt>
      <trkpt lat="43.65855" lon="3.80021">
        <ele>177</ele>
        <time>2013-05-30T12:59:51.79</time>
      </trkpt>
      <trkpt lat="43.65853" lon="3.8002">
        <ele>177</ele>
        <time>2013-05-30T12:59:52.79</time>
      </trkpt>
      <trkpt lat="43.6585" lon="3.8002">
        <ele>177</ele>
        <time>2013-05-30T12:59:53.79</time>
      </trkpt>
      <trkpt lat="43.65848" lon="3.8002">
        <ele>177</ele>
        <time>2013-05-30T12:59:54.79</time>
      </trkpt>
      <trkpt lat="43.65845" lon="3.8002">
        <ele>177</ele>
        <time>2013-05-30T12:59:55.79</time>
      </trkpt>
      <trkpt lat="43.65843" lon="3.80018">
        <ele>175.5</ele>
        <time>2013-05-30T12:59:56.79</time>
      </trkpt>
      <trkpt lat="43.6584" lon="3.80018">
        <ele>175.5</ele>
        <time>2013-05-30T12:59:57.79</time>
      </trkpt>
      <trkpt lat="43.65838" lon="3.80019">
        <ele>176</ele>
        <time>2013-05-30T12:59:58.79</time>
      </trkpt>
      <trkpt lat="43.65836" lon="3.80019">
        <ele>176</ele>
        <time>2013-05-30T12:59:59.79</time>
      </trkpt>
      <trkpt lat="43.65833" lon="3.8002">
        <ele>176</ele>
        <time>2013-05-30T13:00:00.79</time>
      </trkpt>
      <trkpt lat="43.65831" lon="3.8002">
        <ele>176.5</ele>
        <time>2013-05-30T13:00:01.79</time>
      </trkpt>
      <trkpt lat="43.65828" lon="3.8002">
        <ele>177</ele>
        <time>2013-05-30T13:00:02.79</time>
      </trkpt>
      <trkpt lat="43.65826" lon="3.8002">
        <ele>177.5</ele>
        <time>2013-05-30T13:00:03.79</time>
      </trkpt>
      <trkpt lat="43.65824" lon="3.8002">
        <ele>177</ele>
        <time>2013-05-30T13:00:04.79</time>
      </trkpt>
      <trkpt lat="43.65821" lon="3.80021">
        <ele>177.5</ele>
        <time>2013-05-30T13:00:05.79</time>
      </trkpt>
      <trkpt lat="43.65819" lon="3.80021">
        <ele>177.5</ele>
        <time>2013-05-30T13:00:06.79</time>
      </trkpt>
      <trkpt lat="43.65817" lon="3.80022">
        <ele>178.5</ele>
        <time>2013-05-30T13:00:07.80</time>
      </trkpt>
      <trkpt lat="43.65814" lon="3.80023">
        <ele>178.5</ele>
        <time>2013-05-30T13:00:08.79</time>
      </trkpt>
      <trkpt lat="43.65812" lon="3.80023">
        <ele>179</ele>
        <time>2013-05-30T13:00:09.79</time>
      </trkpt>
      <trkpt lat="43.65809" lon="3.80023">
        <ele>179.5</ele>
        <time>2013-05-30T13:00:10.79</time>
      </trkpt>
      <trkpt lat="43.65807" lon="3.80023">
        <ele>180</ele>
        <time>2013-05-30T13:00:11.79</time>
      </trkpt>
      <trkpt lat="43.65805" lon="3.80023">
        <ele>179.5</ele>
        <time>2013-05-30T13:00:12.79</time>
      </trkpt>
      <trkpt lat="43.65803" lon="3.80024">
        <ele>180</ele>
        <time>2013-05-30T13:00:13.79</time>
      </trkpt>
      <trkpt lat="43.658" lon="3.80024">
        <ele>180.5</ele>
        <time>2013-05-30T13:00:14.79</time>
      </trkpt>
      <trkpt lat="43.65798" lon="3.80024">
        <ele>180.5</ele>
        <time>2013-05-30T13:00:15.84</time>
      </trkpt>
      <trkpt lat="43.65796" lon="3.80025">
        <ele>181</ele>
        <time>2013-05-30T13:00:16.79</time>
      </trkpt>
      <trkpt lat="43.65794" lon="3.80025">
        <ele>181.5</ele>
        <time>2013-05-30T13:00:17.79</time>
      </trkpt>
      <trkpt lat="43.65791" lon="3.80026">
        <ele>182</ele>
        <time>2013-05-30T13:00:18.79</time>
      </trkpt>
      <trkpt lat="43.65789" lon="3.80026">
        <ele>182.5</ele>
        <time>2013-05-30T13:00:19.79</time>
      </trkpt>
      <trkpt lat="43.65787" lon="3.80026">
        <ele>183</ele>
        <time>2013-05-30T13:00:20.79</time>
      </trkpt>
      <trkpt lat="43.65786" lon="3.80027">
        <ele>183.5</ele>
        <time>2013-05-30T13:00:21.79</time>
      </trkpt>
      <trkpt lat="43.65784" lon="3.80028">
        <ele>184.5</ele>
        <time>2013-05-30T13:00:22.79</time>
      </trkpt>
      <trkpt lat="43.65782" lon="3.80028">
        <ele>184.5</ele>
        <time>2013-05-30T13:00:23.79</time>
      </trkpt>
      <trkpt lat="43.6578" lon="3.80029">
        <ele>185.5</ele>
        <time>2013-05-30T13:00:24.79</time>
      </trkpt>
      <trkpt lat="43.65778" lon="3.80029">
        <ele>185</ele>
        <time>2013-05-30T13:00:25.79</time>
      </trkpt>
      <trkpt lat="43.65776" lon="3.80029">
        <ele>185.5</ele>
        <time>2013-05-30T13:00:26.79</time>
      </trkpt>
      <trkpt lat="43.65773" lon="3.8003">
        <ele>186</ele>
        <time>2013-05-30T13:00:27.80</time>
      </trkpt>
      <trkpt lat="43.65771" lon="3.80031">
        <ele>187</ele>
        <time>2013-05-30T13:00:28.79</time>
      </trkpt>
      <trkpt lat="43.65769" lon="3.80032">
        <ele>187</ele>
        <time>2013-05-30T13:00:29.79</time>
      </trkpt>
      <trkpt lat="43.65767" lon="3.80033">
        <ele>187.5</ele>
        <time>2013-05-30T13:00:30.79</time>
      </trkpt>
      <trkpt lat="43.65765" lon="3.80033">
        <ele>187</ele>
        <time>2013-05-30T13:00:31.79</time>
      </trkpt>
      <trkpt lat="43.65763" lon="3.80034">
        <ele>187</ele>
        <time>2013-05-30T13:00:32.79</time>
      </trkpt>
      <trkpt lat="43.65762" lon="3.80034">
        <ele>186.5</ele>
        <time>2013-05-30T13:00:33.86</time>
      </trkpt>
      <trkpt lat="43.65759" lon="3.80035">
        <ele>186.5</ele>
        <time>2013-05-30T13:00:34.79</time>
      </trkpt>
      <trkpt lat="43.65757" lon="3.80036">
        <ele>186.5</ele>
        <time>2013-05-30T13:00:36.28</time>
      </trkpt>
      <trkpt lat="43.65753" lon="3.80037">
        <ele>185.5</ele>
        <time>2013-05-30T13:00:36.96</time>
      </trkpt>
      <trkpt lat="43.65752" lon="3.80037">
        <ele>185.5</ele>
        <time>2013-05-30T13:00:37.97</time>
      </trkpt>
      <trkpt lat="43.65749" lon="3.80038">
        <ele>186</ele>
        <time>2013-05-30T13:00:38.96</time>
      </trkpt>
      <trkpt lat="43.65748" lon="3.80039">
        <ele>186</ele>
        <time>2013-05-30T13:00:39.97</time>
      </trkpt>
      <trkpt lat="43.65745" lon="3.80039">
        <ele>186.5</ele>
        <time>2013-05-30T13:00:40.97</time>
      </trkpt>
      <trkpt lat="43.65743" lon="3.8004">
        <ele>187</ele>
        <time>2013-05-30T13:00:41.96</time>
      </trkpt>
      <trkpt lat="43.65741" lon="3.8004">
        <ele>187</ele>
        <time>2013-05-30T13:00:42.97</time>
      </trkpt>
      <trkpt lat="43.65739" lon="3.8004">
        <ele>187.5</ele>
        <time>2013-05-30T13:00:43.96</time>
      </trkpt>
      <trkpt lat="43.65736" lon="3.80041">
        <ele>187.5</ele>
        <time>2013-05-30T13:00:44.97</time>
      </trkpt>
      <trkpt lat="43.65734" lon="3.80042">
        <ele>188</ele>
        <time>2013-05-30T13:00:45.96</time>
      </trkpt>
      <trkpt lat="43.65731" lon="3.80043">
        <ele>188.5</ele>
        <time>2013-05-30T13:00:46.97</time>
      </trkpt>
      <trkpt lat="43.65729" lon="3.80043">
        <ele>189</ele>
        <time>2013-05-30T13:00:47.97</time>
      </trkpt>
      <trkpt lat="43.65727" lon="3.80044">
        <ele>189</ele>
        <time>2013-05-30T13:00:48.97</time>
      </trkpt>
      <trkpt lat="43.65725" lon="3.80045">
        <ele>189.5</ele>
        <time>2013-05-30T13:00:49.96</time>
      </trkpt>
      <trkpt lat="43.65724" lon="3.80046">
        <ele>190</ele>
        <time>2013-05-30T13:00:50.97</time>
      </trkpt>
      <trkpt lat="43.65722" lon="3.80047">
        <ele>190.5</ele>
        <time>2013-05-30T13:00:51.96</time>
      </trkpt>
      <trkpt lat="43.6572" lon="3.80049">
        <ele>190.5</ele>
        <time>2013-05-30T13:00:53.13</time>
      </trkpt>
      <trkpt lat="43.65718" lon="3.80051">
        <ele>191</ele>
        <time>2013-05-30T13:00:53.96</time>
      </trkpt>
      <trkpt lat="43.65716" lon="3.80052">
        <ele>191.5</ele>
        <time>2013-05-30T13:00:54.97</time>
      </trkpt>
      <trkpt lat="43.65714" lon="3.80054">
        <ele>191.5</ele>
        <time>2013-05-30T13:00:55.97</time>
      </trkpt>
      <trkpt lat="43.65712" lon="3.80055">
        <ele>192</ele>
        <time>2013-05-30T13:00:56.97</time>
      </trkpt>
      <trkpt lat="43.65711" lon="3.80057">
        <ele>192.5</ele>
        <time>2013-05-30T13:00:57.97</time>
      </trkpt>
      <trkpt lat="43.65709" lon="3.80059">
        <ele>192.5</ele>
        <time>2013-05-30T13:00:58.96</time>
      </trkpt>
      <trkpt lat="43.65707" lon="3.8006">
        <ele>193</ele>
        <time>2013-05-30T13:00:59.97</time>
      </trkpt>
      <trkpt lat="43.65705" lon="3.80062">
        <ele>193.5</ele>
        <time>2013-05-30T13:01:00.96</time>
      </trkpt>
      <trkpt lat="43.65704" lon="3.80064">
        <ele>193.5</ele>
        <time>2013-05-30T13:01:01.96</time>
      </trkpt>
      <trkpt lat="43.65702" lon="3.80067">
        <ele>193.5</ele>
        <time>2013-05-30T13:01:02.96</time>
      </trkpt>
      <trkpt lat="43.65701" lon="3.80069">
        <ele>194</ele>
        <time>2013-05-30T13:01:04.25</time>
      </trkpt>
      <trkpt lat="43.65699" lon="3.80071">
        <ele>194</ele>
        <time>2013-05-30T13:01:04.96</time>
      </trkpt>
      <trkpt lat="43.65698" lon="3.80073">
        <ele>194.5</ele>
        <time>2013-05-30T13:01:05.96</time>
      </trkpt>
      <trkpt lat="43.65696" lon="3.80075">
        <ele>194.5</ele>
        <time>2013-05-30T13:01:06.96</time>
      </trkpt>
      <trkpt lat="43.65694" lon="3.80078">
        <ele>194.5</ele>
        <time>2013-05-30T13:01:07.96</time>
      </trkpt>
      <trkpt lat="43.65693" lon="3.8008">
        <ele>195</ele>
        <time>2013-05-30T13:01:08.96</time>
      </trkpt>
      <trkpt lat="43.65691" lon="3.80082">
        <ele>195.5</ele>
        <time>2013-05-30T13:01:09.96</time>
      </trkpt>
      <trkpt lat="43.6569" lon="3.80084">
        <ele>195.5</ele>
        <time>2013-05-30T13:01:10.96</time>
      </trkpt>
      <trkpt lat="43.65688" lon="3.80086">
        <ele>195.5</ele>
        <time>2013-05-30T13:01:11.96</time>
      </trkpt>
      <trkpt lat="43.65686" lon="3.80089">
        <ele>196</ele>
        <time>2013-05-30T13:01:12.96</time>
      </trkpt>
      <trkpt lat="43.65684" lon="3.80091">
        <ele>196</ele>
        <time>2013-05-30T13:01:13.96</time>
      </trkpt>
      <trkpt lat="43.65682" lon="3.80093">
        <ele>196.5</ele>
        <time>2013-05-30T13:01:14.96</time>
      </trkpt>
      <trkpt lat="43.6568" lon="3.80095">
        <ele>196.5</ele>
        <time>2013-05-30T13:01:15.97</time>
      </trkpt>
      <trkpt lat="43.65678" lon="3.80097">
        <ele>197</ele>
        <time>2013-05-30T13:01:16.96</time>
      </trkpt>
      <trkpt lat="43.65676" lon="3.80099">
        <ele>197</ele>
        <time>2013-05-30T13:01:17.99</time>
      </trkpt>
      <trkpt lat="43.65673" lon="3.80101">
        <ele>197</ele>
        <time>2013-05-30T13:01:18.96</time>
      </trkpt>
      <trkpt lat="43.65671" lon="3.80102">
        <ele>197</ele>
        <time>2013-05-30T13:01:19.96</time>
      </trkpt>
      <trkpt lat="43.65669" lon="3.80104">
        <ele>197</ele>
        <time>2013-05-30T13:01:20.97</time>
      </trkpt>
      <trkpt lat="43.65667" lon="3.80106">
        <ele>197</ele>
        <time>2013-05-30T13:01:21.97</time>
      </trkpt>
      <trkpt lat="43.65665" lon="3.80108">
        <ele>197</ele>
        <time>2013-05-30T13:01:22.96</time>
      </trkpt>
      <trkpt lat="43.65662" lon="3.80109">
        <ele>197.5</ele>
        <time>2013-05-30T13:01:24.15</time>
      </trkpt>
      <trkpt lat="43.6566" lon="3.80111">
        <ele>197.5</ele>
        <time>2013-05-30T13:01:24.96</time>
      </trkpt>
      <trkpt lat="43.65658" lon="3.80114">
        <ele>197.5</ele>
        <time>2013-05-30T13:01:25.96</time>
      </trkpt>
      <trkpt lat="43.65656" lon="3.80115">
        <ele>197.5</ele>
        <time>2013-05-30T13:01:26.96</time>
      </trkpt>
      <trkpt lat="43.65653" lon="3.80117">
        <ele>198</ele>
        <time>2013-05-30T13:01:27.97</time>
      </trkpt>
      <trkpt lat="43.65651" lon="3.80119">
        <ele>198</ele>
        <time>2013-05-30T13:01:28.96</time>
      </trkpt>
      <trkpt lat="43.65648" lon="3.80121">
        <ele>198</ele>
        <time>2013-05-30T13:01:29.96</time>
      </trkpt>
      <trkpt lat="43.65646" lon="3.80123">
        <ele>198.5</ele>
        <time>2013-05-30T13:01:30.96</time>
      </trkpt>
      <trkpt lat="43.65643" lon="3.80124">
        <ele>198</ele>
        <time>2013-05-30T13:01:31.96</time>
      </trkpt>
      <trkpt lat="43.65641" lon="3.80126">
        <ele>198</ele>
        <time>2013-05-30T13:01:32.96</time>
      </trkpt>
      <trkpt lat="43.65638" lon="3.80128">
        <ele>198</ele>
        <time>2013-05-30T13:01:33.96</time>
      </trkpt>
      <trkpt lat="43.65636" lon="3.8013">
        <ele>198</ele>
        <time>2013-05-30T13:01:34.96</time>
      </trkpt>
      <trkpt lat="43.65633" lon="3.80132">
        <ele>198.5</ele>
        <time>2013-05-30T13:01:35.96</time>
      </trkpt>
      <trkpt lat="43.65631" lon="3.80135">
        <ele>198.5</ele>
        <time>2013-05-30T13:01:36.96</time>
      </trkpt>
      <trkpt lat="43.65629" lon="3.80137">
        <ele>199</ele>
        <time>2013-05-30T13:01:37.96</time>
      </trkpt>
      <trkpt lat="43.65627" lon="3.8014">
        <ele>199.5</ele>
        <time>2013-05-30T13:01:38.96</time>
      </trkpt>
      <trkpt lat="43.65625" lon="3.80142">
        <ele>199.5</ele>
        <time>2013-05-30T13:01:39.98</time>
      </trkpt>
      <trkpt lat="43.65623" lon="3.80144">
        <ele>200</ele>
        <time>2013-05-30T13:01:40.96</time>
      </trkpt>
      <trkpt lat="43.6562" lon="3.80147">
        <ele>200</ele>
        <time>2013-05-30T13:01:41.96</time>
      </trkpt>
      <trkpt lat="43.65618" lon="3.8015">
        <ele>201</ele>
        <time>2013-05-30T13:01:42.96</time>
      </trkpt>
      <trkpt lat="43.65616" lon="3.80153">
        <ele>201</ele>
        <time>2013-05-30T13:01:43.97</time>
      </trkpt>
      <trkpt lat="43.65615" lon="3.80156">
        <ele>201</ele>
        <time>2013-05-30T13:01:45.65</time>
      </trkpt>
      <trkpt lat="43.65613" lon="3.80159">
        <ele>201.5</ele>
        <time>2013-05-30T13:01:45.96</time>
      </trkpt>
      <trkpt lat="43.65611" lon="3.80162">
        <ele>201.5</ele>
        <time>2013-05-30T13:01:46.96</time>
      </trkpt>
      <trkpt lat="43.6561" lon="3.80164">
        <ele>202</ele>
        <time>2013-05-30T13:01:47.97</time>
      </trkpt>
      <trkpt lat="43.65608" lon="3.80167">
        <ele>202</ele>
        <time>2013-05-30T13:01:48.96</time>
      </trkpt>
      <trkpt lat="43.65606" lon="3.8017">
        <ele>202</ele>
        <time>2013-05-30T13:01:49.96</time>
      </trkpt>
      <trkpt lat="43.65604" lon="3.80173">
        <ele>202.5</ele>
        <time>2013-05-30T13:01:50.96</time>
      </trkpt>
      <trkpt lat="43.65602" lon="3.80176">
        <ele>202.5</ele>
        <time>2013-05-30T13:01:51.96</time>
      </trkpt>
      <trkpt lat="43.656" lon="3.80179">
        <ele>202.5</ele>
        <time>2013-05-30T13:01:52.96</time>
      </trkpt>
      <trkpt lat="43.65597" lon="3.80182">
        <ele>202</ele>
        <time>2013-05-30T13:01:53.96</time>
      </trkpt>
      <trkpt lat="43.65594" lon="3.80185">
        <ele>202</ele>
        <time>2013-05-30T13:01:54.97</time>
      </trkpt>
      <trkpt lat="43.65591" lon="3.80188">
        <ele>202</ele>
        <time>2013-05-30T13:01:55.97</time>
      </trkpt>
      <trkpt lat="43.65588" lon="3.8019">
        <ele>202.5</ele>
        <time>2013-05-30T13:01:56.96</time>
      </trkpt>
      <trkpt lat="43.65586" lon="3.80192">
        <ele>202.5</ele>
        <time>2013-05-30T13:01:57.96</time>
      </trkpt>
      <trkpt lat="43.65583" lon="3.80195">
        <ele>202.5</ele>
        <time>2013-05-30T13:01:58.96</time>
      </trkpt>
      <trkpt lat="43.65581" lon="3.80199">
        <ele>202</ele>
        <time>2013-05-30T13:01:59.96</time>
      </trkpt>
      <trkpt lat="43.65578" lon="3.80203">
        <ele>202</ele>
        <time>2013-05-30T13:02:00.96</time>
      </trkpt>
      <trkpt lat="43.65575" lon="3.80206">
        <ele>202</ele>
        <time>2013-05-30T13:02:02.25</time>
      </trkpt>
      <trkpt lat="43.65573" lon="3.80209">
        <ele>202</ele>
        <time>2013-05-30T13:02:02.96</time>
      </trkpt>
      <trkpt lat="43.65569" lon="3.80212">
        <ele>202</ele>
        <time>2013-05-30T13:02:03.97</time>
      </trkpt>
      <trkpt lat="43.65566" lon="3.80215">
        <ele>202</ele>
        <time>2013-05-30T13:02:05.15</time>
      </trkpt>
      <trkpt lat="43.65563" lon="3.80217">
        <ele>202</ele>
        <time>2013-05-30T13:02:05.96</time>
      </trkpt>
      <trkpt lat="43.6556" lon="3.80219">
        <ele>202</ele>
        <time>2013-05-30T13:02:06.96</time>
      </trkpt>
      <trkpt lat="43.65557" lon="3.8022">
        <ele>201.5</ele>
        <time>2013-05-30T13:02:07.96</time>
      </trkpt>
      <trkpt lat="43.65553" lon="3.80222">
        <ele>201</ele>
        <time>2013-05-30T13:02:08.96</time>
      </trkpt>
      <trkpt lat="43.6555" lon="3.80224">
        <ele>201</ele>
        <time>2013-05-30T13:02:09.97</time>
      </trkpt>
      <trkpt lat="43.65547" lon="3.80225">
        <ele>201.5</ele>
        <time>2013-05-30T13:02:10.96</time>
      </trkpt>
      <trkpt lat="43.65543" lon="3.80227">
        <ele>201</ele>
        <time>2013-05-30T13:02:11.97</time>
      </trkpt>
      <trkpt lat="43.6554" lon="3.80229">
        <ele>201.5</ele>
        <time>2013-05-30T13:02:12.97</time>
      </trkpt>
      <trkpt lat="43.65537" lon="3.80231">
        <ele>200</ele>
        <time>2013-05-30T13:02:13.96</time>
      </trkpt>
      <trkpt lat="43.65534" lon="3.80232">
        <ele>199</ele>
        <time>2013-05-30T13:02:14.96</time>
      </trkpt>
      <trkpt lat="43.65531" lon="3.80234">
        <ele>199.5</ele>
        <time>2013-05-30T13:02:15.96</time>
      </trkpt>
      <trkpt lat="43.65527" lon="3.80235">
        <ele>199</ele>
        <time>2013-05-30T13:02:16.96</time>
      </trkpt>
      <trkpt lat="43.65524" lon="3.80237">
        <ele>198.5</ele>
        <time>2013-05-30T13:02:17.96</time>
      </trkpt>
      <trkpt lat="43.65521" lon="3.80238">
        <ele>197.5</ele>
        <time>2013-05-30T13:02:18.97</time>
      </trkpt>
      <trkpt lat="43.65517" lon="3.80239">
        <ele>197.5</ele>
        <time>2013-05-30T13:02:19.97</time>
      </trkpt>
      <trkpt lat="43.65513" lon="3.80241">
        <ele>197</ele>
        <time>2013-05-30T13:02:20.96</time>
      </trkpt>
      <trkpt lat="43.65509" lon="3.80244">
        <ele>197</ele>
        <time>2013-05-30T13:02:21.96</time>
      </trkpt>
      <trkpt lat="43.65505" lon="3.80248">
        <ele>198</ele>
        <time>2013-05-30T13:02:22.97</time>
      </trkpt>
      <trkpt lat="43.65501" lon="3.80252">
        <ele>198</ele>
        <time>2013-05-30T13:02:23.96</time>
      </trkpt>
      <trkpt lat="43.65497" lon="3.80256">
        <ele>197.5</ele>
        <time>2013-05-30T13:02:24.96</time>
      </trkpt>
      <trkpt lat="43.65492" lon="3.8026">
        <ele>197.5</ele>
        <time>2013-05-30T13:02:25.97</time>
      </trkpt>
      <trkpt lat="43.65488" lon="3.80264">
        <ele>197</ele>
        <time>2013-05-30T13:02:26.96</time>
      </trkpt>
      <trkpt lat="43.65483" lon="3.8027">
        <ele>196.5</ele>
        <time>2013-05-30T13:02:27.96</time>
      </trkpt>
      <trkpt lat="43.6548" lon="3.80276">
        <ele>196</ele>
        <time>2013-05-30T13:02:28.96</time>
      </trkpt>
      <trkpt lat="43.6548" lon="3.80285">
        <ele>196</ele>
        <time>2013-05-30T13:02:29.96</time>
      </trkpt>
      <trkpt lat="43.65481" lon="3.80293">
        <ele>196</ele>
        <time>2013-05-30T13:02:30.96</time>
      </trkpt>
      <trkpt lat="43.65482" lon="3.80301">
        <ele>195.5</ele>
        <time>2013-05-30T13:02:31.96</time>
      </trkpt>
      <trkpt lat="43.65486" lon="3.80307">
        <ele>195.5</ele>
        <time>2013-05-30T13:02:32.96</time>
      </trkpt>
      <trkpt lat="43.65491" lon="3.80311">
        <ele>195.5</ele>
        <time>2013-05-30T13:02:33.96</time>
      </trkpt>
      <trkpt lat="43.65497" lon="3.80313">
        <ele>196.5</ele>
        <time>2013-05-30T13:02:08.80</time>
      </trkpt>
      <trkpt lat="43.65497" lon="3.80314">
        <ele>196</ele>
        <time>2013-05-30T13:02:09.80</time>
      </trkpt>
      <trkpt lat="43.65498" lon="3.80314">
        <ele>196</ele>
        <time>2013-05-30T13:02:10.81</time>
      </trkpt>
      <trkpt lat="43.65499" lon="3.80315">
        <ele>196</ele>
        <time>2013-05-30T13:02:11.81</time>
      </trkpt>
      <trkpt lat="43.65499" lon="3.80315">
        <ele>196</ele>
        <time>2013-05-30T13:02:12.82</time>
      </trkpt>
      <trkpt lat="43.655" lon="3.80315">
        <ele>197</ele>
        <time>2013-05-30T13:02:13.82</time>
      </trkpt>
      <trkpt lat="43.65501" lon="3.80316">
        <ele>197</ele>
        <time>2013-05-30T13:02:14.82</time>
      </trkpt>
      <trkpt lat="43.65502" lon="3.80316">
        <ele>197.5</ele>
        <time>2013-05-30T13:02:15.82</time>
      </trkpt>
      <trkpt lat="43.65502" lon="3.80317">
        <ele>197</ele>
        <time>2013-05-30T13:02:16.82</time>
      </trkpt>
      <trkpt lat="43.65502" lon="3.80318">
        <ele>197</ele>
        <time>2013-05-30T13:02:17.82</time>
      </trkpt>
      <trkpt lat="43.65502" lon="3.80319">
        <ele>197</ele>
        <time>2013-05-30T13:02:18.82</time>
      </trkpt>
      <trkpt lat="43.65502" lon="3.8032">
        <ele>197</ele>
        <time>2013-05-30T13:02:19.81</time>
      </trkpt>
      <trkpt lat="43.65502" lon="3.80321">
        <ele>197</ele>
        <time>2013-05-30T13:02:20.81</time>
      </trkpt>
      <trkpt lat="43.65502" lon="3.80322">
        <ele>197.5</ele>
        <time>2013-05-30T13:02:21.81</time>
      </trkpt>
      <trkpt lat="43.65501" lon="3.80324">
        <ele>197.5</ele>
        <time>2013-05-30T13:02:22.81</time>
      </trkpt>
      <trkpt lat="43.655" lon="3.80327">
        <ele>197</ele>
        <time>2013-05-30T13:02:23.81</time>
      </trkpt>
      <trkpt lat="43.65499" lon="3.80329">
        <ele>197</ele>
        <time>2013-05-30T13:02:24.81</time>
      </trkpt>
      <trkpt lat="43.65498" lon="3.80331">
        <ele>196.5</ele>
        <time>2013-05-30T13:02:25.81</time>
      </trkpt>
      <trkpt lat="43.65497" lon="3.80335">
        <ele>195</ele>
        <time>2013-05-30T13:02:26.81</time>
      </trkpt>
      <trkpt lat="43.65498" lon="3.80338">
        <ele>194</ele>
        <time>2013-05-30T13:02:27.82</time>
      </trkpt>
      <trkpt lat="43.655" lon="3.8034">
        <ele>194</ele>
        <time>2013-05-30T13:02:28.82</time>
      </trkpt>
      <trkpt lat="43.65504" lon="3.80343">
        <ele>195</ele>
        <time>2013-05-30T13:02:29.81</time>
      </trkpt>
      <trkpt lat="43.65509" lon="3.80345">
        <ele>195.5</ele>
        <time>2013-05-30T13:02:30.82</time>
      </trkpt>
      <trkpt lat="43.65514" lon="3.80351">
        <ele>196</ele>
        <time>2013-05-30T13:02:32.80</time>
      </trkpt>
      <trkpt lat="43.65517" lon="3.80355">
        <ele>197.5</ele>
        <time>2013-05-30T13:02:33.81</time>
      </trkpt>
      <trkpt lat="43.65521" lon="3.80359">
        <ele>198.5</ele>
        <time>2013-05-30T13:02:34.81</time>
      </trkpt>
      <trkpt lat="43.65524" lon="3.80362">
        <ele>199.5</ele>
        <time>2013-05-30T13:02:35.82</time>
      </trkpt>
      <trkpt lat="43.65528" lon="3.80365">
        <ele>200.5</ele>
        <time>2013-05-30T13:02:36.81</time>
      </trkpt>
      <trkpt lat="43.65532" lon="3.80367">
        <ele>200.5</ele>
        <time>2013-05-30T13:02:37.82</time>
      </trkpt>
      <trkpt lat="43.65536" lon="3.80369">
        <ele>200</ele>
        <time>2013-05-30T13:02:38.81</time>
      </trkpt>
      <trkpt lat="43.65541" lon="3.80371">
        <ele>199.5</ele>
        <time>2013-05-30T13:02:39.82</time>
      </trkpt>
      <trkpt lat="43.65546" lon="3.80372">
        <ele>199.5</ele>
        <time>2013-05-30T13:02:40.82</time>
      </trkpt>
      <trkpt lat="43.65552" lon="3.80374">
        <ele>199</ele>
        <time>2013-05-30T13:02:41.81</time>
      </trkpt>
      <trkpt lat="43.65557" lon="3.80374">
        <ele>199</ele>
        <time>2013-05-30T13:02:42.81</time>
      </trkpt>
      <trkpt lat="43.65562" lon="3.80376">
        <ele>198</ele>
        <time>2013-05-30T13:02:43.82</time>
      </trkpt>
      <trkpt lat="43.65567" lon="3.80378">
        <ele>196.5</ele>
        <time>2013-05-30T13:02:44.81</time>
      </trkpt>
      <trkpt lat="43.65573" lon="3.80381">
        <ele>195.5</ele>
        <time>2013-05-30T13:02:45.82</time>
      </trkpt>
      <trkpt lat="43.65578" lon="3.80382">
        <ele>195</ele>
        <time>2013-05-30T13:02:46.82</time>
      </trkpt>
      <trkpt lat="43.65582" lon="3.80383">
        <ele>195.5</ele>
        <time>2013-05-30T13:02:47.81</time>
      </trkpt>
      <trkpt lat="43.65587" lon="3.80385">
        <ele>195</ele>
        <time>2013-05-30T13:02:48.81</time>
      </trkpt>
      <trkpt lat="43.65592" lon="3.80386">
        <ele>195</ele>
        <time>2013-05-30T13:02:49.81</time>
      </trkpt>
      <trkpt lat="43.65596" lon="3.80388">
        <ele>194.5</ele>
        <time>2013-05-30T13:02:50.81</time>
      </trkpt>
      <trkpt lat="43.65608" lon="3.80392">
        <ele>192.5</ele>
        <time>2013-05-30T13:02:52.82</time>
      </trkpt>
      <trkpt lat="43.65615" lon="3.80395">
        <ele>191</ele>
        <time>2013-05-30T13:02:53.81</time>
      </trkpt>
      <trkpt lat="43.6562" lon="3.804">
        <ele>191</ele>
        <time>2013-05-30T13:02:54.81</time>
      </trkpt>
      <trkpt lat="43.65648" lon="3.80408">
        <ele>188.5</ele>
        <time>2013-05-30T13:02:57.81</time>
      </trkpt>
      <trkpt lat="43.65657" lon="3.80411">
        <ele>188.5</ele>
        <time>2013-05-30T13:02:59.82</time>
      </trkpt>
      <trkpt lat="43.6566" lon="3.80414">
        <ele>189.5</ele>
        <time>2013-05-30T13:03:00.81</time>
      </trkpt>
      <trkpt lat="43.65663" lon="3.80418">
        <ele>189</ele>
        <time>2013-05-30T13:03:01.82</time>
      </trkpt>
      <trkpt lat="43.65667" lon="3.80417">
        <ele>187</ele>
        <time>2013-05-30T13:03:03.81</time>
      </trkpt>
      <trkpt lat="43.65669" lon="3.8042">
        <ele>187</ele>
        <time>2013-05-30T13:03:04.81</time>
      </trkpt>
      <trkpt lat="43.65672" lon="3.80422">
        <ele>187</ele>
        <time>2013-05-30T13:03:05.80</time>
      </trkpt>
      <trkpt lat="43.65675" lon="3.80424">
        <ele>188</ele>
        <time>2013-05-30T13:03:06.80</time>
      </trkpt>
      <trkpt lat="43.65679" lon="3.80425">
        <ele>187.5</ele>
        <time>2013-05-30T13:03:07.81</time>
      </trkpt>
      <trkpt lat="43.65683" lon="3.80426">
        <ele>187.5</ele>
        <time>2013-05-30T13:03:08.82</time>
      </trkpt>
      <trkpt lat="43.65687" lon="3.80426">
        <ele>185</ele>
        <time>2013-05-30T13:03:09.81</time>
      </trkpt>
      <trkpt lat="43.65691" lon="3.80428">
        <ele>185</ele>
        <time>2013-05-30T13:03:10.81</time>
      </trkpt>
      <trkpt lat="43.65694" lon="3.8043">
        <ele>185.5</ele>
        <time>2013-05-30T13:03:11.81</time>
      </trkpt>
      <trkpt lat="43.65697" lon="3.80432">
        <ele>186.5</ele>
        <time>2013-05-30T13:03:12.82</time>
      </trkpt>
      <trkpt lat="43.657" lon="3.80434">
        <ele>187</ele>
        <time>2013-05-30T13:03:13.81</time>
      </trkpt>
      <trkpt lat="43.65703" lon="3.80435">
        <ele>187.5</ele>
        <time>2013-05-30T13:03:14.81</time>
      </trkpt>
      <trkpt lat="43.65706" lon="3.80436">
        <ele>187</ele>
        <time>2013-05-30T13:03:15.80</time>
      </trkpt>
      <trkpt lat="43.65707" lon="3.80439">
        <ele>187</ele>
        <time>2013-05-30T13:03:16.81</time>
      </trkpt>
      <trkpt lat="43.6571" lon="3.80441">
        <ele>186.5</ele>
        <time>2013-05-30T13:03:17.80</time>
      </trkpt>
      <trkpt lat="43.65714" lon="3.80443">
        <ele>186.5</ele>
        <time>2013-05-30T13:03:18.80</time>
      </trkpt>
      <trkpt lat="43.65718" lon="3.80445">
        <ele>186.5</ele>
        <time>2013-05-30T13:03:19.81</time>
      </trkpt>
      <trkpt lat="43.65721" lon="3.80445">
        <ele>187</ele>
        <time>2013-05-30T13:03:20.81</time>
      </trkpt>
      <trkpt lat="43.65726" lon="3.80455">
        <ele>186.5</ele>
        <time>2013-05-30T13:03:22.81</time>
      </trkpt>
      <trkpt lat="43.65728" lon="3.80453">
        <ele>186.5</ele>
        <time>2013-05-30T13:03:23.81</time>
      </trkpt>
      <trkpt lat="43.65731" lon="3.80454">
        <ele>186.5</ele>
        <time>2013-05-30T13:03:24.80</time>
      </trkpt>
      <trkpt lat="43.65734" lon="3.80455">
        <ele>186</ele>
        <time>2013-05-30T13:03:25.80</time>
      </trkpt>
      <trkpt lat="43.65738" lon="3.80455">
        <ele>186</ele>
        <time>2013-05-30T13:03:26.80</time>
      </trkpt>
      <trkpt lat="43.65741" lon="3.80454">
        <ele>186</ele>
        <time>2013-05-30T13:03:27.80</time>
      </trkpt>
      <trkpt lat="43.65745" lon="3.80454">
        <ele>185.5</ele>
        <time>2013-05-30T13:03:28.80</time>
      </trkpt>
      <trkpt lat="43.65749" lon="3.80456">
        <ele>185</ele>
        <time>2013-05-30T13:03:29.80</time>
      </trkpt>
      <trkpt lat="43.65753" lon="3.80458">
        <ele>184.5</ele>
        <time>2013-05-30T13:03:30.81</time>
      </trkpt>
      <trkpt lat="43.65756" lon="3.8046">
        <ele>184.5</ele>
        <time>2013-05-30T13:03:31.80</time>
      </trkpt>
      <trkpt lat="43.65771" lon="3.8046">
        <ele>186</ele>
        <time>2013-05-30T13:03:33.82</time>
      </trkpt>
      <trkpt lat="43.65776" lon="3.80462">
        <ele>187</ele>
        <time>2013-05-30T13:03:34.81</time>
      </trkpt>
      <trkpt lat="43.6578" lon="3.80464">
        <ele>186.5</ele>
        <time>2013-05-30T13:03:35.81</time>
      </trkpt>
      <trkpt lat="43.65784" lon="3.80465">
        <ele>187</ele>
        <time>2013-05-30T13:03:36.81</time>
      </trkpt>
      <trkpt lat="43.65788" lon="3.80467">
        <ele>186.5</ele>
        <time>2013-05-30T13:03:37.85</time>
      </trkpt>
      <trkpt lat="43.65793" lon="3.8047">
        <ele>186.5</ele>
        <time>2013-05-30T13:03:39.81</time>
      </trkpt>
      <trkpt lat="43.65797" lon="3.80473">
        <ele>185.5</ele>
        <time>2013-05-30T13:03:40.82</time>
      </trkpt>
      <trkpt lat="43.658" lon="3.80475">
        <ele>185.5</ele>
        <time>2013-05-30T13:03:41.81</time>
      </trkpt>
      <trkpt lat="43.65806" lon="3.80476">
        <ele>186.5</ele>
        <time>2013-05-30T13:03:43.80</time>
      </trkpt>
      <trkpt lat="43.65812" lon="3.80477">
        <ele>186.5</ele>
        <time>2013-05-30T13:03:44.81</time>
      </trkpt>
      <trkpt lat="43.65815" lon="3.80476">
        <ele>188</ele>
        <time>2013-05-30T13:03:46.81</time>
      </trkpt>
      <trkpt lat="43.65818" lon="3.80478">
        <ele>188</ele>
        <time>2013-05-30T13:03:47.81</time>
      </trkpt>
      <trkpt lat="43.65821" lon="3.80479">
        <ele>187</ele>
        <time>2013-05-30T13:03:48.80</time>
      </trkpt>
      <trkpt lat="43.65823" lon="3.80481">
        <ele>188</ele>
        <time>2013-05-30T13:03:49.80</time>
      </trkpt>
      <trkpt lat="43.65826" lon="3.80482">
        <ele>188</ele>
        <time>2013-05-30T13:03:50.81</time>
      </trkpt>
      <trkpt lat="43.65829" lon="3.80484">
        <ele>189.5</ele>
        <time>2013-05-30T13:03:51.82</time>
      </trkpt>
      <trkpt lat="43.65833" lon="3.80487">
        <ele>188.5</ele>
        <time>2013-05-30T13:03:52.81</time>
      </trkpt>
      <trkpt lat="43.65836" lon="3.80492">
        <ele>188.5</ele>
        <time>2013-05-30T13:03:53.81</time>
      </trkpt>
      <trkpt lat="43.65841" lon="3.80495">
        <ele>188.5</ele>
        <time>2013-05-30T13:03:54.81</time>
      </trkpt>
      <trkpt lat="43.65848" lon="3.80497">
        <ele>188.5</ele>
        <time>2013-05-30T13:03:56.82</time>
      </trkpt>
      <trkpt lat="43.65875" lon="3.8051">
        <ele>190.5</ele>
        <time>2013-05-30T13:04:00.82</time>
      </trkpt>
      <trkpt lat="43.65878" lon="3.80513">
        <ele>192.5</ele>
        <time>2013-05-30T13:04:01.80</time>
      </trkpt>
      <trkpt lat="43.65882" lon="3.80516">
        <ele>192</ele>
        <time>2013-05-30T13:04:02.80</time>
      </trkpt>
      <trkpt lat="43.65886" lon="3.80518">
        <ele>192</ele>
        <time>2013-05-30T13:04:03.80</time>
      </trkpt>
      <trkpt lat="43.65888" lon="3.80524">
        <ele>192.5</ele>
        <time>2013-05-30T13:04:05.81</time>
      </trkpt>
      <trkpt lat="43.65889" lon="3.80526">
        <ele>192</ele>
        <time>2013-05-30T13:04:06.81</time>
      </trkpt>
      <trkpt lat="43.6589" lon="3.80526">
        <ele>191.5</ele>
        <time>2013-05-30T13:04:07.81</time>
      </trkpt>
      <trkpt lat="43.65893" lon="3.80527">
        <ele>191.5</ele>
        <time>2013-05-30T13:04:08.80</time>
      </trkpt>
      <trkpt lat="43.65896" lon="3.80527">
        <ele>189.5</ele>
        <time>2013-05-30T13:04:09.80</time>
      </trkpt>
      <trkpt lat="43.659" lon="3.80529">
        <ele>189.5</ele>
        <time>2013-05-30T13:04:10.81</time>
      </trkpt>
      <trkpt lat="43.65904" lon="3.80531">
        <ele>190</ele>
        <time>2013-05-30T13:04:11.81</time>
      </trkpt>
      <trkpt lat="43.65915" lon="3.80532">
        <ele>194</ele>
        <time>2013-05-30T13:04:13.81</time>
      </trkpt>
      <trkpt lat="43.65918" lon="3.80534">
        <ele>194</ele>
        <time>2013-05-30T13:04:14.82</time>
      </trkpt>
      <trkpt lat="43.6592" lon="3.80536">
        <ele>193.5</ele>
        <time>2013-05-30T13:04:15.80</time>
      </trkpt>
      <trkpt lat="43.6593" lon="3.80542">
        <ele>198</ele>
        <time>2013-05-30T13:04:17.80</time>
      </trkpt>
      <trkpt lat="43.65933" lon="3.80545">
        <ele>199</ele>
        <time>2013-05-30T13:04:18.87</time>
      </trkpt>
      <trkpt lat="43.65937" lon="3.80548">
        <ele>199.5</ele>
        <time>2013-05-30T13:04:19.80</time>
      </trkpt>
      <trkpt lat="43.6594" lon="3.8055">
        <ele>200</ele>
        <time>2013-05-30T13:04:20.81</time>
      </trkpt>
      <trkpt lat="43.65942" lon="3.80552">
        <ele>201</ele>
        <time>2013-05-30T13:04:21.80</time>
      </trkpt>
      <trkpt lat="43.65945" lon="3.80555">
        <ele>201</ele>
        <time>2013-05-30T13:04:22.81</time>
      </trkpt>
      <trkpt lat="43.65945" lon="3.80559">
        <ele>201.5</ele>
        <time>2013-05-30T13:04:23.81</time>
      </trkpt>
      <trkpt lat="43.65944" lon="3.80563">
        <ele>201.5</ele>
        <time>2013-05-30T13:04:24.81</time>
      </trkpt>
      <trkpt lat="43.65942" lon="3.80565">
        <ele>201</ele>
        <time>2013-05-30T13:04:25.81</time>
      </trkpt>
      <trkpt lat="43.6594" lon="3.80568">
        <ele>201</ele>
        <time>2013-05-30T13:04:26.80</time>
      </trkpt>
      <trkpt lat="43.65938" lon="3.80571">
        <ele>200</ele>
        <time>2013-05-30T13:04:27.80</time>
      </trkpt>
      <trkpt lat="43.65937" lon="3.80573">
        <ele>199.5</ele>
        <time>2013-05-30T13:04:28.81</time>
      </trkpt>
      <trkpt lat="43.65937" lon="3.80576">
        <ele>200</ele>
        <time>2013-05-30T13:04:29.80</time>
      </trkpt>
      <trkpt lat="43.6595" lon="3.8058">
        <ele>200</ele>
        <time>2013-05-30T13:04:32.82</time>
      </trkpt>
      <trkpt lat="43.65951" lon="3.80581">
        <ele>198.5</ele>
        <time>2013-05-30T13:04:33.81</time>
      </trkpt>
      <trkpt lat="43.65953" lon="3.80584">
        <ele>198</ele>
        <time>2013-05-30T13:04:34.81</time>
      </trkpt>
      <trkpt lat="43.65953" lon="3.80588">
        <ele>196.5</ele>
        <time>2013-05-30T13:04:35.81</time>
      </trkpt>
      <trkpt lat="43.65952" lon="3.80592">
        <ele>195</ele>
        <time>2013-05-30T13:04:36.83</time>
      </trkpt>
      <trkpt lat="43.65949" lon="3.80597">
        <ele>193</ele>
        <time>2013-05-30T13:04:37.81</time>
      </trkpt>
      <trkpt lat="43.65946" lon="3.80601">
        <ele>191</ele>
        <time>2013-05-30T13:04:38.81</time>
      </trkpt>
      <trkpt lat="43.65946" lon="3.80606">
        <ele>191</ele>
        <time>2013-05-30T13:04:39.81</time>
      </trkpt>
      <trkpt lat="43.65945" lon="3.8061">
        <ele>191</ele>
        <time>2013-05-30T13:04:40.80</time>
      </trkpt>
      <trkpt lat="43.65942" lon="3.80613">
        <ele>190</ele>
        <time>2013-05-30T13:04:41.81</time>
      </trkpt>
      <trkpt lat="43.6594" lon="3.80617">
        <ele>188</ele>
        <time>2013-05-30T13:04:42.81</time>
      </trkpt>
      <trkpt lat="43.65937" lon="3.80621">
        <ele>186.5</ele>
        <time>2013-05-30T13:04:43.80</time>
      </trkpt>
      <trkpt lat="43.65933" lon="3.80624">
        <ele>186.5</ele>
        <time>2013-05-30T13:04:44.81</time>
      </trkpt>
      <trkpt lat="43.65923" lon="3.80626">
        <ele>185</ele>
        <time>2013-05-30T13:04:46.81</time>
      </trkpt>
      <trkpt lat="43.65918" lon="3.80629">
        <ele>184</ele>
        <time>2013-05-30T13:04:47.81</time>
      </trkpt>
      <trkpt lat="43.65914" lon="3.80632">
        <ele>182.5</ele>
        <time>2013-05-30T13:04:48.81</time>
      </trkpt>
      <trkpt lat="43.65911" lon="3.80639">
        <ele>181.5</ele>
        <time>2013-05-30T13:04:49.81</time>
      </trkpt>
      <trkpt lat="43.65911" lon="3.80645">
        <ele>181</ele>
        <time>2013-05-30T13:04:50.81</time>
      </trkpt>
      <trkpt lat="43.65912" lon="3.80651">
        <ele>178.5</ele>
        <time>2013-05-30T13:04:51.81</time>
      </trkpt>
      <trkpt lat="43.65924" lon="3.8066">
        <ele>175</ele>
        <time>2013-05-30T13:04:53.81</time>
      </trkpt>
      <trkpt lat="43.65928" lon="3.80665">
        <ele>174</ele>
        <time>2013-05-30T13:04:54.81</time>
      </trkpt>
      <trkpt lat="43.65931" lon="3.8067">
        <ele>171</ele>
        <time>2013-05-30T13:04:55.88</time>
      </trkpt>
      <trkpt lat="43.65934" lon="3.80676">
        <ele>169.5</ele>
        <time>2013-05-30T13:04:56.81</time>
      </trkpt>
      <trkpt lat="43.65939" lon="3.80682">
        <ele>167.5</ele>
        <time>2013-05-30T13:04:57.81</time>
      </trkpt>
      <trkpt lat="43.65942" lon="3.80689">
        <ele>166.5</ele>
        <time>2013-05-30T13:04:58.82</time>
      </trkpt>
      <trkpt lat="43.65943" lon="3.80698">
        <ele>165</ele>
        <time>2013-05-30T13:04:59.82</time>
      </trkpt>
      <trkpt lat="43.65943" lon="3.80705">
        <ele>163.5</ele>
        <time>2013-05-30T13:05:00.81</time>
      </trkpt>
      <trkpt lat="43.65939" lon="3.80713">
        <ele>163</ele>
        <time>2013-05-30T13:05:01.82</time>
      </trkpt>
      <trkpt lat="43.65934" lon="3.80721">
        <ele>162.5</ele>
        <time>2013-05-30T13:05:02.81</time>
      </trkpt>
      <trkpt lat="43.65928" lon="3.80729">
        <ele>162</ele>
        <time>2013-05-30T13:05:03.80</time>
      </trkpt>
      <trkpt lat="43.65924" lon="3.80738">
        <ele>162</ele>
        <time>2013-05-30T13:05:04.83</time>
      </trkpt>
      <trkpt lat="43.65919" lon="3.80746">
        <ele>161.5</ele>
        <time>2013-05-30T13:05:05.80</time>
      </trkpt>
      <trkpt lat="43.65915" lon="3.80754">
        <ele>161</ele>
        <time>2013-05-30T13:05:06.81</time>
      </trkpt>
      <trkpt lat="43.6591" lon="3.80762">
        <ele>160.5</ele>
        <time>2013-05-30T13:05:07.81</time>
      </trkpt>
      <trkpt lat="43.65907" lon="3.80768">
        <ele>159.5</ele>
        <time>2013-05-30T13:05:08.81</time>
      </trkpt>
      <trkpt lat="43.65903" lon="3.80769">
        <ele>159</ele>
        <time>2013-05-30T13:05:09.81</time>
      </trkpt>
      <trkpt lat="43.65898" lon="3.80768">
        <ele>159.5</ele>
        <time>2013-05-30T13:05:10.81</time>
      </trkpt>
      <trkpt lat="43.65894" lon="3.80767">
        <ele>158.5</ele>
        <time>2013-05-30T13:05:11.80</time>
      </trkpt>
      <trkpt lat="43.65889" lon="3.80765">
        <ele>157.5</ele>
        <time>2013-05-30T13:05:12.86</time>
      </trkpt>
      <trkpt lat="43.65884" lon="3.80764">
        <ele>156.5</ele>
        <time>2013-05-30T13:05:13.81</time>
      </trkpt>
      <trkpt lat="43.65878" lon="3.80763">
        <ele>155.5</ele>
        <time>2013-05-30T13:05:14.81</time>
      </trkpt>
      <trkpt lat="43.65874" lon="3.80761">
        <ele>155</ele>
        <time>2013-05-30T13:05:15.81</time>
      </trkpt>
      <trkpt lat="43.65868" lon="3.8076">
        <ele>154</ele>
        <time>2013-05-30T13:05:16.80</time>
      </trkpt>
      <trkpt lat="43.65863" lon="3.80759">
        <ele>154</ele>
        <time>2013-05-30T13:05:17.81</time>
      </trkpt>
      <trkpt lat="43.65858" lon="3.80756">
        <ele>153.5</ele>
        <time>2013-05-30T13:05:18.81</time>
      </trkpt>
      <trkpt lat="43.65854" lon="3.80753">
        <ele>152.5</ele>
        <time>2013-05-30T13:05:19.80</time>
      </trkpt>
      <trkpt lat="43.6585" lon="3.80749">
        <ele>152</ele>
        <time>2013-05-30T13:05:20.80</time>
      </trkpt>
      <trkpt lat="43.65844" lon="3.80748">
        <ele>150.5</ele>
        <time>2013-05-30T13:05:21.81</time>
      </trkpt>
      <trkpt lat="43.65838" lon="3.80744">
        <ele>149</ele>
        <time>2013-05-30T13:05:22.80</time>
      </trkpt>
      <trkpt lat="43.65833" lon="3.80742">
        <ele>148.5</ele>
        <time>2013-05-30T13:05:23.81</time>
      </trkpt>
      <trkpt lat="43.65828" lon="3.80739">
        <ele>148</ele>
        <time>2013-05-30T13:05:24.80</time>
      </trkpt>
      <trkpt lat="43.65822" lon="3.80736">
        <ele>147.5</ele>
        <time>2013-05-30T13:05:25.81</time>
      </trkpt>
      <trkpt lat="43.65817" lon="3.80732">
        <ele>147.5</ele>
        <time>2013-05-30T13:05:26.81</time>
      </trkpt>
      <trkpt lat="43.65812" lon="3.80728">
        <ele>147</ele>
        <time>2013-05-30T13:05:27.81</time>
      </trkpt>
      <trkpt lat="43.65807" lon="3.80725">
        <ele>146.5</ele>
        <time>2013-05-30T13:05:28.80</time>
      </trkpt>
      <trkpt lat="43.65802" lon="3.80723">
        <ele>146.5</ele>
        <time>2013-05-30T13:05:29.80</time>
      </trkpt>
      <trkpt lat="43.65796" lon="3.80721">
        <ele>146</ele>
        <time>2013-05-30T13:05:30.81</time>
      </trkpt>
      <trkpt lat="43.6579" lon="3.8072">
        <ele>146.5</ele>
        <time>2013-05-30T13:05:31.80</time>
      </trkpt>
      <trkpt lat="43.65785" lon="3.80721">
        <ele>147.5</ele>
        <time>2013-05-30T13:05:32.81</time>
      </trkpt>
      <trkpt lat="43.6578" lon="3.80723">
        <ele>147.5</ele>
        <time>2013-05-30T13:05:33.81</time>
      </trkpt>
      <trkpt lat="43.65774" lon="3.80724">
        <ele>148</ele>
        <time>2013-05-30T13:05:34.81</time>
      </trkpt>
      <trkpt lat="43.65769" lon="3.80724">
        <ele>148.5</ele>
        <time>2013-05-30T13:05:35.90</time>
      </trkpt>
      <trkpt lat="43.65763" lon="3.80722">
        <ele>148.5</ele>
        <time>2013-05-30T13:05:36.82</time>
      </trkpt>
      <trkpt lat="43.6576" lon="3.80718">
        <ele>149</ele>
        <time>2013-05-30T13:05:37.80</time>
      </trkpt>
      <trkpt lat="43.65749" lon="3.80719">
        <ele>150</ele>
        <time>2013-05-30T13:05:39.81</time>
      </trkpt>
      <trkpt lat="43.65745" lon="3.80717">
        <ele>150.5</ele>
        <time>2013-05-30T13:05:40.80</time>
      </trkpt>
      <trkpt lat="43.6574" lon="3.80715">
        <ele>150</ele>
        <time>2013-05-30T13:05:41.81</time>
      </trkpt>
      <trkpt lat="43.65736" lon="3.80712">
        <ele>150</ele>
        <time>2013-05-30T13:05:42.80</time>
      </trkpt>
      <trkpt lat="43.65731" lon="3.8071">
        <ele>150</ele>
        <time>2013-05-30T13:05:43.80</time>
      </trkpt>
      <trkpt lat="43.65726" lon="3.80707">
        <ele>149.5</ele>
        <time>2013-05-30T13:05:44.80</time>
      </trkpt>
      <trkpt lat="43.65722" lon="3.80703">
        <ele>149.5</ele>
        <time>2013-05-30T13:05:45.89</time>
      </trkpt>
      <trkpt lat="43.65717" lon="3.80699">
        <ele>151</ele>
        <time>2013-05-30T13:05:46.81</time>
      </trkpt>
      <trkpt lat="43.65712" lon="3.80696">
        <ele>148.5</ele>
        <time>2013-05-30T13:05:47.80</time>
      </trkpt>
      <trkpt lat="43.65706" lon="3.80697">
        <ele>148.5</ele>
        <time>2013-05-30T13:05:48.81</time>
      </trkpt>
      <trkpt lat="43.65701" lon="3.80697">
        <ele>148</ele>
        <time>2013-05-30T13:05:49.80</time>
      </trkpt>
      <trkpt lat="43.65696" lon="3.80698">
        <ele>148</ele>
        <time>2013-05-30T13:05:50.81</time>
      </trkpt>
      <trkpt lat="43.6569" lon="3.80701">
        <ele>148.5</ele>
        <time>2013-05-30T13:05:51.81</time>
      </trkpt>
      <trkpt lat="43.65684" lon="3.80704">
        <ele>148</ele>
        <time>2013-05-30T13:05:52.81</time>
      </trkpt>
      <trkpt lat="43.65678" lon="3.80707">
        <ele>147.5</ele>
        <time>2013-05-30T13:05:53.81</time>
      </trkpt>
      <trkpt lat="43.65671" lon="3.8071">
        <ele>146</ele>
        <time>2013-05-30T13:05:54.80</time>
      </trkpt>
      <trkpt lat="43.65664" lon="3.80713">
        <ele>144.5</ele>
        <time>2013-05-30T13:05:55.87</time>
      </trkpt>
      <trkpt lat="43.65657" lon="3.80716">
        <ele>144</ele>
        <time>2013-05-30T13:05:56.80</time>
      </trkpt>
      <trkpt lat="43.6565" lon="3.8072">
        <ele>143</ele>
        <time>2013-05-30T13:05:57.80</time>
      </trkpt>
      <trkpt lat="43.65643" lon="3.80724">
        <ele>142.5</ele>
        <time>2013-05-30T13:05:58.81</time>
      </trkpt>
      <trkpt lat="43.65636" lon="3.80729">
        <ele>141.5</ele>
        <time>2013-05-30T13:05:59.81</time>
      </trkpt>
      <trkpt lat="43.65628" lon="3.80735">
        <ele>141</ele>
        <time>2013-05-30T13:06:00.81</time>
      </trkpt>
      <trkpt lat="43.65621" lon="3.8074">
        <ele>140</ele>
        <time>2013-05-30T13:06:01.80</time>
      </trkpt>
      <trkpt lat="43.65614" lon="3.80746">
        <ele>139</ele>
        <time>2013-05-30T13:06:02.80</time>
      </trkpt>
      <trkpt lat="43.65608" lon="3.80752">
        <ele>138</ele>
        <time>2013-05-30T13:06:03.80</time>
      </trkpt>
      <trkpt lat="43.65601" lon="3.80759">
        <ele>137</ele>
        <time>2013-05-30T13:06:04.80</time>
      </trkpt>
      <trkpt lat="43.65594" lon="3.80767">
        <ele>136.5</ele>
        <time>2013-05-30T13:06:05.80</time>
      </trkpt>
      <trkpt lat="43.65587" lon="3.80774">
        <ele>136</ele>
        <time>2013-05-30T13:06:06.80</time>
      </trkpt>
      <trkpt lat="43.6558" lon="3.80781">
        <ele>135</ele>
        <time>2013-05-30T13:06:07.80</time>
      </trkpt>
      <trkpt lat="43.65574" lon="3.80787">
        <ele>134</ele>
        <time>2013-05-30T13:06:08.80</time>
      </trkpt>
      <trkpt lat="43.65567" lon="3.8079">
        <ele>133</ele>
        <time>2013-05-30T13:06:09.81</time>
      </trkpt>
      <trkpt lat="43.6556" lon="3.80789">
        <ele>132</ele>
        <time>2013-05-30T13:06:10.80</time>
      </trkpt>
      <trkpt lat="43.65552" lon="3.8079">
        <ele>133</ele>
        <time>2013-05-30T13:06:11.81</time>
      </trkpt>
      <trkpt lat="43.65546" lon="3.80787">
        <ele>133.5</ele>
        <time>2013-05-30T13:06:12.81</time>
      </trkpt>
      <trkpt lat="43.65539" lon="3.80785">
        <ele>134</ele>
        <time>2013-05-30T13:06:13.80</time>
      </trkpt>
      <trkpt lat="43.65533" lon="3.80782">
        <ele>135</ele>
        <time>2013-05-30T13:06:14.81</time>
      </trkpt>
      <trkpt lat="43.65527" lon="3.8078">
        <ele>136</ele>
        <time>2013-05-30T13:06:15.86</time>
      </trkpt>
      <trkpt lat="43.65522" lon="3.80778">
        <ele>136.5</ele>
        <time>2013-05-30T13:06:16.80</time>
      </trkpt>
      <trkpt lat="43.65517" lon="3.80777">
        <ele>137</ele>
        <time>2013-05-30T13:06:17.80</time>
      </trkpt>
      <trkpt lat="43.65512" lon="3.80777">
        <ele>136.5</ele>
        <time>2013-05-30T13:06:18.80</time>
      </trkpt>
      <trkpt lat="43.65505" lon="3.80777">
        <ele>136</ele>
        <time>2013-05-30T13:06:19.80</time>
      </trkpt>
      <trkpt lat="43.65499" lon="3.80777">
        <ele>136</ele>
        <time>2013-05-30T13:06:20.80</time>
      </trkpt>
      <trkpt lat="43.65492" lon="3.80775">
        <ele>136.5</ele>
        <time>2013-05-30T13:06:21.87</time>
      </trkpt>
      <trkpt lat="43.65478" lon="3.80768">
        <ele>136.5</ele>
        <time>2013-05-30T13:06:23.80</time>
      </trkpt>
      <trkpt lat="43.65471" lon="3.80765">
        <ele>136.5</ele>
        <time>2013-05-30T13:06:24.80</time>
      </trkpt>
      <trkpt lat="43.65465" lon="3.80762">
        <ele>136</ele>
        <time>2013-05-30T13:06:25.80</time>
      </trkpt>
      <trkpt lat="43.65458" lon="3.8076">
        <ele>136.5</ele>
        <time>2013-05-30T13:06:26.80</time>
      </trkpt>
      <trkpt lat="43.65452" lon="3.80759">
        <ele>134.5</ele>
        <time>2013-05-30T13:06:27.80</time>
      </trkpt>
      <trkpt lat="43.65446" lon="3.80761">
        <ele>135</ele>
        <time>2013-05-30T13:06:28.81</time>
      </trkpt>
      <trkpt lat="43.65439" lon="3.80761">
        <ele>135</ele>
        <time>2013-05-30T13:06:29.80</time>
      </trkpt>
      <trkpt lat="43.65433" lon="3.8076">
        <ele>135</ele>
        <time>2013-05-30T13:06:30.80</time>
      </trkpt>
      <trkpt lat="43.65427" lon="3.80759">
        <ele>135.5</ele>
        <time>2013-05-30T13:06:31.80</time>
      </trkpt>
      <trkpt lat="43.65422" lon="3.80758">
        <ele>135.5</ele>
        <time>2013-05-30T13:06:32.80</time>
      </trkpt>
      <trkpt lat="43.65417" lon="3.80758">
        <ele>135.5</ele>
        <time>2013-05-30T13:06:33.81</time>
      </trkpt>
      <trkpt lat="43.65412" lon="3.80756">
        <ele>135.5</ele>
        <time>2013-05-30T13:06:34.80</time>
      </trkpt>
      <trkpt lat="43.65407" lon="3.80754">
        <ele>135</ele>
        <time>2013-05-30T13:06:35.81</time>
      </trkpt>
      <trkpt lat="43.65401" lon="3.80752">
        <ele>135</ele>
        <time>2013-05-30T13:06:36.80</time>
      </trkpt>
      <trkpt lat="43.65396" lon="3.8075">
        <ele>135</ele>
        <time>2013-05-30T13:06:37.81</time>
      </trkpt>
      <trkpt lat="43.6539" lon="3.80748">
        <ele>135</ele>
        <time>2013-05-30T13:06:38.81</time>
      </trkpt>
      <trkpt lat="43.65385" lon="3.80746">
        <ele>135</ele>
        <time>2013-05-30T13:06:39.80</time>
      </trkpt>
      <trkpt lat="43.65379" lon="3.80744">
        <ele>135</ele>
        <time>2013-05-30T13:06:40.80</time>
      </trkpt>
      <trkpt lat="43.65373" lon="3.80742">
        <ele>135</ele>
        <time>2013-05-30T13:06:41.81</time>
      </trkpt>
      <trkpt lat="43.65367" lon="3.8074">
        <ele>135</ele>
        <time>2013-05-30T13:06:42.81</time>
      </trkpt>
      <trkpt lat="43.65361" lon="3.80739">
        <ele>135.5</ele>
        <time>2013-05-30T13:06:43.80</time>
      </trkpt>
      <trkpt lat="43.65356" lon="3.80737">
        <ele>135.5</ele>
        <time>2013-05-30T13:06:44.80</time>
      </trkpt>
      <trkpt lat="43.65351" lon="3.80736">
        <ele>135</ele>
        <time>2013-05-30T13:06:45.81</time>
      </trkpt>
      <trkpt lat="43.65345" lon="3.80738">
        <ele>135.5</ele>
        <time>2013-05-30T13:06:46.81</time>
      </trkpt>
      <trkpt lat="43.65341" lon="3.80743">
        <ele>134.5</ele>
        <time>2013-05-30T13:06:47.81</time>
      </trkpt>
      <trkpt lat="43.65335" lon="3.80755">
        <ele>135.5</ele>
        <time>2013-05-30T13:06:49.81</time>
      </trkpt>
      <trkpt lat="43.65332" lon="3.80766">
        <ele>136.5</ele>
        <time>2013-05-30T13:06:50.81</time>
      </trkpt>
      <trkpt lat="43.65329" lon="3.80774">
        <ele>136</ele>
        <time>2013-05-30T13:06:51.80</time>
      </trkpt>
      <trkpt lat="43.65326" lon="3.80781">
        <ele>134.5</ele>
        <time>2013-05-30T13:06:52.80</time>
      </trkpt>
      <trkpt lat="43.65323" lon="3.80788">
        <ele>133.5</ele>
        <time>2013-05-30T13:06:53.80</time>
      </trkpt>
      <trkpt lat="43.6532" lon="3.80795">
        <ele>132.5</ele>
        <time>2013-05-30T13:06:54.80</time>
      </trkpt>
      <trkpt lat="43.65316" lon="3.80802">
        <ele>132</ele>
        <time>2013-05-30T13:06:55.80</time>
      </trkpt>
      <trkpt lat="43.65312" lon="3.80809">
        <ele>131</ele>
        <time>2013-05-30T13:06:56.80</time>
      </trkpt>
      <trkpt lat="43.65308" lon="3.80817">
        <ele>129.5</ele>
        <time>2013-05-30T13:06:57.81</time>
      </trkpt>
      <trkpt lat="43.65305" lon="3.80825">
        <ele>129</ele>
        <time>2013-05-30T13:06:58.80</time>
      </trkpt>
      <trkpt lat="43.65301" lon="3.80834">
        <ele>128.5</ele>
        <time>2013-05-30T13:06:59.80</time>
      </trkpt>
      <trkpt lat="43.65295" lon="3.8084">
        <ele>127.5</ele>
        <time>2013-05-30T13:07:00.81</time>
      </trkpt>
      <trkpt lat="43.6529" lon="3.80847">
        <ele>127</ele>
        <time>2013-05-30T13:07:01.80</time>
      </trkpt>
      <trkpt lat="43.65286" lon="3.80855">
        <ele>127</ele>
        <time>2013-05-30T13:07:02.80</time>
      </trkpt>
      <trkpt lat="43.65282" lon="3.80863">
        <ele>126.5</ele>
        <time>2013-05-30T13:07:03.81</time>
      </trkpt>
      <trkpt lat="43.65278" lon="3.80871">
        <ele>126.5</ele>
        <time>2013-05-30T13:07:04.80</time>
      </trkpt>
      <trkpt lat="43.65274" lon="3.80879">
        <ele>126</ele>
        <time>2013-05-30T13:07:05.80</time>
      </trkpt>
      <trkpt lat="43.6527" lon="3.80887">
        <ele>126</ele>
        <time>2013-05-30T13:07:06.80</time>
      </trkpt>
      <trkpt lat="43.65266" lon="3.80895">
        <ele>125.5</ele>
        <time>2013-05-30T13:07:07.80</time>
      </trkpt>
      <trkpt lat="43.65262" lon="3.80903">
        <ele>125.5</ele>
        <time>2013-05-30T13:07:08.80</time>
      </trkpt>
      <trkpt lat="43.65259" lon="3.8091">
        <ele>125</ele>
        <time>2013-05-30T13:07:09.81</time>
      </trkpt>
      <trkpt lat="43.65256" lon="3.80916">
        <ele>125</ele>
        <time>2013-05-30T13:07:10.80</time>
      </trkpt>
      <trkpt lat="43.65254" lon="3.80922">
        <ele>125</ele>
        <time>2013-05-30T13:07:11.80</time>
      </trkpt>
      <trkpt lat="43.65252" lon="3.80926">
        <ele>125</ele>
        <time>2013-05-30T13:07:12.81</time>
      </trkpt>
      <trkpt lat="43.65251" lon="3.80928">
        <ele>125</ele>
        <time>2013-05-30T13:07:13.80</time>
      </trkpt>
      <trkpt lat="43.65249" lon="3.80932">
        <ele>125</ele>
        <time>2013-05-30T13:07:14.81</time>
      </trkpt>
      <trkpt lat="43.65248" lon="3.80937">
        <ele>125</ele>
        <time>2013-05-30T13:07:15.80</time>
      </trkpt>
      <trkpt lat="43.65248" lon="3.80942">
        <ele>125</ele>
        <time>2013-05-30T13:07:16.84</time>
      </trkpt>
      <trkpt lat="43.65247" lon="3.80947">
        <ele>125</ele>
        <time>2013-05-30T13:07:17.81</time>
      </trkpt>
      <trkpt lat="43.65246" lon="3.80953">
        <ele>125</ele>
        <time>2013-05-30T13:07:18.80</time>
      </trkpt>
      <trkpt lat="43.65244" lon="3.80959">
        <ele>125</ele>
        <time>2013-05-30T13:07:19.81</time>
      </trkpt>
      <trkpt lat="43.65243" lon="3.80965">
        <ele>124.5</ele>
        <time>2013-05-30T13:07:21.55</time>
      </trkpt>
      <trkpt lat="43.65238" lon="3.80977">
        <ele>125</ele>
        <time>2013-05-30T13:07:22.81</time>
      </trkpt>
      <trkpt lat="43.65235" lon="3.80983">
        <ele>125</ele>
        <time>2013-05-30T13:07:23.80</time>
      </trkpt>
      <trkpt lat="43.65232" lon="3.8099">
        <ele>125</ele>
        <time>2013-05-30T13:07:24.80</time>
      </trkpt>
      <trkpt lat="43.65229" lon="3.80996">
        <ele>124.5</ele>
        <time>2013-05-30T13:07:25.80</time>
      </trkpt>
      <trkpt lat="43.65225" lon="3.81002">
        <ele>125</ele>
        <time>2013-05-30T13:07:26.93</time>
      </trkpt>
      <trkpt lat="43.65222" lon="3.81008">
        <ele>125</ele>
        <time>2013-05-30T13:07:28.16</time>
      </trkpt>
      <trkpt lat="43.65218" lon="3.81014">
        <ele>125</ele>
        <time>2013-05-30T13:07:28.77</time>
      </trkpt>
      <trkpt lat="43.65215" lon="3.81021">
        <ele>125</ele>
        <time>2013-05-30T13:07:29.77</time>
      </trkpt>
      <trkpt lat="43.65211" lon="3.81027">
        <ele>125</ele>
        <time>2013-05-30T13:07:30.77</time>
      </trkpt>
      <trkpt lat="43.65207" lon="3.81033">
        <ele>125</ele>
        <time>2013-05-30T13:07:31.77</time>
      </trkpt>
      <trkpt lat="43.65203" lon="3.81038">
        <ele>125</ele>
        <time>2013-05-30T13:07:32.78</time>
      </trkpt>
      <trkpt lat="43.65199" lon="3.81044">
        <ele>125</ele>
        <time>2013-05-30T13:07:33.77</time>
      </trkpt>
      <trkpt lat="43.65194" lon="3.8105">
        <ele>125</ele>
        <time>2013-05-30T13:07:34.77</time>
      </trkpt>
      <trkpt lat="43.6519" lon="3.81055">
        <ele>125</ele>
        <time>2013-05-30T13:07:35.76</time>
      </trkpt>
      <trkpt lat="43.65185" lon="3.81061">
        <ele>125</ele>
        <time>2013-05-30T13:07:36.77</time>
      </trkpt>
      <trkpt lat="43.65182" lon="3.81067">
        <ele>124.5</ele>
        <time>2013-05-30T13:07:37.77</time>
      </trkpt>
      <trkpt lat="43.65178" lon="3.81073">
        <ele>124.5</ele>
        <time>2013-05-30T13:07:38.76</time>
      </trkpt>
      <trkpt lat="43.65175" lon="3.8108">
        <ele>125</ele>
        <time>2013-05-30T13:07:39.77</time>
      </trkpt>
      <trkpt lat="43.65173" lon="3.81086">
        <ele>125.5</ele>
        <time>2013-05-30T13:08:09.83</time>
      </trkpt>
      <trkpt lat="43.6517" lon="3.81092">
        <ele>126.5</ele>
        <time>2013-05-30T13:08:10.81</time>
      </trkpt>
      <trkpt lat="43.65168" lon="3.81097">
        <ele>127</ele>
        <time>2013-05-30T13:08:11.82</time>
      </trkpt>
      <trkpt lat="43.65167" lon="3.81102">
        <ele>128</ele>
        <time>2013-05-30T13:08:12.83</time>
      </trkpt>
      <trkpt lat="43.65166" lon="3.81107">
        <ele>128</ele>
        <time>2013-05-30T13:08:13.82</time>
      </trkpt>
      <trkpt lat="43.65165" lon="3.81112">
        <ele>128.5</ele>
        <time>2013-05-30T13:08:14.82</time>
      </trkpt>
      <trkpt lat="43.65164" lon="3.81117">
        <ele>129</ele>
        <time>2013-05-30T13:08:15.81</time>
      </trkpt>
      <trkpt lat="43.65163" lon="3.81121">
        <ele>129</ele>
        <time>2013-05-30T13:08:16.82</time>
      </trkpt>
      <trkpt lat="43.65163" lon="3.81126">
        <ele>129</ele>
        <time>2013-05-30T13:08:17.82</time>
      </trkpt>
      <trkpt lat="43.65161" lon="3.8113">
        <ele>129</ele>
        <time>2013-05-30T13:08:18.82</time>
      </trkpt>
      <trkpt lat="43.6516" lon="3.81134">
        <ele>129.5</ele>
        <time>2013-05-30T13:08:19.81</time>
      </trkpt>
      <trkpt lat="43.65159" lon="3.81138">
        <ele>129.5</ele>
        <time>2013-05-30T13:08:20.82</time>
      </trkpt>
      <trkpt lat="43.65158" lon="3.81142">
        <ele>129.5</ele>
        <time>2013-05-30T13:08:22.37</time>
      </trkpt>
      <trkpt lat="43.65156" lon="3.81146">
        <ele>129.5</ele>
        <time>2013-05-30T13:08:23.22</time>
      </trkpt>
      <trkpt lat="43.65155" lon="3.8115">
        <ele>129.5</ele>
        <time>2013-05-30T13:08:24.22</time>
      </trkpt>
      <trkpt lat="43.65153" lon="3.81154">
        <ele>129.5</ele>
        <time>2013-05-30T13:08:25.22</time>
      </trkpt>
      <trkpt lat="43.65151" lon="3.81158">
        <ele>129.5</ele>
        <time>2013-05-30T13:08:26.22</time>
      </trkpt>
      <trkpt lat="43.6515" lon="3.81162">
        <ele>129</ele>
        <time>2013-05-30T13:08:27.22</time>
      </trkpt>
      <trkpt lat="43.65148" lon="3.81167">
        <ele>128.5</ele>
        <time>2013-05-30T13:08:28.23</time>
      </trkpt>
      <trkpt lat="43.65146" lon="3.81172">
        <ele>128</ele>
        <time>2013-05-30T13:08:29.22</time>
      </trkpt>
      <trkpt lat="43.65143" lon="3.81178">
        <ele>128</ele>
        <time>2013-05-30T13:08:30.22</time>
      </trkpt>
      <trkpt lat="43.65141" lon="3.81185">
        <ele>127.5</ele>
        <time>2013-05-30T13:08:31.22</time>
      </trkpt>
      <trkpt lat="43.65139" lon="3.81191">
        <ele>127.5</ele>
        <time>2013-05-30T13:08:32.22</time>
      </trkpt>
      <trkpt lat="43.65137" lon="3.81196">
        <ele>127</ele>
        <time>2013-05-30T13:08:33.22</time>
      </trkpt>
      <trkpt lat="43.65137" lon="3.81201">
        <ele>127</ele>
        <time>2013-05-30T13:08:34.22</time>
      </trkpt>
      <trkpt lat="43.65136" lon="3.81205">
        <ele>126.5</ele>
        <time>2013-05-30T13:08:35.27</time>
      </trkpt>
      <trkpt lat="43.65135" lon="3.81209">
        <ele>127</ele>
        <time>2013-05-30T13:08:36.22</time>
      </trkpt>
      <trkpt lat="43.65134" lon="3.81212">
        <ele>126.5</ele>
        <time>2013-05-30T13:08:37.22</time>
      </trkpt>
      <trkpt lat="43.65133" lon="3.81215">
        <ele>126.5</ele>
        <time>2013-05-30T13:08:38.22</time>
      </trkpt>
      <trkpt lat="43.65131" lon="3.81219">
        <ele>126.5</ele>
        <time>2013-05-30T13:08:39.23</time>
      </trkpt>
      <trkpt lat="43.65129" lon="3.81223">
        <ele>125.5</ele>
        <time>2013-05-30T13:08:40.22</time>
      </trkpt>
      <trkpt lat="43.65127" lon="3.81229">
        <ele>125</ele>
        <time>2013-05-30T13:08:41.24</time>
      </trkpt>
      <trkpt lat="43.65125" lon="3.81234">
        <ele>124</ele>
        <time>2013-05-30T13:08:42.23</time>
      </trkpt>
      <trkpt lat="43.65123" lon="3.81241">
        <ele>123</ele>
        <time>2013-05-30T13:08:43.22</time>
      </trkpt>
      <trkpt lat="43.6512" lon="3.81247">
        <ele>122</ele>
        <time>2013-05-30T13:08:44.24</time>
      </trkpt>
      <trkpt lat="43.65117" lon="3.81252">
        <ele>121.5</ele>
        <time>2013-05-30T13:08:45.23</time>
      </trkpt>
      <trkpt lat="43.65115" lon="3.81257">
        <ele>121</ele>
        <time>2013-05-30T13:08:46.22</time>
      </trkpt>
      <trkpt lat="43.65113" lon="3.81261">
        <ele>120.5</ele>
        <time>2013-05-30T13:08:47.22</time>
      </trkpt>
      <trkpt lat="43.65112" lon="3.81264">
        <ele>120.5</ele>
        <time>2013-05-30T13:08:48.23</time>
      </trkpt>
      <trkpt lat="43.6511" lon="3.81267">
        <ele>120.5</ele>
        <time>2013-05-30T13:08:49.23</time>
      </trkpt>
      <trkpt lat="43.65108" lon="3.81269">
        <ele>120.5</ele>
        <time>2013-05-30T13:08:50.22</time>
      </trkpt>
      <trkpt lat="43.65105" lon="3.8127">
        <ele>120.5</ele>
        <time>2013-05-30T13:08:51.22</time>
      </trkpt>
      <trkpt lat="43.65102" lon="3.81272">
        <ele>119.5</ele>
        <time>2013-05-30T13:08:52.23</time>
      </trkpt>
      <trkpt lat="43.651" lon="3.81273">
        <ele>119.5</ele>
        <time>2013-05-30T13:08:53.22</time>
      </trkpt>
      <trkpt lat="43.65097" lon="3.81276">
        <ele>119.5</ele>
        <time>2013-05-30T13:08:54.38</time>
      </trkpt>
      <trkpt lat="43.65094" lon="3.8128">
        <ele>118</ele>
        <time>2013-05-30T13:08:55.23</time>
      </trkpt>
      <trkpt lat="43.65091" lon="3.81286">
        <ele>117.5</ele>
        <time>2013-05-30T13:08:56.23</time>
      </trkpt>
      <trkpt lat="43.65088" lon="3.81291">
        <ele>116.5</ele>
        <time>2013-05-30T13:08:57.22</time>
      </trkpt>
      <trkpt lat="43.65084" lon="3.81298">
        <ele>115.5</ele>
        <time>2013-05-30T13:08:58.23</time>
      </trkpt>
      <trkpt lat="43.65079" lon="3.81304">
        <ele>115</ele>
        <time>2013-05-30T13:08:59.23</time>
      </trkpt>
      <trkpt lat="43.65076" lon="3.8131">
        <ele>115.5</ele>
        <time>2013-05-30T13:09:00.23</time>
      </trkpt>
      <trkpt lat="43.65071" lon="3.81316">
        <ele>115.5</ele>
        <time>2013-05-30T13:09:01.23</time>
      </trkpt>
      <trkpt lat="43.65065" lon="3.81324">
        <ele>114.5</ele>
        <time>2013-05-30T13:09:02.23</time>
      </trkpt>
      <trkpt lat="43.65059" lon="3.81332">
        <ele>113</ele>
        <time>2013-05-30T13:09:03.22</time>
      </trkpt>
      <trkpt lat="43.65055" lon="3.81339">
        <ele>113</ele>
        <time>2013-05-30T13:09:04.23</time>
      </trkpt>
      <trkpt lat="43.65051" lon="3.81346">
        <ele>112.5</ele>
        <time>2013-05-30T13:09:05.22</time>
      </trkpt>
      <trkpt lat="43.65048" lon="3.81354">
        <ele>112</ele>
        <time>2013-05-30T13:09:06.22</time>
      </trkpt>
      <trkpt lat="43.65046" lon="3.81361">
        <ele>111.5</ele>
        <time>2013-05-30T13:09:07.22</time>
      </trkpt>
      <trkpt lat="43.65043" lon="3.81367">
        <ele>111</ele>
        <time>2013-05-30T13:09:08.23</time>
      </trkpt>
      <trkpt lat="43.65041" lon="3.81373">
        <ele>111</ele>
        <time>2013-05-30T13:09:09.30</time>
      </trkpt>
      <trkpt lat="43.65039" lon="3.81379">
        <ele>111.5</ele>
        <time>2013-05-30T13:09:10.22</time>
      </trkpt>
      <trkpt lat="43.65037" lon="3.81385">
        <ele>111.5</ele>
        <time>2013-05-30T13:09:11.22</time>
      </trkpt>
      <trkpt lat="43.65035" lon="3.81391">
        <ele>112</ele>
        <time>2013-05-30T13:09:12.23</time>
      </trkpt>
      <trkpt lat="43.65033" lon="3.81396">
        <ele>112.5</ele>
        <time>2013-05-30T13:09:13.23</time>
      </trkpt>
      <trkpt lat="43.65031" lon="3.81401">
        <ele>113</ele>
        <time>2013-05-30T13:09:14.22</time>
      </trkpt>
      <trkpt lat="43.6503" lon="3.81405">
        <ele>113.5</ele>
        <time>2013-05-30T13:09:15.23</time>
      </trkpt>
      <trkpt lat="43.65027" lon="3.8141">
        <ele>114</ele>
        <time>2013-05-30T13:09:16.22</time>
      </trkpt>
      <trkpt lat="43.65026" lon="3.81414">
        <ele>115</ele>
        <time>2013-05-30T13:09:17.29</time>
      </trkpt>
      <trkpt lat="43.65024" lon="3.81418">
        <ele>115</ele>
        <time>2013-05-30T13:09:18.22</time>
      </trkpt>
      <trkpt lat="43.65021" lon="3.81423">
        <ele>115.5</ele>
        <time>2013-05-30T13:09:19.22</time>
      </trkpt>
      <trkpt lat="43.65019" lon="3.81427">
        <ele>115.5</ele>
        <time>2013-05-30T13:09:20.22</time>
      </trkpt>
      <trkpt lat="43.65017" lon="3.81431">
        <ele>116</ele>
        <time>2013-05-30T13:09:21.22</time>
      </trkpt>
      <trkpt lat="43.65015" lon="3.81435">
        <ele>116.5</ele>
        <time>2013-05-30T13:09:22.22</time>
      </trkpt>
      <trkpt lat="43.65013" lon="3.8144">
        <ele>117</ele>
        <time>2013-05-30T13:09:23.22</time>
      </trkpt>
      <trkpt lat="43.65012" lon="3.81443">
        <ele>117.5</ele>
        <time>2013-05-30T13:09:24.22</time>
      </trkpt>
      <trkpt lat="43.65011" lon="3.81447">
        <ele>118</ele>
        <time>2013-05-30T13:09:25.22</time>
      </trkpt>
      <trkpt lat="43.65011" lon="3.81451">
        <ele>118</ele>
        <time>2013-05-30T13:09:26.23</time>
      </trkpt>
      <trkpt lat="43.65011" lon="3.81454">
        <ele>118</ele>
        <time>2013-05-30T13:09:27.22</time>
      </trkpt>
      <trkpt lat="43.65013" lon="3.81457">
        <ele>118</ele>
        <time>2013-05-30T13:09:28.23</time>
      </trkpt>
      <trkpt lat="43.65016" lon="3.81459">
        <ele>118</ele>
        <time>2013-05-30T13:09:29.23</time>
      </trkpt>
      <trkpt lat="43.65017" lon="3.81462">
        <ele>117</ele>
        <time>2013-05-30T13:09:30.23</time>
      </trkpt>
      <trkpt lat="43.65019" lon="3.81464">
        <ele>117</ele>
        <time>2013-05-30T13:09:31.23</time>
      </trkpt>
      <trkpt lat="43.65022" lon="3.81466">
        <ele>117.5</ele>
        <time>2013-05-30T13:09:32.23</time>
      </trkpt>
      <trkpt lat="43.65024" lon="3.81468">
        <ele>117.5</ele>
        <time>2013-05-30T13:09:33.23</time>
      </trkpt>
      <trkpt lat="43.65027" lon="3.8147">
        <ele>117.5</ele>
        <time>2013-05-30T13:09:34.23</time>
      </trkpt>
      <trkpt lat="43.65029" lon="3.81472">
        <ele>117.5</ele>
        <time>2013-05-30T13:09:35.22</time>
      </trkpt>
      <trkpt lat="43.65032" lon="3.81473">
        <ele>117.5</ele>
        <time>2013-05-30T13:09:36.22</time>
      </trkpt>
      <trkpt lat="43.65034" lon="3.81475">
        <ele>117.5</ele>
        <time>2013-05-30T13:09:37.22</time>
      </trkpt>
      <trkpt lat="43.65037" lon="3.81477">
        <ele>118</ele>
        <time>2013-05-30T13:09:38.23</time>
      </trkpt>
      <trkpt lat="43.6504" lon="3.81478">
        <ele>118</ele>
        <time>2013-05-30T13:09:39.23</time>
      </trkpt>
      <trkpt lat="43.65042" lon="3.8148">
        <ele>118</ele>
        <time>2013-05-30T13:09:40.22</time>
      </trkpt>
      <trkpt lat="43.65045" lon="3.81481">
        <ele>118</ele>
        <time>2013-05-30T13:09:41.22</time>
      </trkpt>
      <trkpt lat="43.65048" lon="3.81482">
        <ele>118.5</ele>
        <time>2013-05-30T13:09:42.22</time>
      </trkpt>
      <trkpt lat="43.65051" lon="3.81483">
        <ele>119</ele>
        <time>2013-05-30T13:09:43.22</time>
      </trkpt>
      <trkpt lat="43.65053" lon="3.81484">
        <ele>119.5</ele>
        <time>2013-05-30T13:09:44.23</time>
      </trkpt>
      <trkpt lat="43.65056" lon="3.81485">
        <ele>119.5</ele>
        <time>2013-05-30T13:09:45.22</time>
      </trkpt>
      <trkpt lat="43.65059" lon="3.81486">
        <ele>119.5</ele>
        <time>2013-05-30T13:09:46.23</time>
      </trkpt>
      <trkpt lat="43.65062" lon="3.81486">
        <ele>120.5</ele>
        <time>2013-05-30T13:09:47.23</time>
      </trkpt>
      <trkpt lat="43.65065" lon="3.81486">
        <ele>121</ele>
        <time>2013-05-30T13:09:48.23</time>
      </trkpt>
      <trkpt lat="43.65067" lon="3.81488">
        <ele>121</ele>
        <time>2013-05-30T13:09:49.23</time>
      </trkpt>
      <trkpt lat="43.6507" lon="3.81489">
        <ele>121.5</ele>
        <time>2013-05-30T13:09:50.23</time>
      </trkpt>
      <trkpt lat="43.65072" lon="3.8149">
        <ele>121.5</ele>
        <time>2013-05-30T13:09:51.23</time>
      </trkpt>
      <trkpt lat="43.65075" lon="3.8149">
        <ele>121.5</ele>
        <time>2013-05-30T13:09:52.22</time>
      </trkpt>
      <trkpt lat="43.65077" lon="3.81491">
        <ele>122</ele>
        <time>2013-05-30T13:09:53.22</time>
      </trkpt>
      <trkpt lat="43.65076" lon="3.81495">
        <ele>121.5</ele>
        <time>2013-05-30T13:09:54.23</time>
      </trkpt>
      <trkpt lat="43.65077" lon="3.815">
        <ele>122</ele>
        <time>2013-05-30T13:09:55.23</time>
      </trkpt>
      <trkpt lat="43.65076" lon="3.81504">
        <ele>123</ele>
        <time>2013-05-30T13:09:56.23</time>
      </trkpt>
      <trkpt lat="43.65074" lon="3.81506">
        <ele>124</ele>
        <time>2013-05-30T13:09:57.23</time>
      </trkpt>
      <trkpt lat="43.65074" lon="3.81508">
        <ele>124.5</ele>
        <time>2013-05-30T13:09:58.23</time>
      </trkpt>
      <trkpt lat="43.65073" lon="3.8151">
        <ele>125</ele>
        <time>2013-05-30T13:09:59.22</time>
      </trkpt>
      <trkpt lat="43.65072" lon="3.81512">
        <ele>125</ele>
        <time>2013-05-30T13:10:00.23</time>
      </trkpt>
      <trkpt lat="43.65071" lon="3.81514">
        <ele>125.5</ele>
        <time>2013-05-30T13:10:01.22</time>
      </trkpt>
      <trkpt lat="43.65069" lon="3.81515">
        <ele>125.5</ele>
        <time>2013-05-30T13:10:02.22</time>
      </trkpt>
      <trkpt lat="43.65068" lon="3.81516">
        <ele>125.5</ele>
        <time>2013-05-30T13:10:03.22</time>
      </trkpt>
      <trkpt lat="43.65069" lon="3.81518">
        <ele>126</ele>
        <time>2013-05-30T13:10:04.23</time>
      </trkpt>
      <trkpt lat="43.65069" lon="3.8152">
        <ele>126</ele>
        <time>2013-05-30T13:10:05.22</time>
      </trkpt>
      <trkpt lat="43.65071" lon="3.81522">
        <ele>126.5</ele>
        <time>2013-05-30T13:10:06.22</time>
      </trkpt>
      <trkpt lat="43.65074" lon="3.81523">
        <ele>126.5</ele>
        <time>2013-05-30T13:10:07.22</time>
      </trkpt>
      <trkpt lat="43.65076" lon="3.81524">
        <ele>127</ele>
        <time>2013-05-30T13:10:08.23</time>
      </trkpt>
      <trkpt lat="43.65078" lon="3.81525">
        <ele>126.5</ele>
        <time>2013-05-30T13:10:09.22</time>
      </trkpt>
      <trkpt lat="43.6508" lon="3.81527">
        <ele>126</ele>
        <time>2013-05-30T13:10:10.23</time>
      </trkpt>
      <trkpt lat="43.65082" lon="3.81528">
        <ele>126</ele>
        <time>2013-05-30T13:10:11.22</time>
      </trkpt>
      <trkpt lat="43.65084" lon="3.81529">
        <ele>126</ele>
        <time>2013-05-30T13:10:12.22</time>
      </trkpt>
      <trkpt lat="43.65086" lon="3.81531">
        <ele>127</ele>
        <time>2013-05-30T13:10:13.31</time>
      </trkpt>
      <trkpt lat="43.65088" lon="3.81532">
        <ele>127.5</ele>
        <time>2013-05-30T13:10:14.22</time>
      </trkpt>
      <trkpt lat="43.65089" lon="3.81534">
        <ele>127</ele>
        <time>2013-05-30T13:10:15.22</time>
      </trkpt>
      <trkpt lat="43.65091" lon="3.81535">
        <ele>128</ele>
        <time>2013-05-30T13:10:16.22</time>
      </trkpt>
      <trkpt lat="43.65092" lon="3.81537">
        <ele>127.5</ele>
        <time>2013-05-30T13:10:17.22</time>
      </trkpt>
      <trkpt lat="43.65094" lon="3.81538">
        <ele>128.5</ele>
        <time>2013-05-30T13:10:18.23</time>
      </trkpt>
      <trkpt lat="43.65096" lon="3.81539">
        <ele>129</ele>
        <time>2013-05-30T13:10:19.22</time>
      </trkpt>
      <trkpt lat="43.65098" lon="3.8154">
        <ele>129.5</ele>
        <time>2013-05-30T13:10:20.22</time>
      </trkpt>
      <trkpt lat="43.65099" lon="3.81541">
        <ele>129.5</ele>
        <time>2013-05-30T13:10:21.23</time>
      </trkpt>
      <trkpt lat="43.65101" lon="3.81542">
        <ele>129</ele>
        <time>2013-05-30T13:10:22.23</time>
      </trkpt>
      <trkpt lat="43.65103" lon="3.81542">
        <ele>129</ele>
        <time>2013-05-30T13:10:23.23</time>
      </trkpt>
      <trkpt lat="43.65105" lon="3.81542">
        <ele>129.5</ele>
        <time>2013-05-30T13:10:24.23</time>
      </trkpt>
      <trkpt lat="43.65107" lon="3.81543">
        <ele>129.5</ele>
        <time>2013-05-30T13:10:25.22</time>
      </trkpt>
      <trkpt lat="43.65109" lon="3.81544">
        <ele>130.5</ele>
        <time>2013-05-30T13:10:26.23</time>
      </trkpt>
      <trkpt lat="43.65111" lon="3.81545">
        <ele>131.5</ele>
        <time>2013-05-30T13:10:27.22</time>
      </trkpt>
      <trkpt lat="43.65113" lon="3.81546">
        <ele>131.5</ele>
        <time>2013-05-30T13:10:28.22</time>
      </trkpt>
      <trkpt lat="43.65115" lon="3.81546">
        <ele>131</ele>
        <time>2013-05-30T13:10:29.22</time>
      </trkpt>
      <trkpt lat="43.65116" lon="3.81546">
        <ele>131</ele>
        <time>2013-05-30T13:10:30.22</time>
      </trkpt>
      <trkpt lat="43.65119" lon="3.81549">
        <ele>131</ele>
        <time>2013-05-30T13:10:31.22</time>
      </trkpt>
      <trkpt lat="43.65119" lon="3.81546">
        <ele>132.5</ele>
        <time>2013-05-30T13:10:32.23</time>
      </trkpt>
      <trkpt lat="43.6512" lon="3.81547">
        <ele>133</ele>
        <time>2013-05-30T13:10:33.22</time>
      </trkpt>
      <trkpt lat="43.65121" lon="3.81547">
        <ele>133</ele>
        <time>2013-05-30T13:10:34.23</time>
      </trkpt>
      <trkpt lat="43.65123" lon="3.81549">
        <ele>133</ele>
        <time>2013-05-30T13:10:35.22</time>
      </trkpt>
      <trkpt lat="43.65125" lon="3.8155">
        <ele>133</ele>
        <time>2013-05-30T13:10:36.23</time>
      </trkpt>
      <trkpt lat="43.65127" lon="3.8155">
        <ele>133.5</ele>
        <time>2013-05-30T13:10:37.22</time>
      </trkpt>
      <trkpt lat="43.65129" lon="3.81551">
        <ele>133.5</ele>
        <time>2013-05-30T13:10:38.27</time>
      </trkpt>
      <trkpt lat="43.65131" lon="3.81552">
        <ele>133</ele>
        <time>2013-05-30T13:10:39.22</time>
      </trkpt>
      <trkpt lat="43.65132" lon="3.81552">
        <ele>133.5</ele>
        <time>2013-05-30T13:10:40.22</time>
      </trkpt>
      <trkpt lat="43.65134" lon="3.81552">
        <ele>134</ele>
        <time>2013-05-30T13:10:41.22</time>
      </trkpt>
      <trkpt lat="43.65135" lon="3.81552">
        <ele>135</ele>
        <time>2013-05-30T13:10:42.22</time>
      </trkpt>
      <trkpt lat="43.65138" lon="3.81553">
        <ele>136.5</ele>
        <time>2013-05-30T13:10:43.22</time>
      </trkpt>
      <trkpt lat="43.65139" lon="3.81555">
        <ele>137.5</ele>
        <time>2013-05-30T13:10:44.23</time>
      </trkpt>
      <trkpt lat="43.65141" lon="3.81556">
        <ele>138</ele>
        <time>2013-05-30T13:10:45.23</time>
      </trkpt>
      <trkpt lat="43.65143" lon="3.81557">
        <ele>138.5</ele>
        <time>2013-05-30T13:10:46.22</time>
      </trkpt>
      <trkpt lat="43.65145" lon="3.81558">
        <ele>138.5</ele>
        <time>2013-05-30T13:10:47.22</time>
      </trkpt>
      <trkpt lat="43.65148" lon="3.81559">
        <ele>140</ele>
        <time>2013-05-30T13:10:48.22</time>
      </trkpt>
      <trkpt lat="43.65151" lon="3.8156">
        <ele>141.5</ele>
        <time>2013-05-30T13:10:49.23</time>
      </trkpt>
      <trkpt lat="43.65154" lon="3.81561">
        <ele>142.5</ele>
        <time>2013-05-30T13:10:50.23</time>
      </trkpt>
      <trkpt lat="43.65157" lon="3.81562">
        <ele>142.5</ele>
        <time>2013-05-30T13:10:51.23</time>
      </trkpt>
      <trkpt lat="43.6516" lon="3.81566">
        <ele>139.5</ele>
        <time>2013-05-30T13:10:53.22</time>
      </trkpt>
      <trkpt lat="43.65162" lon="3.81567">
        <ele>139.5</ele>
        <time>2013-05-30T13:10:54.22</time>
      </trkpt>
      <trkpt lat="43.65165" lon="3.81568">
        <ele>140.5</ele>
        <time>2013-05-30T13:10:55.22</time>
      </trkpt>
      <trkpt lat="43.65166" lon="3.81568">
        <ele>141</ele>
        <time>2013-05-30T13:10:56.23</time>
      </trkpt>
      <trkpt lat="43.65172" lon="3.81573">
        <ele>140.5</ele>
        <time>2013-05-30T13:10:58.23</time>
      </trkpt>
      <trkpt lat="43.65176" lon="3.81574">
        <ele>142</ele>
        <time>2013-05-30T13:10:59.23</time>
      </trkpt>
      <trkpt lat="43.65178" lon="3.81576">
        <ele>142</ele>
        <time>2013-05-30T13:11:00.23</time>
      </trkpt>
      <trkpt lat="43.6518" lon="3.81577">
        <ele>143.5</ele>
        <time>2013-05-30T13:11:01.23</time>
      </trkpt>
      <trkpt lat="43.65183" lon="3.8158">
        <ele>144</ele>
        <time>2013-05-30T13:11:02.22</time>
      </trkpt>
      <trkpt lat="43.65187" lon="3.81582">
        <ele>144</ele>
        <time>2013-05-30T13:11:03.22</time>
      </trkpt>
      <trkpt lat="43.65196" lon="3.8158">
        <ele>144.5</ele>
        <time>2013-05-30T13:11:05.23</time>
      </trkpt>
      <trkpt lat="43.65197" lon="3.81577">
        <ele>144</ele>
        <time>2013-05-30T13:11:06.25</time>
      </trkpt>
      <trkpt lat="43.65206" lon="3.81579">
        <ele>145</ele>
        <time>2013-05-30T13:11:08.23</time>
      </trkpt>
      <trkpt lat="43.65209" lon="3.81581">
        <ele>146.5</ele>
        <time>2013-05-30T13:11:09.23</time>
      </trkpt>
      <trkpt lat="43.65222" lon="3.81585">
        <ele>146</ele>
        <time>2013-05-30T13:11:11.22</time>
      </trkpt>
      <trkpt lat="43.65233" lon="3.81591">
        <ele>146</ele>
        <time>2013-05-30T13:11:13.22</time>
      </trkpt>
      <trkpt lat="43.65235" lon="3.81595">
        <ele>146.5</ele>
        <time>2013-05-30T13:11:14.23</time>
      </trkpt>
      <trkpt lat="43.65239" lon="3.81599">
        <ele>149</ele>
        <time>2013-05-30T13:11:16.23</time>
      </trkpt>
      <trkpt lat="43.6524" lon="3.816">
        <ele>149.5</ele>
        <time>2013-05-30T13:11:17.23</time>
      </trkpt>
      <trkpt lat="43.65238" lon="3.81599">
        <ele>148.5</ele>
        <time>2013-05-30T13:11:18.23</time>
      </trkpt>
      <trkpt lat="43.65238" lon="3.81599">
        <ele>148.5</ele>
        <time>2013-05-30T13:11:19.22</time>
      </trkpt>
      <trkpt lat="43.65237" lon="3.81601">
        <ele>149.5</ele>
        <time>2013-05-30T13:11:21.25</time>
      </trkpt>
      <trkpt lat="43.6524" lon="3.81604">
        <ele>149.5</ele>
        <time>2013-05-30T13:11:22.22</time>
      </trkpt>
      <trkpt lat="43.65242" lon="3.81609">
        <ele>149.5</ele>
        <time>2013-05-30T13:11:23.22</time>
      </trkpt>
      <trkpt lat="43.65247" lon="3.8162">
        <ele>149.5</ele>
        <time>2013-05-30T13:11:25.22</time>
      </trkpt>
      <trkpt lat="43.65249" lon="3.81625">
        <ele>150.5</ele>
        <time>2013-05-30T13:11:26.22</time>
      </trkpt>
      <trkpt lat="43.65253" lon="3.81629">
        <ele>150.5</ele>
        <time>2013-05-30T13:11:27.22</time>
      </trkpt>
      <trkpt lat="43.65257" lon="3.81632">
        <ele>151</ele>
        <time>2013-05-30T13:11:28.23</time>
      </trkpt>
      <trkpt lat="43.65264" lon="3.81643">
        <ele>149.5</ele>
        <time>2013-05-30T13:11:30.23</time>
      </trkpt>
      <trkpt lat="43.65265" lon="3.81644">
        <ele>150.5</ele>
        <time>2013-05-30T13:11:31.23</time>
      </trkpt>
      <trkpt lat="43.65265" lon="3.81645">
        <ele>150.5</ele>
        <time>2013-05-30T13:11:32.23</time>
      </trkpt>
      <trkpt lat="43.65263" lon="3.81651">
        <ele>147</ele>
        <time>2013-05-30T13:11:33.23</time>
      </trkpt>
      <trkpt lat="43.65262" lon="3.81652">
        <ele>145</ele>
        <time>2013-05-30T13:11:34.22</time>
      </trkpt>
      <trkpt lat="43.65263" lon="3.81653">
        <ele>145</ele>
        <time>2013-05-30T13:11:35.23</time>
      </trkpt>
      <trkpt lat="43.65264" lon="3.81655">
        <ele>145.5</ele>
        <time>2013-05-30T13:11:36.22</time>
      </trkpt>
      <trkpt lat="43.65264" lon="3.81655">
        <ele>146</ele>
        <time>2013-05-30T13:11:37.23</time>
      </trkpt>
      <trkpt lat="43.65264" lon="3.81657">
        <ele>143.5</ele>
        <time>2013-05-30T13:11:38.22</time>
      </trkpt>
      <trkpt lat="43.65263" lon="3.81658">
        <ele>143</ele>
        <time>2013-05-30T13:11:39.22</time>
      </trkpt>
      <trkpt lat="43.65264" lon="3.81658">
        <ele>141</ele>
        <time>2013-05-30T13:11:40.21</time>
      </trkpt>
      <trkpt lat="43.65264" lon="3.81659">
        <ele>140.5</ele>
        <time>2013-05-30T13:11:41.21</time>
      </trkpt>
      <trkpt lat="43.65263" lon="3.81659">
        <ele>140.5</ele>
        <time>2013-05-30T13:11:42.22</time>
      </trkpt>
      <trkpt lat="43.65262" lon="3.81659">
        <ele>140</ele>
        <time>2013-05-30T13:11:43.22</time>
      </trkpt>
      <trkpt lat="43.65264" lon="3.81659">
        <ele>140</ele>
        <time>2013-05-30T13:11:44.22</time>
      </trkpt>
      <trkpt lat="43.65265" lon="3.8166">
        <ele>139.5</ele>
        <time>2013-05-30T13:11:45.21</time>
      </trkpt>
      <trkpt lat="43.65265" lon="3.81661">
        <ele>139.5</ele>
        <time>2013-05-30T13:11:46.22</time>
      </trkpt>
      <trkpt lat="43.65267" lon="3.81663">
        <ele>139.5</ele>
        <time>2013-05-30T13:11:47.22</time>
      </trkpt>
      <trkpt lat="43.65267" lon="3.81664">
        <ele>140</ele>
        <time>2013-05-30T13:11:48.21</time>
      </trkpt>
      <trkpt lat="43.65269" lon="3.81666">
        <ele>141</ele>
        <time>2013-05-30T13:11:49.22</time>
      </trkpt>
      <trkpt lat="43.6527" lon="3.81667">
        <ele>140.5</ele>
        <time>2013-05-30T13:11:50.21</time>
      </trkpt>
      <trkpt lat="43.65273" lon="3.81671">
        <ele>139</ele>
        <time>2013-05-30T13:11:51.21</time>
      </trkpt>
      <trkpt lat="43.65274" lon="3.81675">
        <ele>137</ele>
        <time>2013-05-30T13:11:52.21</time>
      </trkpt>
      <trkpt lat="43.65276" lon="3.81677">
        <ele>138</ele>
        <time>2013-05-30T13:11:53.22</time>
      </trkpt>
      <trkpt lat="43.65276" lon="3.8168">
        <ele>137.5</ele>
        <time>2013-05-30T13:11:54.22</time>
      </trkpt>
      <trkpt lat="43.65283" lon="3.81687">
        <ele>138</ele>
        <time>2013-05-30T13:11:56.22</time>
      </trkpt>
      <trkpt lat="43.65288" lon="3.8169">
        <ele>136</ele>
        <time>2013-05-30T13:11:58.21</time>
      </trkpt>
      <trkpt lat="43.65292" lon="3.81692">
        <ele>136</ele>
        <time>2013-05-30T13:11:59.22</time>
      </trkpt>
      <trkpt lat="43.65298" lon="3.81698">
        <ele>135.5</ele>
        <time>2013-05-30T13:12:01.21</time>
      </trkpt>
      <trkpt lat="43.65301" lon="3.81701">
        <ele>136</ele>
        <time>2013-05-30T13:12:02.21</time>
      </trkpt>
      <trkpt lat="43.65305" lon="3.81704">
        <ele>136</ele>
        <time>2013-05-30T13:12:03.21</time>
      </trkpt>
      <trkpt lat="43.65309" lon="3.81707">
        <ele>135</ele>
        <time>2013-05-30T13:12:04.22</time>
      </trkpt>
      <trkpt lat="43.65311" lon="3.8171">
        <ele>134.5</ele>
        <time>2013-05-30T13:12:05.21</time>
      </trkpt>
      <trkpt lat="43.65313" lon="3.81715">
        <ele>135</ele>
        <time>2013-05-30T13:12:06.21</time>
      </trkpt>
      <trkpt lat="43.65315" lon="3.81719">
        <ele>134.5</ele>
        <time>2013-05-30T13:12:07.20</time>
      </trkpt>
      <trkpt lat="43.65323" lon="3.81725">
        <ele>135.5</ele>
        <time>2013-05-30T13:12:09.21</time>
      </trkpt>
      <trkpt lat="43.65326" lon="3.81728">
        <ele>134</ele>
        <time>2013-05-30T13:12:10.22</time>
      </trkpt>
      <trkpt lat="43.65328" lon="3.8173">
        <ele>133.5</ele>
        <time>2013-05-30T13:12:11.21</time>
      </trkpt>
      <trkpt lat="43.6533" lon="3.81731">
        <ele>132.5</ele>
        <time>2013-05-30T13:12:12.21</time>
      </trkpt>
      <trkpt lat="43.65334" lon="3.81733">
        <ele>132.5</ele>
        <time>2013-05-30T13:12:13.22</time>
      </trkpt>
      <trkpt lat="43.65337" lon="3.81734">
        <ele>131</ele>
        <time>2013-05-30T13:12:14.21</time>
      </trkpt>
      <trkpt lat="43.65341" lon="3.81736">
        <ele>129.5</ele>
        <time>2013-05-30T13:12:15.23</time>
      </trkpt>
      <trkpt lat="43.65345" lon="3.8174">
        <ele>130</ele>
        <time>2013-05-30T13:12:16.21</time>
      </trkpt>
      <trkpt lat="43.65349" lon="3.81744">
        <ele>131</ele>
        <time>2013-05-30T13:12:17.22</time>
      </trkpt>
      <trkpt lat="43.65352" lon="3.81749">
        <ele>132</ele>
        <time>2013-05-30T13:12:18.22</time>
      </trkpt>
      <trkpt lat="43.65354" lon="3.81754">
        <ele>133</ele>
        <time>2013-05-30T13:12:19.21</time>
      </trkpt>
      <trkpt lat="43.65358" lon="3.81759">
        <ele>133.5</ele>
        <time>2013-05-30T13:12:20.22</time>
      </trkpt>
      <trkpt lat="43.65364" lon="3.81769">
        <ele>137</ele>
        <time>2013-05-30T13:12:22.21</time>
      </trkpt>
      <trkpt lat="43.65367" lon="3.81773">
        <ele>138.5</ele>
        <time>2013-05-30T13:12:23.21</time>
      </trkpt>
      <trkpt lat="43.65368" lon="3.81779">
        <ele>139.5</ele>
        <time>2013-05-30T13:12:24.22</time>
      </trkpt>
      <trkpt lat="43.6537" lon="3.81784">
        <ele>140</ele>
        <time>2013-05-30T13:12:25.22</time>
      </trkpt>
      <trkpt lat="43.65372" lon="3.81789">
        <ele>139.5</ele>
        <time>2013-05-30T13:12:26.21</time>
      </trkpt>
      <trkpt lat="43.65373" lon="3.81793">
        <ele>139.5</ele>
        <time>2013-05-30T13:12:27.21</time>
      </trkpt>
      <trkpt lat="43.65376" lon="3.81798">
        <ele>141</ele>
        <time>2013-05-30T13:12:28.21</time>
      </trkpt>
      <trkpt lat="43.65378" lon="3.81801">
        <ele>141.5</ele>
        <time>2013-05-30T13:12:29.21</time>
      </trkpt>
      <trkpt lat="43.6538" lon="3.81805">
        <ele>141.5</ele>
        <time>2013-05-30T13:12:30.20</time>
      </trkpt>
      <trkpt lat="43.65381" lon="3.81809">
        <ele>140.5</ele>
        <time>2013-05-30T13:12:31.21</time>
      </trkpt>
      <trkpt lat="43.65379" lon="3.81811">
        <ele>140.5</ele>
        <time>2013-05-30T13:12:32.22</time>
      </trkpt>
      <trkpt lat="43.65377" lon="3.81814">
        <ele>140.5</ele>
        <time>2013-05-30T13:12:33.21</time>
      </trkpt>
      <trkpt lat="43.65378" lon="3.81818">
        <ele>140</ele>
        <time>2013-05-30T13:12:34.22</time>
      </trkpt>
      <trkpt lat="43.65379" lon="3.81822">
        <ele>140</ele>
        <time>2013-05-30T13:12:35.21</time>
      </trkpt>
      <trkpt lat="43.65394" lon="3.81832">
        <ele>140.5</ele>
        <time>2013-05-30T13:12:38.21</time>
      </trkpt>
      <trkpt lat="43.65394" lon="3.81834">
        <ele>140</ele>
        <time>2013-05-30T13:12:39.22</time>
      </trkpt>
      <trkpt lat="43.65399" lon="3.81839">
        <ele>139</ele>
        <time>2013-05-30T13:12:41.21</time>
      </trkpt>
      <trkpt lat="43.65401" lon="3.81841">
        <ele>137.5</ele>
        <time>2013-05-30T13:12:43.21</time>
      </trkpt>
      <trkpt lat="43.65401" lon="3.8184">
        <ele>136.5</ele>
        <time>2013-05-30T13:12:44.21</time>
      </trkpt>
      <trkpt lat="43.65402" lon="3.8184">
        <ele>135</ele>
        <time>2013-05-30T13:12:45.20</time>
      </trkpt>
      <trkpt lat="43.65403" lon="3.8184">
        <ele>135</ele>
        <time>2013-05-30T13:12:46.21</time>
      </trkpt>
      <trkpt lat="43.65404" lon="3.81841">
        <ele>135</ele>
        <time>2013-05-30T13:12:47.22</time>
      </trkpt>
      <trkpt lat="43.65404" lon="3.81843">
        <ele>136.5</ele>
        <time>2013-05-30T13:12:48.29</time>
      </trkpt>
      <trkpt lat="43.65404" lon="3.81846">
        <ele>136.5</ele>
        <time>2013-05-30T13:12:49.21</time>
      </trkpt>
      <trkpt lat="43.65404" lon="3.81851">
        <ele>136.5</ele>
        <time>2013-05-30T13:12:50.21</time>
      </trkpt>
      <trkpt lat="43.65404" lon="3.81855">
        <ele>136.5</ele>
        <time>2013-05-30T13:12:51.21</time>
      </trkpt>
      <trkpt lat="43.65405" lon="3.81859">
        <ele>137</ele>
        <time>2013-05-30T13:12:52.21</time>
      </trkpt>
      <trkpt lat="43.65406" lon="3.81864">
        <ele>137</ele>
        <time>2013-05-30T13:12:53.22</time>
      </trkpt>
      <trkpt lat="43.65406" lon="3.81869">
        <ele>137</ele>
        <time>2013-05-30T13:12:54.20</time>
      </trkpt>
      <trkpt lat="43.65407" lon="3.81873">
        <ele>137.5</ele>
        <time>2013-05-30T13:12:55.22</time>
      </trkpt>
      <trkpt lat="43.65408" lon="3.81878">
        <ele>137.5</ele>
        <time>2013-05-30T13:12:56.21</time>
      </trkpt>
      <trkpt lat="43.6541" lon="3.81883">
        <ele>138</ele>
        <time>2013-05-30T13:12:57.20</time>
      </trkpt>
      <trkpt lat="43.65411" lon="3.81888">
        <ele>138</ele>
        <time>2013-05-30T13:12:58.21</time>
      </trkpt>
      <trkpt lat="43.65411" lon="3.81893">
        <ele>137.5</ele>
        <time>2013-05-30T13:12:59.21</time>
      </trkpt>
      <trkpt lat="43.65412" lon="3.81898">
        <ele>137.5</ele>
        <time>2013-05-30T13:13:00.20</time>
      </trkpt>
      <trkpt lat="43.65413" lon="3.81904">
        <ele>137.5</ele>
        <time>2013-05-30T13:13:01.21</time>
      </trkpt>
      <trkpt lat="43.65415" lon="3.81909">
        <ele>137.5</ele>
        <time>2013-05-30T13:13:02.20</time>
      </trkpt>
      <trkpt lat="43.65416" lon="3.81915">
        <ele>137</ele>
        <time>2013-05-30T13:13:03.22</time>
      </trkpt>
      <trkpt lat="43.65418" lon="3.81921">
        <ele>136.5</ele>
        <time>2013-05-30T13:13:04.20</time>
      </trkpt>
      <trkpt lat="43.6542" lon="3.81927">
        <ele>136</ele>
        <time>2013-05-30T13:13:05.21</time>
      </trkpt>
      <trkpt lat="43.65423" lon="3.81932">
        <ele>135.5</ele>
        <time>2013-05-30T13:13:06.21</time>
      </trkpt>
      <trkpt lat="43.65425" lon="3.81937">
        <ele>136</ele>
        <time>2013-05-30T13:13:07.21</time>
      </trkpt>
      <trkpt lat="43.65427" lon="3.81943">
        <ele>135.5</ele>
        <time>2013-05-30T13:13:08.21</time>
      </trkpt>
      <trkpt lat="43.65429" lon="3.81948">
        <ele>136</ele>
        <time>2013-05-30T13:13:09.20</time>
      </trkpt>
      <trkpt lat="43.65431" lon="3.81953">
        <ele>135.5</ele>
        <time>2013-05-30T13:13:10.20</time>
      </trkpt>
      <trkpt lat="43.65432" lon="3.81957">
        <ele>136</ele>
        <time>2013-05-30T13:13:11.21</time>
      </trkpt>
      <trkpt lat="43.65432" lon="3.81962">
        <ele>136.5</ele>
        <time>2013-05-30T13:13:12.21</time>
      </trkpt>
      <trkpt lat="43.65429" lon="3.81966">
        <ele>136</ele>
        <time>2013-05-30T13:13:13.21</time>
      </trkpt>
      <trkpt lat="43.65425" lon="3.81969">
        <ele>136</ele>
        <time>2013-05-30T13:13:15.22</time>
      </trkpt>
      <trkpt lat="43.65422" lon="3.81969">
        <ele>136</ele>
        <time>2013-05-30T13:13:16.21</time>
      </trkpt>
      <trkpt lat="43.65417" lon="3.81972">
        <ele>136</ele>
        <time>2013-05-30T13:13:18.21</time>
      </trkpt>
      <trkpt lat="43.65414" lon="3.81976">
        <ele>135</ele>
        <time>2013-05-30T13:13:19.22</time>
      </trkpt>
      <trkpt lat="43.65413" lon="3.81982">
        <ele>134.5</ele>
        <time>2013-05-30T13:13:20.22</time>
      </trkpt>
      <trkpt lat="43.65411" lon="3.81986">
        <ele>134.5</ele>
        <time>2013-05-30T13:13:21.21</time>
      </trkpt>
      <trkpt lat="43.65409" lon="3.8199">
        <ele>134.5</ele>
        <time>2013-05-30T13:13:22.21</time>
      </trkpt>
      <trkpt lat="43.65407" lon="3.81995">
        <ele>134.5</ele>
        <time>2013-05-30T13:13:23.21</time>
      </trkpt>
      <trkpt lat="43.65406" lon="3.81998">
        <ele>136</ele>
        <time>2013-05-30T13:13:24.21</time>
      </trkpt>
      <trkpt lat="43.65405" lon="3.82002">
        <ele>136.5</ele>
        <time>2013-05-30T13:13:25.21</time>
      </trkpt>
      <trkpt lat="43.65404" lon="3.82005">
        <ele>137</ele>
        <time>2013-05-30T13:13:26.22</time>
      </trkpt>
      <trkpt lat="43.65403" lon="3.82008">
        <ele>136.5</ele>
        <time>2013-05-30T13:13:27.21</time>
      </trkpt>
      <trkpt lat="43.65402" lon="3.82012">
        <ele>136</ele>
        <time>2013-05-30T13:13:28.21</time>
      </trkpt>
      <trkpt lat="43.65399" lon="3.82015">
        <ele>136</ele>
        <time>2013-05-30T13:13:29.21</time>
      </trkpt>
      <trkpt lat="43.65397" lon="3.82019">
        <ele>136</ele>
        <time>2013-05-30T13:13:30.21</time>
      </trkpt>
      <trkpt lat="43.65394" lon="3.82025">
        <ele>136</ele>
        <time>2013-05-30T13:13:31.20</time>
      </trkpt>
      <trkpt lat="43.65393" lon="3.82031">
        <ele>136</ele>
        <time>2013-05-30T13:13:32.22</time>
      </trkpt>
      <trkpt lat="43.6539" lon="3.82037">
        <ele>136</ele>
        <time>2013-05-30T13:13:33.21</time>
      </trkpt>
      <trkpt lat="43.65391" lon="3.82042">
        <ele>137.5</ele>
        <time>2013-05-30T13:13:34.21</time>
      </trkpt>
      <trkpt lat="43.65392" lon="3.82046">
        <ele>138.5</ele>
        <time>2013-05-30T13:13:35.20</time>
      </trkpt>
      <trkpt lat="43.65393" lon="3.8205">
        <ele>138.5</ele>
        <time>2013-05-30T13:13:36.22</time>
      </trkpt>
      <trkpt lat="43.65394" lon="3.82052">
        <ele>139.5</ele>
        <time>2013-05-30T13:13:37.20</time>
      </trkpt>
      <trkpt lat="43.65396" lon="3.82055">
        <ele>138</ele>
        <time>2013-05-30T13:13:38.21</time>
      </trkpt>
      <trkpt lat="43.65398" lon="3.82057">
        <ele>138</ele>
        <time>2013-05-30T13:13:39.21</time>
      </trkpt>
      <trkpt lat="43.654" lon="3.8206">
        <ele>137.5</ele>
        <time>2013-05-30T13:13:40.21</time>
      </trkpt>
      <trkpt lat="43.65401" lon="3.82064">
        <ele>137.5</ele>
        <time>2013-05-30T13:13:41.30</time>
      </trkpt>
      <trkpt lat="43.65404" lon="3.82067">
        <ele>137.5</ele>
        <time>2013-05-30T13:13:42.20</time>
      </trkpt>
      <trkpt lat="43.65405" lon="3.82072">
        <ele>136</ele>
        <time>2013-05-30T13:13:43.21</time>
      </trkpt>
      <trkpt lat="43.65407" lon="3.82078">
        <ele>136.5</ele>
        <time>2013-05-30T13:13:44.22</time>
      </trkpt>
      <trkpt lat="43.65412" lon="3.82082">
        <ele>137.5</ele>
        <time>2013-05-30T13:13:45.21</time>
      </trkpt>
      <trkpt lat="43.65416" lon="3.82086">
        <ele>137</ele>
        <time>2013-05-30T13:13:46.21</time>
      </trkpt>
      <trkpt lat="43.65419" lon="3.82091">
        <ele>135.5</ele>
        <time>2013-05-30T13:13:47.22</time>
      </trkpt>
      <trkpt lat="43.65417" lon="3.82098">
        <ele>135.5</ele>
        <time>2013-05-30T13:13:48.22</time>
      </trkpt>
      <trkpt lat="43.65415" lon="3.82104">
        <ele>136.5</ele>
        <time>2013-05-30T13:13:49.21</time>
      </trkpt>
      <trkpt lat="43.65413" lon="3.8211">
        <ele>137.5</ele>
        <time>2013-05-30T13:13:50.22</time>
      </trkpt>
      <trkpt lat="43.65411" lon="3.82117">
        <ele>138</ele>
        <time>2013-05-30T13:13:51.21</time>
      </trkpt>
      <trkpt lat="43.65409" lon="3.82122">
        <ele>138</ele>
        <time>2013-05-30T13:13:52.21</time>
      </trkpt>
      <trkpt lat="43.65408" lon="3.82128">
        <ele>138</ele>
        <time>2013-05-30T13:13:53.21</time>
      </trkpt>
      <trkpt lat="43.65409" lon="3.82135">
        <ele>137.5</ele>
        <time>2013-05-30T13:13:54.26</time>
      </trkpt>
      <trkpt lat="43.65408" lon="3.82141">
        <ele>137</ele>
        <time>2013-05-30T13:13:55.22</time>
      </trkpt>
      <trkpt lat="43.65407" lon="3.82147">
        <ele>137</ele>
        <time>2013-05-30T13:13:56.22</time>
      </trkpt>
      <trkpt lat="43.65407" lon="3.82153">
        <ele>136.5</ele>
        <time>2013-05-30T13:13:57.21</time>
      </trkpt>
      <trkpt lat="43.65406" lon="3.82159">
        <ele>136.5</ele>
        <time>2013-05-30T13:13:58.20</time>
      </trkpt>
      <trkpt lat="43.65406" lon="3.82164">
        <ele>137</ele>
        <time>2013-05-30T13:13:59.36</time>
      </trkpt>
      <trkpt lat="43.65405" lon="3.82169">
        <ele>136.5</ele>
        <time>2013-05-30T13:14:00.21</time>
      </trkpt>
      <trkpt lat="43.65404" lon="3.82175">
        <ele>136</ele>
        <time>2013-05-30T13:14:01.20</time>
      </trkpt>
      <trkpt lat="43.65403" lon="3.8218">
        <ele>135.5</ele>
        <time>2013-05-30T13:14:02.20</time>
      </trkpt>
      <trkpt lat="43.65402" lon="3.82185">
        <ele>135.5</ele>
        <time>2013-05-30T13:14:03.20</time>
      </trkpt>
      <trkpt lat="43.65401" lon="3.8219">
        <ele>135.5</ele>
        <time>2013-05-30T13:14:04.21</time>
      </trkpt>
      <trkpt lat="43.654" lon="3.82194">
        <ele>135.5</ele>
        <time>2013-05-30T13:14:05.23</time>
      </trkpt>
      <trkpt lat="43.65399" lon="3.82198">
        <ele>135.5</ele>
        <time>2013-05-30T13:14:06.21</time>
      </trkpt>
      <trkpt lat="43.65398" lon="3.82202">
        <ele>137</ele>
        <time>2013-05-30T13:14:07.22</time>
      </trkpt>
      <trkpt lat="43.65396" lon="3.82204">
        <ele>137.5</ele>
        <time>2013-05-30T13:14:08.20</time>
      </trkpt>
      <trkpt lat="43.65392" lon="3.82205">
        <ele>138</ele>
        <time>2013-05-30T13:14:09.21</time>
      </trkpt>
      <trkpt lat="43.65389" lon="3.82205">
        <ele>137</ele>
        <time>2013-05-30T13:14:10.38</time>
      </trkpt>
      <trkpt lat="43.65384" lon="3.82204">
        <ele>137</ele>
        <time>2013-05-30T13:14:11.20</time>
      </trkpt>
      <trkpt lat="43.65381" lon="3.82207">
        <ele>137</ele>
        <time>2013-05-30T13:14:13.21</time>
      </trkpt>
      <trkpt lat="43.65379" lon="3.82208">
        <ele>136</ele>
        <time>2013-05-30T13:14:14.20</time>
      </trkpt>
      <trkpt lat="43.65378" lon="3.82209">
        <ele>136.5</ele>
        <time>2013-05-30T13:14:15.22</time>
      </trkpt>
      <trkpt lat="43.65375" lon="3.82211">
        <ele>135.5</ele>
        <time>2013-05-30T13:14:16.21</time>
      </trkpt>
      <trkpt lat="43.65373" lon="3.82213">
        <ele>136</ele>
        <time>2013-05-30T13:14:17.21</time>
      </trkpt>
      <trkpt lat="43.65371" lon="3.82215">
        <ele>135.5</ele>
        <time>2013-05-30T13:14:18.21</time>
      </trkpt>
      <trkpt lat="43.65371" lon="3.82217">
        <ele>137</ele>
        <time>2013-05-30T13:14:19.24</time>
      </trkpt>
      <trkpt lat="43.65369" lon="3.82219">
        <ele>137</ele>
        <time>2013-05-30T13:14:20.21</time>
      </trkpt>
      <trkpt lat="43.65368" lon="3.82221">
        <ele>137.5</ele>
        <time>2013-05-30T13:14:21.21</time>
      </trkpt>
      <trkpt lat="43.65367" lon="3.82223">
        <ele>137.5</ele>
        <time>2013-05-30T13:14:22.21</time>
      </trkpt>
      <trkpt lat="43.65367" lon="3.82226">
        <ele>138.5</ele>
        <time>2013-05-30T13:14:23.20</time>
      </trkpt>
      <trkpt lat="43.65366" lon="3.82228">
        <ele>139</ele>
        <time>2013-05-30T13:14:24.21</time>
      </trkpt>
      <trkpt lat="43.65365" lon="3.82231">
        <ele>139</ele>
        <time>2013-05-30T13:14:25.21</time>
      </trkpt>
      <trkpt lat="43.65363" lon="3.82234">
        <ele>139</ele>
        <time>2013-05-30T13:14:26.21</time>
      </trkpt>
      <trkpt lat="43.65362" lon="3.82237">
        <ele>138</ele>
        <time>2013-05-30T13:14:27.21</time>
      </trkpt>
      <trkpt lat="43.65361" lon="3.8224">
        <ele>138</ele>
        <time>2013-05-30T13:14:28.21</time>
      </trkpt>
      <trkpt lat="43.65359" lon="3.82243">
        <ele>137</ele>
        <time>2013-05-30T13:14:29.21</time>
      </trkpt>
      <trkpt lat="43.65359" lon="3.82247">
        <ele>137</ele>
        <time>2013-05-30T13:14:30.20</time>
      </trkpt>
      <trkpt lat="43.65359" lon="3.8225">
        <ele>137.5</ele>
        <time>2013-05-30T13:14:31.21</time>
      </trkpt>
      <trkpt lat="43.65359" lon="3.82253">
        <ele>137</ele>
        <time>2013-05-30T13:14:32.20</time>
      </trkpt>
      <trkpt lat="43.65359" lon="3.82257">
        <ele>137</ele>
        <time>2013-05-30T13:14:33.21</time>
      </trkpt>
      <trkpt lat="43.65358" lon="3.8226">
        <ele>137.5</ele>
        <time>2013-05-30T13:14:34.21</time>
      </trkpt>
      <trkpt lat="43.65358" lon="3.82264">
        <ele>137</ele>
        <time>2013-05-30T13:14:35.24</time>
      </trkpt>
      <trkpt lat="43.65358" lon="3.82267">
        <ele>136.5</ele>
        <time>2013-05-30T13:14:36.21</time>
      </trkpt>
      <trkpt lat="43.65357" lon="3.8227">
        <ele>136</ele>
        <time>2013-05-30T13:14:37.20</time>
      </trkpt>
      <trkpt lat="43.65357" lon="3.82273">
        <ele>136.5</ele>
        <time>2013-05-30T13:14:38.26</time>
      </trkpt>
      <trkpt lat="43.65356" lon="3.82276">
        <ele>136</ele>
        <time>2013-05-30T13:14:39.21</time>
      </trkpt>
      <trkpt lat="43.65357" lon="3.82279">
        <ele>136</ele>
        <time>2013-05-30T13:14:40.21</time>
      </trkpt>
      <trkpt lat="43.65357" lon="3.82282">
        <ele>135.5</ele>
        <time>2013-05-30T13:14:41.20</time>
      </trkpt>
      <trkpt lat="43.65358" lon="3.82285">
        <ele>135.5</ele>
        <time>2013-05-30T13:14:42.21</time>
      </trkpt>
      <trkpt lat="43.65359" lon="3.82286">
        <ele>137</ele>
        <time>2013-05-30T13:14:43.21</time>
      </trkpt>
      <trkpt lat="43.65358" lon="3.82288">
        <ele>137</ele>
        <time>2013-05-30T13:14:44.21</time>
      </trkpt>
      <trkpt lat="43.65357" lon="3.8229">
        <ele>136.5</ele>
        <time>2013-05-30T13:14:45.21</time>
      </trkpt>
      <trkpt lat="43.65358" lon="3.82294">
        <ele>136.5</ele>
        <time>2013-05-30T13:14:46.21</time>
      </trkpt>
      <trkpt lat="43.65357" lon="3.82297">
        <ele>137</ele>
        <time>2013-05-30T13:14:47.24</time>
      </trkpt>
      <trkpt lat="43.65357" lon="3.823">
        <ele>137.5</ele>
        <time>2013-05-30T13:14:48.21</time>
      </trkpt>
      <trkpt lat="43.65357" lon="3.82303">
        <ele>137</ele>
        <time>2013-05-30T13:14:49.20</time>
      </trkpt>
      <trkpt lat="43.65357" lon="3.82305">
        <ele>137.5</ele>
        <time>2013-05-30T13:14:50.21</time>
      </trkpt>
      <trkpt lat="43.65357" lon="3.82307">
        <ele>137.5</ele>
        <time>2013-05-30T13:14:51.20</time>
      </trkpt>
      <trkpt lat="43.65358" lon="3.82305">
        <ele>137.5</ele>
        <time>2013-05-30T13:14:52.20</time>
      </trkpt>
      <trkpt lat="43.65357" lon="3.82307">
        <ele>137</ele>
        <time>2013-05-30T13:14:53.20</time>
      </trkpt>
      <trkpt lat="43.65356" lon="3.82308">
        <ele>137</ele>
        <time>2013-05-30T13:14:54.20</time>
      </trkpt>
      <trkpt lat="43.65355" lon="3.82309">
        <ele>137</ele>
        <time>2013-05-30T13:14:55.21</time>
      </trkpt>
      <trkpt lat="43.65354" lon="3.82309">
        <ele>137</ele>
        <time>2013-05-30T13:14:56.20</time>
      </trkpt>
      <trkpt lat="43.65354" lon="3.82311">
        <ele>138.5</ele>
        <time>2013-05-30T13:14:57.21</time>
      </trkpt>
      <trkpt lat="43.65353" lon="3.82313">
        <ele>139</ele>
        <time>2013-05-30T13:14:58.21</time>
      </trkpt>
      <trkpt lat="43.65353" lon="3.82315">
        <ele>139</ele>
        <time>2013-05-30T13:14:59.21</time>
      </trkpt>
      <trkpt lat="43.65353" lon="3.82317">
        <ele>140</ele>
        <time>2013-05-30T13:15:00.23</time>
      </trkpt>
      <trkpt lat="43.65353" lon="3.82319">
        <ele>140.5</ele>
        <time>2013-05-30T13:15:01.21</time>
      </trkpt>
      <trkpt lat="43.65352" lon="3.82321">
        <ele>141</ele>
        <time>2013-05-30T13:15:02.20</time>
      </trkpt>
      <trkpt lat="43.65352" lon="3.82322">
        <ele>141.5</ele>
        <time>2013-05-30T13:15:03.21</time>
      </trkpt>
      <trkpt lat="43.65351" lon="3.82324">
        <ele>141</ele>
        <time>2013-05-30T13:15:04.21</time>
      </trkpt>
      <trkpt lat="43.65351" lon="3.82326">
        <ele>140.5</ele>
        <time>2013-05-30T13:15:05.22</time>
      </trkpt>
      <trkpt lat="43.65351" lon="3.82329">
        <ele>140.5</ele>
        <time>2013-05-30T13:15:06.21</time>
      </trkpt>
      <trkpt lat="43.65351" lon="3.82332">
        <ele>141</ele>
        <time>2013-05-30T13:15:07.21</time>
      </trkpt>
      <trkpt lat="43.6535" lon="3.82335">
        <ele>141.5</ele>
        <time>2013-05-30T13:15:08.21</time>
      </trkpt>
      <trkpt lat="43.6535" lon="3.82339">
        <ele>141</ele>
        <time>2013-05-30T13:15:09.27</time>
      </trkpt>
      <trkpt lat="43.65349" lon="3.82342">
        <ele>141.5</ele>
        <time>2013-05-30T13:15:10.21</time>
      </trkpt>
      <trkpt lat="43.65349" lon="3.82346">
        <ele>142.5</ele>
        <time>2013-05-30T13:15:11.21</time>
      </trkpt>
      <trkpt lat="43.65349" lon="3.8235">
        <ele>142.5</ele>
        <time>2013-05-30T13:15:12.21</time>
      </trkpt>
      <trkpt lat="43.65348" lon="3.82353">
        <ele>143</ele>
        <time>2013-05-30T13:15:13.21</time>
      </trkpt>
      <trkpt lat="43.65348" lon="3.82356">
        <ele>143</ele>
        <time>2013-05-30T13:15:14.22</time>
      </trkpt>
      <trkpt lat="43.65347" lon="3.8236">
        <ele>143</ele>
        <time>2013-05-30T13:15:15.21</time>
      </trkpt>
      <trkpt lat="43.65347" lon="3.82363">
        <ele>143</ele>
        <time>2013-05-30T13:15:16.22</time>
      </trkpt>
      <trkpt lat="43.65347" lon="3.82367">
        <ele>143</ele>
        <time>2013-05-30T13:15:17.21</time>
      </trkpt>
      <trkpt lat="43.65346" lon="3.8237">
        <ele>142.5</ele>
        <time>2013-05-30T13:15:18.21</time>
      </trkpt>
      <trkpt lat="43.65346" lon="3.82373">
        <ele>143</ele>
        <time>2013-05-30T13:15:19.21</time>
      </trkpt>
      <trkpt lat="43.65346" lon="3.82376">
        <ele>143</ele>
        <time>2013-05-30T13:15:20.21</time>
      </trkpt>
      <trkpt lat="43.65345" lon="3.82379">
        <ele>143.5</ele>
        <time>2013-05-30T13:15:21.21</time>
      </trkpt>
      <trkpt lat="43.65345" lon="3.82382">
        <ele>144</ele>
        <time>2013-05-30T13:15:22.21</time>
      </trkpt>
      <trkpt lat="43.65345" lon="3.82386">
        <ele>144</ele>
        <time>2013-05-30T13:15:23.21</time>
      </trkpt>
      <trkpt lat="43.65344" lon="3.8239">
        <ele>144.5</ele>
        <time>2013-05-30T13:15:24.21</time>
      </trkpt>
      <trkpt lat="43.65344" lon="3.82393">
        <ele>144.5</ele>
        <time>2013-05-30T13:15:25.21</time>
      </trkpt>
      <trkpt lat="43.65343" lon="3.82397">
        <ele>145</ele>
        <time>2013-05-30T13:15:26.21</time>
      </trkpt>
      <trkpt lat="43.65343" lon="3.82401">
        <ele>145</ele>
        <time>2013-05-30T13:15:27.21</time>
      </trkpt>
      <trkpt lat="43.65342" lon="3.82405">
        <ele>145.5</ele>
        <time>2013-05-30T13:15:28.21</time>
      </trkpt>
      <trkpt lat="43.65342" lon="3.82409">
        <ele>145</ele>
        <time>2013-05-30T13:15:29.22</time>
      </trkpt>
      <trkpt lat="43.65341" lon="3.82412">
        <ele>145</ele>
        <time>2013-05-30T13:15:30.21</time>
      </trkpt>
      <trkpt lat="43.65341" lon="3.82417">
        <ele>144.5</ele>
        <time>2013-05-30T13:15:31.21</time>
      </trkpt>
      <trkpt lat="43.6534" lon="3.8242">
        <ele>144.5</ele>
        <time>2013-05-30T13:15:32.22</time>
      </trkpt>
      <trkpt lat="43.6534" lon="3.82425">
        <ele>144.5</ele>
        <time>2013-05-30T13:15:33.21</time>
      </trkpt>
      <trkpt lat="43.6534" lon="3.82429">
        <ele>144.5</ele>
        <time>2013-05-30T13:15:34.21</time>
      </trkpt>
      <trkpt lat="43.6534" lon="3.82432">
        <ele>145</ele>
        <time>2013-05-30T13:15:35.21</time>
      </trkpt>
      <trkpt lat="43.65339" lon="3.82437">
        <ele>144.5</ele>
        <time>2013-05-30T13:15:36.22</time>
      </trkpt>
      <trkpt lat="43.65339" lon="3.8244">
        <ele>145</ele>
        <time>2013-05-30T13:15:37.20</time>
      </trkpt>
      <trkpt lat="43.65338" lon="3.82444">
        <ele>144.5</ele>
        <time>2013-05-30T13:15:38.20</time>
      </trkpt>
      <trkpt lat="43.65336" lon="3.82447">
        <ele>144.5</ele>
        <time>2013-05-30T13:15:39.21</time>
      </trkpt>
      <trkpt lat="43.65334" lon="3.82449">
        <ele>145</ele>
        <time>2013-05-30T13:15:40.20</time>
      </trkpt>
      <trkpt lat="43.65333" lon="3.82452">
        <ele>145</ele>
        <time>2013-05-30T13:15:41.20</time>
      </trkpt>
      <trkpt lat="43.65332" lon="3.82454">
        <ele>145</ele>
        <time>2013-05-30T13:15:42.22</time>
      </trkpt>
      <trkpt lat="43.65332" lon="3.82457">
        <ele>145</ele>
        <time>2013-05-30T13:15:43.20</time>
      </trkpt>
      <trkpt lat="43.6533" lon="3.8246">
        <ele>145.5</ele>
        <time>2013-05-30T13:15:44.21</time>
      </trkpt>
      <trkpt lat="43.65329" lon="3.82462">
        <ele>146</ele>
        <time>2013-05-30T13:15:45.20</time>
      </trkpt>
      <trkpt lat="43.65328" lon="3.82464">
        <ele>146.5</ele>
        <time>2013-05-30T13:15:46.21</time>
      </trkpt>
      <trkpt lat="43.65327" lon="3.82467">
        <ele>146.5</ele>
        <time>2013-05-30T13:15:47.21</time>
      </trkpt>
      <trkpt lat="43.65327" lon="3.8247">
        <ele>147</ele>
        <time>2013-05-30T13:15:48.21</time>
      </trkpt>
      <trkpt lat="43.65326" lon="3.82473">
        <ele>147.5</ele>
        <time>2013-05-30T13:15:49.20</time>
      </trkpt>
      <trkpt lat="43.65326" lon="3.82476">
        <ele>147.5</ele>
        <time>2013-05-30T13:15:50.20</time>
      </trkpt>
      <trkpt lat="43.65327" lon="3.82479">
        <ele>149.5</ele>
        <time>2013-05-30T13:15:51.20</time>
      </trkpt>
      <trkpt lat="43.65327" lon="3.82482">
        <ele>150</ele>
        <time>2013-05-30T13:15:52.21</time>
      </trkpt>
      <trkpt lat="43.65327" lon="3.82484">
        <ele>151</ele>
        <time>2013-05-30T13:15:53.20</time>
      </trkpt>
      <trkpt lat="43.65327" lon="3.82487">
        <ele>152</ele>
        <time>2013-05-30T13:15:54.20</time>
      </trkpt>
      <trkpt lat="43.65326" lon="3.82489">
        <ele>153</ele>
        <time>2013-05-30T13:15:55.20</time>
      </trkpt>
      <trkpt lat="43.65326" lon="3.82492">
        <ele>153</ele>
        <time>2013-05-30T13:15:56.21</time>
      </trkpt>
      <trkpt lat="43.65326" lon="3.82494">
        <ele>153.5</ele>
        <time>2013-05-30T13:15:57.22</time>
      </trkpt>
      <trkpt lat="43.65326" lon="3.82497">
        <ele>154.5</ele>
        <time>2013-05-30T13:15:58.20</time>
      </trkpt>
      <trkpt lat="43.65327" lon="3.82499">
        <ele>155</ele>
        <time>2013-05-30T13:15:59.21</time>
      </trkpt>
      <trkpt lat="43.65327" lon="3.82501">
        <ele>155</ele>
        <time>2013-05-30T13:16:00.21</time>
      </trkpt>
      <trkpt lat="43.65327" lon="3.82503">
        <ele>155.5</ele>
        <time>2013-05-30T13:16:01.21</time>
      </trkpt>
      <trkpt lat="43.65328" lon="3.82503">
        <ele>155.5</ele>
        <time>2013-05-30T13:16:02.21</time>
      </trkpt>
      <trkpt lat="43.65327" lon="3.82504">
        <ele>155</ele>
        <time>2013-05-30T13:16:03.21</time>
      </trkpt>
      <trkpt lat="43.65327" lon="3.82505">
        <ele>155</ele>
        <time>2013-05-30T13:16:04.21</time>
      </trkpt>
      <trkpt lat="43.65327" lon="3.82506">
        <ele>155</ele>
        <time>2013-05-30T13:16:05.21</time>
      </trkpt>
      <trkpt lat="43.65327" lon="3.82507">
        <ele>155.5</ele>
        <time>2013-05-30T13:16:06.30</time>
      </trkpt>
      <trkpt lat="43.65326" lon="3.82508">
        <ele>155.5</ele>
        <time>2013-05-30T13:16:07.21</time>
      </trkpt>
      <trkpt lat="43.65326" lon="3.82509">
        <ele>155.5</ele>
        <time>2013-05-30T13:16:08.21</time>
      </trkpt>
      <trkpt lat="43.65326" lon="3.8251">
        <ele>155.5</ele>
        <time>2013-05-30T13:16:09.21</time>
      </trkpt>
      <trkpt lat="43.65327" lon="3.82512">
        <ele>155.5</ele>
        <time>2013-05-30T13:16:10.21</time>
      </trkpt>
      <trkpt lat="43.65327" lon="3.82513">
        <ele>156</ele>
        <time>2013-05-30T13:16:11.20</time>
      </trkpt>
      <trkpt lat="43.65326" lon="3.82515">
        <ele>155.5</ele>
        <time>2013-05-30T13:16:12.21</time>
      </trkpt>
      <trkpt lat="43.65326" lon="3.82516">
        <ele>155</ele>
        <time>2013-05-30T13:16:13.21</time>
      </trkpt>
      <trkpt lat="43.65326" lon="3.82518">
        <ele>155.5</ele>
        <time>2013-05-30T13:16:14.20</time>
      </trkpt>
      <trkpt lat="43.65326" lon="3.82519">
        <ele>155.5</ele>
        <time>2013-05-30T13:16:15.22</time>
      </trkpt>
      <trkpt lat="43.65325" lon="3.8252">
        <ele>155</ele>
        <time>2013-05-30T13:16:16.21</time>
      </trkpt>
      <trkpt lat="43.65325" lon="3.82521">
        <ele>155</ele>
        <time>2013-05-30T13:16:17.22</time>
      </trkpt>
      <trkpt lat="43.65324" lon="3.82523">
        <ele>154</ele>
        <time>2013-05-30T13:16:18.22</time>
      </trkpt>
      <trkpt lat="43.65324" lon="3.82525">
        <ele>154.5</ele>
        <time>2013-05-30T13:16:19.22</time>
      </trkpt>
      <trkpt lat="43.65324" lon="3.82526">
        <ele>155</ele>
        <time>2013-05-30T13:16:20.22</time>
      </trkpt>
      <trkpt lat="43.65323" lon="3.82529">
        <ele>154.5</ele>
        <time>2013-05-30T13:16:21.22</time>
      </trkpt>
      <trkpt lat="43.65323" lon="3.82531">
        <ele>154.5</ele>
        <time>2013-05-30T13:16:22.26</time>
      </trkpt>
      <trkpt lat="43.65326" lon="3.82534">
        <ele>156.5</ele>
        <time>2013-05-30T13:16:23.22</time>
      </trkpt>
      <trkpt lat="43.65326" lon="3.82537">
        <ele>156.5</ele>
        <time>2013-05-30T13:16:24.21</time>
      </trkpt>
      <trkpt lat="43.65327" lon="3.82539">
        <ele>156.5</ele>
        <time>2013-05-30T13:16:25.22</time>
      </trkpt>
      <trkpt lat="43.65328" lon="3.82542">
        <ele>157</ele>
        <time>2013-05-30T13:16:26.22</time>
      </trkpt>
      <trkpt lat="43.65328" lon="3.82544">
        <ele>157.5</ele>
        <time>2013-05-30T13:16:27.22</time>
      </trkpt>
      <trkpt lat="43.65328" lon="3.82547">
        <ele>158</ele>
        <time>2013-05-30T13:16:28.21</time>
      </trkpt>
      <trkpt lat="43.65328" lon="3.82549">
        <ele>158.5</ele>
        <time>2013-05-30T13:16:29.22</time>
      </trkpt>
      <trkpt lat="43.65328" lon="3.82552">
        <ele>158.5</ele>
        <time>2013-05-30T13:16:30.22</time>
      </trkpt>
      <trkpt lat="43.65329" lon="3.82555">
        <ele>159</ele>
        <time>2013-05-30T13:16:31.21</time>
      </trkpt>
      <trkpt lat="43.65331" lon="3.82558">
        <ele>160.5</ele>
        <time>2013-05-30T13:16:32.22</time>
      </trkpt>
      <trkpt lat="43.65331" lon="3.82561">
        <ele>160.5</ele>
        <time>2013-05-30T13:16:33.22</time>
      </trkpt>
      <trkpt lat="43.65332" lon="3.82563">
        <ele>161.5</ele>
        <time>2013-05-30T13:16:34.22</time>
      </trkpt>
      <trkpt lat="43.65332" lon="3.82564">
        <ele>161.5</ele>
        <time>2013-05-30T13:16:35.22</time>
      </trkpt>
      <trkpt lat="43.6533" lon="3.82566">
        <ele>161</ele>
        <time>2013-05-30T13:16:36.22</time>
      </trkpt>
      <trkpt lat="43.65329" lon="3.82567">
        <ele>162.5</ele>
        <time>2013-05-30T13:16:37.22</time>
      </trkpt>
      <trkpt lat="43.65327" lon="3.82566">
        <ele>162.5</ele>
        <time>2013-05-30T13:16:38.21</time>
      </trkpt>
      <trkpt lat="43.65323" lon="3.82562">
        <ele>162</ele>
        <time>2013-05-30T13:16:40.22</time>
      </trkpt>
      <trkpt lat="43.65322" lon="3.82561">
        <ele>162.5</ele>
        <time>2013-05-30T13:16:41.21</time>
      </trkpt>
      <trkpt lat="43.6532" lon="3.8256">
        <ele>162.5</ele>
        <time>2013-05-30T13:16:42.22</time>
      </trkpt>
      <trkpt lat="43.65318" lon="3.82559">
        <ele>162.5</ele>
        <time>2013-05-30T13:16:43.22</time>
      </trkpt>
      <trkpt lat="43.65317" lon="3.82557">
        <ele>162</ele>
        <time>2013-05-30T13:16:44.22</time>
      </trkpt>
      <trkpt lat="43.65314" lon="3.82556">
        <ele>162</ele>
        <time>2013-05-30T13:16:45.22</time>
      </trkpt>
      <trkpt lat="43.65312" lon="3.82556">
        <ele>162</ele>
        <time>2013-05-30T13:16:46.22</time>
      </trkpt>
      <trkpt lat="43.6531" lon="3.82556">
        <ele>162</ele>
        <time>2013-05-30T13:16:47.21</time>
      </trkpt>
      <trkpt lat="43.65308" lon="3.82555">
        <ele>161.5</ele>
        <time>2013-05-30T13:16:48.22</time>
      </trkpt>
      <trkpt lat="43.65306" lon="3.82554">
        <ele>160</ele>
        <time>2013-05-30T13:16:49.22</time>
      </trkpt>
      <trkpt lat="43.65304" lon="3.82553">
        <ele>158.5</ele>
        <time>2013-05-30T13:16:50.22</time>
      </trkpt>
      <trkpt lat="43.65302" lon="3.82554">
        <ele>157.5</ele>
        <time>2013-05-30T13:16:51.22</time>
      </trkpt>
      <trkpt lat="43.65297" lon="3.82559">
        <ele>157.5</ele>
        <time>2013-05-30T13:16:53.36</time>
      </trkpt>
      <trkpt lat="43.65295" lon="3.82561">
        <ele>158</ele>
        <time>2013-05-30T13:16:54.21</time>
      </trkpt>
      <trkpt lat="43.65293" lon="3.82561">
        <ele>156.5</ele>
        <time>2013-05-30T13:16:55.22</time>
      </trkpt>
      <trkpt lat="43.65291" lon="3.82562">
        <ele>155.5</ele>
        <time>2013-05-30T13:16:56.22</time>
      </trkpt>
      <trkpt lat="43.65289" lon="3.82562">
        <ele>154.5</ele>
        <time>2013-05-30T13:16:57.21</time>
      </trkpt>
      <trkpt lat="43.65287" lon="3.82563">
        <ele>156.5</ele>
        <time>2013-05-30T13:16:58.22</time>
      </trkpt>
      <trkpt lat="43.65285" lon="3.82565">
        <ele>157.5</ele>
        <time>2013-05-30T13:16:59.22</time>
      </trkpt>
      <trkpt lat="43.65284" lon="3.82567">
        <ele>159.5</ele>
        <time>2013-05-30T13:17:00.22</time>
      </trkpt>
      <trkpt lat="43.65281" lon="3.82567">
        <ele>159.5</ele>
        <time>2013-05-30T13:17:01.22</time>
      </trkpt>
      <trkpt lat="43.6528" lon="3.82568">
        <ele>159.5</ele>
        <time>2013-05-30T13:17:02.22</time>
      </trkpt>
      <trkpt lat="43.65278" lon="3.82568">
        <ele>158.5</ele>
        <time>2013-05-30T13:17:03.22</time>
      </trkpt>
      <trkpt lat="43.65276" lon="3.82568">
        <ele>158.5</ele>
        <time>2013-05-30T13:17:04.22</time>
      </trkpt>
      <trkpt lat="43.65275" lon="3.82569">
        <ele>160.5</ele>
        <time>2013-05-30T13:17:05.22</time>
      </trkpt>
      <trkpt lat="43.65273" lon="3.82569">
        <ele>160.5</ele>
        <time>2013-05-30T13:17:06.22</time>
      </trkpt>
      <trkpt lat="43.65271" lon="3.82569">
        <ele>158.5</ele>
        <time>2013-05-30T13:17:07.21</time>
      </trkpt>
      <trkpt lat="43.65269" lon="3.82569">
        <ele>157</ele>
        <time>2013-05-30T13:17:08.21</time>
      </trkpt>
      <trkpt lat="43.65267" lon="3.82569">
        <ele>156</ele>
        <time>2013-05-30T13:17:09.21</time>
      </trkpt>
      <trkpt lat="43.65265" lon="3.8257">
        <ele>158</ele>
        <time>2013-05-30T13:17:10.21</time>
      </trkpt>
      <trkpt lat="43.65264" lon="3.8257">
        <ele>159.5</ele>
        <time>2013-05-30T13:17:11.22</time>
      </trkpt>
      <trkpt lat="43.65262" lon="3.82571">
        <ele>160.5</ele>
        <time>2013-05-30T13:17:12.20</time>
      </trkpt>
      <trkpt lat="43.6526" lon="3.82571">
        <ele>161</ele>
        <time>2013-05-30T13:17:13.21</time>
      </trkpt>
      <trkpt lat="43.65258" lon="3.82571">
        <ele>160.5</ele>
        <time>2013-05-30T13:17:14.21</time>
      </trkpt>
      <trkpt lat="43.65255" lon="3.82573">
        <ele>161.5</ele>
        <time>2013-05-30T13:17:15.21</time>
      </trkpt>
      <trkpt lat="43.65253" lon="3.82573">
        <ele>160.5</ele>
        <time>2013-05-30T13:17:16.21</time>
      </trkpt>
      <trkpt lat="43.65251" lon="3.82574">
        <ele>162</ele>
        <time>2013-05-30T13:17:17.21</time>
      </trkpt>
      <trkpt lat="43.65249" lon="3.82575">
        <ele>162</ele>
        <time>2013-05-30T13:17:18.21</time>
      </trkpt>
      <trkpt lat="43.65247" lon="3.82575">
        <ele>162</ele>
        <time>2013-05-30T13:17:19.22</time>
      </trkpt>
      <trkpt lat="43.65245" lon="3.82575">
        <ele>162</ele>
        <time>2013-05-30T13:17:20.20</time>
      </trkpt>
      <trkpt lat="43.65244" lon="3.82575">
        <ele>163</ele>
        <time>2013-05-30T13:17:21.21</time>
      </trkpt>
      <trkpt lat="43.65242" lon="3.82575">
        <ele>162.5</ele>
        <time>2013-05-30T13:17:22.20</time>
      </trkpt>
      <trkpt lat="43.65241" lon="3.82576">
        <ele>163</ele>
        <time>2013-05-30T13:17:23.21</time>
      </trkpt>
      <trkpt lat="43.65239" lon="3.82577">
        <ele>164</ele>
        <time>2013-05-30T13:17:24.21</time>
      </trkpt>
      <trkpt lat="43.65238" lon="3.82578">
        <ele>164</ele>
        <time>2013-05-30T13:17:25.21</time>
      </trkpt>
      <trkpt lat="43.65239" lon="3.82579">
        <ele>166.5</ele>
        <time>2013-05-30T13:17:26.21</time>
      </trkpt>
      <trkpt lat="43.65239" lon="3.82581">
        <ele>167</ele>
        <time>2013-05-30T13:17:27.21</time>
      </trkpt>
      <trkpt lat="43.65239" lon="3.82583">
        <ele>168</ele>
        <time>2013-05-30T13:17:28.21</time>
      </trkpt>
      <trkpt lat="43.65239" lon="3.82586">
        <ele>168.5</ele>
        <time>2013-05-30T13:17:29.22</time>
      </trkpt>
      <trkpt lat="43.65239" lon="3.82589">
        <ele>168.5</ele>
        <time>2013-05-30T13:17:30.21</time>
      </trkpt>
      <trkpt lat="43.65239" lon="3.82592">
        <ele>168</ele>
        <time>2013-05-30T13:17:31.25</time>
      </trkpt>
      <trkpt lat="43.65238" lon="3.82594">
        <ele>168</ele>
        <time>2013-05-30T13:17:32.22</time>
      </trkpt>
      <trkpt lat="43.65238" lon="3.82596">
        <ele>167.5</ele>
        <time>2013-05-30T13:17:33.21</time>
      </trkpt>
      <trkpt lat="43.65237" lon="3.82598">
        <ele>167</ele>
        <time>2013-05-30T13:17:34.21</time>
      </trkpt>
      <trkpt lat="43.65237" lon="3.82598">
        <ele>167</ele>
        <time>2013-05-30T13:17:35.21</time>
      </trkpt>
      <trkpt lat="43.65236" lon="3.826">
        <ele>167</ele>
        <time>2013-05-30T13:17:36.21</time>
      </trkpt>
      <trkpt lat="43.65236" lon="3.82602">
        <ele>167.5</ele>
        <time>2013-05-30T13:17:37.21</time>
      </trkpt>
      <trkpt lat="43.65236" lon="3.82602">
        <ele>168</ele>
        <time>2013-05-30T13:17:38.21</time>
      </trkpt>
      <trkpt lat="43.65234" lon="3.82603">
        <ele>168</ele>
        <time>2013-05-30T13:17:39.21</time>
      </trkpt>
      <trkpt lat="43.65233" lon="3.82602">
        <ele>168</ele>
        <time>2013-05-30T13:17:40.21</time>
      </trkpt>
      <trkpt lat="43.65231" lon="3.82601">
        <ele>168.5</ele>
        <time>2013-05-30T13:17:41.21</time>
      </trkpt>
      <trkpt lat="43.65229" lon="3.82601">
        <ele>168.5</ele>
        <time>2013-05-30T13:17:42.21</time>
      </trkpt>
      <trkpt lat="43.65227" lon="3.82602">
        <ele>168.5</ele>
        <time>2013-05-30T13:17:43.21</time>
      </trkpt>
      <trkpt lat="43.6522" lon="3.82603">
        <ele>168</ele>
        <time>2013-05-30T13:17:45.20</time>
      </trkpt>
      <trkpt lat="43.65217" lon="3.82603">
        <ele>167.5</ele>
        <time>2013-05-30T13:17:46.21</time>
      </trkpt>
      <trkpt lat="43.65215" lon="3.82602">
        <ele>167</ele>
        <time>2013-05-30T13:17:47.21</time>
      </trkpt>
      <trkpt lat="43.65212" lon="3.826">
        <ele>167.5</ele>
        <time>2013-05-30T13:17:48.21</time>
      </trkpt>
      <trkpt lat="43.65209" lon="3.82599">
        <ele>167.5</ele>
        <time>2013-05-30T13:17:49.21</time>
      </trkpt>
      <trkpt lat="43.65206" lon="3.82595">
        <ele>166.5</ele>
        <time>2013-05-30T13:17:50.21</time>
      </trkpt>
      <trkpt lat="43.65203" lon="3.82592">
        <ele>166</ele>
        <time>2013-05-30T13:17:51.22</time>
      </trkpt>
      <trkpt lat="43.65201" lon="3.8259">
        <ele>166</ele>
        <time>2013-05-30T13:17:52.21</time>
      </trkpt>
      <trkpt lat="43.65198" lon="3.82586">
        <ele>166.5</ele>
        <time>2013-05-30T13:17:53.21</time>
      </trkpt>
      <trkpt lat="43.65197" lon="3.82583">
        <ele>167.5</ele>
        <time>2013-05-30T13:17:54.21</time>
      </trkpt>
      <trkpt lat="43.65195" lon="3.82579">
        <ele>168</ele>
        <time>2013-05-30T13:17:55.21</time>
      </trkpt>
      <trkpt lat="43.65192" lon="3.82574">
        <ele>168</ele>
        <time>2013-05-30T13:17:56.27</time>
      </trkpt>
      <trkpt lat="43.65189" lon="3.8257">
        <ele>168</ele>
        <time>2013-05-30T13:17:57.21</time>
      </trkpt>
      <trkpt lat="43.65187" lon="3.82567">
        <ele>168.5</ele>
        <time>2013-05-30T13:17:58.22</time>
      </trkpt>
      <trkpt lat="43.65184" lon="3.82563">
        <ele>168</ele>
        <time>2013-05-30T13:17:59.35</time>
      </trkpt>
      <trkpt lat="43.65181" lon="3.82561">
        <ele>168.5</ele>
        <time>2013-05-30T13:18:00.52</time>
      </trkpt>
      <trkpt lat="43.65178" lon="3.82559">
        <ele>168.5</ele>
        <time>2013-05-30T13:18:01.52</time>
      </trkpt>
      <trkpt lat="43.65176" lon="3.82556">
        <ele>169.5</ele>
        <time>2013-05-30T13:18:02.52</time>
      </trkpt>
      <trkpt lat="43.65174" lon="3.82554">
        <ele>171.5</ele>
        <time>2013-05-30T13:18:03.53</time>
      </trkpt>
      <trkpt lat="43.65171" lon="3.82551">
        <ele>172.5</ele>
        <time>2013-05-30T13:18:04.52</time>
      </trkpt>
      <trkpt lat="43.65169" lon="3.8255">
        <ele>173</ele>
        <time>2013-05-30T13:18:05.53</time>
      </trkpt>
      <trkpt lat="43.65166" lon="3.82548">
        <ele>173.5</ele>
        <time>2013-05-30T13:18:06.53</time>
      </trkpt>
      <trkpt lat="43.65165" lon="3.82546">
        <ele>175</ele>
        <time>2013-05-30T13:18:07.52</time>
      </trkpt>
      <trkpt lat="43.65162" lon="3.82544">
        <ele>175</ele>
        <time>2013-05-30T13:18:08.53</time>
      </trkpt>
      <trkpt lat="43.6516" lon="3.82541">
        <ele>175</ele>
        <time>2013-05-30T13:18:09.57</time>
      </trkpt>
      <trkpt lat="43.65159" lon="3.82538">
        <ele>175.5</ele>
        <time>2013-05-30T13:18:10.53</time>
      </trkpt>
      <trkpt lat="43.65157" lon="3.82534">
        <ele>176</ele>
        <time>2013-05-30T13:18:11.52</time>
      </trkpt>
      <trkpt lat="43.65156" lon="3.82531">
        <ele>176</ele>
        <time>2013-05-30T13:18:12.52</time>
      </trkpt>
      <trkpt lat="43.65154" lon="3.82527">
        <ele>176</ele>
        <time>2013-05-30T13:18:13.52</time>
      </trkpt>
      <trkpt lat="43.65154" lon="3.82524">
        <ele>176</ele>
        <time>2013-05-30T13:18:14.53</time>
      </trkpt>
      <trkpt lat="43.65153" lon="3.82522">
        <ele>175</ele>
        <time>2013-05-30T13:18:15.52</time>
      </trkpt>
      <trkpt lat="43.65151" lon="3.8252">
        <ele>175.5</ele>
        <time>2013-05-30T13:18:16.53</time>
      </trkpt>
      <trkpt lat="43.65149" lon="3.82518">
        <ele>174.5</ele>
        <time>2013-05-30T13:18:17.62</time>
      </trkpt>
      <trkpt lat="43.65149" lon="3.82515">
        <ele>174</ele>
        <time>2013-05-30T13:18:18.52</time>
      </trkpt>
      <trkpt lat="43.6515" lon="3.82511">
        <ele>174.5</ele>
        <time>2013-05-30T13:18:19.53</time>
      </trkpt>
      <trkpt lat="43.65154" lon="3.82501">
        <ele>173</ele>
        <time>2013-05-30T13:18:21.52</time>
      </trkpt>
      <trkpt lat="43.65156" lon="3.82496">
        <ele>173</ele>
        <time>2013-05-30T13:18:22.52</time>
      </trkpt>
      <trkpt lat="43.65157" lon="3.82492">
        <ele>172.5</ele>
        <time>2013-05-30T13:18:23.52</time>
      </trkpt>
      <trkpt lat="43.65158" lon="3.82487">
        <ele>172.5</ele>
        <time>2013-05-30T13:18:24.52</time>
      </trkpt>
      <trkpt lat="43.65158" lon="3.82482">
        <ele>172</ele>
        <time>2013-05-30T13:18:25.53</time>
      </trkpt>
      <trkpt lat="43.6516" lon="3.82478">
        <ele>171</ele>
        <time>2013-05-30T13:18:26.53</time>
      </trkpt>
      <trkpt lat="43.6516" lon="3.82473">
        <ele>171.5</ele>
        <time>2013-05-30T13:18:27.52</time>
      </trkpt>
      <trkpt lat="43.65159" lon="3.82468">
        <ele>173</ele>
        <time>2013-05-30T13:18:28.53</time>
      </trkpt>
      <trkpt lat="43.65157" lon="3.82463">
        <ele>174</ele>
        <time>2013-05-30T13:18:29.53</time>
      </trkpt>
      <trkpt lat="43.65156" lon="3.82459">
        <ele>175</ele>
        <time>2013-05-30T13:18:30.52</time>
      </trkpt>
      <trkpt lat="43.65155" lon="3.82455">
        <ele>176.5</ele>
        <time>2013-05-30T13:18:31.52</time>
      </trkpt>
      <trkpt lat="43.65155" lon="3.82451">
        <ele>177</ele>
        <time>2013-05-30T13:18:32.53</time>
      </trkpt>
      <trkpt lat="43.65153" lon="3.82447">
        <ele>177.5</ele>
        <time>2013-05-30T13:18:33.53</time>
      </trkpt>
      <trkpt lat="43.65152" lon="3.82443">
        <ele>177.5</ele>
        <time>2013-05-30T13:18:34.53</time>
      </trkpt>
      <trkpt lat="43.65151" lon="3.82439">
        <ele>178</ele>
        <time>2013-05-30T13:18:35.52</time>
      </trkpt>
      <trkpt lat="43.65149" lon="3.82435">
        <ele>178.5</ele>
        <time>2013-05-30T13:18:36.53</time>
      </trkpt>
      <trkpt lat="43.65148" lon="3.82432">
        <ele>178.5</ele>
        <time>2013-05-30T13:18:37.53</time>
      </trkpt>
      <trkpt lat="43.65147" lon="3.82429">
        <ele>179.5</ele>
        <time>2013-05-30T13:18:38.53</time>
      </trkpt>
      <trkpt lat="43.65145" lon="3.82425">
        <ele>179.5</ele>
        <time>2013-05-30T13:18:39.52</time>
      </trkpt>
      <trkpt lat="43.65144" lon="3.82422">
        <ele>179.5</ele>
        <time>2013-05-30T13:18:40.52</time>
      </trkpt>
      <trkpt lat="43.65142" lon="3.82419">
        <ele>179.5</ele>
        <time>2013-05-30T13:18:41.52</time>
      </trkpt>
      <trkpt lat="43.65141" lon="3.82416">
        <ele>179.5</ele>
        <time>2013-05-30T13:18:42.52</time>
      </trkpt>
      <trkpt lat="43.6514" lon="3.82413">
        <ele>179.5</ele>
        <time>2013-05-30T13:18:43.52</time>
      </trkpt>
      <trkpt lat="43.65139" lon="3.8241">
        <ele>179</ele>
        <time>2013-05-30T13:18:44.52</time>
      </trkpt>
      <trkpt lat="43.65137" lon="3.82406">
        <ele>179</ele>
        <time>2013-05-30T13:18:45.53</time>
      </trkpt>
      <trkpt lat="43.65136" lon="3.82403">
        <ele>178.5</ele>
        <time>2013-05-30T13:18:46.52</time>
      </trkpt>
      <trkpt lat="43.65135" lon="3.82399">
        <ele>178.5</ele>
        <time>2013-05-30T13:18:47.52</time>
      </trkpt>
      <trkpt lat="43.65134" lon="3.82396">
        <ele>178</ele>
        <time>2013-05-30T13:18:48.52</time>
      </trkpt>
      <trkpt lat="43.65132" lon="3.82392">
        <ele>177.5</ele>
        <time>2013-05-30T13:18:49.52</time>
      </trkpt>
      <trkpt lat="43.65131" lon="3.82389">
        <ele>177</ele>
        <time>2013-05-30T13:18:50.53</time>
      </trkpt>
      <trkpt lat="43.65129" lon="3.82385">
        <ele>177</ele>
        <time>2013-05-30T13:18:51.52</time>
      </trkpt>
      <trkpt lat="43.65127" lon="3.82382">
        <ele>176.5</ele>
        <time>2013-05-30T13:18:52.53</time>
      </trkpt>
      <trkpt lat="43.65125" lon="3.82379">
        <ele>176.5</ele>
        <time>2013-05-30T13:18:53.57</time>
      </trkpt>
      <trkpt lat="43.6512" lon="3.82374">
        <ele>176.5</ele>
        <time>2013-05-30T13:18:55.18</time>
      </trkpt>
      <trkpt lat="43.65117" lon="3.82372">
        <ele>176.5</ele>
        <time>2013-05-30T13:18:56.18</time>
      </trkpt>
      <trkpt lat="43.65115" lon="3.8237">
        <ele>176.5</ele>
        <time>2013-05-30T13:18:57.18</time>
      </trkpt>
      <trkpt lat="43.65112" lon="3.82368">
        <ele>176.5</ele>
        <time>2013-05-30T13:18:58.18</time>
      </trkpt>
      <trkpt lat="43.65109" lon="3.82365">
        <ele>176.5</ele>
        <time>2013-05-30T13:18:59.18</time>
      </trkpt>
      <trkpt lat="43.65106" lon="3.82363">
        <ele>176</ele>
        <time>2013-05-30T13:19:00.19</time>
      </trkpt>
      <trkpt lat="43.65102" lon="3.82361">
        <ele>175.5</ele>
        <time>2013-05-30T13:19:01.19</time>
      </trkpt>
      <trkpt lat="43.65099" lon="3.82359">
        <ele>175</ele>
        <time>2013-05-30T13:19:02.18</time>
      </trkpt>
      <trkpt lat="43.65094" lon="3.82358">
        <ele>174.5</ele>
        <time>2013-05-30T13:19:03.18</time>
      </trkpt>
      <trkpt lat="43.6509" lon="3.82357">
        <ele>173.5</ele>
        <time>2013-05-30T13:19:04.18</time>
      </trkpt>
      <trkpt lat="43.65086" lon="3.82356">
        <ele>173</ele>
        <time>2013-05-30T13:19:05.18</time>
      </trkpt>
      <trkpt lat="43.65082" lon="3.82353">
        <ele>172</ele>
        <time>2013-05-30T13:19:06.19</time>
      </trkpt>
      <trkpt lat="43.65078" lon="3.8235">
        <ele>171</ele>
        <time>2013-05-30T13:19:07.19</time>
      </trkpt>
      <trkpt lat="43.65073" lon="3.82347">
        <ele>169.5</ele>
        <time>2013-05-30T13:19:08.18</time>
      </trkpt>
      <trkpt lat="43.65067" lon="3.82347">
        <ele>169.5</ele>
        <time>2013-05-30T13:19:09.19</time>
      </trkpt>
      <trkpt lat="43.65062" lon="3.82346">
        <ele>168</ele>
        <time>2013-05-30T13:19:10.18</time>
      </trkpt>
      <trkpt lat="43.65057" lon="3.82346">
        <ele>167</ele>
        <time>2013-05-30T13:19:11.18</time>
      </trkpt>
      <trkpt lat="43.65053" lon="3.82345">
        <ele>166</ele>
        <time>2013-05-30T13:19:12.18</time>
      </trkpt>
      <trkpt lat="43.65051" lon="3.82343">
        <ele>165</ele>
        <time>2013-05-30T13:19:13.18</time>
      </trkpt>
      <trkpt lat="43.65049" lon="3.82338">
        <ele>165</ele>
        <time>2013-05-30T13:19:14.19</time>
      </trkpt>
      <trkpt lat="43.65048" lon="3.82333">
        <ele>164</ele>
        <time>2013-05-30T13:19:15.18</time>
      </trkpt>
      <trkpt lat="43.65047" lon="3.82326">
        <ele>163.5</ele>
        <time>2013-05-30T13:19:16.19</time>
      </trkpt>
      <trkpt lat="43.65045" lon="3.82319">
        <ele>162.5</ele>
        <time>2013-05-30T13:19:17.18</time>
      </trkpt>
      <trkpt lat="43.65043" lon="3.82312">
        <ele>161</ele>
        <time>2013-05-30T13:19:18.18</time>
      </trkpt>
      <trkpt lat="43.6504" lon="3.82305">
        <ele>160</ele>
        <time>2013-05-30T13:19:19.18</time>
      </trkpt>
      <trkpt lat="43.65037" lon="3.823">
        <ele>159.5</ele>
        <time>2013-05-30T13:19:20.18</time>
      </trkpt>
      <trkpt lat="43.65034" lon="3.82295">
        <ele>158.5</ele>
        <time>2013-05-30T13:19:21.18</time>
      </trkpt>
      <trkpt lat="43.65032" lon="3.8229">
        <ele>157.5</ele>
        <time>2013-05-30T13:19:22.18</time>
      </trkpt>
      <trkpt lat="43.65031" lon="3.82285">
        <ele>156</ele>
        <time>2013-05-30T13:19:23.18</time>
      </trkpt>
      <trkpt lat="43.65029" lon="3.82279">
        <ele>154.5</ele>
        <time>2013-05-30T13:19:24.19</time>
      </trkpt>
      <trkpt lat="43.65026" lon="3.82273">
        <ele>153</ele>
        <time>2013-05-30T13:19:25.36</time>
      </trkpt>
      <trkpt lat="43.65023" lon="3.82267">
        <ele>151.5</ele>
        <time>2013-05-30T13:19:26.18</time>
      </trkpt>
      <trkpt lat="43.6502" lon="3.8226">
        <ele>150</ele>
        <time>2013-05-30T13:19:27.18</time>
      </trkpt>
      <trkpt lat="43.65017" lon="3.82253">
        <ele>149</ele>
        <time>2013-05-30T13:19:28.19</time>
      </trkpt>
      <trkpt lat="43.65014" lon="3.82246">
        <ele>147.5</ele>
        <time>2013-05-30T13:19:29.18</time>
      </trkpt>
      <trkpt lat="43.65011" lon="3.82238">
        <ele>145.5</ele>
        <time>2013-05-30T13:19:30.18</time>
      </trkpt>
      <trkpt lat="43.65009" lon="3.82229">
        <ele>144</ele>
        <time>2013-05-30T13:19:31.23</time>
      </trkpt>
      <trkpt lat="43.65007" lon="3.82221">
        <ele>143</ele>
        <time>2013-05-30T13:19:32.18</time>
      </trkpt>
      <trkpt lat="43.65003" lon="3.82216">
        <ele>142.5</ele>
        <time>2013-05-30T13:19:33.18</time>
      </trkpt>
      <trkpt lat="43.64998" lon="3.8221">
        <ele>141.5</ele>
        <time>2013-05-30T13:19:34.18</time>
      </trkpt>
      <trkpt lat="43.64992" lon="3.82205">
        <ele>141</ele>
        <time>2013-05-30T13:19:35.18</time>
      </trkpt>
      <trkpt lat="43.64987" lon="3.82203">
        <ele>141</ele>
        <time>2013-05-30T13:19:36.18</time>
      </trkpt>
      <trkpt lat="43.64981" lon="3.822">
        <ele>140.5</ele>
        <time>2013-05-30T13:19:37.19</time>
      </trkpt>
      <trkpt lat="43.64977" lon="3.82194">
        <ele>139</ele>
        <time>2013-05-30T13:19:38.18</time>
      </trkpt>
      <trkpt lat="43.64975" lon="3.82185">
        <ele>140</ele>
        <time>2013-05-30T13:19:39.18</time>
      </trkpt>
      <trkpt lat="43.64975" lon="3.82173">
        <ele>141</ele>
        <time>2013-05-30T13:19:41.18</time>
      </trkpt>
      <trkpt lat="43.64975" lon="3.82169">
        <ele>141</ele>
        <time>2013-05-30T13:19:42.18</time>
      </trkpt>
      <trkpt lat="43.64976" lon="3.82166">
        <ele>140.5</ele>
        <time>2013-05-30T13:19:43.18</time>
      </trkpt>
      <trkpt lat="43.64976" lon="3.82164">
        <ele>140</ele>
        <time>2013-05-30T13:19:44.19</time>
      </trkpt>
      <trkpt lat="43.64974" lon="3.82163">
        <ele>139</ele>
        <time>2013-05-30T13:19:45.18</time>
      </trkpt>
      <trkpt lat="43.64969" lon="3.82169">
        <ele>137.5</ele>
        <time>2013-05-30T13:19:47.18</time>
      </trkpt>
      <trkpt lat="43.64966" lon="3.82172">
        <ele>138</ele>
        <time>2013-05-30T13:19:48.18</time>
      </trkpt>
      <trkpt lat="43.64963" lon="3.82175">
        <ele>138</ele>
        <time>2013-05-30T13:19:49.18</time>
      </trkpt>
      <trkpt lat="43.6496" lon="3.82178">
        <ele>138.5</ele>
        <time>2013-05-30T13:19:50.24</time>
      </trkpt>
      <trkpt lat="43.64957" lon="3.82181">
        <ele>138.5</ele>
        <time>2013-05-30T13:19:51.18</time>
      </trkpt>
      <trkpt lat="43.64953" lon="3.82184">
        <ele>138.5</ele>
        <time>2013-05-30T13:19:52.19</time>
      </trkpt>
      <trkpt lat="43.64949" lon="3.82187">
        <ele>138</ele>
        <time>2013-05-30T13:19:53.18</time>
      </trkpt>
      <trkpt lat="43.64945" lon="3.82189">
        <ele>138.5</ele>
        <time>2013-05-30T13:19:54.18</time>
      </trkpt>
      <trkpt lat="43.64941" lon="3.82192">
        <ele>138</ele>
        <time>2013-05-30T13:19:55.18</time>
      </trkpt>
      <trkpt lat="43.64936" lon="3.82194">
        <ele>138</ele>
        <time>2013-05-30T13:19:56.18</time>
      </trkpt>
      <trkpt lat="43.64932" lon="3.82197">
        <ele>138</ele>
        <time>2013-05-30T13:19:57.18</time>
      </trkpt>
      <trkpt lat="43.64928" lon="3.82199">
        <ele>138</ele>
        <time>2013-05-30T13:19:58.18</time>
      </trkpt>
      <trkpt lat="43.64923" lon="3.82202">
        <ele>138</ele>
        <time>2013-05-30T13:19:59.18</time>
      </trkpt>
      <trkpt lat="43.64919" lon="3.82205">
        <ele>138</ele>
        <time>2013-05-30T13:20:00.18</time>
      </trkpt>
      <trkpt lat="43.64914" lon="3.82208">
        <ele>138</ele>
        <time>2013-05-30T13:20:01.18</time>
      </trkpt>
      <trkpt lat="43.64909" lon="3.82211">
        <ele>138</ele>
        <time>2013-05-30T13:20:02.18</time>
      </trkpt>
      <trkpt lat="43.64904" lon="3.82214">
        <ele>138</ele>
        <time>2013-05-30T13:20:03.18</time>
      </trkpt>
      <trkpt lat="43.649" lon="3.82217">
        <ele>138</ele>
        <time>2013-05-30T13:20:04.18</time>
      </trkpt>
      <trkpt lat="43.64895" lon="3.8222">
        <ele>138</ele>
        <time>2013-05-30T13:20:05.25</time>
      </trkpt>
      <trkpt lat="43.6489" lon="3.82223">
        <ele>138</ele>
        <time>2013-05-30T13:20:06.18</time>
      </trkpt>
      <trkpt lat="43.64886" lon="3.82226">
        <ele>138</ele>
        <time>2013-05-30T13:20:07.18</time>
      </trkpt>
      <trkpt lat="43.64881" lon="3.82229">
        <ele>138</ele>
        <time>2013-05-30T13:20:08.18</time>
      </trkpt>
      <trkpt lat="43.64876" lon="3.82232">
        <ele>138</ele>
        <time>2013-05-30T13:20:09.19</time>
      </trkpt>
      <trkpt lat="43.64871" lon="3.82236">
        <ele>138</ele>
        <time>2013-05-30T13:20:10.19</time>
      </trkpt>
      <trkpt lat="43.64867" lon="3.8224">
        <ele>138</ele>
        <time>2013-05-30T13:20:11.18</time>
      </trkpt>
      <trkpt lat="43.64862" lon="3.82244">
        <ele>137.5</ele>
        <time>2013-05-30T13:20:12.18</time>
      </trkpt>
      <trkpt lat="43.64858" lon="3.82248">
        <ele>137.5</ele>
        <time>2013-05-30T13:20:13.18</time>
      </trkpt>
      <trkpt lat="43.64853" lon="3.82252">
        <ele>137.5</ele>
        <time>2013-05-30T13:20:14.25</time>
      </trkpt>
      <trkpt lat="43.64849" lon="3.82256">
        <ele>137</ele>
        <time>2013-05-30T13:20:15.18</time>
      </trkpt>
      <trkpt lat="43.64844" lon="3.82261">
        <ele>137</ele>
        <time>2013-05-30T13:20:16.18</time>
      </trkpt>
      <trkpt lat="43.6484" lon="3.82265">
        <ele>137</ele>
        <time>2013-05-30T13:20:17.18</time>
      </trkpt>
      <trkpt lat="43.64836" lon="3.82269">
        <ele>137.5</ele>
        <time>2013-05-30T13:20:18.22</time>
      </trkpt>
      <trkpt lat="43.64831" lon="3.82272">
        <ele>138</ele>
        <time>2013-05-30T13:20:19.19</time>
      </trkpt>
      <trkpt lat="43.64827" lon="3.82276">
        <ele>138</ele>
        <time>2013-05-30T13:20:20.18</time>
      </trkpt>
      <trkpt lat="43.64822" lon="3.8228">
        <ele>137.5</ele>
        <time>2013-05-30T13:20:21.18</time>
      </trkpt>
      <trkpt lat="43.64818" lon="3.82284">
        <ele>138</ele>
        <time>2013-05-30T13:20:22.24</time>
      </trkpt>
      <trkpt lat="43.64814" lon="3.82288">
        <ele>138</ele>
        <time>2013-05-30T13:20:23.17</time>
      </trkpt>
      <trkpt lat="43.6481" lon="3.82291">
        <ele>138.5</ele>
        <time>2013-05-30T13:20:24.18</time>
      </trkpt>
      <trkpt lat="43.64806" lon="3.82295">
        <ele>138.5</ele>
        <time>2013-05-30T13:20:25.18</time>
      </trkpt>
      <trkpt lat="43.64802" lon="3.82299">
        <ele>138.5</ele>
        <time>2013-05-30T13:20:26.18</time>
      </trkpt>
      <trkpt lat="43.64798" lon="3.82302">
        <ele>138.5</ele>
        <time>2013-05-30T13:20:27.18</time>
      </trkpt>
      <trkpt lat="43.64794" lon="3.82304">
        <ele>138.5</ele>
        <time>2013-05-30T13:20:28.18</time>
      </trkpt>
      <trkpt lat="43.6479" lon="3.82307">
        <ele>138.5</ele>
        <time>2013-05-30T13:20:29.18</time>
      </trkpt>
      <trkpt lat="43.64785" lon="3.8231">
        <ele>139</ele>
        <time>2013-05-30T13:20:30.18</time>
      </trkpt>
      <trkpt lat="43.64781" lon="3.82312">
        <ele>139</ele>
        <time>2013-05-30T13:20:31.18</time>
      </trkpt>
      <trkpt lat="43.64776" lon="3.82313">
        <ele>138.5</ele>
        <time>2013-05-30T13:20:32.18</time>
      </trkpt>
      <trkpt lat="43.64772" lon="3.82315">
        <ele>139</ele>
        <time>2013-05-30T13:20:33.18</time>
      </trkpt>
      <trkpt lat="43.64768" lon="3.82316">
        <ele>140.5</ele>
        <time>2013-05-30T13:20:34.18</time>
      </trkpt>
      <trkpt lat="43.64763" lon="3.82317">
        <ele>141</ele>
        <time>2013-05-30T13:20:35.18</time>
      </trkpt>
      <trkpt lat="43.64759" lon="3.82319">
        <ele>141.5</ele>
        <time>2013-05-30T13:20:36.18</time>
      </trkpt>
      <trkpt lat="43.64754" lon="3.82321">
        <ele>142.5</ele>
        <time>2013-05-30T13:20:37.17</time>
      </trkpt>
      <trkpt lat="43.6475" lon="3.82322">
        <ele>142</ele>
        <time>2013-05-30T13:20:38.18</time>
      </trkpt>
      <trkpt lat="43.64745" lon="3.82323">
        <ele>141</ele>
        <time>2013-05-30T13:20:39.18</time>
      </trkpt>
      <trkpt lat="43.64741" lon="3.82325">
        <ele>141</ele>
        <time>2013-05-30T13:20:40.19</time>
      </trkpt>
      <trkpt lat="43.64736" lon="3.82327">
        <ele>141</ele>
        <time>2013-05-30T13:20:41.18</time>
      </trkpt>
      <trkpt lat="43.64732" lon="3.82328">
        <ele>142</ele>
        <time>2013-05-30T13:20:42.18</time>
      </trkpt>
      <trkpt lat="43.64728" lon="3.82329">
        <ele>143.5</ele>
        <time>2013-05-30T13:20:43.18</time>
      </trkpt>
      <trkpt lat="43.64724" lon="3.8233">
        <ele>144.5</ele>
        <time>2013-05-30T13:20:44.17</time>
      </trkpt>
      <trkpt lat="43.64721" lon="3.82331">
        <ele>143.5</ele>
        <time>2013-05-30T13:20:45.18</time>
      </trkpt>
      <trkpt lat="43.64717" lon="3.82331">
        <ele>143.5</ele>
        <time>2013-05-30T13:20:46.18</time>
      </trkpt>
      <trkpt lat="43.64712" lon="3.82332">
        <ele>143.5</ele>
        <time>2013-05-30T13:20:47.18</time>
      </trkpt>
      <trkpt lat="43.64709" lon="3.82333">
        <ele>143</ele>
        <time>2013-05-30T13:20:48.17</time>
      </trkpt>
      <trkpt lat="43.64705" lon="3.82333">
        <ele>143</ele>
        <time>2013-05-30T13:20:49.18</time>
      </trkpt>
      <trkpt lat="43.64701" lon="3.82333">
        <ele>143</ele>
        <time>2013-05-30T13:20:50.18</time>
      </trkpt>
      <trkpt lat="43.64697" lon="3.82332">
        <ele>144</ele>
        <time>2013-05-30T13:20:51.17</time>
      </trkpt>
      <trkpt lat="43.64693" lon="3.8233">
        <ele>145</ele>
        <time>2013-05-30T13:20:52.19</time>
      </trkpt>
      <trkpt lat="43.6469" lon="3.82328">
        <ele>145</ele>
        <time>2013-05-30T13:20:53.20</time>
      </trkpt>
      <trkpt lat="43.64687" lon="3.82325">
        <ele>146</ele>
        <time>2013-05-30T13:20:54.18</time>
      </trkpt>
      <trkpt lat="43.64683" lon="3.82322">
        <ele>146.5</ele>
        <time>2013-05-30T13:20:55.18</time>
      </trkpt>
      <trkpt lat="43.6468" lon="3.8232">
        <ele>147</ele>
        <time>2013-05-30T13:20:56.18</time>
      </trkpt>
      <trkpt lat="43.64677" lon="3.82318">
        <ele>147.5</ele>
        <time>2013-05-30T13:20:57.17</time>
      </trkpt>
      <trkpt lat="43.64674" lon="3.82317">
        <ele>148</ele>
        <time>2013-05-30T13:20:58.19</time>
      </trkpt>
      <trkpt lat="43.64671" lon="3.82317">
        <ele>148.5</ele>
        <time>2013-05-30T13:20:59.18</time>
      </trkpt>
      <trkpt lat="43.64668" lon="3.82318">
        <ele>149.5</ele>
        <time>2013-05-30T13:21:00.18</time>
      </trkpt>
      <trkpt lat="43.64664" lon="3.82319">
        <ele>149.5</ele>
        <time>2013-05-30T13:21:01.17</time>
      </trkpt>
      <trkpt lat="43.6466" lon="3.82321">
        <ele>149.5</ele>
        <time>2013-05-30T13:21:02.17</time>
      </trkpt>
      <trkpt lat="43.64657" lon="3.82323">
        <ele>149.5</ele>
        <time>2013-05-30T13:21:03.19</time>
      </trkpt>
      <trkpt lat="43.64654" lon="3.82324">
        <ele>150</ele>
        <time>2013-05-30T13:21:04.18</time>
      </trkpt>
      <trkpt lat="43.64651" lon="3.82326">
        <ele>150</ele>
        <time>2013-05-30T13:21:05.18</time>
      </trkpt>
      <trkpt lat="43.64649" lon="3.82328">
        <ele>151</ele>
        <time>2013-05-30T13:21:06.18</time>
      </trkpt>
      <trkpt lat="43.64646" lon="3.82329">
        <ele>151.5</ele>
        <time>2013-05-30T13:21:07.19</time>
      </trkpt>
      <trkpt lat="43.64643" lon="3.82329">
        <ele>153.5</ele>
        <time>2013-05-30T13:21:08.18</time>
      </trkpt>
      <trkpt lat="43.6464" lon="3.82329">
        <ele>154</ele>
        <time>2013-05-30T13:21:09.18</time>
      </trkpt>
      <trkpt lat="43.64637" lon="3.82329">
        <ele>153.5</ele>
        <time>2013-05-30T13:21:10.19</time>
      </trkpt>
      <trkpt lat="43.64635" lon="3.8233">
        <ele>153</ele>
        <time>2013-05-30T13:21:11.18</time>
      </trkpt>
      <trkpt lat="43.64631" lon="3.82332">
        <ele>153</ele>
        <time>2013-05-30T13:21:12.18</time>
      </trkpt>
      <trkpt lat="43.64628" lon="3.82333">
        <ele>152.5</ele>
        <time>2013-05-30T13:21:13.17</time>
      </trkpt>
      <trkpt lat="43.64625" lon="3.82333">
        <ele>153</ele>
        <time>2013-05-30T13:21:14.18</time>
      </trkpt>
      <trkpt lat="43.64622" lon="3.82334">
        <ele>153.5</ele>
        <time>2013-05-30T13:21:15.18</time>
      </trkpt>
      <trkpt lat="43.64619" lon="3.82333">
        <ele>153</ele>
        <time>2013-05-30T13:21:16.18</time>
      </trkpt>
      <trkpt lat="43.64615" lon="3.82333">
        <ele>152.5</ele>
        <time>2013-05-30T13:21:17.18</time>
      </trkpt>
      <trkpt lat="43.64612" lon="3.82332">
        <ele>152.5</ele>
        <time>2013-05-30T13:21:18.18</time>
      </trkpt>
      <trkpt lat="43.64609" lon="3.82331">
        <ele>152.5</ele>
        <time>2013-05-30T13:21:19.18</time>
      </trkpt>
      <trkpt lat="43.64606" lon="3.82331">
        <ele>152.5</ele>
        <time>2013-05-30T13:21:20.17</time>
      </trkpt>
      <trkpt lat="43.64603" lon="3.82331">
        <ele>152.5</ele>
        <time>2013-05-30T13:21:21.17</time>
      </trkpt>
      <trkpt lat="43.646" lon="3.82331">
        <ele>152</ele>
        <time>2013-05-30T13:21:22.17</time>
      </trkpt>
      <trkpt lat="43.64597" lon="3.8233">
        <ele>152</ele>
        <time>2013-05-30T13:21:23.18</time>
      </trkpt>
      <trkpt lat="43.64594" lon="3.8233">
        <ele>152</ele>
        <time>2013-05-30T13:21:24.18</time>
      </trkpt>
      <trkpt lat="43.64591" lon="3.82329">
        <ele>153</ele>
        <time>2013-05-30T13:21:25.18</time>
      </trkpt>
      <trkpt lat="43.64588" lon="3.82328">
        <ele>153</ele>
        <time>2013-05-30T13:21:26.17</time>
      </trkpt>
      <trkpt lat="43.64585" lon="3.82328">
        <ele>153</ele>
        <time>2013-05-30T13:21:27.17</time>
      </trkpt>
      <trkpt lat="43.64582" lon="3.82327">
        <ele>153</ele>
        <time>2013-05-30T13:21:28.17</time>
      </trkpt>
      <trkpt lat="43.64579" lon="3.82327">
        <ele>153.5</ele>
        <time>2013-05-30T13:21:29.18</time>
      </trkpt>
      <trkpt lat="43.64576" lon="3.82325">
        <ele>153</ele>
        <time>2013-05-30T13:21:30.18</time>
      </trkpt>
      <trkpt lat="43.64572" lon="3.82324">
        <ele>153.5</ele>
        <time>2013-05-30T13:21:31.18</time>
      </trkpt>
      <trkpt lat="43.64569" lon="3.82322">
        <ele>153.5</ele>
        <time>2013-05-30T13:21:32.17</time>
      </trkpt>
      <trkpt lat="43.64566" lon="3.82321">
        <ele>154</ele>
        <time>2013-05-30T13:21:33.18</time>
      </trkpt>
      <trkpt lat="43.64563" lon="3.82319">
        <ele>155.5</ele>
        <time>2013-05-30T13:21:34.18</time>
      </trkpt>
      <trkpt lat="43.6456" lon="3.82318">
        <ele>155.5</ele>
        <time>2013-05-30T13:21:35.17</time>
      </trkpt>
      <trkpt lat="43.64557" lon="3.82317">
        <ele>156</ele>
        <time>2013-05-30T13:21:36.17</time>
      </trkpt>
      <trkpt lat="43.64553" lon="3.82316">
        <ele>156</ele>
        <time>2013-05-30T13:21:37.17</time>
      </trkpt>
      <trkpt lat="43.6455" lon="3.82315">
        <ele>156.5</ele>
        <time>2013-05-30T13:21:38.18</time>
      </trkpt>
      <trkpt lat="43.64547" lon="3.82314">
        <ele>156.5</ele>
        <time>2013-05-30T13:21:39.17</time>
      </trkpt>
      <trkpt lat="43.64543" lon="3.82314">
        <ele>156.5</ele>
        <time>2013-05-30T13:21:40.25</time>
      </trkpt>
      <trkpt lat="43.6454" lon="3.82313">
        <ele>156.5</ele>
        <time>2013-05-30T13:21:41.18</time>
      </trkpt>
      <trkpt lat="43.64536" lon="3.82312">
        <ele>156.5</ele>
        <time>2013-05-30T13:21:42.17</time>
      </trkpt>
      <trkpt lat="43.64532" lon="3.82312">
        <ele>157</ele>
        <time>2013-05-30T13:21:43.18</time>
      </trkpt>
      <trkpt lat="43.64529" lon="3.82311">
        <ele>157</ele>
        <time>2013-05-30T13:21:44.18</time>
      </trkpt>
      <trkpt lat="43.64525" lon="3.8231">
        <ele>157</ele>
        <time>2013-05-30T13:21:45.18</time>
      </trkpt>
      <trkpt lat="43.64522" lon="3.82309">
        <ele>157</ele>
        <time>2013-05-30T13:21:46.18</time>
      </trkpt>
      <trkpt lat="43.64518" lon="3.82308">
        <ele>157</ele>
        <time>2013-05-30T13:21:47.17</time>
      </trkpt>
      <trkpt lat="43.64514" lon="3.82308">
        <ele>157</ele>
        <time>2013-05-30T13:21:48.17</time>
      </trkpt>
      <trkpt lat="43.6451" lon="3.82307">
        <ele>157</ele>
        <time>2013-05-30T13:21:49.19</time>
      </trkpt>
      <trkpt lat="43.64506" lon="3.82305">
        <ele>157</ele>
        <time>2013-05-30T13:21:50.17</time>
      </trkpt>
      <trkpt lat="43.64503" lon="3.82302">
        <ele>157</ele>
        <time>2013-05-30T13:21:51.18</time>
      </trkpt>
      <trkpt lat="43.645" lon="3.823">
        <ele>155.5</ele>
        <time>2013-05-30T13:21:52.18</time>
      </trkpt>
      <trkpt lat="43.64496" lon="3.82296">
        <ele>154.5</ele>
        <time>2013-05-30T13:21:53.17</time>
      </trkpt>
      <trkpt lat="43.64491" lon="3.82292">
        <ele>154</ele>
        <time>2013-05-30T13:21:54.18</time>
      </trkpt>
      <trkpt lat="43.64486" lon="3.82289">
        <ele>152.5</ele>
        <time>2013-05-30T13:21:55.18</time>
      </trkpt>
      <trkpt lat="43.64482" lon="3.82289">
        <ele>152.5</ele>
        <time>2013-05-30T13:21:56.18</time>
      </trkpt>
      <trkpt lat="43.6448" lon="3.82291">
        <ele>153.5</ele>
        <time>2013-05-30T13:21:57.17</time>
      </trkpt>
      <trkpt lat="43.64471" lon="3.82294">
        <ele>153.5</ele>
        <time>2013-05-30T13:21:59.17</time>
      </trkpt>
      <trkpt lat="43.64468" lon="3.8229">
        <ele>151.5</ele>
        <time>2013-05-30T13:22:00.17</time>
      </trkpt>
      <trkpt lat="43.64466" lon="3.82285">
        <ele>151</ele>
        <time>2013-05-30T13:22:01.18</time>
      </trkpt>
      <trkpt lat="43.64465" lon="3.8228">
        <ele>151</ele>
        <time>2013-05-30T13:22:02.17</time>
      </trkpt>
      <trkpt lat="43.64461" lon="3.82279">
        <ele>149.5</ele>
        <time>2013-05-30T13:22:03.17</time>
      </trkpt>
      <trkpt lat="43.64457" lon="3.82277">
        <ele>150</ele>
        <time>2013-05-30T13:22:04.17</time>
      </trkpt>
      <trkpt lat="43.64453" lon="3.82276">
        <ele>150</ele>
        <time>2013-05-30T13:22:05.18</time>
      </trkpt>
      <trkpt lat="43.6445" lon="3.82273">
        <ele>150</ele>
        <time>2013-05-30T13:22:06.18</time>
      </trkpt>
      <trkpt lat="43.64446" lon="3.82271">
        <ele>150</ele>
        <time>2013-05-30T13:22:07.17</time>
      </trkpt>
      <trkpt lat="43.64442" lon="3.82267">
        <ele>150</ele>
        <time>2013-05-30T13:22:08.17</time>
      </trkpt>
      <trkpt lat="43.64439" lon="3.82264">
        <ele>150</ele>
        <time>2013-05-30T13:22:09.17</time>
      </trkpt>
      <trkpt lat="43.64435" lon="3.82261">
        <ele>150</ele>
        <time>2013-05-30T13:22:10.17</time>
      </trkpt>
      <trkpt lat="43.64432" lon="3.82257">
        <ele>150</ele>
        <time>2013-05-30T13:22:11.19</time>
      </trkpt>
      <trkpt lat="43.64428" lon="3.82253">
        <ele>150.5</ele>
        <time>2013-05-30T13:22:12.18</time>
      </trkpt>
      <trkpt lat="43.64426" lon="3.82248">
        <ele>150</ele>
        <time>2013-05-30T13:22:13.17</time>
      </trkpt>
      <trkpt lat="43.64423" lon="3.82243">
        <ele>150</ele>
        <time>2013-05-30T13:22:14.19</time>
      </trkpt>
      <trkpt lat="43.64419" lon="3.8224">
        <ele>150</ele>
        <time>2013-05-30T13:22:15.18</time>
      </trkpt>
      <trkpt lat="43.64415" lon="3.82243">
        <ele>150</ele>
        <time>2013-05-30T13:22:16.18</time>
      </trkpt>
      <trkpt lat="43.64412" lon="3.82247">
        <ele>150.5</ele>
        <time>2013-05-30T13:22:17.18</time>
      </trkpt>
      <trkpt lat="43.64409" lon="3.82253">
        <ele>148.5</ele>
        <time>2013-05-30T13:22:18.17</time>
      </trkpt>
      <trkpt lat="43.64405" lon="3.82257">
        <ele>148.5</ele>
        <time>2013-05-30T13:22:19.17</time>
      </trkpt>
      <trkpt lat="43.64401" lon="3.8226">
        <ele>148.5</ele>
        <time>2013-05-30T13:22:20.17</time>
      </trkpt>
      <trkpt lat="43.64397" lon="3.82262">
        <ele>148.5</ele>
        <time>2013-05-30T13:22:21.17</time>
      </trkpt>
      <trkpt lat="43.64392" lon="3.82264">
        <ele>148</ele>
        <time>2013-05-30T13:22:22.17</time>
      </trkpt>
      <trkpt lat="43.64387" lon="3.82266">
        <ele>147</ele>
        <time>2013-05-30T13:22:23.17</time>
      </trkpt>
      <trkpt lat="43.64382" lon="3.82267">
        <ele>146.5</ele>
        <time>2013-05-30T13:22:24.17</time>
      </trkpt>
      <trkpt lat="43.64377" lon="3.82267">
        <ele>146.5</ele>
        <time>2013-05-30T13:22:25.17</time>
      </trkpt>
      <trkpt lat="43.64372" lon="3.82268">
        <ele>146.5</ele>
        <time>2013-05-30T13:22:26.17</time>
      </trkpt>
      <trkpt lat="43.6437" lon="3.82273">
        <ele>146</ele>
        <time>2013-05-30T13:22:27.18</time>
      </trkpt>
      <trkpt lat="43.64366" lon="3.82276">
        <ele>146</ele>
        <time>2013-05-30T13:22:28.17</time>
      </trkpt>
      <trkpt lat="43.64361" lon="3.82276">
        <ele>146</ele>
        <time>2013-05-30T13:22:29.17</time>
      </trkpt>
      <trkpt lat="43.64358" lon="3.82273">
        <ele>146</ele>
        <time>2013-05-30T13:22:30.17</time>
      </trkpt>
      <trkpt lat="43.6435" lon="3.8228">
        <ele>145.5</ele>
        <time>2013-05-30T13:22:32.18</time>
      </trkpt>
      <trkpt lat="43.64345" lon="3.8228">
        <ele>143.5</ele>
        <time>2013-05-30T13:22:33.18</time>
      </trkpt>
      <trkpt lat="43.64341" lon="3.82285">
        <ele>143.5</ele>
        <time>2013-05-30T13:22:35.18</time>
      </trkpt>
      <trkpt lat="43.64338" lon="3.82288">
        <ele>143</ele>
        <time>2013-05-30T13:22:36.18</time>
      </trkpt>
      <trkpt lat="43.64336" lon="3.82291">
        <ele>142.5</ele>
        <time>2013-05-30T13:22:37.18</time>
      </trkpt>
      <trkpt lat="43.64332" lon="3.82293">
        <ele>143</ele>
        <time>2013-05-30T13:22:38.17</time>
      </trkpt>
      <trkpt lat="43.64329" lon="3.82293">
        <ele>142</ele>
        <time>2013-05-30T13:22:39.17</time>
      </trkpt>
      <trkpt lat="43.64325" lon="3.82294">
        <ele>141.5</ele>
        <time>2013-05-30T13:22:40.18</time>
      </trkpt>
      <trkpt lat="43.64321" lon="3.82295">
        <ele>140.5</ele>
        <time>2013-05-30T13:22:41.17</time>
      </trkpt>
      <trkpt lat="43.64317" lon="3.82296">
        <ele>140.5</ele>
        <time>2013-05-30T13:22:42.18</time>
      </trkpt>
      <trkpt lat="43.64313" lon="3.82297">
        <ele>139.5</ele>
        <time>2013-05-30T13:22:43.17</time>
      </trkpt>
      <trkpt lat="43.64309" lon="3.82298">
        <ele>140</ele>
        <time>2013-05-30T13:22:44.17</time>
      </trkpt>
      <trkpt lat="43.64304" lon="3.823">
        <ele>140.5</ele>
        <time>2013-05-30T13:22:45.18</time>
      </trkpt>
      <trkpt lat="43.643" lon="3.82301">
        <ele>141</ele>
        <time>2013-05-30T13:22:46.18</time>
      </trkpt>
      <trkpt lat="43.64296" lon="3.823">
        <ele>141</ele>
        <time>2013-05-30T13:22:47.18</time>
      </trkpt>
      <trkpt lat="43.64292" lon="3.82298">
        <ele>141.5</ele>
        <time>2013-05-30T13:22:48.18</time>
      </trkpt>
      <trkpt lat="43.64289" lon="3.82299">
        <ele>141.5</ele>
        <time>2013-05-30T13:22:49.17</time>
      </trkpt>
      <trkpt lat="43.64287" lon="3.82304">
        <ele>141.5</ele>
        <time>2013-05-30T13:22:50.18</time>
      </trkpt>
      <trkpt lat="43.64284" lon="3.82308">
        <ele>142.5</ele>
        <time>2013-05-30T13:22:51.18</time>
      </trkpt>
      <trkpt lat="43.6428" lon="3.82312">
        <ele>142.5</ele>
        <time>2013-05-30T13:22:52.18</time>
      </trkpt>
      <trkpt lat="43.64276" lon="3.82315">
        <ele>143</ele>
        <time>2013-05-30T13:22:53.18</time>
      </trkpt>
      <trkpt lat="43.64271" lon="3.82316">
        <ele>142.5</ele>
        <time>2013-05-30T13:22:54.17</time>
      </trkpt>
      <trkpt lat="43.64268" lon="3.82314">
        <ele>142.5</ele>
        <time>2013-05-30T13:22:55.17</time>
      </trkpt>
      <trkpt lat="43.64264" lon="3.82311">
        <ele>142.5</ele>
        <time>2013-05-30T13:22:56.18</time>
      </trkpt>
      <trkpt lat="43.64261" lon="3.82309">
        <ele>144</ele>
        <time>2013-05-30T13:22:57.17</time>
      </trkpt>
      <trkpt lat="43.64258" lon="3.82307">
        <ele>145.5</ele>
        <time>2013-05-30T13:22:58.17</time>
      </trkpt>
      <trkpt lat="43.64255" lon="3.82306">
        <ele>145.5</ele>
        <time>2013-05-30T13:22:59.18</time>
      </trkpt>
      <trkpt lat="43.64251" lon="3.82305">
        <ele>146.5</ele>
        <time>2013-05-30T13:23:00.17</time>
      </trkpt>
      <trkpt lat="43.64248" lon="3.82306">
        <ele>147</ele>
        <time>2013-05-30T13:23:01.23</time>
      </trkpt>
      <trkpt lat="43.64245" lon="3.82306">
        <ele>147.5</ele>
        <time>2013-05-30T13:23:02.17</time>
      </trkpt>
      <trkpt lat="43.64242" lon="3.82307">
        <ele>148.5</ele>
        <time>2013-05-30T13:23:03.17</time>
      </trkpt>
      <trkpt lat="43.64239" lon="3.82307">
        <ele>148.5</ele>
        <time>2013-05-30T13:23:04.18</time>
      </trkpt>
      <trkpt lat="43.64236" lon="3.82308">
        <ele>148.5</ele>
        <time>2013-05-30T13:23:05.17</time>
      </trkpt>
      <trkpt lat="43.64233" lon="3.82308">
        <ele>149</ele>
        <time>2013-05-30T13:23:06.17</time>
      </trkpt>
      <trkpt lat="43.6423" lon="3.8231">
        <ele>148.5</ele>
        <time>2013-05-30T13:23:07.17</time>
      </trkpt>
      <trkpt lat="43.64227" lon="3.82311">
        <ele>148.5</ele>
        <time>2013-05-30T13:23:08.18</time>
      </trkpt>
      <trkpt lat="43.64223" lon="3.82312">
        <ele>148</ele>
        <time>2013-05-30T13:23:09.17</time>
      </trkpt>
      <trkpt lat="43.6422" lon="3.82312">
        <ele>148.5</ele>
        <time>2013-05-30T13:23:10.18</time>
      </trkpt>
      <trkpt lat="43.64217" lon="3.82313">
        <ele>148</ele>
        <time>2013-05-30T13:23:11.17</time>
      </trkpt>
      <trkpt lat="43.64214" lon="3.82313">
        <ele>148</ele>
        <time>2013-05-30T13:23:12.18</time>
      </trkpt>
      <trkpt lat="43.6421" lon="3.82314">
        <ele>149.5</ele>
        <time>2013-05-30T13:23:13.25</time>
      </trkpt>
      <trkpt lat="43.64207" lon="3.82314">
        <ele>148</ele>
        <time>2013-05-30T13:23:14.19</time>
      </trkpt>
      <trkpt lat="43.64204" lon="3.82315">
        <ele>147.5</ele>
        <time>2013-05-30T13:23:15.18</time>
      </trkpt>
      <trkpt lat="43.64201" lon="3.82317">
        <ele>148</ele>
        <time>2013-05-30T13:23:16.18</time>
      </trkpt>
      <trkpt lat="43.64197" lon="3.82321">
        <ele>148</ele>
        <time>2013-05-30T13:23:17.18</time>
      </trkpt>
      <trkpt lat="43.64194" lon="3.82322">
        <ele>146.5</ele>
        <time>2013-05-30T13:23:18.18</time>
      </trkpt>
      <trkpt lat="43.6419" lon="3.82325">
        <ele>146.5</ele>
        <time>2013-05-30T13:23:19.19</time>
      </trkpt>
      <trkpt lat="43.64187" lon="3.82327">
        <ele>146</ele>
        <time>2013-05-30T13:23:20.18</time>
      </trkpt>
      <trkpt lat="43.64184" lon="3.82329">
        <ele>144.5</ele>
        <time>2013-05-30T13:23:21.18</time>
      </trkpt>
      <trkpt lat="43.64181" lon="3.82332">
        <ele>144</ele>
        <time>2013-05-30T13:23:22.18</time>
      </trkpt>
      <trkpt lat="43.6418" lon="3.82335">
        <ele>144</ele>
        <time>2013-05-30T13:23:23.18</time>
      </trkpt>
      <trkpt lat="43.64179" lon="3.8234">
        <ele>143.5</ele>
        <time>2013-05-30T13:23:24.18</time>
      </trkpt>
      <trkpt lat="43.64178" lon="3.82345">
        <ele>143</ele>
        <time>2013-05-30T13:23:25.18</time>
      </trkpt>
      <trkpt lat="43.64177" lon="3.8235">
        <ele>142.5</ele>
        <time>2013-05-30T13:23:26.18</time>
      </trkpt>
      <trkpt lat="43.64176" lon="3.82356">
        <ele>142.5</ele>
        <time>2013-05-30T13:23:27.17</time>
      </trkpt>
      <trkpt lat="43.64174" lon="3.82361">
        <ele>142</ele>
        <time>2013-05-30T13:23:28.18</time>
      </trkpt>
      <trkpt lat="43.64171" lon="3.82365">
        <ele>140.5</ele>
        <time>2013-05-30T13:23:29.18</time>
      </trkpt>
      <trkpt lat="43.64168" lon="3.82368">
        <ele>139.5</ele>
        <time>2013-05-30T13:23:30.18</time>
      </trkpt>
      <trkpt lat="43.64169" lon="3.82371">
        <ele>140</ele>
        <time>2013-05-30T13:23:31.18</time>
      </trkpt>
      <trkpt lat="43.64167" lon="3.82372">
        <ele>140.5</ele>
        <time>2013-05-30T13:23:32.18</time>
      </trkpt>
      <trkpt lat="43.64165" lon="3.82374">
        <ele>143.5</ele>
        <time>2013-05-30T13:23:34.18</time>
      </trkpt>
      <trkpt lat="43.6416" lon="3.82382">
        <ele>144</ele>
        <time>2013-05-30T13:23:36.18</time>
      </trkpt>
      <trkpt lat="43.64161" lon="3.82389">
        <ele>144.5</ele>
        <time>2013-05-30T13:23:37.17</time>
      </trkpt>
      <trkpt lat="43.6416" lon="3.82394">
        <ele>145</ele>
        <time>2013-05-30T13:23:38.18</time>
      </trkpt>
      <trkpt lat="43.64159" lon="3.824">
        <ele>145.5</ele>
        <time>2013-05-30T13:23:39.18</time>
      </trkpt>
      <trkpt lat="43.64157" lon="3.82406">
        <ele>146.5</ele>
        <time>2013-05-30T13:23:40.17</time>
      </trkpt>
      <trkpt lat="43.64154" lon="3.82411">
        <ele>147.5</ele>
        <time>2013-05-30T13:23:41.17</time>
      </trkpt>
      <trkpt lat="43.64152" lon="3.82417">
        <ele>148</ele>
        <time>2013-05-30T13:23:42.17</time>
      </trkpt>
      <trkpt lat="43.6415" lon="3.82422">
        <ele>147</ele>
        <time>2013-05-30T13:23:43.18</time>
      </trkpt>
      <trkpt lat="43.64151" lon="3.82427">
        <ele>146.5</ele>
        <time>2013-05-30T13:23:44.18</time>
      </trkpt>
      <trkpt lat="43.64151" lon="3.82432">
        <ele>145.5</ele>
        <time>2013-05-30T13:23:45.18</time>
      </trkpt>
      <trkpt lat="43.64148" lon="3.82435">
        <ele>144</ele>
        <time>2013-05-30T13:23:46.18</time>
      </trkpt>
      <trkpt lat="43.64146" lon="3.8244">
        <ele>143.5</ele>
        <time>2013-05-30T13:23:47.18</time>
      </trkpt>
      <trkpt lat="43.64147" lon="3.82447">
        <ele>143.5</ele>
        <time>2013-05-30T13:23:48.18</time>
      </trkpt>
      <trkpt lat="43.64147" lon="3.82453">
        <ele>142.5</ele>
        <time>2013-05-30T13:23:49.18</time>
      </trkpt>
      <trkpt lat="43.64145" lon="3.8246">
        <ele>142</ele>
        <time>2013-05-30T13:23:50.18</time>
      </trkpt>
      <trkpt lat="43.64142" lon="3.82466">
        <ele>142</ele>
        <time>2013-05-30T13:23:51.18</time>
      </trkpt>
      <trkpt lat="43.64139" lon="3.82471">
        <ele>142</ele>
        <time>2013-05-30T13:23:52.18</time>
      </trkpt>
      <trkpt lat="43.64136" lon="3.82475">
        <ele>142</ele>
        <time>2013-05-30T13:23:53.17</time>
      </trkpt>
      <trkpt lat="43.64135" lon="3.82479">
        <ele>141.5</ele>
        <time>2013-05-30T13:23:54.18</time>
      </trkpt>
      <trkpt lat="43.64134" lon="3.82484">
        <ele>141</ele>
        <time>2013-05-30T13:23:55.18</time>
      </trkpt>
      <trkpt lat="43.64133" lon="3.82491">
        <ele>140.5</ele>
        <time>2013-05-30T13:23:56.18</time>
      </trkpt>
      <trkpt lat="43.6413" lon="3.82496">
        <ele>140</ele>
        <time>2013-05-30T13:23:57.18</time>
      </trkpt>
      <trkpt lat="43.64125" lon="3.82501">
        <ele>138.5</ele>
        <time>2013-05-30T13:23:58.18</time>
      </trkpt>
      <trkpt lat="43.64119" lon="3.82508">
        <ele>139.5</ele>
        <time>2013-05-30T13:24:00.18</time>
      </trkpt>
      <trkpt lat="43.64117" lon="3.82512">
        <ele>140</ele>
        <time>2013-05-30T13:24:01.25</time>
      </trkpt>
      <trkpt lat="43.64115" lon="3.82516">
        <ele>139.5</ele>
        <time>2013-05-30T13:24:02.18</time>
      </trkpt>
      <trkpt lat="43.64113" lon="3.82522">
        <ele>139</ele>
        <time>2013-05-30T13:24:03.18</time>
      </trkpt>
      <trkpt lat="43.6411" lon="3.82527">
        <ele>138.5</ele>
        <time>2013-05-30T13:24:04.18</time>
      </trkpt>
      <trkpt lat="43.64108" lon="3.82534">
        <ele>136.5</ele>
        <time>2013-05-30T13:24:05.18</time>
      </trkpt>
      <trkpt lat="43.64106" lon="3.82541">
        <ele>136</ele>
        <time>2013-05-30T13:24:06.18</time>
      </trkpt>
      <trkpt lat="43.64104" lon="3.82549">
        <ele>135</ele>
        <time>2013-05-30T13:24:07.17</time>
      </trkpt>
      <trkpt lat="43.64102" lon="3.82556">
        <ele>134.5</ele>
        <time>2013-05-30T13:24:08.18</time>
      </trkpt>
      <trkpt lat="43.64097" lon="3.82562">
        <ele>134</ele>
        <time>2013-05-30T13:24:09.18</time>
      </trkpt>
      <trkpt lat="43.64095" lon="3.82569">
        <ele>133</ele>
        <time>2013-05-30T13:24:10.17</time>
      </trkpt>
      <trkpt lat="43.64092" lon="3.82577">
        <ele>132.5</ele>
        <time>2013-05-30T13:24:11.18</time>
      </trkpt>
      <trkpt lat="43.64087" lon="3.82582">
        <ele>132</ele>
        <time>2013-05-30T13:24:12.17</time>
      </trkpt>
      <trkpt lat="43.64085" lon="3.8259">
        <ele>131.5</ele>
        <time>2013-05-30T13:24:13.18</time>
      </trkpt>
      <trkpt lat="43.64082" lon="3.82598">
        <ele>131</ele>
        <time>2013-05-30T13:24:14.18</time>
      </trkpt>
      <trkpt lat="43.6408" lon="3.82606">
        <ele>130.5</ele>
        <time>2013-05-30T13:24:15.18</time>
      </trkpt>
      <trkpt lat="43.64078" lon="3.82614">
        <ele>130</ele>
        <time>2013-05-30T13:24:16.18</time>
      </trkpt>
      <trkpt lat="43.64076" lon="3.82623">
        <ele>130</ele>
        <time>2013-05-30T13:24:17.18</time>
      </trkpt>
      <trkpt lat="43.64076" lon="3.82631">
        <ele>129</ele>
        <time>2013-05-30T13:24:18.18</time>
      </trkpt>
      <trkpt lat="43.64074" lon="3.8264">
        <ele>128.5</ele>
        <time>2013-05-30T13:24:19.18</time>
      </trkpt>
      <trkpt lat="43.64071" lon="3.82649">
        <ele>128</ele>
        <time>2013-05-30T13:24:20.18</time>
      </trkpt>
      <trkpt lat="43.64067" lon="3.82657">
        <ele>127.5</ele>
        <time>2013-05-30T13:24:21.18</time>
      </trkpt>
      <trkpt lat="43.64063" lon="3.82665">
        <ele>127.5</ele>
        <time>2013-05-30T13:24:22.17</time>
      </trkpt>
      <trkpt lat="43.64059" lon="3.82673">
        <ele>127.5</ele>
        <time>2013-05-30T13:24:23.18</time>
      </trkpt>
      <trkpt lat="43.64056" lon="3.82682">
        <ele>127.5</ele>
        <time>2013-05-30T13:24:24.17</time>
      </trkpt>
      <trkpt lat="43.64054" lon="3.82691">
        <ele>127.5</ele>
        <time>2013-05-30T13:24:25.17</time>
      </trkpt>
      <trkpt lat="43.64052" lon="3.827">
        <ele>127</ele>
        <time>2013-05-30T13:24:26.17</time>
      </trkpt>
      <trkpt lat="43.64048" lon="3.82708">
        <ele>127</ele>
        <time>2013-05-30T13:24:27.17</time>
      </trkpt>
      <trkpt lat="43.64043" lon="3.82717">
        <ele>127</ele>
        <time>2013-05-30T13:24:28.17</time>
      </trkpt>
      <trkpt lat="43.64039" lon="3.82725">
        <ele>126.5</ele>
        <time>2013-05-30T13:24:29.17</time>
      </trkpt>
      <trkpt lat="43.64034" lon="3.82734">
        <ele>126.5</ele>
        <time>2013-05-30T13:24:30.17</time>
      </trkpt>
      <trkpt lat="43.6403" lon="3.82742">
        <ele>127</ele>
        <time>2013-05-30T13:24:31.17</time>
      </trkpt>
      <trkpt lat="43.64026" lon="3.82751">
        <ele>126.5</ele>
        <time>2013-05-30T13:24:32.17</time>
      </trkpt>
      <trkpt lat="43.64023" lon="3.82759">
        <ele>127</ele>
        <time>2013-05-30T13:24:33.17</time>
      </trkpt>
      <trkpt lat="43.64019" lon="3.82765">
        <ele>127</ele>
        <time>2013-05-30T13:24:34.17</time>
      </trkpt>
      <trkpt lat="43.64015" lon="3.82771">
        <ele>127</ele>
        <time>2013-05-30T13:24:35.17</time>
      </trkpt>
      <trkpt lat="43.64015" lon="3.82779">
        <ele>127</ele>
        <time>2013-05-30T13:24:36.17</time>
      </trkpt>
      <trkpt lat="43.64012" lon="3.82786">
        <ele>127.5</ele>
        <time>2013-05-30T13:24:37.17</time>
      </trkpt>
      <trkpt lat="43.64007" lon="3.82791">
        <ele>128.5</ele>
        <time>2013-05-30T13:24:38.17</time>
      </trkpt>
      <trkpt lat="43.64" lon="3.82793">
        <ele>129</ele>
        <time>2013-05-30T13:24:39.18</time>
      </trkpt>
      <trkpt lat="43.63993" lon="3.82792">
        <ele>129.5</ele>
        <time>2013-05-30T13:24:40.18</time>
      </trkpt>
      <trkpt lat="43.63987" lon="3.82793">
        <ele>129.5</ele>
        <time>2013-05-30T13:24:41.18</time>
      </trkpt>
      <trkpt lat="43.6398" lon="3.82798">
        <ele>129.5</ele>
        <time>2013-05-30T13:24:42.18</time>
      </trkpt>
      <trkpt lat="43.63974" lon="3.828">
        <ele>130</ele>
        <time>2013-05-30T13:24:43.18</time>
      </trkpt>
      <trkpt lat="43.63968" lon="3.82802">
        <ele>129.5</ele>
        <time>2013-05-30T13:24:44.18</time>
      </trkpt>
      <trkpt lat="43.63963" lon="3.82805">
        <ele>129.5</ele>
        <time>2013-05-30T13:24:45.18</time>
      </trkpt>
      <trkpt lat="43.63958" lon="3.8281">
        <ele>130.5</ele>
        <time>2013-05-30T13:24:46.18</time>
      </trkpt>
      <trkpt lat="43.63952" lon="3.82815">
        <ele>130.5</ele>
        <time>2013-05-30T13:24:47.18</time>
      </trkpt>
      <trkpt lat="43.63947" lon="3.82818">
        <ele>130.5</ele>
        <time>2013-05-30T13:24:48.18</time>
      </trkpt>
      <trkpt lat="43.63944" lon="3.8282">
        <ele>131.5</ele>
        <time>2013-05-30T13:24:49.17</time>
      </trkpt>
      <trkpt lat="43.63942" lon="3.8282">
        <ele>132</ele>
        <time>2013-05-30T13:24:50.17</time>
      </trkpt>
      <trkpt lat="43.63941" lon="3.82819">
        <ele>132</ele>
        <time>2013-05-30T13:24:51.18</time>
      </trkpt>
      <trkpt lat="43.6394" lon="3.82819">
        <ele>132</ele>
        <time>2013-05-30T13:24:52.18</time>
      </trkpt>
      <trkpt lat="43.63939" lon="3.82818">
        <ele>133</ele>
        <time>2013-05-30T13:24:53.18</time>
      </trkpt>
      <trkpt lat="43.63938" lon="3.82817">
        <ele>134.5</ele>
        <time>2013-05-30T13:24:54.17</time>
      </trkpt>
      <trkpt lat="43.63937" lon="3.82819">
        <ele>135</ele>
        <time>2013-05-30T13:24:55.17</time>
      </trkpt>
      <trkpt lat="43.63937" lon="3.82819">
        <ele>135</ele>
        <time>2013-05-30T13:24:56.18</time>
      </trkpt>
      <trkpt lat="43.63937" lon="3.8282">
        <ele>136.5</ele>
        <time>2013-05-30T13:24:57.18</time>
      </trkpt>
      <trkpt lat="43.63938" lon="3.82821">
        <ele>136.5</ele>
        <time>2013-05-30T13:24:58.18</time>
      </trkpt>
      <trkpt lat="43.63939" lon="3.82821">
        <ele>136.5</ele>
        <time>2013-05-30T13:24:59.18</time>
      </trkpt>
      <trkpt lat="43.63941" lon="3.82822">
        <ele>136</ele>
        <time>2013-05-30T13:25:00.18</time>
      </trkpt>
      <trkpt lat="43.63942" lon="3.82822">
        <ele>136</ele>
        <time>2013-05-30T13:25:01.18</time>
      </trkpt>
      <trkpt lat="43.63943" lon="3.82822">
        <ele>137.5</ele>
        <time>2013-05-30T13:25:02.18</time>
      </trkpt>
      <trkpt lat="43.63945" lon="3.8282">
        <ele>137.5</ele>
        <time>2013-05-30T13:25:03.18</time>
      </trkpt>
      <trkpt lat="43.63945" lon="3.8282">
        <ele>136</ele>
        <time>2013-05-30T13:25:04.18</time>
      </trkpt>
      <trkpt lat="43.63944" lon="3.82819">
        <ele>137</ele>
        <time>2013-05-30T13:25:05.17</time>
      </trkpt>
      <trkpt lat="43.63939" lon="3.82827">
        <ele>137</ele>
        <time>2013-05-30T13:25:07.17</time>
      </trkpt>
      <trkpt lat="43.63936" lon="3.82827">
        <ele>135</ele>
        <time>2013-05-30T13:25:08.17</time>
      </trkpt>
      <trkpt lat="43.63932" lon="3.82828">
        <ele>134.5</ele>
        <time>2013-05-30T13:25:09.18</time>
      </trkpt>
      <trkpt lat="43.63929" lon="3.8283">
        <ele>134</ele>
        <time>2013-05-30T13:25:10.19</time>
      </trkpt>
      <trkpt lat="43.63926" lon="3.82831">
        <ele>133.5</ele>
        <time>2013-05-30T13:25:11.18</time>
      </trkpt>
      <trkpt lat="43.63925" lon="3.82832">
        <ele>134</ele>
        <time>2013-05-30T13:25:12.18</time>
      </trkpt>
      <trkpt lat="43.63922" lon="3.82832">
        <ele>134</ele>
        <time>2013-05-30T13:25:13.18</time>
      </trkpt>
      <trkpt lat="43.63919" lon="3.82831">
        <ele>134.5</ele>
        <time>2013-05-30T13:25:14.19</time>
      </trkpt>
      <trkpt lat="43.63916" lon="3.82829">
        <ele>135.5</ele>
        <time>2013-05-30T13:25:15.18</time>
      </trkpt>
      <trkpt lat="43.63913" lon="3.82827">
        <ele>135</ele>
        <time>2013-05-30T13:25:16.18</time>
      </trkpt>
      <trkpt lat="43.6391" lon="3.82825">
        <ele>134.5</ele>
        <time>2013-05-30T13:25:17.18</time>
      </trkpt>
      <trkpt lat="43.63907" lon="3.82822">
        <ele>134.5</ele>
        <time>2013-05-30T13:25:18.18</time>
      </trkpt>
      <trkpt lat="43.63905" lon="3.8282">
        <ele>135</ele>
        <time>2013-05-30T13:25:19.18</time>
      </trkpt>
      <trkpt lat="43.63901" lon="3.8282">
        <ele>134.5</ele>
        <time>2013-05-30T13:25:20.18</time>
      </trkpt>
      <trkpt lat="43.63897" lon="3.82818">
        <ele>135</ele>
        <time>2013-05-30T13:25:21.18</time>
      </trkpt>
      <trkpt lat="43.63894" lon="3.82816">
        <ele>134</ele>
        <time>2013-05-30T13:25:22.18</time>
      </trkpt>
      <trkpt lat="43.63892" lon="3.82812">
        <ele>134</ele>
        <time>2013-05-30T13:25:23.18</time>
      </trkpt>
      <trkpt lat="43.63891" lon="3.82807">
        <ele>134.5</ele>
        <time>2013-05-30T13:25:24.27</time>
      </trkpt>
      <trkpt lat="43.63889" lon="3.82803">
        <ele>134.5</ele>
        <time>2013-05-30T13:25:25.17</time>
      </trkpt>
      <trkpt lat="43.63887" lon="3.82798">
        <ele>135</ele>
        <time>2013-05-30T13:25:26.17</time>
      </trkpt>
      <trkpt lat="43.63885" lon="3.82793">
        <ele>135.5</ele>
        <time>2013-05-30T13:25:27.18</time>
      </trkpt>
      <trkpt lat="43.63882" lon="3.82791">
        <ele>135</ele>
        <time>2013-05-30T13:25:28.18</time>
      </trkpt>
      <trkpt lat="43.63878" lon="3.82792">
        <ele>135</ele>
        <time>2013-05-30T13:25:29.18</time>
      </trkpt>
      <trkpt lat="43.63874" lon="3.82796">
        <ele>135</ele>
        <time>2013-05-30T13:25:30.17</time>
      </trkpt>
      <trkpt lat="43.63871" lon="3.82799">
        <ele>135.5</ele>
        <time>2013-05-30T13:25:31.18</time>
      </trkpt>
      <trkpt lat="43.63867" lon="3.82801">
        <ele>135.5</ele>
        <time>2013-05-30T13:25:32.17</time>
      </trkpt>
      <trkpt lat="43.63863" lon="3.82804">
        <ele>136</ele>
        <time>2013-05-30T13:25:33.18</time>
      </trkpt>
      <trkpt lat="43.6386" lon="3.82807">
        <ele>136.5</ele>
        <time>2013-05-30T13:25:34.18</time>
      </trkpt>
      <trkpt lat="43.63855" lon="3.8281">
        <ele>135.5</ele>
        <time>2013-05-30T13:25:35.17</time>
      </trkpt>
      <trkpt lat="43.63851" lon="3.82813">
        <ele>135</ele>
        <time>2013-05-30T13:25:36.17</time>
      </trkpt>
      <trkpt lat="43.63846" lon="3.82816">
        <ele>133.5</ele>
        <time>2013-05-30T13:25:37.18</time>
      </trkpt>
      <trkpt lat="43.6384" lon="3.82816">
        <ele>133.5</ele>
        <time>2013-05-30T13:25:38.17</time>
      </trkpt>
      <trkpt lat="43.63832" lon="3.82814">
        <ele>134</ele>
        <time>2013-05-30T13:25:40.17</time>
      </trkpt>
      <trkpt lat="43.63829" lon="3.82812">
        <ele>134</ele>
        <time>2013-05-30T13:25:41.18</time>
      </trkpt>
      <trkpt lat="43.63825" lon="3.82811">
        <ele>134</ele>
        <time>2013-05-30T13:25:42.17</time>
      </trkpt>
      <trkpt lat="43.6382" lon="3.82812">
        <ele>133</ele>
        <time>2013-05-30T13:25:43.18</time>
      </trkpt>
      <trkpt lat="43.63816" lon="3.82812">
        <ele>132</ele>
        <time>2013-05-30T13:25:44.17</time>
      </trkpt>
      <trkpt lat="43.63812" lon="3.82813">
        <ele>131.5</ele>
        <time>2013-05-30T13:25:45.17</time>
      </trkpt>
      <trkpt lat="43.63808" lon="3.82815">
        <ele>131</ele>
        <time>2013-05-30T13:25:46.17</time>
      </trkpt>
      <trkpt lat="43.63804" lon="3.82816">
        <ele>131</ele>
        <time>2013-05-30T13:25:47.17</time>
      </trkpt>
      <trkpt lat="43.63801" lon="3.82818">
        <ele>132</ele>
        <time>2013-05-30T13:25:48.18</time>
      </trkpt>
      <trkpt lat="43.63797" lon="3.82819">
        <ele>131.5</ele>
        <time>2013-05-30T13:25:49.17</time>
      </trkpt>
      <trkpt lat="43.63793" lon="3.8282">
        <ele>131.5</ele>
        <time>2013-05-30T13:25:50.17</time>
      </trkpt>
      <trkpt lat="43.63789" lon="3.82822">
        <ele>131</ele>
        <time>2013-05-30T13:25:51.17</time>
      </trkpt>
      <trkpt lat="43.63784" lon="3.82823">
        <ele>130.5</ele>
        <time>2013-05-30T13:25:52.18</time>
      </trkpt>
      <trkpt lat="43.63782" lon="3.82829">
        <ele>130.5</ele>
        <time>2013-05-30T13:25:54.17</time>
      </trkpt>
      <trkpt lat="43.63781" lon="3.82832">
        <ele>129</ele>
        <time>2013-05-30T13:25:55.17</time>
      </trkpt>
      <trkpt lat="43.6378" lon="3.82834">
        <ele>127</ele>
        <time>2013-05-30T13:25:56.17</time>
      </trkpt>
      <trkpt lat="43.6378" lon="3.82836">
        <ele>125.5</ele>
        <time>2013-05-30T13:25:57.17</time>
      </trkpt>
      <trkpt lat="43.63781" lon="3.82838">
        <ele>124.5</ele>
        <time>2013-05-30T13:25:58.17</time>
      </trkpt>
      <trkpt lat="43.63782" lon="3.82841">
        <ele>124.5</ele>
        <time>2013-05-30T13:25:59.18</time>
      </trkpt>
      <trkpt lat="43.63783" lon="3.82845">
        <ele>124.5</ele>
        <time>2013-05-30T13:26:00.17</time>
      </trkpt>
      <trkpt lat="43.63785" lon="3.82849">
        <ele>125</ele>
        <time>2013-05-30T13:26:01.17</time>
      </trkpt>
      <trkpt lat="43.63785" lon="3.82854">
        <ele>125</ele>
        <time>2013-05-30T13:26:02.18</time>
      </trkpt>
      <trkpt lat="43.63785" lon="3.82858">
        <ele>125.5</ele>
        <time>2013-05-30T13:26:03.18</time>
      </trkpt>
      <trkpt lat="43.63782" lon="3.82859">
        <ele>126</ele>
        <time>2013-05-30T13:26:04.18</time>
      </trkpt>
      <trkpt lat="43.63781" lon="3.82858">
        <ele>126</ele>
        <time>2013-05-30T13:26:05.18</time>
      </trkpt>
      <trkpt lat="43.63778" lon="3.82858">
        <ele>125.5</ele>
        <time>2013-05-30T13:26:06.18</time>
      </trkpt>
      <trkpt lat="43.63776" lon="3.82856">
        <ele>125.5</ele>
        <time>2013-05-30T13:26:07.18</time>
      </trkpt>
      <trkpt lat="43.63774" lon="3.82855">
        <ele>126</ele>
        <time>2013-05-30T13:26:08.16</time>
      </trkpt>
      <trkpt lat="43.63774" lon="3.82853">
        <ele>124.5</ele>
        <time>2013-05-30T13:26:09.20</time>
      </trkpt>
      <trkpt lat="43.63774" lon="3.82854">
        <ele>124.5</ele>
        <time>2013-05-30T13:26:10.18</time>
      </trkpt>
      <trkpt lat="43.63774" lon="3.82854">
        <ele>124.5</ele>
        <time>2013-05-30T13:26:11.40</time>
      </trkpt>
    </trkseg>
  </trk>
</gpx>